<?xml version='1.0' encoding='UTF-8'?><gpx version="1.1" creator="JPX - https://github.com/jenetics/jpx" xmlns="http://www.topografix.com/GPX/1/1"><trk><trkseg><trkpt lat="44.96677968657072" lon="9.147781832446563"><ele>134.0</ele><time>2026-05-01T06:21:16.096Z</time></trkpt><trkpt lat="44.96681256847562" lon="9.147861731312819"><ele>134.0</ele><time>2026-05-01T06:24:21.999Z</time></trkpt><trkpt lat="44.96682403229174" lon="9.1479583226031"><ele>134.0</ele><time>2026-05-01T06:24:33.999Z</time></trkpt><trkpt lat="44.96687161396253" lon="9.148040240085148"><ele>134.0</ele><time>2026-05-01T06:24:54.999Z</time></trkpt><trkpt lat="44.966811607081326" lon="9.14796860581248"><ele>134.0</ele><time>2026-05-01T06:24:59.999Z</time></trkpt><trkpt lat="44.96675024031847" lon="9.147899830783217"><ele>134.0</ele><time>2026-05-01T06:25:01.999Z</time></trkpt><trkpt lat="44.96670909412703" lon="9.147811633007585"><ele>134.0</ele><time>2026-05-01T06:25:03.999Z</time></trkpt><trkpt lat="44.96662702979672" lon="9.147752943647992"><ele>134.8</ele><time>2026-05-01T06:25:05.999Z</time></trkpt><trkpt lat="44.96657525089356" lon="9.147677643517488"><ele>135.60000000000002</ele><time>2026-05-01T06:25:07.999Z</time></trkpt><trkpt lat="44.9664444459329" lon="9.14777478237156"><ele>136.4</ele><time>2026-05-01T06:25:10.999Z</time></trkpt><trkpt lat="44.96637918633513" lon="9.147854133867991"><ele>137.20000000000002</ele><time>2026-05-01T06:25:12.999Z</time></trkpt><trkpt lat="44.966315715268884" lon="9.147954228558003"><ele>138.0</ele><time>2026-05-01T06:25:14.999Z</time></trkpt><trkpt lat="44.966274694885094" lon="9.148026893272347"><ele>138.0</ele><time>2026-05-01T06:25:16.999Z</time></trkpt><trkpt lat="44.966239498470046" lon="9.148101329182492"><ele>138.0</ele><time>2026-05-01T06:25:18.999Z</time></trkpt><trkpt lat="44.96620902130733" lon="9.148180904369475"><ele>138.0</ele><time>2026-05-01T06:25:20.999Z</time></trkpt><trkpt lat="44.966156715556366" lon="9.148258781618601"><ele>138.0</ele><time>2026-05-01T06:25:22.999Z</time></trkpt><trkpt lat="44.966121374939654" lon="9.14835277579863"><ele>138.0</ele><time>2026-05-01T06:25:24.999Z</time></trkpt><trkpt lat="44.96607504501683" lon="9.148423767727113"><ele>138.0</ele><time>2026-05-01T06:25:26.998Z</time></trkpt><trkpt lat="44.966010945621406" lon="9.148494098946655"><ele>138.0</ele><time>2026-05-01T06:25:28.998Z</time></trkpt><trkpt lat="44.965959628966054" lon="9.148576201388178"><ele>138.28571428571428</ele><time>2026-05-01T06:25:31Z</time></trkpt><trkpt lat="44.96590284080657" lon="9.148665234351563"><ele>138.57142857142858</ele><time>2026-05-01T06:25:33Z</time></trkpt><trkpt lat="44.96585738611555" lon="9.148728870585087"><ele>138.85714285714286</ele><time>2026-05-01T06:25:35Z</time></trkpt><trkpt lat="44.965825332311056" lon="9.148813018871568"><ele>139.14285714285714</ele><time>2026-05-01T06:25:37Z</time></trkpt><trkpt lat="44.96580732358591" lon="9.1489143444009"><ele>139.42857142857144</ele><time>2026-05-01T06:25:39Z</time></trkpt><trkpt lat="44.96576132827372" lon="9.149000303734342"><ele>139.71428571428572</ele><time>2026-05-01T06:25:41Z</time></trkpt><trkpt lat="44.96571626359127" lon="9.149096091182958"><ele>140.0</ele><time>2026-05-01T06:25:43Z</time></trkpt><trkpt lat="44.96566766388222" lon="9.149196629504925"><ele>141.0</ele><time>2026-05-01T06:25:46Z</time></trkpt><trkpt lat="44.96561794224843" lon="9.14929205696276"><ele>142.0</ele><time>2026-05-01T06:25:49Z</time></trkpt><trkpt lat="44.96550993325959" lon="9.149279925779524"><ele>143.0</ele><time>2026-05-01T06:25:52Z</time></trkpt><trkpt lat="44.96543507072254" lon="9.149282868516265"><ele>144.0</ele><time>2026-05-01T06:25:54Z</time></trkpt><trkpt lat="44.9653407159385" lon="9.149301144917663"><ele>145.0</ele><time>2026-05-01T06:25:57Z</time></trkpt><trkpt lat="44.96525832946313" lon="9.14934487483236"><ele>145.0</ele><time>2026-05-01T06:26:00Z</time></trkpt><trkpt lat="44.96521187033701" lon="9.149417483520388"><ele>145.0</ele><time>2026-05-01T06:26:02Z</time></trkpt><trkpt lat="44.9651584288624" lon="9.149472386674947"><ele>145.0</ele><time>2026-05-01T06:26:04Z</time></trkpt><trkpt lat="44.96510777806684" lon="9.149582430450115"><ele>145.0</ele><time>2026-05-01T06:26:07Z</time></trkpt><trkpt lat="44.96507115088037" lon="9.149666076930416"><ele>145.0</ele><time>2026-05-01T06:26:09Z</time></trkpt><trkpt lat="44.96502402211831" lon="9.14973951768789"><ele>145.0</ele><time>2026-05-01T06:26:11Z</time></trkpt><trkpt lat="44.96497268575323" lon="9.149823371949719"><ele>145.0</ele><time>2026-05-01T06:26:13Z</time></trkpt><trkpt lat="44.96493198151577" lon="9.149900746052197"><ele>146.33333333333334</ele><time>2026-05-01T06:26:15Z</time></trkpt><trkpt lat="44.96486698972704" lon="9.1499965013812"><ele>147.66666666666669</ele><time>2026-05-01T06:26:18Z</time></trkpt><trkpt lat="44.96480829834874" lon="9.150080927279221"><ele>149.0</ele><time>2026-05-01T06:26:21Z</time></trkpt><trkpt lat="44.96471123260268" lon="9.150183265357425"><ele>150.33333333333334</ele><time>2026-05-01T06:26:23Z</time></trkpt><trkpt lat="44.96467286537762" lon="9.150263404340157"><ele>151.66666666666666</ele><time>2026-05-01T06:26:25Z</time></trkpt><trkpt lat="44.964624536173254" lon="9.150344138179312"><ele>153.0</ele><time>2026-05-01T06:26:27Z</time></trkpt><trkpt lat="44.96457869021253" lon="9.150415613970946"><ele>153.0</ele><time>2026-05-01T06:26:29Z</time></trkpt><trkpt lat="44.96451133279116" lon="9.150509494924846"><ele>153.0</ele><time>2026-05-01T06:26:31.999Z</time></trkpt><trkpt lat="44.96444536114507" lon="9.150599771935712"><ele>153.0</ele><time>2026-05-01T06:26:34.999Z</time></trkpt><trkpt lat="44.964385380693315" lon="9.150632809437509"><ele>153.0</ele><time>2026-05-01T06:26:36.999Z</time></trkpt><trkpt lat="44.96431271370682" lon="9.150696142597377"><ele>153.0</ele><time>2026-05-01T06:26:38.999Z</time></trkpt><trkpt lat="44.96421502507697" lon="9.150724913708656"><ele>153.0</ele><time>2026-05-01T06:26:40.999Z</time></trkpt><trkpt lat="44.96413547050298" lon="9.15073925039277"><ele>153.0</ele><time>2026-05-01T06:26:42.999Z</time></trkpt><trkpt lat="44.964052028751524" lon="9.150748409907706"><ele>153.0</ele><time>2026-05-01T06:26:44.999Z</time></trkpt><trkpt lat="44.96397540892133" lon="9.150758681312645"><ele>153.0</ele><time>2026-05-01T06:26:46.999Z</time></trkpt><trkpt lat="44.963904457409605" lon="9.150806109621703"><ele>153.0</ele><time>2026-05-01T06:26:48.999Z</time></trkpt><trkpt lat="44.96381923587206" lon="9.150828293349193"><ele>153.0</ele><time>2026-05-01T06:26:50.999Z</time></trkpt><trkpt lat="44.96372859899286" lon="9.150898274741065"><ele>153.0</ele><time>2026-05-01T06:26:52.999Z</time></trkpt><trkpt lat="44.96362960637693" lon="9.15096117707068"><ele>153.0</ele><time>2026-05-01T06:26:54.999Z</time></trkpt><trkpt lat="44.96353462383277" lon="9.151045302242284"><ele>153.0</ele><time>2026-05-01T06:26:56.999Z</time></trkpt><trkpt lat="44.96342618879425" lon="9.151123871393033"><ele>153.0</ele><time>2026-05-01T06:26:58.999Z</time></trkpt><trkpt lat="44.96334958428401" lon="9.151247646552445"><ele>153.0</ele><time>2026-05-01T06:27:00.999Z</time></trkpt><trkpt lat="44.963278006241474" lon="9.151320760928742"><ele>153.0</ele><time>2026-05-01T06:27:02.999Z</time></trkpt><trkpt lat="44.96321358704726" lon="9.151428692982204"><ele>153.6</ele><time>2026-05-01T06:27:04.999Z</time></trkpt><trkpt lat="44.96316374086111" lon="9.151531057691232"><ele>154.20000000000002</ele><time>2026-05-01T06:27:06.999Z</time></trkpt><trkpt lat="44.96310730522624" lon="9.151643777982235"><ele>154.8</ele><time>2026-05-01T06:27:08.999Z</time></trkpt><trkpt lat="44.96304632523708" lon="9.151739961839297"><ele>155.4</ele><time>2026-05-01T06:27:10.999Z</time></trkpt><trkpt lat="44.96298172690931" lon="9.151846780996998"><ele>156.0</ele><time>2026-05-01T06:27:12.999Z</time></trkpt><trkpt lat="44.962927198328586" lon="9.151958219346051"><ele>156.0</ele><time>2026-05-01T06:27:14.999Z</time></trkpt><trkpt lat="44.962853187965216" lon="9.152038763283015"><ele>156.0</ele><time>2026-05-01T06:27:16.999Z</time></trkpt><trkpt lat="44.96279544086252" lon="9.152107508585745"><ele>156.0</ele><time>2026-05-01T06:27:18.999Z</time></trkpt><trkpt lat="44.96272363829269" lon="9.152188126889135"><ele>156.0</ele><time>2026-05-01T06:27:20.999Z</time></trkpt><trkpt lat="44.96265056499233" lon="9.152278887547954"><ele>156.0</ele><time>2026-05-01T06:27:22.999Z</time></trkpt><trkpt lat="44.962598349341114" lon="9.152376340748104"><ele>156.0</ele><time>2026-05-01T06:27:24.999Z</time></trkpt><trkpt lat="44.96253490600683" lon="9.152458334720619"><ele>156.5</ele><time>2026-05-01T06:27:26.999Z</time></trkpt><trkpt lat="44.962469062569184" lon="9.152522977997714"><ele>157.0</ele><time>2026-05-01T06:27:28.999Z</time></trkpt><trkpt lat="44.962398050249746" lon="9.152617094188168"><ele>157.5</ele><time>2026-05-01T06:27:30.999Z</time></trkpt><trkpt lat="44.96233924372206" lon="9.15267722518791"><ele>158.0</ele><time>2026-05-01T06:27:32.999Z</time></trkpt><trkpt lat="44.9622797244006" lon="9.152754089899851"><ele>158.5</ele><time>2026-05-01T06:27:34.999Z</time></trkpt><trkpt lat="44.962215951054226" lon="9.15285735546737"><ele>159.0</ele><time>2026-05-01T06:27:37Z</time></trkpt><trkpt lat="44.96214057594519" lon="9.15294876633878"><ele>159.0</ele><time>2026-05-01T06:27:39Z</time></trkpt><trkpt lat="44.9620667052051" lon="9.153039250645364"><ele>159.0</ele><time>2026-05-01T06:27:41Z</time></trkpt><trkpt lat="44.96199725892798" lon="9.153126474786987"><ele>159.0</ele><time>2026-05-01T06:27:43Z</time></trkpt><trkpt lat="44.96191008624051" lon="9.153225711206217"><ele>159.0</ele><time>2026-05-01T06:27:45Z</time></trkpt><trkpt lat="44.96183870184493" lon="9.153308877709987"><ele>159.0</ele><time>2026-05-01T06:27:47Z</time></trkpt><trkpt lat="44.96177226773857" lon="9.153395663201565"><ele>158.8</ele><time>2026-05-01T06:27:49Z</time></trkpt><trkpt lat="44.9616892214294" lon="9.15347878254003"><ele>158.60000000000002</ele><time>2026-05-01T06:27:51Z</time></trkpt><trkpt lat="44.9616060858762" lon="9.153546085386955"><ele>158.4</ele><time>2026-05-01T06:27:53Z</time></trkpt><trkpt lat="44.96154046714876" lon="9.153637298233763"><ele>158.20000000000002</ele><time>2026-05-01T06:27:55Z</time></trkpt><trkpt lat="44.96145813984489" lon="9.153720285284605"><ele>158.0</ele><time>2026-05-01T06:27:57Z</time></trkpt><trkpt lat="44.96138683896832" lon="9.153790471812828"><ele>158.0</ele><time>2026-05-01T06:27:59Z</time></trkpt><trkpt lat="44.9613111825117" lon="9.153882010177545"><ele>158.0</ele><time>2026-05-01T06:28:01Z</time></trkpt><trkpt lat="44.96125314557915" lon="9.153952079394475"><ele>158.0</ele><time>2026-05-01T06:28:03Z</time></trkpt><trkpt lat="44.96117447680313" lon="9.154050274192596"><ele>158.0</ele><time>2026-05-01T06:28:05Z</time></trkpt><trkpt lat="44.96107846747915" lon="9.154141255414759"><ele>158.0</ele><time>2026-05-01T06:28:07Z</time></trkpt><trkpt lat="44.96099525587368" lon="9.154228022839618"><ele>157.8</ele><time>2026-05-01T06:28:09Z</time></trkpt><trkpt lat="44.96091724882187" lon="9.154320503607373"><ele>157.60000000000002</ele><time>2026-05-01T06:28:11Z</time></trkpt><trkpt lat="44.960824453853306" lon="9.154414115611043"><ele>157.39999999999998</ele><time>2026-05-01T06:28:13Z</time></trkpt><trkpt lat="44.96074935667083" lon="9.154500500935612"><ele>157.2</ele><time>2026-05-01T06:28:15Z</time></trkpt><trkpt lat="44.9606839990327" lon="9.154567625646507"><ele>157.0</ele><time>2026-05-01T06:28:17Z</time></trkpt><trkpt lat="44.96061695582756" lon="9.154649356372106"><ele>157.0</ele><time>2026-05-01T06:28:19Z</time></trkpt><trkpt lat="44.96054628332352" lon="9.154718367436184"><ele>157.0</ele><time>2026-05-01T06:28:21Z</time></trkpt><trkpt lat="44.960478536439425" lon="9.154795046505292"><ele>157.0</ele><time>2026-05-01T06:28:23Z</time></trkpt><trkpt lat="44.96041619706732" lon="9.154879873067562"><ele>157.0</ele><time>2026-05-01T06:28:25Z</time></trkpt><trkpt lat="44.96036113295968" lon="9.154958934520899"><ele>157.0</ele><time>2026-05-01T06:28:27Z</time></trkpt><trkpt lat="44.96029285962811" lon="9.155033793306316"><ele>157.0</ele><time>2026-05-01T06:28:29Z</time></trkpt><trkpt lat="44.9602284618772" lon="9.155108728785715"><ele>157.6</ele><time>2026-05-01T06:28:31Z</time></trkpt><trkpt lat="44.96016911895268" lon="9.155181752406444"><ele>158.2</ele><time>2026-05-01T06:28:33Z</time></trkpt><trkpt lat="44.96010608882867" lon="9.155265566689565"><ele>158.8</ele><time>2026-05-01T06:28:34.999Z</time></trkpt><trkpt lat="44.960045812225445" lon="9.155362339564716"><ele>159.4</ele><time>2026-05-01T06:28:36.999Z</time></trkpt><trkpt lat="44.95996888692583" lon="9.155476790744851"><ele>160.0</ele><time>2026-05-01T06:28:39.999Z</time></trkpt><trkpt lat="44.95994105518833" lon="9.155596431962264"><ele>160.0</ele><time>2026-05-01T06:28:41.999Z</time></trkpt><trkpt lat="44.95987107055184" lon="9.15569533870603"><ele>160.0</ele><time>2026-05-01T06:28:43.999Z</time></trkpt><trkpt lat="44.959807649636254" lon="9.155771813883812"><ele>160.0</ele><time>2026-05-01T06:28:45.999Z</time></trkpt><trkpt lat="44.95975068948687" lon="9.155865571547091"><ele>160.0</ele><time>2026-05-01T06:28:47.999Z</time></trkpt><trkpt lat="44.959695480370705" lon="9.15596835054631"><ele>160.0</ele><time>2026-05-01T06:28:49.999Z</time></trkpt><trkpt lat="44.95964397908217" lon="9.156066513090256"><ele>160.0</ele><time>2026-05-01T06:28:51.999Z</time></trkpt><trkpt lat="44.959592790470225" lon="9.156149314338952"><ele>161.16666666666669</ele><time>2026-05-01T06:28:53.999Z</time></trkpt><trkpt lat="44.95954255792587" lon="9.156216151909168"><ele>162.33333333333334</ele><time>2026-05-01T06:28:55.999Z</time></trkpt><trkpt lat="44.95947680436821" lon="9.156311043816611"><ele>163.5</ele><time>2026-05-01T06:28:57.999Z</time></trkpt><trkpt lat="44.95942184570966" lon="9.15641357680036"><ele>164.66666666666666</ele><time>2026-05-01T06:28:59.999Z</time></trkpt><trkpt lat="44.959389167896056" lon="9.156498688110203"><ele>165.83333333333331</ele><time>2026-05-01T06:29:01.999Z</time></trkpt><trkpt lat="44.959350819223936" lon="9.156596509823778"><ele>167.0</ele><time>2026-05-01T06:29:03.999Z</time></trkpt><trkpt lat="44.95932800801056" lon="9.156701074112057"><ele>166.5</ele><time>2026-05-01T06:29:05.999Z</time></trkpt><trkpt lat="44.959294437461544" lon="9.156804145724136"><ele>166.0</ele><time>2026-05-01T06:29:07.999Z</time></trkpt><trkpt lat="44.95924747340224" lon="9.1569281165317"><ele>165.5</ele><time>2026-05-01T06:29:09.999Z</time></trkpt><trkpt lat="44.959203433290305" lon="9.157019870554134"><ele>165.0</ele><time>2026-05-01T06:29:11.999Z</time></trkpt><trkpt lat="44.95915407511775" lon="9.157123031370444"><ele>164.5</ele><time>2026-05-01T06:29:13.999Z</time></trkpt><trkpt lat="44.9591144418179" lon="9.157210778112942"><ele>164.0</ele><time>2026-05-01T06:29:15.999Z</time></trkpt><trkpt lat="44.9590598617617" lon="9.15732847309674"><ele>165.0</ele><time>2026-05-01T06:29:17.999Z</time></trkpt><trkpt lat="44.959023838223445" lon="9.157459186141091"><ele>166.0</ele><time>2026-05-01T06:29:19.999Z</time></trkpt><trkpt lat="44.95897776455706" lon="9.15757769778519"><ele>167.0</ele><time>2026-05-01T06:29:21.999Z</time></trkpt><trkpt lat="44.95894532420541" lon="9.15770430251446"><ele>168.0</ele><time>2026-05-01T06:29:23.999Z</time></trkpt><trkpt lat="44.95889265832173" lon="9.157813568598518"><ele>169.0</ele><time>2026-05-01T06:29:25.999Z</time></trkpt><trkpt lat="44.95884167639571" lon="9.157923394335668"><ele>169.0</ele><time>2026-05-01T06:29:27.999Z</time></trkpt><trkpt lat="44.95879804016995" lon="9.15804337845275"><ele>169.0</ele><time>2026-05-01T06:29:29.999Z</time></trkpt><trkpt lat="44.9587521354239" lon="9.158141898260054"><ele>169.0</ele><time>2026-05-01T06:29:31.999Z</time></trkpt><trkpt lat="44.958715808125746" lon="9.158245979731449"><ele>169.0</ele><time>2026-05-01T06:29:33.999Z</time></trkpt><trkpt lat="44.958674720481405" lon="9.15838505813482"><ele>169.0</ele><time>2026-05-01T06:29:35.999Z</time></trkpt><trkpt lat="44.958624604666916" lon="9.158513462509527"><ele>169.39999999999998</ele><time>2026-05-01T06:29:37.999Z</time></trkpt><trkpt lat="44.958581706835226" lon="9.158628093032572"><ele>169.8</ele><time>2026-05-01T06:29:39.999Z</time></trkpt><trkpt lat="44.958566407468545" lon="9.158758693269494"><ele>170.2</ele><time>2026-05-01T06:29:42Z</time></trkpt><trkpt lat="44.9585190695094" lon="9.158874364178144"><ele>170.60000000000002</ele><time>2026-05-01T06:29:44Z</time></trkpt><trkpt lat="44.95848867196891" lon="9.159007613412202"><ele>171.0</ele><time>2026-05-01T06:29:46Z</time></trkpt><trkpt lat="44.958448276374995" lon="9.15915357828046"><ele>171.60000000000002</ele><time>2026-05-01T06:29:48Z</time></trkpt><trkpt lat="44.95841576073047" lon="9.159313477363996"><ele>172.2</ele><time>2026-05-01T06:29:50Z</time></trkpt><trkpt lat="44.95838435881805" lon="9.159412974729234"><ele>172.8</ele><time>2026-05-01T06:29:52Z</time></trkpt><trkpt lat="44.95833793840258" lon="9.159550537079065"><ele>173.39999999999998</ele><time>2026-05-01T06:29:54Z</time></trkpt><trkpt lat="44.958308102109704" lon="9.159695199191797"><ele>174.0</ele><time>2026-05-01T06:29:56Z</time></trkpt><trkpt lat="44.958280037798424" lon="9.159856179434302"><ele>173.0</ele><time>2026-05-01T06:29:58Z</time></trkpt><trkpt lat="44.958239992498925" lon="9.159994677461304"><ele>172.0</ele><time>2026-05-01T06:30:00Z</time></trkpt><trkpt lat="44.95821778126044" lon="9.160142390767813"><ele>171.0</ele><time>2026-05-01T06:30:02Z</time></trkpt><trkpt lat="44.95818596660533" lon="9.16029129200165"><ele>170.0</ele><time>2026-05-01T06:30:04Z</time></trkpt><trkpt lat="44.958145386348534" lon="9.160414983978292"><ele>169.0</ele><time>2026-05-01T06:30:06Z</time></trkpt><trkpt lat="44.958109010375566" lon="9.160564222633473"><ele>169.2</ele><time>2026-05-01T06:30:08Z</time></trkpt><trkpt lat="44.95807994912556" lon="9.160701938743678"><ele>169.39999999999998</ele><time>2026-05-01T06:30:10Z</time></trkpt><trkpt lat="44.95804944672076" lon="9.160819829995358"><ele>169.6</ele><time>2026-05-01T06:30:12Z</time></trkpt><trkpt lat="44.95799801874719" lon="9.16093386138104"><ele>169.8</ele><time>2026-05-01T06:30:14Z</time></trkpt><trkpt lat="44.95796387291052" lon="9.16106439046639"><ele>170.0</ele><time>2026-05-01T06:30:16Z</time></trkpt><trkpt lat="44.95789028426054" lon="9.16118554229189"><ele>170.0</ele><time>2026-05-01T06:30:18Z</time></trkpt><trkpt lat="44.957856272763756" lon="9.161323457530262"><ele>170.0</ele><time>2026-05-01T06:30:20Z</time></trkpt><trkpt lat="44.9578080306411" lon="9.161450339144055"><ele>170.0</ele><time>2026-05-01T06:30:22Z</time></trkpt><trkpt lat="44.95776059234405" lon="9.161580475376121"><ele>170.0</ele><time>2026-05-01T06:30:24Z</time></trkpt><trkpt lat="44.95773933800268" lon="9.161666121755704"><ele>170.0</ele><time>2026-05-01T06:30:25Z</time></trkpt><trkpt lat="44.957686576519585" lon="9.161790374985525"><ele>169.4</ele><time>2026-05-01T06:30:27Z</time></trkpt><trkpt lat="44.957642960754434" lon="9.161919369651091"><ele>168.8</ele><time>2026-05-01T06:30:29Z</time></trkpt><trkpt lat="44.957602871949916" lon="9.162022594615587"><ele>168.2</ele><time>2026-05-01T06:30:31Z</time></trkpt><trkpt lat="44.95756145419979" lon="9.162150681776364"><ele>167.6</ele><time>2026-05-01T06:30:33Z</time></trkpt><trkpt lat="44.95752756795495" lon="9.162301666710713"><ele>167.0</ele><time>2026-05-01T06:30:35Z</time></trkpt><trkpt lat="44.95748164181924" lon="9.162428849445"><ele>167.0</ele><time>2026-05-01T06:30:37Z</time></trkpt><trkpt lat="44.95743564723945" lon="9.162543266320444"><ele>167.0</ele><time>2026-05-01T06:30:38.999Z</time></trkpt><trkpt lat="44.95739264248518" lon="9.162689881419515"><ele>167.0</ele><time>2026-05-01T06:30:40.999Z</time></trkpt><trkpt lat="44.95734200437087" lon="9.16282028551093"><ele>167.0</ele><time>2026-05-01T06:30:42.999Z</time></trkpt><trkpt lat="44.95729440132531" lon="9.162955821270014"><ele>167.0</ele><time>2026-05-01T06:30:44.999Z</time></trkpt><trkpt lat="44.95725779335885" lon="9.163071297018297"><ele>168.2</ele><time>2026-05-01T06:30:46.999Z</time></trkpt><trkpt lat="44.95721355585068" lon="9.163199929690215"><ele>169.39999999999998</ele><time>2026-05-01T06:30:48.999Z</time></trkpt><trkpt lat="44.95717872668872" lon="9.163329084455013"><ele>170.60000000000002</ele><time>2026-05-01T06:30:50.999Z</time></trkpt><trkpt lat="44.95715346737849" lon="9.163458330575766"><ele>171.8</ele><time>2026-05-01T06:30:52.999Z</time></trkpt><trkpt lat="44.95711864907337" lon="9.163603602871438"><ele>173.0</ele><time>2026-05-01T06:30:54.999Z</time></trkpt><trkpt lat="44.95708475015208" lon="9.16373040340557"><ele>173.0</ele><time>2026-05-01T06:30:56.999Z</time></trkpt><trkpt lat="44.95705168599868" lon="9.163882134181838"><ele>173.0</ele><time>2026-05-01T06:30:58.999Z</time></trkpt><trkpt lat="44.957010661895225" lon="9.164010091307917"><ele>173.0</ele><time>2026-05-01T06:31:00.999Z</time></trkpt><trkpt lat="44.956974607973244" lon="9.164132658943846"><ele>173.0</ele><time>2026-05-01T06:31:02.999Z</time></trkpt><trkpt lat="44.95693678090389" lon="9.164253208665802"><ele>173.0</ele><time>2026-05-01T06:31:04.999Z</time></trkpt><trkpt lat="44.95689549720405" lon="9.164394225578706"><ele>172.4</ele><time>2026-05-01T06:31:06.999Z</time></trkpt><trkpt lat="44.95685652772407" lon="9.164531701524767"><ele>171.8</ele><time>2026-05-01T06:31:08.999Z</time></trkpt><trkpt lat="44.95681615704289" lon="9.164677714342998"><ele>171.2</ele><time>2026-05-01T06:31:10.999Z</time></trkpt><trkpt lat="44.95678130442753" lon="9.16482191294024"><ele>170.6</ele><time>2026-05-01T06:31:12.999Z</time></trkpt><trkpt lat="44.956739769235504" lon="9.164955359671255"><ele>170.0</ele><time>2026-05-01T06:31:14.999Z</time></trkpt><trkpt lat="44.956701656867416" lon="9.165103782662356"><ele>170.0</ele><time>2026-05-01T06:31:16.999Z</time></trkpt><trkpt lat="44.95666532070137" lon="9.165249990326084"><ele>170.0</ele><time>2026-05-01T06:31:18.999Z</time></trkpt><trkpt lat="44.956623808975195" lon="9.165388010976406"><ele>170.0</ele><time>2026-05-01T06:31:20.999Z</time></trkpt><trkpt lat="44.956587048660325" lon="9.165520469261748"><ele>170.0</ele><time>2026-05-01T06:31:22.999Z</time></trkpt><trkpt lat="44.95656041544347" lon="9.16568823163683"><ele>170.0</ele><time>2026-05-01T06:31:24.999Z</time></trkpt><trkpt lat="44.95651861539191" lon="9.16583325517617"><ele>170.5</ele><time>2026-05-01T06:31:26.999Z</time></trkpt><trkpt lat="44.95650054104315" lon="9.165984929298148"><ele>171.0</ele><time>2026-05-01T06:31:28.999Z</time></trkpt><trkpt lat="44.95647322063568" lon="9.166121769280998"><ele>171.5</ele><time>2026-05-01T06:31:30.999Z</time></trkpt><trkpt lat="44.95644483945431" lon="9.166299085464606"><ele>172.0</ele><time>2026-05-01T06:31:32.999Z</time></trkpt><trkpt lat="44.956428633704526" lon="9.166480308226184"><ele>172.39999999999998</ele><time>2026-05-01T06:31:34.999Z</time></trkpt><trkpt lat="44.95640571297883" lon="9.16665460381772"><ele>172.79999999999998</ele><time>2026-05-01T06:31:36.999Z</time></trkpt><trkpt lat="44.956386591780515" lon="9.16673993825498"><ele>173.2</ele><time>2026-05-01T06:31:37.999Z</time></trkpt><trkpt lat="44.95635187850148" lon="9.166895700977111"><ele>173.6</ele><time>2026-05-01T06:31:39.999Z</time></trkpt><trkpt lat="44.95630461303194" lon="9.167039368457818"><ele>174.0</ele><time>2026-05-01T06:31:41.999Z</time></trkpt><trkpt lat="44.95625244548061" lon="9.167154332558205"><ele>174.0</ele><time>2026-05-01T06:31:43.999Z</time></trkpt><trkpt lat="44.956210449056734" lon="9.167236485528285"><ele>174.0</ele><time>2026-05-01T06:31:44.999Z</time></trkpt><trkpt lat="44.95616971453449" lon="9.167371703499096"><ele>174.0</ele><time>2026-05-01T06:31:46.999Z</time></trkpt><trkpt lat="44.95615375463154" lon="9.167507304615079"><ele>174.0</ele><time>2026-05-01T06:31:49Z</time></trkpt><trkpt lat="44.95609429965543" lon="9.167630021680166"><ele>174.0</ele><time>2026-05-01T06:31:51Z</time></trkpt><trkpt lat="44.956052030775226" lon="9.16776146866728"><ele>173.79999999999998</ele><time>2026-05-01T06:31:53Z</time></trkpt><trkpt lat="44.956004783081994" lon="9.167894181718372"><ele>173.6</ele><time>2026-05-01T06:31:55Z</time></trkpt><trkpt lat="44.955967562096596" lon="9.168029614826999"><ele>173.4</ele><time>2026-05-01T06:31:57Z</time></trkpt><trkpt lat="44.95592989039229" lon="9.168172190598074"><ele>173.2</ele><time>2026-05-01T06:31:59Z</time></trkpt><trkpt lat="44.95588211050265" lon="9.16831059390564"><ele>173.0</ele><time>2026-05-01T06:32:01Z</time></trkpt><trkpt lat="44.95582478027124" lon="9.168433557311571"><ele>173.0</ele><time>2026-05-01T06:32:03Z</time></trkpt><trkpt lat="44.9557638108475" lon="9.16852152107095"><ele>173.0</ele><time>2026-05-01T06:32:05Z</time></trkpt><trkpt lat="44.955721604922125" lon="9.168632282936368"><ele>173.0</ele><time>2026-05-01T06:32:07Z</time></trkpt><trkpt lat="44.95570895934591" lon="9.1687196687039"><ele>173.0</ele><time>2026-05-01T06:32:08Z</time></trkpt><trkpt lat="44.95564854084293" lon="9.168819546439424"><ele>173.0</ele><time>2026-05-01T06:32:10Z</time></trkpt><trkpt lat="44.95560184499605" lon="9.168946306239357"><ele>173.0</ele><time>2026-05-01T06:32:12Z</time></trkpt><trkpt lat="44.955563554545996" lon="9.16907315223397"><ele>172.8</ele><time>2026-05-01T06:32:14Z</time></trkpt><trkpt lat="44.955509141759045" lon="9.16919139659324"><ele>172.60000000000002</ele><time>2026-05-01T06:32:16Z</time></trkpt><trkpt lat="44.95546583441213" lon="9.169311456948595"><ele>172.39999999999998</ele><time>2026-05-01T06:32:18Z</time></trkpt><trkpt lat="44.95540980703915" lon="9.169446179477212"><ele>172.2</ele><time>2026-05-01T06:32:20Z</time></trkpt><trkpt lat="44.95537757829931" lon="9.169571559489565"><ele>172.0</ele><time>2026-05-01T06:32:22Z</time></trkpt><trkpt lat="44.955349323371394" lon="9.169703581079089"><ele>172.0</ele><time>2026-05-01T06:32:24Z</time></trkpt><trkpt lat="44.955294972003074" lon="9.169822510829258"><ele>172.0</ele><time>2026-05-01T06:32:26Z</time></trkpt><trkpt lat="44.95528392680459" lon="9.169946114511989"><ele>172.0</ele><time>2026-05-01T06:32:28Z</time></trkpt><trkpt lat="44.955251303492304" lon="9.170078505080882"><ele>172.0</ele><time>2026-05-01T06:32:30Z</time></trkpt><trkpt lat="44.95522396686455" lon="9.170218580827246"><ele>172.0</ele><time>2026-05-01T06:32:32Z</time></trkpt><trkpt lat="44.95518333716781" lon="9.170364851167282"><ele>172.0</ele><time>2026-05-01T06:32:34Z</time></trkpt><trkpt lat="44.95513875670928" lon="9.170493021906193"><ele>172.0</ele><time>2026-05-01T06:32:36Z</time></trkpt><trkpt lat="44.955097080361746" lon="9.170627556037838"><ele>172.0</ele><time>2026-05-01T06:32:38Z</time></trkpt><trkpt lat="44.95508309442993" lon="9.170718537744726"><ele>172.0</ele><time>2026-05-01T06:32:39Z</time></trkpt><trkpt lat="44.955051368765965" lon="9.170863023923925"><ele>172.0</ele><time>2026-05-01T06:32:41Z</time></trkpt><trkpt lat="44.955009004995404" lon="9.170974556251469"><ele>172.0</ele><time>2026-05-01T06:32:42.999Z</time></trkpt><trkpt lat="44.95495986796365" lon="9.171070862667333"><ele>172.0</ele><time>2026-05-01T06:32:44.999Z</time></trkpt><trkpt lat="44.95491371296877" lon="9.171189182515509"><ele>172.0</ele><time>2026-05-01T06:32:46.999Z</time></trkpt><trkpt lat="44.95486185531649" lon="9.17131098330585"><ele>172.0</ele><time>2026-05-01T06:32:48.999Z</time></trkpt><trkpt lat="44.95483265962541" lon="9.17139222631026"><ele>172.0</ele><time>2026-05-01T06:32:49.999Z</time></trkpt><trkpt lat="44.95479560416807" lon="9.171474515814904"><ele>172.0</ele><time>2026-05-01T06:32:51.999Z</time></trkpt><trkpt lat="44.954758708240966" lon="9.17160842872288"><ele>172.2</ele><time>2026-05-01T06:32:53.999Z</time></trkpt><trkpt lat="44.95470146798837" lon="9.171733276433683"><ele>172.39999999999998</ele><time>2026-05-01T06:32:55.999Z</time></trkpt><trkpt lat="44.95465607101181" lon="9.171861523254156"><ele>172.60000000000002</ele><time>2026-05-01T06:32:57.999Z</time></trkpt><trkpt lat="44.9545927245748" lon="9.171988623779988"><ele>172.8</ele><time>2026-05-01T06:32:59.999Z</time></trkpt><trkpt lat="44.95454138156664" lon="9.172133541630659"><ele>173.0</ele><time>2026-05-01T06:33:01.999Z</time></trkpt><trkpt lat="44.95448618532279" lon="9.17226200238765"><ele>173.4</ele><time>2026-05-01T06:33:03.999Z</time></trkpt><trkpt lat="44.954444562926184" lon="9.172362681624582"><ele>173.8</ele><time>2026-05-01T06:33:05.999Z</time></trkpt><trkpt lat="44.95439164042916" lon="9.17244833259964"><ele>174.2</ele><time>2026-05-01T06:33:07.999Z</time></trkpt><trkpt lat="44.95432678529819" lon="9.172564741398281"><ele>174.6</ele><time>2026-05-01T06:33:09.999Z</time></trkpt><trkpt lat="44.954263958350126" lon="9.172674307319545"><ele>175.0</ele><time>2026-05-01T06:33:11.999Z</time></trkpt><trkpt lat="44.95421734285741" lon="9.172780336887792"><ele>175.2</ele><time>2026-05-01T06:33:13.999Z</time></trkpt><trkpt lat="44.95416280636075" lon="9.172908623575704"><ele>175.4</ele><time>2026-05-01T06:33:15.999Z</time></trkpt><trkpt lat="44.95410211442772" lon="9.173033199818391"><ele>175.60000000000002</ele><time>2026-05-01T06:33:17.999Z</time></trkpt><trkpt lat="44.9540692156277" lon="9.173159896082836"><ele>175.8</ele><time>2026-05-01T06:33:19.999Z</time></trkpt><trkpt lat="44.95401514754934" lon="9.173292117055597"><ele>176.0</ele><time>2026-05-01T06:33:21.999Z</time></trkpt><trkpt lat="44.95400293282252" lon="9.173404666391555"><ele>176.0</ele><time>2026-05-01T06:33:23.999Z</time></trkpt><trkpt lat="44.9539884479964" lon="9.173507537030186"><ele>176.0</ele><time>2026-05-01T06:33:25.999Z</time></trkpt><trkpt lat="44.9539789264265" lon="9.173658176212559"><ele>176.0</ele><time>2026-05-01T06:33:27.999Z</time></trkpt><trkpt lat="44.95398678751025" lon="9.173776834928297"><ele>176.0</ele><time>2026-05-01T06:33:29.999Z</time></trkpt><trkpt lat="44.953967205327686" lon="9.173863422237547"><ele>176.0</ele><time>2026-05-01T06:33:30.999Z</time></trkpt><trkpt lat="44.953983728388174" lon="9.174004569212705"><ele>176.0</ele><time>2026-05-01T06:33:32.999Z</time></trkpt><trkpt lat="44.95398554795435" lon="9.174140422951043"><ele>176.0</ele><time>2026-05-01T06:33:34.999Z</time></trkpt><trkpt lat="44.953990491399374" lon="9.17427456525269"><ele>176.0</ele><time>2026-05-01T06:33:36.999Z</time></trkpt><trkpt lat="44.95401046296627" lon="9.174409340491923"><ele>176.0</ele><time>2026-05-01T06:33:38.999Z</time></trkpt><trkpt lat="44.95403660470485" lon="9.17456228751005"><ele>176.0</ele><time>2026-05-01T06:33:40.999Z</time></trkpt><trkpt lat="44.954064564833914" lon="9.174668492975025"><ele>176.0</ele><time>2026-05-01T06:33:42.999Z</time></trkpt><trkpt lat="44.95408687427504" lon="9.174789741037419"><ele>176.20000000000002</ele><time>2026-05-01T06:33:44.999Z</time></trkpt><trkpt lat="44.95410833090271" lon="9.174922772819887"><ele>176.4</ele><time>2026-05-01T06:33:46.999Z</time></trkpt><trkpt lat="44.95412710328379" lon="9.175030367454637"><ele>176.6</ele><time>2026-05-01T06:33:48.999Z</time></trkpt><trkpt lat="44.95413958500242" lon="9.175146619823401"><ele>176.8</ele><time>2026-05-01T06:33:50.999Z</time></trkpt><trkpt lat="44.95415880172673" lon="9.17527659593957"><ele>177.0</ele><time>2026-05-01T06:33:52.999Z</time></trkpt><trkpt lat="44.95418505172087" lon="9.175415681811646"><ele>177.0</ele><time>2026-05-01T06:33:55Z</time></trkpt><trkpt lat="44.954200468195396" lon="9.175528387227324"><ele>177.0</ele><time>2026-05-01T06:33:57Z</time></trkpt><trkpt lat="44.95421725978092" lon="9.175641974745147"><ele>177.0</ele><time>2026-05-01T06:33:59Z</time></trkpt><trkpt lat="44.954223009261035" lon="9.175762635749006"><ele>177.0</ele><time>2026-05-01T06:34:01Z</time></trkpt><trkpt lat="44.954212553176525" lon="9.175884936552839"><ele>177.0</ele><time>2026-05-01T06:34:03Z</time></trkpt><trkpt lat="44.95420079458512" lon="9.175986833451885"><ele>177.0</ele><time>2026-05-01T06:34:05Z</time></trkpt><trkpt lat="44.95419320548832" lon="9.17610872370258"><ele>177.16666666666666</ele><time>2026-05-01T06:34:07Z</time></trkpt><trkpt lat="44.95418911693431" lon="9.176234376616712"><ele>177.33333333333334</ele><time>2026-05-01T06:34:09Z</time></trkpt><trkpt lat="44.954179080437754" lon="9.176349636297845"><ele>177.5</ele><time>2026-05-01T06:34:11Z</time></trkpt><trkpt lat="44.954182740442576" lon="9.176459127282348"><ele>177.66666666666669</ele><time>2026-05-01T06:34:13Z</time></trkpt><trkpt lat="44.95415230043899" lon="9.176573076858459"><ele>177.83333333333334</ele><time>2026-05-01T06:34:15Z</time></trkpt><trkpt lat="44.95414707968248" lon="9.17666184718365"><ele>178.0</ele><time>2026-05-01T06:34:17Z</time></trkpt><trkpt lat="44.95413560941833" lon="9.176766975259934"><ele>178.5</ele><time>2026-05-01T06:34:19Z</time></trkpt><trkpt lat="44.95412577368519" lon="9.17687623058616"><ele>179.0</ele><time>2026-05-01T06:34:21Z</time></trkpt><trkpt lat="44.95412469685161" lon="9.176979995344906"><ele>179.5</ele><time>2026-05-01T06:34:23Z</time></trkpt><trkpt lat="44.95411230464717" lon="9.177080391420915"><ele>180.0</ele><time>2026-05-01T06:34:25Z</time></trkpt><trkpt lat="44.95411299989967" lon="9.177176174040005"><ele>180.5</ele><time>2026-05-01T06:34:27Z</time></trkpt><trkpt lat="44.95413977469791" lon="9.17731095093941"><ele>181.0</ele><time>2026-05-01T06:34:30Z</time></trkpt><trkpt lat="44.954179533575186" lon="9.177430148431625"><ele>182.5</ele><time>2026-05-01T06:34:33Z</time></trkpt><trkpt lat="44.95420811161376" lon="9.177530186248696"><ele>184.0</ele><time>2026-05-01T06:34:35Z</time></trkpt><trkpt lat="44.95422366823454" lon="9.177653636567404"><ele>185.5</ele><time>2026-05-01T06:34:38Z</time></trkpt><trkpt lat="44.95425300268407" lon="9.177748268420755"><ele>187.0</ele><time>2026-05-01T06:34:40Z</time></trkpt><trkpt lat="44.95429002209504" lon="9.177861127846494"><ele>188.5</ele><time>2026-05-01T06:34:43Z</time></trkpt><trkpt lat="44.95433179479131" lon="9.177964358851895"><ele>190.0</ele><time>2026-05-01T06:34:46Z</time></trkpt><trkpt lat="44.95436638169151" lon="9.178058916321714"><ele>190.0</ele><time>2026-05-01T06:34:50Z</time></trkpt><trkpt lat="44.95441373271871" lon="9.17813253313081"><ele>190.0</ele><time>2026-05-01T06:34:53Z</time></trkpt><trkpt lat="44.95446578343789" lon="9.178182798695772"><ele>190.0</ele><time>2026-05-01T06:34:55Z</time></trkpt><trkpt lat="44.95452997928199" lon="9.178281805734256"><ele>190.0</ele><time>2026-05-01T06:34:58.999Z</time></trkpt><trkpt lat="44.95458083293099" lon="9.178341571871005"><ele>190.0</ele><time>2026-05-01T06:35:00.999Z</time></trkpt><trkpt lat="44.954632976216175" lon="9.178403790491691"><ele>190.0</ele><time>2026-05-01T06:35:03.999Z</time></trkpt><trkpt lat="44.95469069139458" lon="9.178472939262354"><ele>190.0</ele><time>2026-05-01T06:35:06.999Z</time></trkpt><trkpt lat="44.95473763596905" lon="9.178541451205993"><ele>190.14285714285714</ele><time>2026-05-01T06:35:09.999Z</time></trkpt><trkpt lat="44.95478895635762" lon="9.178623692747403"><ele>190.28571428571428</ele><time>2026-05-01T06:35:12.999Z</time></trkpt><trkpt lat="44.95481324545406" lon="9.178707132300017"><ele>190.42857142857144</ele><time>2026-05-01T06:35:15.999Z</time></trkpt><trkpt lat="44.954841576265046" lon="9.178809194679719"><ele>190.57142857142856</ele><time>2026-05-01T06:35:18.999Z</time></trkpt><trkpt lat="44.95485213961308" lon="9.178898650783607"><ele>190.7142857142857</ele><time>2026-05-01T06:35:20.999Z</time></trkpt><trkpt lat="44.95484317289789" lon="9.17899951693397"><ele>190.85714285714286</ele><time>2026-05-01T06:35:23.999Z</time></trkpt><trkpt lat="44.954845616176826" lon="9.179112265804546"><ele>191.0</ele><time>2026-05-01T06:35:27.999Z</time></trkpt><trkpt lat="44.95482991266516" lon="9.179218163352397"><ele>191.66666666666666</ele><time>2026-05-01T06:35:30.999Z</time></trkpt><trkpt lat="44.9547977471328" lon="9.179316986680508"><ele>192.33333333333331</ele><time>2026-05-01T06:35:34.999Z</time></trkpt><trkpt lat="44.954773474709185" lon="9.179441582485424"><ele>193.0</ele><time>2026-05-01T06:35:39.999Z</time></trkpt><trkpt lat="44.95476319148208" lon="9.17954314129201"><ele>193.66666666666666</ele><time>2026-05-01T06:35:42.999Z</time></trkpt><trkpt lat="44.954766239141904" lon="9.179634217069397"><ele>194.33333333333334</ele><time>2026-05-01T06:35:44.999Z</time></trkpt><trkpt lat="44.954761407117516" lon="9.179745923615718"><ele>195.0</ele><time>2026-05-01T06:35:47.999Z</time></trkpt><trkpt lat="44.9547519056702" lon="9.179856602559202"><ele>195.66666666666666</ele><time>2026-05-01T06:35:50.999Z</time></trkpt><trkpt lat="44.95474108259619" lon="9.179970295780704"><ele>196.33333333333331</ele><time>2026-05-01T06:35:53.999Z</time></trkpt><trkpt lat="44.95473358287163" lon="9.180088926151992"><ele>197.0</ele><time>2026-05-01T06:35:56.999Z</time></trkpt><trkpt lat="44.95471266258351" lon="9.180211508788464"><ele>197.66666666666666</ele><time>2026-05-01T06:36:00Z</time></trkpt><trkpt lat="44.95467525421713" lon="9.180300584318363"><ele>198.33333333333331</ele><time>2026-05-01T06:36:03Z</time></trkpt><trkpt lat="44.95460942233091" lon="9.180349129859191"><ele>199.0</ele><time>2026-05-01T06:36:06Z</time></trkpt><trkpt lat="44.95454034966888" lon="9.180428041555034"><ele>198.99999999999997</ele><time>2026-05-01T06:36:09Z</time></trkpt><trkpt lat="44.95447837228862" lon="9.180481660401826"><ele>199.0</ele><time>2026-05-01T06:36:11Z</time></trkpt><trkpt lat="44.9543955812446" lon="9.180530397030983"><ele>199.0</ele><time>2026-05-01T06:36:14Z</time></trkpt><trkpt lat="44.95433271463031" lon="9.180603550749606"><ele>199.0</ele><time>2026-05-01T06:36:17Z</time></trkpt><trkpt lat="44.95427041284239" lon="9.180648734653147"><ele>198.99999999999997</ele><time>2026-05-01T06:36:19Z</time></trkpt><trkpt lat="44.95421969529325" lon="9.180729221405588"><ele>199.0</ele><time>2026-05-01T06:36:22Z</time></trkpt><trkpt lat="44.95420181174862" lon="9.18083385328119"><ele>200.49999999999997</ele><time>2026-05-01T06:36:25Z</time></trkpt><trkpt lat="44.95422040850552" lon="9.1809254616195"><ele>202.0</ele><time>2026-05-01T06:36:27Z</time></trkpt><trkpt lat="44.954258530289934" lon="9.181044806819122"><ele>203.5</ele><time>2026-05-01T06:36:30Z</time></trkpt><trkpt lat="44.95428870015552" lon="9.181138947315729"><ele>205.0</ele><time>2026-05-01T06:36:33Z</time></trkpt><trkpt lat="44.95431376745192" lon="9.181227880399694"><ele>206.49999999999997</ele><time>2026-05-01T06:36:36Z</time></trkpt><trkpt lat="44.9543491399598" lon="9.181305987214971"><ele>208.0</ele><time>2026-05-01T06:36:39Z</time></trkpt><trkpt lat="44.9543802793773" lon="9.181418063038246"><ele>209.99999999999997</ele><time>2026-05-01T06:36:42Z</time></trkpt><trkpt lat="44.9544336917514" lon="9.181520396717792"><ele>212.0</ele><time>2026-05-01T06:36:45Z</time></trkpt><trkpt lat="44.95448860315964" lon="9.18159317642603"><ele>214.0</ele><time>2026-05-01T06:36:47Z</time></trkpt><trkpt lat="44.95452822999696" lon="9.181674070425844"><ele>216.0</ele><time>2026-05-01T06:36:51Z</time></trkpt><trkpt lat="44.95458621236654" lon="9.181750261703947"><ele>217.99999999999997</ele><time>2026-05-01T06:36:55Z</time></trkpt><trkpt lat="44.95465810626468" lon="9.181843870909995"><ele>220.0</ele><time>2026-05-01T06:36:59Z</time></trkpt><trkpt lat="44.95472416202351" lon="9.181925291209655"><ele>219.99999999999997</ele><time>2026-05-01T06:37:01.999Z</time></trkpt><trkpt lat="44.95478604148954" lon="9.18198947682917"><ele>220.0</ele><time>2026-05-01T06:37:04.999Z</time></trkpt><trkpt lat="44.95485570729764" lon="9.182066728371847"><ele>220.0</ele><time>2026-05-01T06:37:07.999Z</time></trkpt><trkpt lat="44.95492101691922" lon="9.182151606462112"><ele>220.0</ele><time>2026-05-01T06:37:10.999Z</time></trkpt><trkpt lat="44.95496746560374" lon="9.182219894080486"><ele>219.99999999999997</ele><time>2026-05-01T06:37:13.999Z</time></trkpt><trkpt lat="44.95501663431389" lon="9.18230766095035"><ele>220.0</ele><time>2026-05-01T06:37:16.999Z</time></trkpt><trkpt lat="44.9550655466826" lon="9.182386105419813"><ele>222.1428571428571</ele><time>2026-05-01T06:37:19.999Z</time></trkpt><trkpt lat="44.95510572208366" lon="9.182459338484055"><ele>224.28571428571428</ele><time>2026-05-01T06:37:22.999Z</time></trkpt><trkpt lat="44.95516998466513" lon="9.182524813542628"><ele>226.42857142857142</ele><time>2026-05-01T06:37:25.999Z</time></trkpt><trkpt lat="44.95523706957964" lon="9.182585298527378"><ele>228.57142857142856</ele><time>2026-05-01T06:37:28.999Z</time></trkpt><trkpt lat="44.955289635109764" lon="9.182642396991858"><ele>230.7142857142857</ele><time>2026-05-01T06:37:31.999Z</time></trkpt><trkpt lat="44.955361818485464" lon="9.182697797808796"><ele>232.85714285714283</ele><time>2026-05-01T06:37:34.999Z</time></trkpt><trkpt lat="44.95543128033712" lon="9.182736304250179"><ele>235.0</ele><time>2026-05-01T06:37:37.999Z</time></trkpt><trkpt lat="44.955485820396525" lon="9.182798452216836"><ele>234.99999999999997</ele><time>2026-05-01T06:37:40.999Z</time></trkpt><trkpt lat="44.95554144436889" lon="9.182881385969086"><ele>235.0</ele><time>2026-05-01T06:37:43.999Z</time></trkpt><trkpt lat="44.955622382425005" lon="9.18292042719879"><ele>235.0</ele><time>2026-05-01T06:37:51.999Z</time></trkpt><trkpt lat="44.95568502217386" lon="9.182958925102518"><ele>235.0</ele><time>2026-05-01T06:37:53.999Z</time></trkpt><trkpt lat="44.95575776886958" lon="9.182959004855029"><ele>234.99999999999997</ele><time>2026-05-01T06:37:56.999Z</time></trkpt><trkpt lat="44.955826418042186" lon="9.182950949152064"><ele>235.0</ele><time>2026-05-01T06:38:00.999Z</time></trkpt><trkpt lat="44.95590595368167" lon="9.182941831432267"><ele>234.7142857142857</ele><time>2026-05-01T06:38:03.999Z</time></trkpt><trkpt lat="44.95596964892267" lon="9.18298908465915"><ele>234.4285714285714</ele><time>2026-05-01T06:38:07Z</time></trkpt><trkpt lat="44.95602435129006" lon="9.183033669702562"><ele>234.14285714285714</ele><time>2026-05-01T06:38:10Z</time></trkpt><trkpt lat="44.95607693187176" lon="9.18313748930631"><ele>233.85714285714283</ele><time>2026-05-01T06:38:13Z</time></trkpt><trkpt lat="44.956144410440054" lon="9.183151735230576"><ele>233.57142857142856</ele><time>2026-05-01T06:38:17Z</time></trkpt><trkpt lat="44.95621007216427" lon="9.183208237128449"><ele>233.28571428571428</ele><time>2026-05-01T06:38:20Z</time></trkpt><trkpt lat="44.956245479172665" lon="9.18328208151596"><ele>233.0</ele><time>2026-05-01T06:38:22Z</time></trkpt><trkpt lat="44.95629731659954" lon="9.183358074278273"><ele>235.71428571428572</ele><time>2026-05-01T06:38:25Z</time></trkpt><trkpt lat="44.95635376603699" lon="9.183414295920764"><ele>238.42857142857142</ele><time>2026-05-01T06:38:29Z</time></trkpt><trkpt lat="44.9564121494267" lon="9.183495984581999"><ele>241.14285714285714</ele><time>2026-05-01T06:38:33Z</time></trkpt><trkpt lat="44.95645793872105" lon="9.183581316773726"><ele>243.85714285714286</ele><time>2026-05-01T06:38:36Z</time></trkpt><trkpt lat="44.95650294534943" lon="9.183645247532295"><ele>246.57142857142856</ele><time>2026-05-01T06:38:39Z</time></trkpt><trkpt lat="44.95650956101299" lon="9.183744898462429"><ele>249.28571428571428</ele><time>2026-05-01T06:38:43Z</time></trkpt><trkpt lat="44.95645584690764" lon="9.183810280064229"><ele>252.0</ele><time>2026-05-01T06:38:46Z</time></trkpt><trkpt lat="44.956395941081254" lon="9.18386209652681"><ele>252.0</ele><time>2026-05-01T06:38:49Z</time></trkpt><trkpt lat="44.95632776800031" lon="9.183924424878478"><ele>252.0</ele><time>2026-05-01T06:38:54Z</time></trkpt><trkpt lat="44.956263209536125" lon="9.183973221651787"><ele>252.0</ele><time>2026-05-01T06:38:57Z</time></trkpt><trkpt lat="44.95621123832769" lon="9.18405782039857"><ele>252.0</ele><time>2026-05-01T06:39:02Z</time></trkpt><trkpt lat="44.956213340826785" lon="9.184157007420232"><ele>252.0</ele><time>2026-05-01T06:39:06Z</time></trkpt><trkpt lat="44.95621989594603" lon="9.184272210800343"><ele>252.0</ele><time>2026-05-01T06:39:11Z</time></trkpt><trkpt lat="44.9562239499218" lon="9.184380936865638"><ele>254.14285714285714</ele><time>2026-05-01T06:39:15.999Z</time></trkpt><trkpt lat="44.95623678166627" lon="9.184472928416426"><ele>256.2857142857143</ele><time>2026-05-01T06:39:18.999Z</time></trkpt><trkpt lat="44.956252067497516" lon="9.184578103943732"><ele>258.42857142857144</ele><time>2026-05-01T06:39:22.999Z</time></trkpt><trkpt lat="44.95628478897481" lon="9.184663232157815"><ele>260.57142857142856</ele><time>2026-05-01T06:39:25.999Z</time></trkpt><trkpt lat="44.956306358485065" lon="9.184756324451245"><ele>262.7142857142857</ele><time>2026-05-01T06:39:28.999Z</time></trkpt><trkpt lat="44.95633096416653" lon="9.184838972238609"><ele>264.8571428571429</ele><time>2026-05-01T06:39:31.999Z</time></trkpt><trkpt lat="44.9563454472225" lon="9.184940196463412"><ele>267.0</ele><time>2026-05-01T06:39:35.999Z</time></trkpt><trkpt lat="44.95636090699718" lon="9.185040152682102"><ele>268.8571428571429</ele><time>2026-05-01T06:39:40.999Z</time></trkpt><trkpt lat="44.95636911947404" lon="9.185134009482281"><ele>270.7142857142857</ele><time>2026-05-01T06:39:44.999Z</time></trkpt><trkpt lat="44.95640248639983" lon="9.185220525871276"><ele>272.57142857142856</ele><time>2026-05-01T06:39:47.999Z</time></trkpt><trkpt lat="44.95644001243147" lon="9.185299627799575"><ele>274.42857142857144</ele><time>2026-05-01T06:39:50.999Z</time></trkpt><trkpt lat="44.956507097489826" lon="9.185375910161575"><ele>276.2857142857143</ele><time>2026-05-01T06:39:54.999Z</time></trkpt><trkpt lat="44.95653461383924" lon="9.185479971393113"><ele>278.14285714285717</ele><time>2026-05-01T06:39:59.999Z</time></trkpt><trkpt lat="44.95653192807657" lon="9.18557576534428"><ele>280.0</ele><time>2026-05-01T06:40:04.999Z</time></trkpt><trkpt lat="44.95653296207095" lon="9.185685405907888"><ele>282.0</ele><time>2026-05-01T06:40:08.999Z</time></trkpt><trkpt lat="44.95655720604562" lon="9.185774132647328"><ele>284.0</ele><time>2026-05-01T06:40:15Z</time></trkpt><trkpt lat="44.956580055333106" lon="9.185867216938227"><ele>286.0</ele><time>2026-05-01T06:40:18Z</time></trkpt><trkpt lat="44.95659945899543" lon="9.185964543953714"><ele>288.0</ele><time>2026-05-01T06:40:21Z</time></trkpt><trkpt lat="44.956633094179104" lon="9.186084236525462"><ele>290.0</ele><time>2026-05-01T06:40:26Z</time></trkpt><trkpt lat="44.956656679908505" lon="9.186179713040714"><ele>292.0</ele><time>2026-05-01T06:40:30Z</time></trkpt><trkpt lat="44.95668912214496" lon="9.186286765027493"><ele>293.0</ele><time>2026-05-01T06:40:33Z</time></trkpt><trkpt lat="44.95672401769076" lon="9.186373270694682"><ele>294.0</ele><time>2026-05-01T06:40:36Z</time></trkpt><trkpt lat="44.95673247511039" lon="9.186464917893101"><ele>295.0</ele><time>2026-05-01T06:40:41Z</time></trkpt><trkpt lat="44.95674878290243" lon="9.18656523109195"><ele>296.0</ele><time>2026-05-01T06:40:45Z</time></trkpt><trkpt lat="44.956774548444244" lon="9.186680032578664"><ele>297.0</ele><time>2026-05-01T06:40:48Z</time></trkpt><trkpt lat="44.95679427746517" lon="9.186770800374925"><ele>298.0</ele><time>2026-05-01T06:40:52Z</time></trkpt><trkpt lat="44.95682508854089" lon="9.18687453291447"><ele>299.0</ele><time>2026-05-01T06:40:56Z</time></trkpt><trkpt lat="44.95685309823182" lon="9.186985794049729"><ele>299.0</ele><time>2026-05-01T06:40:59Z</time></trkpt><trkpt lat="44.95687136966999" lon="9.187103533400023"><ele>299.0</ele><time>2026-05-01T06:41:02Z</time></trkpt><trkpt lat="44.95689190909124" lon="9.187199435456463"><ele>299.0</ele><time>2026-05-01T06:41:07Z</time></trkpt><trkpt lat="44.95688526122586" lon="9.187310611124417"><ele>299.0</ele><time>2026-05-01T06:41:11Z</time></trkpt><trkpt lat="44.95690403558161" lon="9.187423902568481"><ele>299.0</ele><time>2026-05-01T06:41:14Z</time></trkpt><trkpt lat="44.956898834271236" lon="9.187524496937861"><ele>299.0</ele><time>2026-05-01T06:41:18Z</time></trkpt><trkpt lat="44.95689821459369" lon="9.187621805085286"><ele>301.33333333333337</ele><time>2026-05-01T06:41:21.999Z</time></trkpt><trkpt lat="44.95690244938847" lon="9.187722749558011"><ele>303.6666666666667</ele><time>2026-05-01T06:41:24.999Z</time></trkpt><trkpt lat="44.95689039274632" lon="9.187826808134103"><ele>306.0</ele><time>2026-05-01T06:41:28.999Z</time></trkpt><trkpt lat="44.95689054768074" lon="9.187936264891396"><ele>308.3333333333333</ele><time>2026-05-01T06:41:32.999Z</time></trkpt><trkpt lat="44.956867713649274" lon="9.188043856278618"><ele>310.66666666666663</ele><time>2026-05-01T06:41:37.999Z</time></trkpt><trkpt lat="44.956866003208695" lon="9.188156146234666"><ele>313.0</ele><time>2026-05-01T06:41:41.999Z</time></trkpt><trkpt lat="44.956860918459434" lon="9.188263783088304"><ele>314.85714285714283</ele><time>2026-05-01T06:41:44.999Z</time></trkpt><trkpt lat="44.9568460330404" lon="9.18835292973106"><ele>316.7142857142857</ele><time>2026-05-01T06:41:48.999Z</time></trkpt><trkpt lat="44.95683439288696" lon="9.18845560803107"><ele>318.57142857142856</ele><time>2026-05-01T06:41:52.999Z</time></trkpt><trkpt lat="44.95684225403296" lon="9.188574030074067"><ele>320.42857142857144</ele><time>2026-05-01T06:41:57.999Z</time></trkpt><trkpt lat="44.95688064887708" lon="9.188651130556568"><ele>322.2857142857143</ele><time>2026-05-01T06:42:01.999Z</time></trkpt><trkpt lat="44.956925052064996" lon="9.188719527598225"><ele>324.14285714285717</ele><time>2026-05-01T06:42:05.999Z</time></trkpt><trkpt lat="44.95698666916033" lon="9.188787370455934"><ele>326.0</ele><time>2026-05-01T06:42:08.999Z</time></trkpt><trkpt lat="44.957043800365135" lon="9.188849670899083"><ele>326.0</ele><time>2026-05-01T06:42:11.999Z</time></trkpt><trkpt lat="44.957104878934096" lon="9.188920541169379"><ele>326.0</ele><time>2026-05-01T06:42:14.999Z</time></trkpt><trkpt lat="44.95717143661809" lon="9.188973020005369"><ele>326.0</ele><time>2026-05-01T06:42:19Z</time></trkpt><trkpt lat="44.957227896116244" lon="9.189026811045848"><ele>326.0</ele><time>2026-05-01T06:42:23Z</time></trkpt><trkpt lat="44.957295768882744" lon="9.189067564059265"><ele>326.0</ele><time>2026-05-01T06:42:27Z</time></trkpt><trkpt lat="44.95735758371225" lon="9.189107450874605"><ele>326.0</ele><time>2026-05-01T06:42:30Z</time></trkpt><trkpt lat="44.9574181624515" lon="9.189175045811382"><ele>326.0</ele><time>2026-05-01T06:42:35Z</time></trkpt><trkpt lat="44.95747968217374" lon="9.189216091900322"><ele>328.5714285714286</ele><time>2026-05-01T06:42:38Z</time></trkpt><trkpt lat="44.95755206284323" lon="9.189282208665302"><ele>331.1428571428571</ele><time>2026-05-01T06:42:42Z</time></trkpt><trkpt lat="44.95760440467479" lon="9.189338582563924"><ele>333.7142857142857</ele><time>2026-05-01T06:42:45Z</time></trkpt><trkpt lat="44.95765600600638" lon="9.189410613150061"><ele>336.28571428571433</ele><time>2026-05-01T06:42:50Z</time></trkpt><trkpt lat="44.95771383307344" lon="9.189460363984434"><ele>338.8571428571429</ele><time>2026-05-01T06:42:53Z</time></trkpt><trkpt lat="44.95777330905702" lon="9.189508963951132"><ele>341.42857142857144</ele><time>2026-05-01T06:42:56Z</time></trkpt><trkpt lat="44.95783038504677" lon="9.189566399538077"><ele>344.0</ele><time>2026-05-01T06:43:00Z</time></trkpt><trkpt lat="44.95790493474818" lon="9.189623841957054"><ele>344.0</ele><time>2026-05-01T06:43:04Z</time></trkpt><trkpt lat="44.95797653691311" lon="9.189666848807812"><ele>344.0</ele><time>2026-05-01T06:43:09Z</time></trkpt><trkpt lat="44.95805114494927" lon="9.189700946740235"><ele>344.0</ele><time>2026-05-01T06:43:12Z</time></trkpt><trkpt lat="44.95812737040524" lon="9.189710438310877"><ele>344.0</ele><time>2026-05-01T06:43:16Z</time></trkpt><trkpt lat="44.95821296673449" lon="9.189715224537311"><ele>344.0</ele><time>2026-05-01T06:43:20Z</time></trkpt><trkpt lat="44.958277310769134" lon="9.18978632184754"><ele>344.0</ele><time>2026-05-01T06:43:24Z</time></trkpt><trkpt lat="44.958324744490895" lon="9.189860403865936"><ele>347.42857142857144</ele><time>2026-05-01T06:43:27.999Z</time></trkpt><trkpt lat="44.95837165658584" lon="9.189935846071966"><ele>350.8571428571429</ele><time>2026-05-01T06:43:30.999Z</time></trkpt><trkpt lat="44.95840830248178" lon="9.190019982079463"><ele>354.28571428571433</ele><time>2026-05-01T06:43:34.999Z</time></trkpt><trkpt lat="44.95844174520332" lon="9.190119919135965"><ele>357.7142857142857</ele><time>2026-05-01T06:43:38.999Z</time></trkpt><trkpt lat="44.95846160267829" lon="9.190223377880967"><ele>361.1428571428571</ele><time>2026-05-01T06:43:42.999Z</time></trkpt><trkpt lat="44.95844277324034" lon="9.190321065101358"><ele>364.5714285714286</ele><time>2026-05-01T06:43:47.999Z</time></trkpt><trkpt lat="44.95843262796069" lon="9.19043566832417"><ele>368.0</ele><time>2026-05-01T06:43:52.999Z</time></trkpt><trkpt lat="44.95845301004181" lon="9.190536349302963"><ele>368.0</ele><time>2026-05-01T06:43:57.999Z</time></trkpt><trkpt lat="44.95848871922019" lon="9.19061897959194"><ele>368.0</ele><time>2026-05-01T06:44:00.999Z</time></trkpt><trkpt lat="44.95852731346453" lon="9.190698414127947"><ele>368.0</ele><time>2026-05-01T06:44:03.999Z</time></trkpt><trkpt lat="44.958556921720444" lon="9.190801278436378"><ele>368.0</ele><time>2026-05-01T06:44:06.999Z</time></trkpt><trkpt lat="44.95857244871406" lon="9.190900704107138"><ele>368.0</ele><time>2026-05-01T06:44:09.999Z</time></trkpt><trkpt lat="44.95859140492743" lon="9.191010853431512"><ele>368.0</ele><time>2026-05-01T06:44:13.999Z</time></trkpt><trkpt lat="44.958617507483076" lon="9.191092808401596"><ele>368.0</ele><time>2026-05-01T06:44:16.999Z</time></trkpt><trkpt lat="44.95863832515124" lon="9.191202907193002"><ele>367.1666666666667</ele><time>2026-05-01T06:44:20.999Z</time></trkpt><trkpt lat="44.95864070368543" lon="9.191292202702153"><ele>366.33333333333337</ele><time>2026-05-01T06:44:22.999Z</time></trkpt><trkpt lat="44.95863131632622" lon="9.191408057422384"><ele>365.5</ele><time>2026-05-01T06:44:26Z</time></trkpt><trkpt lat="44.95862256790208" lon="9.191516740433876"><ele>364.6666666666667</ele><time>2026-05-01T06:44:30Z</time></trkpt><trkpt lat="44.95863446609275" lon="9.191629552744242"><ele>363.8333333333333</ele><time>2026-05-01T06:44:37Z</time></trkpt><trkpt lat="44.95864959776276" lon="9.191759424008998"><ele>363.0</ele><time>2026-05-01T06:44:40Z</time></trkpt><trkpt lat="44.95865278115662" lon="9.19190481523006"><ele>362.3333333333333</ele><time>2026-05-01T06:44:42Z</time></trkpt><trkpt lat="44.95864074685754" lon="9.192044830908538"><ele>361.6666666666667</ele><time>2026-05-01T06:44:47Z</time></trkpt><trkpt lat="44.95865629981375" lon="9.19216792261615"><ele>361.0</ele><time>2026-05-01T06:44:49Z</time></trkpt><trkpt lat="44.958682202190595" lon="9.192302941516715"><ele>360.33333333333337</ele><time>2026-05-01T06:44:51Z</time></trkpt><trkpt lat="44.958694086060426" lon="9.19242969797555"><ele>359.6666666666667</ele><time>2026-05-01T06:44:53Z</time></trkpt><trkpt lat="44.95870346636468" lon="9.19252612594891"><ele>359.0</ele><time>2026-05-01T06:44:55Z</time></trkpt><trkpt lat="44.95870902102767" lon="9.192644015059228"><ele>358.6</ele><time>2026-05-01T06:44:58Z</time></trkpt><trkpt lat="44.95873305674724" lon="9.19273569751949"><ele>358.2</ele><time>2026-05-01T06:45:00Z</time></trkpt><trkpt lat="44.958765301617014" lon="9.192879936400962"><ele>357.8</ele><time>2026-05-01T06:45:02Z</time></trkpt><trkpt lat="44.95876171582319" lon="9.19303837927711"><ele>357.40000000000003</ele><time>2026-05-01T06:45:04Z</time></trkpt><trkpt lat="44.958717383679804" lon="9.193175730231761"><ele>357.0</ele><time>2026-05-01T06:45:06Z</time></trkpt><trkpt lat="44.95868114761567" lon="9.193284002190302"><ele>355.6666666666667</ele><time>2026-05-01T06:45:08Z</time></trkpt><trkpt lat="44.958642436436726" lon="9.193360718572286"><ele>354.3333333333333</ele><time>2026-05-01T06:45:10Z</time></trkpt><trkpt lat="44.958595923602104" lon="9.193459246241405"><ele>353.0</ele><time>2026-05-01T06:45:12Z</time></trkpt><trkpt lat="44.958532322363766" lon="9.193594705930819"><ele>351.66666666666663</ele><time>2026-05-01T06:45:14Z</time></trkpt><trkpt lat="44.95849711340066" lon="9.193684563751294"><ele>350.3333333333333</ele><time>2026-05-01T06:45:15Z</time></trkpt><trkpt lat="44.958458682349416" lon="9.193800244442"><ele>349.0</ele><time>2026-05-01T06:45:16Z</time></trkpt><trkpt lat="44.958423158590094" lon="9.19392278669959"><ele>348.16666666666663</ele><time>2026-05-01T06:45:17Z</time></trkpt><trkpt lat="44.958388225719624" lon="9.194038246848555"><ele>347.3333333333333</ele><time>2026-05-01T06:45:18Z</time></trkpt><trkpt lat="44.9583512172573" lon="9.194149654264706"><ele>346.5</ele><time>2026-05-01T06:45:19Z</time></trkpt><trkpt lat="44.958310463980546" lon="9.194258510577512"><ele>345.6666666666667</ele><time>2026-05-01T06:45:20Z</time></trkpt><trkpt lat="44.958276851108636" lon="9.194379219214808"><ele>344.83333333333337</ele><time>2026-05-01T06:45:21Z</time></trkpt><trkpt lat="44.95824536782619" lon="9.194490433953296"><ele>344.0</ele><time>2026-05-01T06:45:22Z</time></trkpt><trkpt lat="44.958214233425004" lon="9.194577900566633"><ele>344.0</ele><time>2026-05-01T06:45:23Z</time></trkpt><trkpt lat="44.95816166283763" lon="9.194708543430291"><ele>344.0</ele><time>2026-05-01T06:45:25Z</time></trkpt><trkpt lat="44.95813177493093" lon="9.19480288137754"><ele>344.0</ele><time>2026-05-01T06:45:26Z</time></trkpt><trkpt lat="44.9581037034762" lon="9.194886981709878"><ele>344.0</ele><time>2026-05-01T06:45:27Z</time></trkpt><trkpt lat="44.95806432670092" lon="9.195017844196087"><ele>344.0</ele><time>2026-05-01T06:45:29Z</time></trkpt><trkpt lat="44.958028415495356" lon="9.19516634748493"><ele>342.2</ele><time>2026-05-01T06:45:31Z</time></trkpt><trkpt lat="44.95800097581904" lon="9.195263122750118"><ele>340.4</ele><time>2026-05-01T06:45:32Z</time></trkpt><trkpt lat="44.957962986155195" lon="9.1953731284521"><ele>338.6</ele><time>2026-05-01T06:45:33Z</time></trkpt><trkpt lat="44.957920541868965" lon="9.195499416488184"><ele>336.8</ele><time>2026-05-01T06:45:34Z</time></trkpt><trkpt lat="44.95786753702919" lon="9.195630505291637"><ele>335.0</ele><time>2026-05-01T06:45:35Z</time></trkpt><trkpt lat="44.95781598259484" lon="9.195762842069286"><ele>333.6</ele><time>2026-05-01T06:45:35.999Z</time></trkpt><trkpt lat="44.95776793070746" lon="9.19587909070371"><ele>332.2</ele><time>2026-05-01T06:45:36.999Z</time></trkpt><trkpt lat="44.95772649182103" lon="9.19599806529174"><ele>330.79999999999995</ele><time>2026-05-01T06:45:37.999Z</time></trkpt><trkpt lat="44.95768168537854" lon="9.196114328055613"><ele>329.4</ele><time>2026-05-01T06:45:38.999Z</time></trkpt><trkpt lat="44.95763814291844" lon="9.196226148317972"><ele>328.0</ele><time>2026-05-01T06:45:39.999Z</time></trkpt><trkpt lat="44.957600805345706" lon="9.196337257559076"><ele>328.0</ele><time>2026-05-01T06:45:40.999Z</time></trkpt><trkpt lat="44.957560511696826" lon="9.196450547469734"><ele>328.0</ele><time>2026-05-01T06:45:41.999Z</time></trkpt><trkpt lat="44.957518742465155" lon="9.196574202890535"><ele>328.0</ele><time>2026-05-01T06:45:42.999Z</time></trkpt><trkpt lat="44.9574808795633" lon="9.196680803761215"><ele>328.0</ele><time>2026-05-01T06:45:43.999Z</time></trkpt><trkpt lat="44.95744743735162" lon="9.196792225596676"><ele>328.0</ele><time>2026-05-01T06:45:44.999Z</time></trkpt><trkpt lat="44.957420723551714" lon="9.19688821893643"><ele>328.0</ele><time>2026-05-01T06:45:45.999Z</time></trkpt><trkpt lat="44.957395702109494" lon="9.19697565467322"><ele>328.0</ele><time>2026-05-01T06:45:46.999Z</time></trkpt><trkpt lat="44.957360696747415" lon="9.197091738094002"><ele>328.0</ele><time>2026-05-01T06:45:48.999Z</time></trkpt><trkpt lat="44.957334379237174" lon="9.197208452567917"><ele>328.0</ele><time>2026-05-01T06:45:51.999Z</time></trkpt><trkpt lat="44.957309837718036" lon="9.197302183429644"><ele>328.0</ele><time>2026-05-01T06:45:53.999Z</time></trkpt><trkpt lat="44.9572718900782" lon="9.197399173434105"><ele>328.0</ele><time>2026-05-01T06:45:55.999Z</time></trkpt><trkpt lat="44.95721841746272" lon="9.19750491805706"><ele>328.0</ele><time>2026-05-01T06:45:57.999Z</time></trkpt><trkpt lat="44.957175694070514" lon="9.197604171779789"><ele>328.0</ele><time>2026-05-01T06:45:59.999Z</time></trkpt><trkpt lat="44.957134845619386" lon="9.197690368306839"><ele>328.0</ele><time>2026-05-01T06:46:01.999Z</time></trkpt><trkpt lat="44.95710783842517" lon="9.197787465360904"><ele>328.0</ele><time>2026-05-01T06:46:03.999Z</time></trkpt><trkpt lat="44.95708881006033" lon="9.197903008811977"><ele>328.0</ele><time>2026-05-01T06:46:05.999Z</time></trkpt><trkpt lat="44.957054468171464" lon="9.197987283062274"><ele>328.0</ele><time>2026-05-01T06:46:07.999Z</time></trkpt><trkpt lat="44.95703341234202" lon="9.198083022245482"><ele>328.0</ele><time>2026-05-01T06:46:09.999Z</time></trkpt><trkpt lat="44.95700504160339" lon="9.19818883995759"><ele>327.99999999999994</ele><time>2026-05-01T06:46:12.999Z</time></trkpt><trkpt lat="44.95698038176672" lon="9.198277451512139"><ele>328.0</ele><time>2026-05-01T06:46:15.999Z</time></trkpt><trkpt lat="44.95693403412011" lon="9.198353304165565"><ele>328.0</ele><time>2026-05-01T06:46:18.999Z</time></trkpt><trkpt lat="44.956884803183776" lon="9.19844516833195"><ele>328.0</ele><time>2026-05-01T06:46:22.999Z</time></trkpt><trkpt lat="44.95682785125777" lon="9.198519079859956"><ele>328.0</ele><time>2026-05-01T06:46:25.999Z</time></trkpt><trkpt lat="44.95677336831492" lon="9.198578902659602"><ele>327.99999999999994</ele><time>2026-05-01T06:46:28.999Z</time></trkpt><trkpt lat="44.95670433365177" lon="9.19862841187592"><ele>328.0</ele><time>2026-05-01T06:46:32Z</time></trkpt><trkpt lat="44.956666314185455" lon="9.198723719743752"><ele>328.85714285714283</ele><time>2026-05-01T06:46:35Z</time></trkpt><trkpt lat="44.956627728846286" lon="9.198808402035391"><ele>329.7142857142857</ele><time>2026-05-01T06:46:38Z</time></trkpt><trkpt lat="44.95660894401817" lon="9.198925919041752"><ele>330.57142857142856</ele><time>2026-05-01T06:46:42Z</time></trkpt><trkpt lat="44.95660174459461" lon="9.19901600201769"><ele>331.42857142857144</ele><time>2026-05-01T06:46:46Z</time></trkpt><trkpt lat="44.95656537054787" lon="9.199103981534657"><ele>332.2857142857143</ele><time>2026-05-01T06:46:50Z</time></trkpt><trkpt lat="44.95652686820554" lon="9.199197429422474"><ele>333.1428571428571</ele><time>2026-05-01T06:46:54Z</time></trkpt><trkpt lat="44.95648930584223" lon="9.199270599266832"><ele>334.0</ele><time>2026-05-01T06:46:56Z</time></trkpt><trkpt lat="44.95643609524665" lon="9.1993642889552"><ele>333.75</ele><time>2026-05-01T06:46:58Z</time></trkpt><trkpt lat="44.95636308652025" lon="9.19946226683302"><ele>333.5</ele><time>2026-05-01T06:47:00Z</time></trkpt><trkpt lat="44.956296836195925" lon="9.19959605039428"><ele>333.25</ele><time>2026-05-01T06:47:02Z</time></trkpt><trkpt lat="44.95624453136898" lon="9.199768196267698"><ele>333.0</ele><time>2026-05-01T06:47:04Z</time></trkpt><trkpt lat="44.956195960906555" lon="9.199916471421039"><ele>333.0</ele><time>2026-05-01T06:47:06Z</time></trkpt><trkpt lat="44.956150142939826" lon="9.200069807775556"><ele>333.0</ele><time>2026-05-01T06:47:08Z</time></trkpt><trkpt lat="44.956113238115194" lon="9.200195388554674"><ele>333.0</ele><time>2026-05-01T06:47:10Z</time></trkpt><trkpt lat="44.95609021604485" lon="9.200307301606252"><ele>333.0</ele><time>2026-05-01T06:47:12Z</time></trkpt><trkpt lat="44.95606162291606" lon="9.200391734275732"><ele>333.0</ele><time>2026-05-01T06:47:14Z</time></trkpt><trkpt lat="44.95601734964655" lon="9.200481813849896"><ele>333.0</ele><time>2026-05-01T06:47:16Z</time></trkpt><trkpt lat="44.95598927479687" lon="9.200564034551899"><ele>333.0</ele><time>2026-05-01T06:47:18Z</time></trkpt><trkpt lat="44.955950866761576" lon="9.200650806974005"><ele>333.0</ele><time>2026-05-01T06:47:21Z</time></trkpt><trkpt lat="44.95590951447234" lon="9.200730024638265"><ele>333.0</ele><time>2026-05-01T06:47:24Z</time></trkpt><trkpt lat="44.95584624671057" lon="9.20081535056676"><ele>333.0</ele><time>2026-05-01T06:47:27Z</time></trkpt><trkpt lat="44.95579449820672" lon="9.200902314945065"><ele>333.0</ele><time>2026-05-01T06:47:30Z</time></trkpt><trkpt lat="44.95575714380679" lon="9.20097743516094"><ele>333.0</ele><time>2026-05-01T06:47:33Z</time></trkpt><trkpt lat="44.955710755763235" lon="9.20106131479029"><ele>333.5714285714286</ele><time>2026-05-01T06:47:36Z</time></trkpt><trkpt lat="44.955662176961326" lon="9.201135841038349"><ele>334.1428571428571</ele><time>2026-05-01T06:47:38.999Z</time></trkpt><trkpt lat="44.95562502379552" lon="9.201228428200583"><ele>334.7142857142857</ele><time>2026-05-01T06:47:41.999Z</time></trkpt><trkpt lat="44.95559136366648" lon="9.201314491658016"><ele>335.28571428571433</ele><time>2026-05-01T06:47:44.999Z</time></trkpt><trkpt lat="44.95555132041315" lon="9.201409300276948"><ele>335.8571428571429</ele><time>2026-05-01T06:47:48.999Z</time></trkpt><trkpt lat="44.95551884914061" lon="9.20149116141574"><ele>336.42857142857144</ele><time>2026-05-01T06:47:51.999Z</time></trkpt><trkpt lat="44.955483598772595" lon="9.20156734861636"><ele>337.0</ele><time>2026-05-01T06:47:54.999Z</time></trkpt><trkpt lat="44.955439200102816" lon="9.20164085050546"><ele>337.5714285714286</ele><time>2026-05-01T06:47:57.999Z</time></trkpt><trkpt lat="44.955388747050186" lon="9.201718906165748"><ele>338.14285714285717</ele><time>2026-05-01T06:48:01.999Z</time></trkpt><trkpt lat="44.95534831661738" lon="9.201790665315592"><ele>338.7142857142857</ele><time>2026-05-01T06:48:04.999Z</time></trkpt><trkpt lat="44.95530532517841" lon="9.201869906416542"><ele>339.28571428571433</ele><time>2026-05-01T06:48:08.999Z</time></trkpt><trkpt lat="44.95526616062555" lon="9.201941792780522"><ele>339.8571428571429</ele><time>2026-05-01T06:48:12.999Z</time></trkpt><trkpt lat="44.955198314995755" lon="9.201999810437622"><ele>340.42857142857144</ele><time>2026-05-01T06:48:18.999Z</time></trkpt><trkpt lat="44.955129746216706" lon="9.202037915513323"><ele>341.0</ele><time>2026-05-01T06:48:22.999Z</time></trkpt><trkpt lat="44.95506258826132" lon="9.20207319106738"><ele>341.33333333333337</ele><time>2026-05-01T06:48:24.999Z</time></trkpt><trkpt lat="44.954973747592156" lon="9.202096262628624"><ele>341.6666666666667</ele><time>2026-05-01T06:48:27.999Z</time></trkpt><trkpt lat="44.954877901429974" lon="9.202121961599454"><ele>342.0</ele><time>2026-05-01T06:48:31.999Z</time></trkpt><trkpt lat="44.95481435372179" lon="9.202139408777185"><ele>342.3333333333333</ele><time>2026-05-01T06:48:33.999Z</time></trkpt><trkpt lat="44.954746118901404" lon="9.202148864220783"><ele>342.66666666666663</ele><time>2026-05-01T06:48:38Z</time></trkpt><trkpt lat="44.95466932631413" lon="9.20217928989311"><ele>343.0</ele><time>2026-05-01T06:48:41Z</time></trkpt><trkpt lat="44.954606616009855" lon="9.202205868613259"><ele>343.0</ele><time>2026-05-01T06:48:43Z</time></trkpt><trkpt lat="44.954528139332375" lon="9.202249489717982"><ele>343.0</ele><time>2026-05-01T06:48:45Z</time></trkpt><trkpt lat="44.95444965365474" lon="9.202319767534744"><ele>343.0</ele><time>2026-05-01T06:48:47Z</time></trkpt><trkpt lat="44.95435312439651" lon="9.202427734105532"><ele>343.0</ele><time>2026-05-01T06:48:49Z</time></trkpt><trkpt lat="44.95426892653244" lon="9.202454364486798"><ele>343.0</ele><time>2026-05-01T06:48:51Z</time></trkpt><trkpt lat="44.95419032314188" lon="9.202477961758788"><ele>344.79999999999995</ele><time>2026-05-01T06:48:53Z</time></trkpt><trkpt lat="44.954098163846346" lon="9.202523252174489"><ele>346.6</ele><time>2026-05-01T06:48:56Z</time></trkpt><trkpt lat="44.95401226909294" lon="9.202533740879549"><ele>348.4</ele><time>2026-05-01T06:48:59Z</time></trkpt><trkpt lat="44.95392642732889" lon="9.20256064506194"><ele>350.20000000000005</ele><time>2026-05-01T06:49:02Z</time></trkpt><trkpt lat="44.953828577976" lon="9.202613061422332"><ele>352.0</ele><time>2026-05-01T06:49:05Z</time></trkpt><trkpt lat="44.953750869048044" lon="9.202650423724508"><ele>352.0</ele><time>2026-05-01T06:49:08Z</time></trkpt><trkpt lat="44.95367284419036" lon="9.202669316841769"><ele>352.0</ele><time>2026-05-01T06:49:11Z</time></trkpt><trkpt lat="44.953600712945715" lon="9.202689014783116"><ele>352.0</ele><time>2026-05-01T06:49:14Z</time></trkpt><trkpt lat="44.95352450529262" lon="9.202698491643197"><ele>352.0</ele><time>2026-05-01T06:49:17Z</time></trkpt><trkpt lat="44.95345744907167" lon="9.20270950311964"><ele>352.0</ele><time>2026-05-01T06:49:20Z</time></trkpt><trkpt lat="44.95339130009818" lon="9.202745421881183"><ele>352.0</ele><time>2026-05-01T06:49:23Z</time></trkpt><trkpt lat="44.9533081873505" lon="9.202782678665912"><ele>352.16666666666663</ele><time>2026-05-01T06:49:27Z</time></trkpt><trkpt lat="44.9532302607392" lon="9.202839510233648"><ele>352.3333333333333</ele><time>2026-05-01T06:49:31Z</time></trkpt><trkpt lat="44.95316305391272" lon="9.20287718835886"><ele>352.5</ele><time>2026-05-01T06:49:35Z</time></trkpt><trkpt lat="44.95309381847837" lon="9.20292699625867"><ele>352.6666666666667</ele><time>2026-05-01T06:49:38Z</time></trkpt><trkpt lat="44.95301526330881" lon="9.202970009793113"><ele>352.83333333333337</ele><time>2026-05-01T06:49:40Z</time></trkpt><trkpt lat="44.95293386914306" lon="9.20301461313278"><ele>353.0</ele><time>2026-05-01T06:49:42Z</time></trkpt><trkpt lat="44.95286435855982" lon="9.203056151150948"><ele>353.0</ele><time>2026-05-01T06:49:44Z</time></trkpt><trkpt lat="44.952788238153225" lon="9.203110425146964"><ele>353.0</ele><time>2026-05-01T06:49:46Z</time></trkpt><trkpt lat="44.95272299428039" lon="9.203155328416868"><ele>353.0</ele><time>2026-05-01T06:49:48Z</time></trkpt><trkpt lat="44.952670012356684" lon="9.203210606340509"><ele>353.0</ele><time>2026-05-01T06:49:49.999Z</time></trkpt><trkpt lat="44.952602390695645" lon="9.203262783096934"><ele>353.0</ele><time>2026-05-01T06:49:51.999Z</time></trkpt><trkpt lat="44.95253411707357" lon="9.20331960711511"><ele>353.0</ele><time>2026-05-01T06:49:53.999Z</time></trkpt><trkpt lat="44.95245663647023" lon="9.203397547098643"><ele>354.33333333333337</ele><time>2026-05-01T06:49:56.999Z</time></trkpt><trkpt lat="44.95238602575204" lon="9.20345853749154"><ele>355.6666666666667</ele><time>2026-05-01T06:49:58.999Z</time></trkpt><trkpt lat="44.9523144256842" lon="9.203532224863078"><ele>357.0</ele><time>2026-05-01T06:50:01.999Z</time></trkpt><trkpt lat="44.95225831365287" lon="9.203582920065443"><ele>358.3333333333333</ele><time>2026-05-01T06:50:03.999Z</time></trkpt><trkpt lat="44.95218597580586" lon="9.203657980242307"><ele>359.66666666666663</ele><time>2026-05-01T06:50:06.999Z</time></trkpt><trkpt lat="44.952137725958536" lon="9.203716349258173"><ele>361.0</ele><time>2026-05-01T06:50:08.999Z</time></trkpt><trkpt lat="44.95208032156055" lon="9.203789951896693"><ele>361.0</ele><time>2026-05-01T06:50:11.999Z</time></trkpt><trkpt lat="44.952004530225274" lon="9.203859249159258"><ele>361.0</ele><time>2026-05-01T06:50:14.999Z</time></trkpt><trkpt lat="44.95194843652095" lon="9.203936525845544"><ele>361.0</ele><time>2026-05-01T06:50:17.999Z</time></trkpt><trkpt lat="44.95188999161175" lon="9.203989373732322"><ele>361.0</ele><time>2026-05-01T06:50:20.999Z</time></trkpt><trkpt lat="44.95182220042786" lon="9.204029229057445"><ele>361.0</ele><time>2026-05-01T06:50:23.999Z</time></trkpt><trkpt lat="44.95175693354018" lon="9.204020751549724"><ele>361.0</ele><time>2026-05-01T06:50:26.999Z</time></trkpt><trkpt lat="44.95169113827183" lon="9.203976466786827"><ele>361.0</ele><time>2026-05-01T06:50:30.999Z</time></trkpt><trkpt lat="44.95163525106324" lon="9.20392276646228"><ele>361.0</ele><time>2026-05-01T06:50:35.999Z</time></trkpt><trkpt lat="44.95156259052754" lon="9.203859905773232"><ele>361.0</ele><time>2026-05-01T06:50:40.999Z</time></trkpt><trkpt lat="44.95148215707867" lon="9.203834993273007"><ele>361.0</ele><time>2026-05-01T06:50:46Z</time></trkpt><trkpt lat="44.951415692531235" lon="9.203842803568651"><ele>361.0</ele><time>2026-05-01T06:50:51Z</time></trkpt><trkpt lat="44.951351096010534" lon="9.20384998881156"><ele>361.0</ele><time>2026-05-01T06:50:54Z</time></trkpt><trkpt lat="44.95128428816859" lon="9.20385312279738"><ele>361.0</ele><time>2026-05-01T06:50:59Z</time></trkpt><trkpt lat="44.95121863985351" lon="9.203894830696106"><ele>361.0</ele><time>2026-05-01T06:51:04Z</time></trkpt><trkpt lat="44.95115244503274" lon="9.203908750645626"><ele>361.0</ele><time>2026-05-01T06:51:07Z</time></trkpt><trkpt lat="44.951077816223346" lon="9.203924202779795"><ele>361.0</ele><time>2026-05-01T06:51:10Z</time></trkpt><trkpt lat="44.95100417408861" lon="9.203928292088056"><ele>361.0</ele><time>2026-05-01T06:51:13Z</time></trkpt><trkpt lat="44.9509242169919" lon="9.203912695888766"><ele>361.0</ele><time>2026-05-01T06:51:17Z</time></trkpt><trkpt lat="44.95085657795794" lon="9.203933818065426"><ele>361.0</ele><time>2026-05-01T06:51:21Z</time></trkpt><trkpt lat="44.95078201799526" lon="9.203938802697737"><ele>361.0</ele><time>2026-05-01T06:51:25Z</time></trkpt><trkpt lat="44.95070456559242" lon="9.203947659992519"><ele>363.8571428571429</ele><time>2026-05-01T06:51:31Z</time></trkpt><trkpt lat="44.95062941912461" lon="9.203986616571934"><ele>366.71428571428567</ele><time>2026-05-01T06:51:36Z</time></trkpt><trkpt lat="44.95055486587194" lon="9.203992736920538"><ele>369.57142857142856</ele><time>2026-05-01T06:51:41Z</time></trkpt><trkpt lat="44.950491840094664" lon="9.204020539152834"><ele>372.42857142857144</ele><time>2026-05-01T06:51:45Z</time></trkpt><trkpt lat="44.95045646823858" lon="9.204094487749513"><ele>375.28571428571433</ele><time>2026-05-01T06:51:48Z</time></trkpt><trkpt lat="44.95044251649504" lon="9.2041884381605"><ele>378.1428571428571</ele><time>2026-05-01T06:51:52Z</time></trkpt><trkpt lat="44.95043136316779" lon="9.204285224421298"><ele>381.0</ele><time>2026-05-01T06:51:57.999Z</time></trkpt><trkpt lat="44.95043842668652" lon="9.204394296714664"><ele>382.7142857142857</ele><time>2026-05-01T06:52:03.999Z</time></trkpt><trkpt lat="44.95044633599184" lon="9.204507814353173"><ele>384.42857142857144</ele><time>2026-05-01T06:52:08.999Z</time></trkpt><trkpt lat="44.95047022739214" lon="9.20460217302922"><ele>386.14285714285717</ele><time>2026-05-01T06:52:11.999Z</time></trkpt><trkpt lat="44.950456012649" lon="9.204720994064205"><ele>387.8571428571429</ele><time>2026-05-01T06:52:15.999Z</time></trkpt><trkpt lat="44.95045146361309" lon="9.20481367410793"><ele>389.57142857142856</ele><time>2026-05-01T06:52:19.999Z</time></trkpt><trkpt lat="44.95041536770921" lon="9.20490304289677"><ele>391.28571428571433</ele><time>2026-05-01T06:52:22.999Z</time></trkpt><trkpt lat="44.95037221364046" lon="9.204983431250628"><ele>393.0</ele><time>2026-05-01T06:52:25.999Z</time></trkpt><trkpt lat="44.95032988266198" lon="9.20506446597302"><ele>393.6666666666667</ele><time>2026-05-01T06:52:29.999Z</time></trkpt><trkpt lat="44.950281562982425" lon="9.20514234694363"><ele>394.33333333333337</ele><time>2026-05-01T06:52:33.999Z</time></trkpt><trkpt lat="44.95022111536472" lon="9.205190334952205"><ele>395.0</ele><time>2026-05-01T06:52:37.999Z</time></trkpt><trkpt lat="44.950143246544926" lon="9.205230770392147"><ele>395.6666666666667</ele><time>2026-05-01T06:52:40.999Z</time></trkpt><trkpt lat="44.95006734561452" lon="9.205268723513822"><ele>396.33333333333337</ele><time>2026-05-01T06:52:43.999Z</time></trkpt><trkpt lat="44.949997121580154" lon="9.205321500419934"><ele>397.0</ele><time>2026-05-01T06:52:46.999Z</time></trkpt><trkpt lat="44.949918060771694" lon="9.205371652898"><ele>398.50000000000006</ele><time>2026-05-01T06:52:49Z</time></trkpt><trkpt lat="44.94984430687908" lon="9.205432617020193"><ele>400.0</ele><time>2026-05-01T06:52:51Z</time></trkpt><trkpt lat="44.94978637542349" lon="9.20547499083831"><ele>401.5</ele><time>2026-05-01T06:52:53Z</time></trkpt><trkpt lat="44.949730108293735" lon="9.205527486458777"><ele>403.0</ele><time>2026-05-01T06:52:55Z</time></trkpt><trkpt lat="44.949648673432215" lon="9.205589789292729"><ele>404.50000000000006</ele><time>2026-05-01T06:52:57Z</time></trkpt><trkpt lat="44.94953597907424" lon="9.205633668319095"><ele>406.0</ele><time>2026-05-01T06:52:59Z</time></trkpt><trkpt lat="44.94942781109688" lon="9.205703744177299"><ele>406.50000000000006</ele><time>2026-05-01T06:53:01Z</time></trkpt><trkpt lat="44.94935975507311" lon="9.20578668303745"><ele>407.0</ele><time>2026-05-01T06:53:03Z</time></trkpt><trkpt lat="44.94932946264306" lon="9.205865195701767"><ele>407.5</ele><time>2026-05-01T06:53:04Z</time></trkpt><trkpt lat="44.9492663944974" lon="9.205908334237629"><ele>408.0</ele><time>2026-05-01T06:53:05Z</time></trkpt><trkpt lat="44.94917022200342" lon="9.205922249542983"><ele>408.50000000000006</ele><time>2026-05-01T06:53:07Z</time></trkpt><trkpt lat="44.949100319070354" lon="9.205965103801539"><ele>409.0</ele><time>2026-05-01T06:53:09Z</time></trkpt><trkpt lat="44.949024015636226" lon="9.206008083460146"><ele>408.00000000000006</ele><time>2026-05-01T06:53:11Z</time></trkpt><trkpt lat="44.948957529296464" lon="9.206035685114752"><ele>407.0</ele><time>2026-05-01T06:53:13Z</time></trkpt><trkpt lat="44.948870233135224" lon="9.206089281416277"><ele>406.0</ele><time>2026-05-01T06:53:16Z</time></trkpt><trkpt lat="44.94878822200622" lon="9.206143483590347"><ele>405.0</ele><time>2026-05-01T06:53:19Z</time></trkpt><trkpt lat="44.94872227720091" lon="9.206185203878293"><ele>404.00000000000006</ele><time>2026-05-01T06:53:21Z</time></trkpt><trkpt lat="44.948633074199165" lon="9.206222258341567"><ele>403.0</ele><time>2026-05-01T06:53:24Z</time></trkpt><trkpt lat="44.94855397132742" lon="9.206244526255345"><ele>403.00000000000006</ele><time>2026-05-01T06:53:26Z</time></trkpt><trkpt lat="44.948464836887766" lon="9.206278968513136"><ele>403.0</ele><time>2026-05-01T06:53:29Z</time></trkpt><trkpt lat="44.94839899092633" lon="9.206308483704953"><ele>403.0</ele><time>2026-05-01T06:53:31Z</time></trkpt><trkpt lat="44.94833816680581" lon="9.206350459489464"><ele>403.0</ele><time>2026-05-01T06:53:33Z</time></trkpt><trkpt lat="44.948277428952665" lon="9.206384976495185"><ele>403.00000000000006</ele><time>2026-05-01T06:53:35Z</time></trkpt><trkpt lat="44.94819239633215" lon="9.206435750745028"><ele>403.0</ele><time>2026-05-01T06:53:38Z</time></trkpt><trkpt lat="44.94813332886284" lon="9.206470400558743"><ele>404.33333333333337</ele><time>2026-05-01T06:53:40Z</time></trkpt><trkpt lat="44.948056583568714" lon="9.206521518815032"><ele>405.6666666666667</ele><time>2026-05-01T06:53:43Z</time></trkpt><trkpt lat="44.9479843135243" lon="9.20658912860457"><ele>407.0</ele><time>2026-05-01T06:53:47Z</time></trkpt><trkpt lat="44.94792800942861" lon="9.206642557639439"><ele>408.33333333333337</ele><time>2026-05-01T06:53:50Z</time></trkpt><trkpt lat="44.94786862611245" lon="9.206688538051255"><ele>409.6666666666667</ele><time>2026-05-01T06:53:53Z</time></trkpt><trkpt lat="44.9478054222299" lon="9.206722975760599"><ele>411.0</ele><time>2026-05-01T06:53:56Z</time></trkpt><trkpt lat="44.94773345478914" lon="9.206753331619216"><ele>411.0</ele><time>2026-05-01T06:53:59.999Z</time></trkpt><trkpt lat="44.9476593044986" lon="9.206803802317124"><ele>411.0</ele><time>2026-05-01T06:54:03.999Z</time></trkpt><trkpt lat="44.94760642519043" lon="9.206863959512328"><ele>411.0</ele><time>2026-05-01T06:54:06.999Z</time></trkpt><trkpt lat="44.947544478786995" lon="9.206919393221929"><ele>411.0</ele><time>2026-05-01T06:54:09.999Z</time></trkpt><trkpt lat="44.94747286737055" lon="9.206986389439127"><ele>411.0</ele><time>2026-05-01T06:54:13.999Z</time></trkpt><trkpt lat="44.94740523480229" lon="9.207016357317228"><ele>411.0</ele><time>2026-05-01T06:54:15.999Z</time></trkpt><trkpt lat="44.947341773312125" lon="9.207058015112306"><ele>411.85714285714283</ele><time>2026-05-01T06:54:17.999Z</time></trkpt><trkpt lat="44.94727334470016" lon="9.207103029009426"><ele>412.71428571428567</ele><time>2026-05-01T06:54:20.999Z</time></trkpt><trkpt lat="44.94721748766809" lon="9.207148906712064"><ele>413.57142857142856</ele><time>2026-05-01T06:54:22.999Z</time></trkpt><trkpt lat="44.94714286581013" lon="9.207182058718383"><ele>414.42857142857144</ele><time>2026-05-01T06:54:24.999Z</time></trkpt><trkpt lat="44.947082249491054" lon="9.207225133418195"><ele>415.2857142857143</ele><time>2026-05-01T06:54:26.999Z</time></trkpt><trkpt lat="44.94701718692072" lon="9.207288663264066"><ele>416.14285714285717</ele><time>2026-05-01T06:54:28.999Z</time></trkpt><trkpt lat="44.946950114114" lon="9.20733002028987"><ele>417.0</ele><time>2026-05-01T06:54:30.999Z</time></trkpt><trkpt lat="44.94685640534495" lon="9.207397183686581"><ele>417.8333333333333</ele><time>2026-05-01T06:54:32.999Z</time></trkpt><trkpt lat="44.946763822482744" lon="9.20747955404731"><ele>418.66666666666663</ele><time>2026-05-01T06:54:34.999Z</time></trkpt><trkpt lat="44.946709402198785" lon="9.207525458543953"><ele>419.5</ele><time>2026-05-01T06:54:35.999Z</time></trkpt><trkpt lat="44.94659165679864" lon="9.207583648318062"><ele>420.3333333333333</ele><time>2026-05-01T06:54:37.999Z</time></trkpt><trkpt lat="44.946513540413044" lon="9.207605296455826"><ele>421.16666666666663</ele><time>2026-05-01T06:54:38.999Z</time></trkpt><trkpt lat="44.946446745750066" lon="9.207621692089484"><ele>422.0</ele><time>2026-05-01T06:54:39.999Z</time></trkpt><trkpt lat="44.94634195979782" lon="9.207662787953703"><ele>421.99999999999994</ele><time>2026-05-01T06:54:41.999Z</time></trkpt><trkpt lat="44.94625000915927" lon="9.207716136608495"><ele>422.0</ele><time>2026-05-01T06:54:43.999Z</time></trkpt><trkpt lat="44.946171376623475" lon="9.20776117662162"><ele>422.0</ele><time>2026-05-01T06:54:45.999Z</time></trkpt><trkpt lat="44.946101225518014" lon="9.207819602596604"><ele>422.0</ele><time>2026-05-01T06:54:47.999Z</time></trkpt><trkpt lat="44.94603048512628" lon="9.207865425564664"><ele>421.99999999999994</ele><time>2026-05-01T06:54:49.999Z</time></trkpt><trkpt lat="44.94596345259821" lon="9.207914843375347"><ele>422.0</ele><time>2026-05-01T06:54:51.999Z</time></trkpt><trkpt lat="44.94588709783845" lon="9.207959412337468"><ele>422.3333333333333</ele><time>2026-05-01T06:54:54Z</time></trkpt><trkpt lat="44.945824731535275" lon="9.208002724273836"><ele>422.66666666666663</ele><time>2026-05-01T06:54:56Z</time></trkpt><trkpt lat="44.945760267281585" lon="9.208051971648597"><ele>423.0</ele><time>2026-05-01T06:54:58Z</time></trkpt><trkpt lat="44.94567362230748" lon="9.208096166447172"><ele>423.33333333333337</ele><time>2026-05-01T06:55:01Z</time></trkpt><trkpt lat="44.94560647834858" lon="9.208103075304827"><ele>423.6666666666667</ele><time>2026-05-01T06:55:03Z</time></trkpt><trkpt lat="44.945534790524164" lon="9.208103913012177"><ele>424.0</ele><time>2026-05-01T06:55:05Z</time></trkpt><trkpt lat="44.94545337405246" lon="9.208116681742196"><ele>424.00000000000006</ele><time>2026-05-01T06:55:07Z</time></trkpt><trkpt lat="44.945383448516885" lon="9.20814843094119"><ele>424.0</ele><time>2026-05-01T06:55:09Z</time></trkpt><trkpt lat="44.94531249474249" lon="9.20820648094202"><ele>424.0</ele><time>2026-05-01T06:55:12Z</time></trkpt><trkpt lat="44.945245025520016" lon="9.208258276893975"><ele>424.0</ele><time>2026-05-01T06:55:14Z</time></trkpt><trkpt lat="44.945181657838205" lon="9.208302344228356"><ele>424.00000000000006</ele><time>2026-05-01T06:55:16Z</time></trkpt><trkpt lat="44.945094792098494" lon="9.208343933166782"><ele>424.0</ele><time>2026-05-01T06:55:19Z</time></trkpt><trkpt lat="44.94500229328534" lon="9.208374942790794"><ele>425.0</ele><time>2026-05-01T06:55:22Z</time></trkpt><trkpt lat="44.94493286040608" lon="9.208371969364107"><ele>426.0</ele><time>2026-05-01T06:55:25Z</time></trkpt><trkpt lat="44.944861136619515" lon="9.208329249108468"><ele>427.0</ele><time>2026-05-01T06:55:28Z</time></trkpt><trkpt lat="44.94479823334118" lon="9.208355751179667"><ele>428.0</ele><time>2026-05-01T06:55:34Z</time></trkpt><trkpt lat="44.94472665860892" lon="9.208405017531168"><ele>429.0</ele><time>2026-05-01T06:55:39Z</time></trkpt><trkpt lat="44.9446655412906" lon="9.20842992416744"><ele>430.0</ele><time>2026-05-01T06:55:43Z</time></trkpt><trkpt lat="44.94459326237148" lon="9.208444075889423"><ele>431.0</ele><time>2026-05-01T06:55:46Z</time></trkpt><trkpt lat="44.944533684167624" lon="9.208477414551776"><ele>430.99999999999994</ele><time>2026-05-01T06:55:52Z</time></trkpt><trkpt lat="44.94446859651672" lon="9.208514682803127"><ele>431.0</ele><time>2026-05-01T06:55:54.999Z</time></trkpt><trkpt lat="44.944385445791355" lon="9.208567620477602"><ele>431.0</ele><time>2026-05-01T06:55:59.999Z</time></trkpt><trkpt lat="44.94432084908524" lon="9.208633104720565"><ele>431.0</ele><time>2026-05-01T06:56:02.999Z</time></trkpt><trkpt lat="44.944253373009325" lon="9.208701486884792"><ele>430.99999999999994</ele><time>2026-05-01T06:56:06.999Z</time></trkpt><trkpt lat="44.94421803901418" lon="9.208793265006678"><ele>431.0</ele><time>2026-05-01T06:56:10.999Z</time></trkpt><trkpt lat="44.94419651514134" lon="9.208885826803149"><ele>432.3333333333333</ele><time>2026-05-01T06:56:13.999Z</time></trkpt><trkpt lat="44.94417191254076" lon="9.208987829659272"><ele>433.66666666666663</ele><time>2026-05-01T06:56:18.999Z</time></trkpt><trkpt lat="44.944161142202" lon="9.209114860290885"><ele>435.0</ele><time>2026-05-01T06:56:24.999Z</time></trkpt><trkpt lat="44.9441312627884" lon="9.209200158006873"><ele>436.33333333333337</ele><time>2026-05-01T06:56:28.999Z</time></trkpt><trkpt lat="44.94407589045303" lon="9.209275156441558"><ele>437.6666666666667</ele><time>2026-05-01T06:56:32.999Z</time></trkpt><trkpt lat="44.94403720534284" lon="9.209357426134156"><ele>439.0</ele><time>2026-05-01T06:56:35.999Z</time></trkpt><trkpt lat="44.943983878529004" lon="9.209431692066458"><ele>439.85714285714283</ele><time>2026-05-01T06:56:37.999Z</time></trkpt><trkpt lat="44.94394216280858" lon="9.209503273810729"><ele>440.71428571428567</ele><time>2026-05-01T06:56:39.999Z</time></trkpt><trkpt lat="44.94389021299075" lon="9.209557839421823"><ele>441.57142857142856</ele><time>2026-05-01T06:56:41.999Z</time></trkpt><trkpt lat="44.94383621687784" lon="9.209639367274034"><ele>442.42857142857144</ele><time>2026-05-01T06:56:44.999Z</time></trkpt><trkpt lat="44.943790328783095" lon="9.209710844092477"><ele>443.2857142857143</ele><time>2026-05-01T06:56:46.999Z</time></trkpt><trkpt lat="44.94374353780057" lon="9.209773309664287"><ele>444.14285714285717</ele><time>2026-05-01T06:56:48.999Z</time></trkpt><trkpt lat="44.943688206419175" lon="9.209874320958761"><ele>445.0</ele><time>2026-05-01T06:56:51.999Z</time></trkpt><trkpt lat="44.943643670150884" lon="9.209964001763298"><ele>445.00000000000006</ele><time>2026-05-01T06:56:54.999Z</time></trkpt><trkpt lat="44.94359650567694" lon="9.21005414549354"><ele>445.0</ele><time>2026-05-01T06:56:57.999Z</time></trkpt><trkpt lat="44.94354317710829" lon="9.210108523179048"><ele>445.0</ele><time>2026-05-01T06:57:00Z</time></trkpt><trkpt lat="44.943464641829266" lon="9.21014335240895"><ele>445.0</ele><time>2026-05-01T06:57:03Z</time></trkpt><trkpt lat="44.94340293880444" lon="9.21017918984488"><ele>445.00000000000006</ele><time>2026-05-01T06:57:06Z</time></trkpt><trkpt lat="44.94333419423341" lon="9.210249375471449"><ele>445.0</ele><time>2026-05-01T06:57:09Z</time></trkpt><trkpt lat="44.943268549051794" lon="9.210303424381499"><ele>446.57142857142856</ele><time>2026-05-01T06:57:12Z</time></trkpt><trkpt lat="44.94320268344467" lon="9.210351489798471"><ele>448.1428571428571</ele><time>2026-05-01T06:57:15Z</time></trkpt><trkpt lat="44.94313253172962" lon="9.210365334592957"><ele>449.71428571428567</ele><time>2026-05-01T06:57:18Z</time></trkpt><trkpt lat="44.94305249254473" lon="9.210388575250951"><ele>451.2857142857143</ele><time>2026-05-01T06:57:21Z</time></trkpt><trkpt lat="44.942978097759" lon="9.210430688263486"><ele>452.8571428571428</ele><time>2026-05-01T06:57:25Z</time></trkpt><trkpt lat="44.94291627477063" lon="9.210459997929648"><ele>454.4285714285714</ele><time>2026-05-01T06:57:27Z</time></trkpt><trkpt lat="44.94284801718753" lon="9.210506830095376"><ele>456.0</ele><time>2026-05-01T06:57:30Z</time></trkpt><trkpt lat="44.94277766175054" lon="9.21057142408354"><ele>456.0</ele><time>2026-05-01T06:57:34Z</time></trkpt><trkpt lat="44.94269383291644" lon="9.21058723650863"><ele>456.0</ele><time>2026-05-01T06:57:38Z</time></trkpt><trkpt lat="44.942620967290175" lon="9.210615562610679"><ele>456.0</ele><time>2026-05-01T06:57:41Z</time></trkpt><trkpt lat="44.94254185378706" lon="9.210650846769575"><ele>456.0</ele><time>2026-05-01T06:57:45Z</time></trkpt><trkpt lat="44.942465934157305" lon="9.210689276956455"><ele>456.0</ele><time>2026-05-01T06:57:49Z</time></trkpt><trkpt lat="44.94239612198796" lon="9.210720845667517"><ele>456.0</ele><time>2026-05-01T06:57:52Z</time></trkpt><trkpt lat="44.94232237218947" lon="9.210735215862377"><ele>458.2857142857143</ele><time>2026-05-01T06:57:56Z</time></trkpt><trkpt lat="44.94224723591749" lon="9.21075921197997"><ele>460.57142857142856</ele><time>2026-05-01T06:57:59Z</time></trkpt><trkpt lat="44.94218102312277" lon="9.210787374152552"><ele>462.85714285714283</ele><time>2026-05-01T06:58:01.999Z</time></trkpt><trkpt lat="44.942116803617886" lon="9.210829919865406"><ele>465.1428571428571</ele><time>2026-05-01T06:58:04.999Z</time></trkpt><trkpt lat="44.94205414009787" lon="9.21086866290283"><ele>467.42857142857144</ele><time>2026-05-01T06:58:07.999Z</time></trkpt><trkpt lat="44.941983900521905" lon="9.21088658670841"><ele>469.71428571428567</ele><time>2026-05-01T06:58:10.999Z</time></trkpt><trkpt lat="44.94191459403582" lon="9.210909980265102"><ele>472.0</ele><time>2026-05-01T06:58:13.999Z</time></trkpt><trkpt lat="44.94183942403268" lon="9.210940921735117"><ele>472.00000000000006</ele><time>2026-05-01T06:58:17.999Z</time></trkpt><trkpt lat="44.941770374814595" lon="9.210979438096425"><ele>472.0</ele><time>2026-05-01T06:58:20.999Z</time></trkpt><trkpt lat="44.941708987062924" lon="9.211014039925013"><ele>472.0</ele><time>2026-05-01T06:58:23.999Z</time></trkpt><trkpt lat="44.941640467850775" lon="9.211037340805216"><ele>472.0</ele><time>2026-05-01T06:58:26.999Z</time></trkpt><trkpt lat="44.94156290654952" lon="9.211072865543981"><ele>472.00000000000006</ele><time>2026-05-01T06:58:30.999Z</time></trkpt><trkpt lat="44.941477433466424" lon="9.211121727293213"><ele>472.0</ele><time>2026-05-01T06:58:33.999Z</time></trkpt><trkpt lat="44.94141832532157" lon="9.211194339065901"><ele>474.00000000000006</ele><time>2026-05-01T06:58:37.999Z</time></trkpt><trkpt lat="44.941369898061694" lon="9.211261159871441"><ele>476.0</ele><time>2026-05-01T06:58:40.999Z</time></trkpt><trkpt lat="44.941363988686135" lon="9.21136247623037"><ele>478.0</ele><time>2026-05-01T06:58:45.999Z</time></trkpt><trkpt lat="44.94144804387229" lon="9.211433955885916"><ele>480.0</ele><time>2026-05-01T06:58:49.999Z</time></trkpt><trkpt lat="44.94150677970176" lon="9.211508558341546"><ele>482.00000000000006</ele><time>2026-05-01T06:58:51.999Z</time></trkpt><trkpt lat="44.94157406084501" lon="9.21159154076341"><ele>484.0</ele><time>2026-05-01T06:58:53.999Z</time></trkpt><trkpt lat="44.94164033356879" lon="9.211684695230247"><ele>484.00000000000006</ele><time>2026-05-01T06:58:55.999Z</time></trkpt><trkpt lat="44.9417137576174" lon="9.21179070256836"><ele>484.0</ele><time>2026-05-01T06:58:57.999Z</time></trkpt><trkpt lat="44.94177293815357" lon="9.211875701940654"><ele>484.0</ele><time>2026-05-01T06:58:59.999Z</time></trkpt><trkpt lat="44.941817295486764" lon="9.211942453310769"><ele>484.0</ele><time>2026-05-01T06:59:01.999Z</time></trkpt><trkpt lat="44.94186134956705" lon="9.212022423588493"><ele>484.00000000000006</ele><time>2026-05-01T06:59:04.999Z</time></trkpt><trkpt lat="44.941908125447604" lon="9.21209567348377"><ele>484.0</ele><time>2026-05-01T06:59:10Z</time></trkpt><trkpt lat="44.94184612950345" lon="9.21202629987767"><ele>484.00000000000006</ele><time>2026-05-01T07:04:36.999Z</time></trkpt><trkpt lat="44.94178101045509" lon="9.211936602116024"><ele>484.0</ele><time>2026-05-01T07:04:39.999Z</time></trkpt><trkpt lat="44.94172303123323" lon="9.211844817998585"><ele>484.0</ele><time>2026-05-01T07:04:42.999Z</time></trkpt><trkpt lat="44.94167599338798" lon="9.211777663779245"><ele>484.0</ele><time>2026-05-01T07:04:44.999Z</time></trkpt><trkpt lat="44.94162519315872" lon="9.211699558328625"><ele>484.00000000000006</ele><time>2026-05-01T07:04:47.999Z</time></trkpt><trkpt lat="44.94157189194023" lon="9.211610423031779"><ele>484.0</ele><time>2026-05-01T07:04:50.999Z</time></trkpt><trkpt lat="44.941514008281" lon="9.211545359712186"><ele>484.1666666666667</ele><time>2026-05-01T07:04:53.999Z</time></trkpt><trkpt lat="44.94145627850168" lon="9.211477821497017"><ele>484.33333333333337</ele><time>2026-05-01T07:04:56.999Z</time></trkpt><trkpt lat="44.9413977323801" lon="9.21140298173162"><ele>484.5</ele><time>2026-05-01T07:04:59.999Z</time></trkpt><trkpt lat="44.941325161075895" lon="9.211342952633721"><ele>484.66666666666663</ele><time>2026-05-01T07:05:03.999Z</time></trkpt><trkpt lat="44.941250755941354" lon="9.211353992383833"><ele>484.8333333333333</ele><time>2026-05-01T07:05:08.999Z</time></trkpt><trkpt lat="44.94118643190787" lon="9.211395643852331"><ele>485.0</ele><time>2026-05-01T07:05:13.999Z</time></trkpt><trkpt lat="44.94112410922157" lon="9.211430524157821"><ele>484.99999999999994</ele><time>2026-05-01T07:05:16.999Z</time></trkpt><trkpt lat="44.94105390353624" lon="9.211456134598315"><ele>485.0</ele><time>2026-05-01T07:05:19.999Z</time></trkpt><trkpt lat="44.94097247428389" lon="9.211494577177822"><ele>485.0</ele><time>2026-05-01T07:05:23.998Z</time></trkpt><trkpt lat="44.94090953683152" lon="9.211547849854565"><ele>485.0</ele><time>2026-05-01T07:05:26.998Z</time></trkpt><trkpt lat="44.940816528764685" lon="9.21156911340838"><ele>484.99999999999994</ele><time>2026-05-01T07:05:29.998Z</time></trkpt><trkpt lat="44.940737405662205" lon="9.211595917500938"><ele>485.0</ele><time>2026-05-01T07:05:31.998Z</time></trkpt><trkpt lat="44.94065489290495" lon="9.211641297889528"><ele>484.66666666666663</ele><time>2026-05-01T07:05:33.998Z</time></trkpt><trkpt lat="44.94058395148876" lon="9.211704146135801"><ele>484.3333333333333</ele><time>2026-05-01T07:05:35.998Z</time></trkpt><trkpt lat="44.94052430017107" lon="9.211741047721356"><ele>484.0</ele><time>2026-05-01T07:05:37.998Z</time></trkpt><trkpt lat="44.940451845474975" lon="9.211774908879876"><ele>483.66666666666663</ele><time>2026-05-01T07:05:39.998Z</time></trkpt><trkpt lat="44.940373460404736" lon="9.211859850016989"><ele>483.3333333333333</ele><time>2026-05-01T07:05:41.998Z</time></trkpt><trkpt lat="44.9403197753482" lon="9.211945434746553"><ele>483.0</ele><time>2026-05-01T07:05:43.998Z</time></trkpt><trkpt lat="44.94025584703978" lon="9.212047692395174"><ele>483.0</ele><time>2026-05-01T07:05:46.998Z</time></trkpt><trkpt lat="44.94020024027347" lon="9.21210348685672"><ele>483.0</ele><time>2026-05-01T07:05:48.998Z</time></trkpt><trkpt lat="44.940143637539855" lon="9.212161123000834"><ele>483.0</ele><time>2026-05-01T07:05:50.998Z</time></trkpt><trkpt lat="44.94007341384774" lon="9.212222554918842"><ele>483.0</ele><time>2026-05-01T07:05:52.998Z</time></trkpt><trkpt lat="44.939973321198316" lon="9.212274953442298"><ele>483.0</ele><time>2026-05-01T07:05:54.998Z</time></trkpt><trkpt lat="44.93991736894226" lon="9.212316761209776"><ele>483.0</ele><time>2026-05-01T07:05:55.998Z</time></trkpt><trkpt lat="44.939827918786804" lon="9.212405856937437"><ele>478.79999999999995</ele><time>2026-05-01T07:05:57.998Z</time></trkpt><trkpt lat="44.93973359020511" lon="9.212483364309694"><ele>474.59999999999997</ele><time>2026-05-01T07:05:59.998Z</time></trkpt><trkpt lat="44.93962575486445" lon="9.212550441769011"><ele>470.40000000000003</ele><time>2026-05-01T07:06:01.998Z</time></trkpt><trkpt lat="44.939534629074934" lon="9.212612259854911"><ele>466.20000000000005</ele><time>2026-05-01T07:06:03.998Z</time></trkpt><trkpt lat="44.93946311048614" lon="9.212654947731954"><ele>462.0</ele><time>2026-05-01T07:06:05.998Z</time></trkpt><trkpt lat="44.939377218757976" lon="9.212681242319212"><ele>462.0</ele><time>2026-05-01T07:06:07.998Z</time></trkpt><trkpt lat="44.939303628578074" lon="9.212730858962997"><ele>462.0</ele><time>2026-05-01T07:06:10.998Z</time></trkpt><trkpt lat="44.93922751533658" lon="9.21277799456001"><ele>462.0</ele><time>2026-05-01T07:06:13.998Z</time></trkpt><trkpt lat="44.939125926151675" lon="9.212779247510799"><ele>462.0</ele><time>2026-05-01T07:06:16.998Z</time></trkpt><trkpt lat="44.93905636579141" lon="9.212793062562303"><ele>462.0</ele><time>2026-05-01T07:06:18.998Z</time></trkpt><trkpt lat="44.938979214142655" lon="9.212791954047685"><ele>462.0</ele><time>2026-05-01T07:06:20.998Z</time></trkpt><trkpt lat="44.93890789256217" lon="9.212788740040505"><ele>462.1666666666667</ele><time>2026-05-01T07:06:22.998Z</time></trkpt><trkpt lat="44.93882727068059" lon="9.212770283688664"><ele>462.33333333333337</ele><time>2026-05-01T07:06:25.998Z</time></trkpt><trkpt lat="44.93873213573943" lon="9.212799516137336"><ele>462.5</ele><time>2026-05-01T07:06:28.998Z</time></trkpt><trkpt lat="44.938670430688624" lon="9.212821743781127"><ele>462.6666666666667</ele><time>2026-05-01T07:06:30.998Z</time></trkpt><trkpt lat="44.93860837681149" lon="9.212866815149209"><ele>462.83333333333337</ele><time>2026-05-01T07:06:32.998Z</time></trkpt><trkpt lat="44.938550393868994" lon="9.21292284368914"><ele>463.0</ele><time>2026-05-01T07:06:34.998Z</time></trkpt><trkpt lat="44.93849732212966" lon="9.212984296458435"><ele>463.0</ele><time>2026-05-01T07:06:36.998Z</time></trkpt><trkpt lat="44.938421059423156" lon="9.21304157155978"><ele>462.99999999999994</ele><time>2026-05-01T07:06:38.998Z</time></trkpt><trkpt lat="44.938356631151976" lon="9.213122386541967"><ele>462.99999999999994</ele><time>2026-05-01T07:06:40.998Z</time></trkpt><trkpt lat="44.938279832883175" lon="9.213235311830566"><ele>463.0</ele><time>2026-05-01T07:06:42.998Z</time></trkpt><trkpt lat="44.938241796707096" lon="9.213308041623225"><ele>463.0</ele><time>2026-05-01T07:06:43.998Z</time></trkpt><trkpt lat="44.93817550250427" lon="9.213434969049034"><ele>461.59999999999997</ele><time>2026-05-01T07:06:45.998Z</time></trkpt><trkpt lat="44.93810119166305" lon="9.21352291759702"><ele>460.19999999999993</ele><time>2026-05-01T07:06:47.998Z</time></trkpt><trkpt lat="44.9379933256882" lon="9.213556170722633"><ele>458.8</ele><time>2026-05-01T07:06:49.998Z</time></trkpt><trkpt lat="44.93787794500167" lon="9.213576881618064"><ele>457.4</ele><time>2026-05-01T07:06:51.998Z</time></trkpt><trkpt lat="44.937792517876574" lon="9.213635294845153"><ele>456.0</ele><time>2026-05-01T07:06:53.998Z</time></trkpt><trkpt lat="44.93774000493615" lon="9.213739865425307"><ele>456.0</ele><time>2026-05-01T07:06:55.998Z</time></trkpt><trkpt lat="44.93768816156582" lon="9.213839291736297"><ele>456.0</ele><time>2026-05-01T07:06:57.998Z</time></trkpt><trkpt lat="44.93763072379715" lon="9.213899423522149"><ele>456.0</ele><time>2026-05-01T07:06:59.998Z</time></trkpt><trkpt lat="44.937565216055305" lon="9.213962502938832"><ele>456.0</ele><time>2026-05-01T07:07:01.998Z</time></trkpt><trkpt lat="44.93749462568912" lon="9.21404061502435"><ele>456.0</ele><time>2026-05-01T07:07:03.998Z</time></trkpt><trkpt lat="44.93743134199678" lon="9.214085763931614"><ele>456.0</ele><time>2026-05-01T07:07:05.998Z</time></trkpt><trkpt lat="44.93736751069089" lon="9.214127960228252"><ele>455.8</ele><time>2026-05-01T07:07:07.997Z</time></trkpt><trkpt lat="44.937296705357774" lon="9.214186135647438"><ele>455.6</ele><time>2026-05-01T07:07:09.997Z</time></trkpt><trkpt lat="44.93721923416077" lon="9.214247383625672"><ele>455.4</ele><time>2026-05-01T07:07:11.997Z</time></trkpt><trkpt lat="44.93713029236687" lon="9.214314861288251"><ele>455.2</ele><time>2026-05-01T07:07:13.997Z</time></trkpt><trkpt lat="44.93703989105461" lon="9.214394543249474"><ele>455.0</ele><time>2026-05-01T07:07:15.997Z</time></trkpt><trkpt lat="44.93696646451637" lon="9.214469780665443"><ele>454.99999999999994</ele><time>2026-05-01T07:07:17.997Z</time></trkpt><trkpt lat="44.93690645779856" lon="9.214537071547761"><ele>455.0</ele><time>2026-05-01T07:07:19.997Z</time></trkpt><trkpt lat="44.936828146728786" lon="9.214591112385092"><ele>455.0</ele><time>2026-05-01T07:07:21.997Z</time></trkpt><trkpt lat="44.93676490541827" lon="9.214654513635942"><ele>455.0</ele><time>2026-05-01T07:07:23.997Z</time></trkpt><trkpt lat="44.93669295531698" lon="9.214739662344089"><ele>454.99999999999994</ele><time>2026-05-01T07:07:26.997Z</time></trkpt><trkpt lat="44.93664489886862" lon="9.214838614079069"><ele>455.0</ele><time>2026-05-01T07:07:29.997Z</time></trkpt><trkpt lat="44.93660343531525" lon="9.214908548914902"><ele>455.3333333333333</ele><time>2026-05-01T07:07:31.997Z</time></trkpt><trkpt lat="44.936556678601974" lon="9.215011244747158"><ele>455.66666666666663</ele><time>2026-05-01T07:07:34.997Z</time></trkpt><trkpt lat="44.9365086319242" lon="9.215101029047538"><ele>456.0</ele><time>2026-05-01T07:07:37.997Z</time></trkpt><trkpt lat="44.93645730057968" lon="9.215195879706938"><ele>456.33333333333337</ele><time>2026-05-01T07:07:40.997Z</time></trkpt><trkpt lat="44.93640006769671" lon="9.21530655400227"><ele>456.6666666666667</ele><time>2026-05-01T07:07:43.997Z</time></trkpt><trkpt lat="44.93638226379786" lon="9.215434480133586"><ele>457.0</ele><time>2026-05-01T07:07:46.997Z</time></trkpt><trkpt lat="44.93636211013344" lon="9.215591907974158"><ele>456.83333333333337</ele><time>2026-05-01T07:07:48.997Z</time></trkpt><trkpt lat="44.936324787031616" lon="9.215735129404305"><ele>456.6666666666667</ele><time>2026-05-01T07:07:50.997Z</time></trkpt><trkpt lat="44.93627831595455" lon="9.215829089370766"><ele>456.5</ele><time>2026-05-01T07:07:52.997Z</time></trkpt><trkpt lat="44.93620099926338" lon="9.215875812648981"><ele>456.33333333333337</ele><time>2026-05-01T07:07:55.997Z</time></trkpt><trkpt lat="44.936126975514" lon="9.215909419409622"><ele>456.1666666666667</ele><time>2026-05-01T07:07:58.997Z</time></trkpt><trkpt lat="44.93605964559798" lon="9.21594764915699"><ele>456.0</ele><time>2026-05-01T07:08:01.997Z</time></trkpt><trkpt lat="44.93599589918326" lon="9.21601841197944"><ele>456.0</ele><time>2026-05-01T07:08:04.997Z</time></trkpt><trkpt lat="44.93592712858562" lon="9.216088905940087"><ele>456.0</ele><time>2026-05-01T07:08:07.997Z</time></trkpt><trkpt lat="44.935857442673" lon="9.216129385178245"><ele>456.0</ele><time>2026-05-01T07:08:10.997Z</time></trkpt><trkpt lat="44.93577689474996" lon="9.216146580660345"><ele>456.0</ele><time>2026-05-01T07:08:13.997Z</time></trkpt><trkpt lat="44.93570644709893" lon="9.21611855015855"><ele>456.0</ele><time>2026-05-01T07:08:18.997Z</time></trkpt><trkpt lat="44.93563598436497" lon="9.216121600093425"><ele>456.0</ele><time>2026-05-01T07:08:22.997Z</time></trkpt><trkpt lat="44.93555575963329" lon="9.216139771001364"><ele>456.6</ele><time>2026-05-01T07:08:26.997Z</time></trkpt><trkpt lat="44.935480639592434" lon="9.216211908047043"><ele>457.20000000000005</ele><time>2026-05-01T07:08:29.997Z</time></trkpt><trkpt lat="44.93545708751143" lon="9.216337677308763"><ele>457.79999999999995</ele><time>2026-05-01T07:08:31.997Z</time></trkpt><trkpt lat="44.935435550691906" lon="9.21648591295083"><ele>458.4</ele><time>2026-05-01T07:08:33.997Z</time></trkpt><trkpt lat="44.93538217847363" lon="9.216620795146808"><ele>459.0</ele><time>2026-05-01T07:08:35.997Z</time></trkpt><trkpt lat="44.93531573063976" lon="9.216713390506573"><ele>459.5</ele><time>2026-05-01T07:08:37.997Z</time></trkpt><trkpt lat="44.93522105945977" lon="9.216772306618354"><ele>460.0</ele><time>2026-05-01T07:08:39.997Z</time></trkpt><trkpt lat="44.93515443270392" lon="9.216811148061396"><ele>460.5</ele><time>2026-05-01T07:08:40.997Z</time></trkpt><trkpt lat="44.9350915543405" lon="9.21684768774718"><ele>461.0</ele><time>2026-05-01T07:08:41.997Z</time></trkpt><trkpt lat="44.93502348611237" lon="9.21688040821746"><ele>461.5</ele><time>2026-05-01T07:08:42.997Z</time></trkpt><trkpt lat="44.93495150673675" lon="9.216917113218715"><ele>462.0</ele><time>2026-05-01T07:08:43.997Z</time></trkpt><trkpt lat="44.93488472367042" lon="9.216952944299026"><ele>462.0</ele><time>2026-05-01T07:08:44.997Z</time></trkpt><trkpt lat="44.93482485400437" lon="9.217002013010246"><ele>462.0</ele><time>2026-05-01T07:08:45.997Z</time></trkpt><trkpt lat="44.93476843346738" lon="9.217061892322867"><ele>462.0</ele><time>2026-05-01T07:08:46.997Z</time></trkpt><trkpt lat="44.93467484490752" lon="9.217164238568982"><ele>462.0</ele><time>2026-05-01T07:08:48.997Z</time></trkpt><trkpt lat="44.93459858598001" lon="9.217215633052362"><ele>462.0</ele><time>2026-05-01T07:08:50.996Z</time></trkpt><trkpt lat="44.93453920689538" lon="9.217246019554441"><ele>462.0</ele><time>2026-05-01T07:08:52.996Z</time></trkpt><trkpt lat="44.93447866543596" lon="9.217280461488524"><ele>462.0</ele><time>2026-05-01T07:08:54.996Z</time></trkpt><trkpt lat="44.934412498548355" lon="9.217286455426386"><ele>462.0</ele><time>2026-05-01T07:08:56.996Z</time></trkpt><trkpt lat="44.934318482933556" lon="9.217294170297974"><ele>462.0</ele><time>2026-05-01T07:08:59.996Z</time></trkpt><trkpt lat="44.93425432899523" lon="9.217295546309067"><ele>462.0</ele><time>2026-05-01T07:09:01.996Z</time></trkpt><trkpt lat="44.93417316741667" lon="9.217303167631709"><ele>462.0</ele><time>2026-05-01T07:09:04.996Z</time></trkpt><trkpt lat="44.93408982260198" lon="9.217323407570877"><ele>462.0</ele><time>2026-05-01T07:09:07.996Z</time></trkpt><trkpt lat="44.934024174499335" lon="9.217346467437327"><ele>462.42857142857144</ele><time>2026-05-01T07:09:09.996Z</time></trkpt><trkpt lat="44.93396255914134" lon="9.217372369765064"><ele>462.8571428571429</ele><time>2026-05-01T07:09:11.996Z</time></trkpt><trkpt lat="44.93389538111528" lon="9.217403468906856"><ele>463.2857142857143</ele><time>2026-05-01T07:09:13.996Z</time></trkpt><trkpt lat="44.93382049613124" lon="9.21742547499426"><ele>463.7142857142857</ele><time>2026-05-01T07:09:15.996Z</time></trkpt><trkpt lat="44.933754692853284" lon="9.21744384550652"><ele>464.14285714285717</ele><time>2026-05-01T07:09:17.996Z</time></trkpt><trkpt lat="44.933681893490714" lon="9.21746070609215"><ele>464.57142857142856</ele><time>2026-05-01T07:09:20.996Z</time></trkpt><trkpt lat="44.93359172689776" lon="9.217477605525518"><ele>465.0</ele><time>2026-05-01T07:09:23.996Z</time></trkpt><trkpt lat="44.93352587882843" lon="9.217481960503848"><ele>465.0</ele><time>2026-05-01T07:09:25.996Z</time></trkpt><trkpt lat="44.93345561777085" lon="9.217498686731938"><ele>465.0</ele><time>2026-05-01T07:09:27.996Z</time></trkpt><trkpt lat="44.93337300026996" lon="9.21751775725016"><ele>465.0</ele><time>2026-05-01T07:09:29.996Z</time></trkpt><trkpt lat="44.93329846518764" lon="9.217521194752296"><ele>465.0</ele><time>2026-05-01T07:09:31.996Z</time></trkpt><trkpt lat="44.93322807392855" lon="9.217521938634125"><ele>465.0</ele><time>2026-05-01T07:09:33.996Z</time></trkpt><trkpt lat="44.93316127559696" lon="9.217512667652981"><ele>465.0</ele><time>2026-05-01T07:09:35.996Z</time></trkpt><trkpt lat="44.93309821587851" lon="9.217500605530974"><ele>465.0</ele><time>2026-05-01T07:09:37.996Z</time></trkpt><trkpt lat="44.93300453031522" lon="9.217471569194965"><ele>466.0</ele><time>2026-05-01T07:09:40.996Z</time></trkpt><trkpt lat="44.93294327908697" lon="9.217449498846877"><ele>467.0</ele><time>2026-05-01T07:09:42.996Z</time></trkpt><trkpt lat="44.93286801818824" lon="9.217412746223992"><ele>468.0</ele><time>2026-05-01T07:09:45.996Z</time></trkpt><trkpt lat="44.93279251484311" lon="9.217407758205466"><ele>469.0</ele><time>2026-05-01T07:09:48.996Z</time></trkpt><trkpt lat="44.93272283074634" lon="9.217443457025476"><ele>470.0</ele><time>2026-05-01T07:09:53.996Z</time></trkpt><trkpt lat="44.93269946359638" lon="9.217533731213372"><ele>471.0</ele><time>2026-05-01T07:09:56.996Z</time></trkpt><trkpt lat="44.93271379256935" lon="9.217635850312856"><ele>472.0</ele><time>2026-05-01T07:10:01.996Z</time></trkpt><trkpt lat="44.93272760958356" lon="9.217742077410332"><ele>472.0</ele><time>2026-05-01T07:10:06.996Z</time></trkpt><trkpt lat="44.93271440607391" lon="9.21783551781314"><ele>472.0</ele><time>2026-05-01T07:10:09.996Z</time></trkpt><trkpt lat="44.93270871060019" lon="9.21793827664899"><ele>472.0</ele><time>2026-05-01T07:10:12.996Z</time></trkpt><trkpt lat="44.932705573298534" lon="9.218060767358836"><ele>472.0</ele><time>2026-05-01T07:10:16.996Z</time></trkpt><trkpt lat="44.93268768888206" lon="9.218158238770389"><ele>472.0</ele><time>2026-05-01T07:10:19.996Z</time></trkpt><trkpt lat="44.932686224343676" lon="9.218247472796707"><ele>472.0</ele><time>2026-05-01T07:10:22.996Z</time></trkpt><trkpt lat="44.932677442296615" lon="9.218366938819253"><ele>472.0</ele><time>2026-05-01T07:10:25.996Z</time></trkpt><trkpt lat="44.932628792977376" lon="9.218459217276658"><ele>471.33333333333337</ele><time>2026-05-01T07:10:29.996Z</time></trkpt><trkpt lat="44.93259911353111" lon="9.21854621004772"><ele>470.6666666666667</ele><time>2026-05-01T07:10:36.995Z</time></trkpt><trkpt lat="44.93252591853209" lon="9.218477645020839"><ele>470.0</ele><time>2026-05-01T07:10:45.995Z</time></trkpt><trkpt lat="44.93247670116013" lon="9.218378722720855"><ele>469.33333333333337</ele><time>2026-05-01T07:10:48.995Z</time></trkpt><trkpt lat="44.932437179725966" lon="9.218276240186741"><ele>468.6666666666667</ele><time>2026-05-01T07:10:51.995Z</time></trkpt><trkpt lat="44.93239390538386" lon="9.218161385135447"><ele>468.0</ele><time>2026-05-01T07:10:54.995Z</time></trkpt><trkpt lat="44.93236127658544" lon="9.218049043761468"><ele>471.6666666666667</ele><time>2026-05-01T07:10:57.995Z</time></trkpt><trkpt lat="44.932331995214604" lon="9.217946017072757"><ele>475.33333333333337</ele><time>2026-05-01T07:11:00.995Z</time></trkpt><trkpt lat="44.93232242765814" lon="9.217826682514117"><ele>479.0</ele><time>2026-05-01T07:11:03.995Z</time></trkpt><trkpt lat="44.932309955660344" lon="9.217692178717991"><ele>482.6666666666667</ele><time>2026-05-01T07:11:06.995Z</time></trkpt><trkpt lat="44.932290297996154" lon="9.217598287524389"><ele>486.33333333333337</ele><time>2026-05-01T07:11:08.995Z</time></trkpt><trkpt lat="44.93226483561685" lon="9.217511837234566"><ele>490.0</ele><time>2026-05-01T07:11:10.995Z</time></trkpt><trkpt lat="44.932238912579415" lon="9.217421535719062"><ele>490.00000000000006</ele><time>2026-05-01T07:11:12.995Z</time></trkpt><trkpt lat="44.93220448389796" lon="9.217342822434741"><ele>490.0</ele><time>2026-05-01T07:11:14.995Z</time></trkpt><trkpt lat="44.932144277643204" lon="9.217262239502771"><ele>490.0</ele><time>2026-05-01T07:11:16.995Z</time></trkpt><trkpt lat="44.93208481418746" lon="9.217195127800254"><ele>490.0</ele><time>2026-05-01T07:11:18.995Z</time></trkpt><trkpt lat="44.93201840989924" lon="9.21709811122566"><ele>490.00000000000006</ele><time>2026-05-01T07:11:20.995Z</time></trkpt><trkpt lat="44.93196892023909" lon="9.217012471028946"><ele>490.0</ele><time>2026-05-01T07:11:22.995Z</time></trkpt><trkpt lat="44.93190438458589" lon="9.21691910399091"><ele>491.00000000000006</ele><time>2026-05-01T07:11:25.995Z</time></trkpt><trkpt lat="44.9318307154164" lon="9.216838418107532"><ele>492.0</ele><time>2026-05-01T07:11:28.995Z</time></trkpt><trkpt lat="44.9317540103093" lon="9.216814125424976"><ele>493.0</ele><time>2026-05-01T07:11:31.995Z</time></trkpt><trkpt lat="44.9316739000009" lon="9.216776045363016"><ele>494.0</ele><time>2026-05-01T07:11:34.995Z</time></trkpt><trkpt lat="44.93160181632326" lon="9.216739829162005"><ele>495.00000000000006</ele><time>2026-05-01T07:11:37.995Z</time></trkpt><trkpt lat="44.93154702999769" lon="9.216653718145242"><ele>496.0</ele><time>2026-05-01T07:11:40.995Z</time></trkpt><trkpt lat="44.93149444830073" lon="9.216577346447114"><ele>496.00000000000006</ele><time>2026-05-01T07:11:42.995Z</time></trkpt><trkpt lat="44.931398506070586" lon="9.216494000559676"><ele>496.0</ele><time>2026-05-01T07:11:46.995Z</time></trkpt><trkpt lat="44.93134325836618" lon="9.216449454886039"><ele>496.0</ele><time>2026-05-01T07:11:48.995Z</time></trkpt><trkpt lat="44.931263489562085" lon="9.21642281178461"><ele>496.0</ele><time>2026-05-01T07:11:51.995Z</time></trkpt><trkpt lat="44.93118074369164" lon="9.21641471111105"><ele>496.00000000000006</ele><time>2026-05-01T07:11:54.995Z</time></trkpt><trkpt lat="44.93109190065492" lon="9.216449269423638"><ele>496.0</ele><time>2026-05-01T07:11:56.995Z</time></trkpt><trkpt lat="44.93103978710108" lon="9.216499285689773"><ele>496.0</ele><time>2026-05-01T07:11:58.995Z</time></trkpt><trkpt lat="44.93097473767122" lon="9.21656856088425"><ele>496.0</ele><time>2026-05-01T07:12:00.995Z</time></trkpt><trkpt lat="44.930884580521884" lon="9.216655577002578"><ele>496.0</ele><time>2026-05-01T07:12:02.995Z</time></trkpt><trkpt lat="44.930781531850094" lon="9.216728945796667"><ele>496.0</ele><time>2026-05-01T07:12:04.995Z</time></trkpt><trkpt lat="44.930698770971" lon="9.216798865294184"><ele>496.0</ele><time>2026-05-01T07:12:06.995Z</time></trkpt><trkpt lat="44.930644079792984" lon="9.216868912872755"><ele>497.00000000000006</ele><time>2026-05-01T07:12:08.995Z</time></trkpt><trkpt lat="44.93057166754328" lon="9.216955136687437"><ele>498.0</ele><time>2026-05-01T07:12:11.995Z</time></trkpt><trkpt lat="44.9305045701577" lon="9.216979318519538"><ele>499.0</ele><time>2026-05-01T07:12:13.995Z</time></trkpt><trkpt lat="44.93042863620276" lon="9.217002180240732"><ele>500.0</ele><time>2026-05-01T07:12:15.994Z</time></trkpt><trkpt lat="44.930359293708335" lon="9.217039701743401"><ele>501.00000000000006</ele><time>2026-05-01T07:12:17.994Z</time></trkpt><trkpt lat="44.93027842726123" lon="9.2170656386159"><ele>502.0</ele><time>2026-05-01T07:12:19.994Z</time></trkpt><trkpt lat="44.93021135129417" lon="9.21707225132502"><ele>502.00000000000006</ele><time>2026-05-01T07:12:21.994Z</time></trkpt><trkpt lat="44.930138983471075" lon="9.217110510914914"><ele>502.0</ele><time>2026-05-01T07:12:24.994Z</time></trkpt><trkpt lat="44.93008273086545" lon="9.217155550350968"><ele>502.0</ele><time>2026-05-01T07:12:26.994Z</time></trkpt><trkpt lat="44.93003939179974" lon="9.21722301866762"><ele>502.0</ele><time>2026-05-01T07:12:28.994Z</time></trkpt><trkpt lat="44.929965017844445" lon="9.217295924219851"><ele>502.00000000000006</ele><time>2026-05-01T07:12:31.994Z</time></trkpt><trkpt lat="44.92987882053609" lon="9.217325692953313"><ele>502.0</ele><time>2026-05-01T07:12:34.994Z</time></trkpt><trkpt lat="44.92980023166125" lon="9.217320007745998"><ele>502.00000000000006</ele><time>2026-05-01T07:12:36.994Z</time></trkpt><trkpt lat="44.92972005501781" lon="9.217280747360578"><ele>502.0</ele><time>2026-05-01T07:12:39.994Z</time></trkpt><trkpt lat="44.9296265825103" lon="9.217257599937902"><ele>502.0</ele><time>2026-05-01T07:12:42.994Z</time></trkpt><trkpt lat="44.92956187579356" lon="9.217225141168058"><ele>502.0</ele><time>2026-05-01T07:12:44.994Z</time></trkpt><trkpt lat="44.92949697225102" lon="9.217210584073687"><ele>502.00000000000006</ele><time>2026-05-01T07:12:46.994Z</time></trkpt><trkpt lat="44.92940676294863" lon="9.21717398889469"><ele>502.0</ele><time>2026-05-01T07:12:49.994Z</time></trkpt><trkpt lat="44.92934324969557" lon="9.217174300624192"><ele>502.00000000000006</ele><time>2026-05-01T07:12:51.994Z</time></trkpt><trkpt lat="44.92927171860354" lon="9.217178659751127"><ele>502.0</ele><time>2026-05-01T07:12:54.994Z</time></trkpt><trkpt lat="44.929199366861226" lon="9.217202418567865"><ele>502.0</ele><time>2026-05-01T07:12:57.994Z</time></trkpt><trkpt lat="44.929128928399265" lon="9.217236185182342"><ele>502.0</ele><time>2026-05-01T07:13:00.994Z</time></trkpt><trkpt lat="44.92905104417226" lon="9.217272614418501"><ele>502.00000000000006</ele><time>2026-05-01T07:13:03.994Z</time></trkpt><trkpt lat="44.92895224285416" lon="9.217301719105826"><ele>502.0</ele><time>2026-05-01T07:13:06.994Z</time></trkpt><trkpt lat="44.92888791937161" lon="9.217314519301743"><ele>504.6666666666667</ele><time>2026-05-01T07:13:08.994Z</time></trkpt><trkpt lat="44.92882361495524" lon="9.217339454919504"><ele>507.33333333333337</ele><time>2026-05-01T07:13:10.994Z</time></trkpt><trkpt lat="44.92875805689292" lon="9.217379368136639"><ele>510.0</ele><time>2026-05-01T07:13:13.994Z</time></trkpt><trkpt lat="44.928681812591705" lon="9.217439228837584"><ele>512.6666666666666</ele><time>2026-05-01T07:13:16.994Z</time></trkpt><trkpt lat="44.928596349958475" lon="9.217481647853583"><ele>515.3333333333333</ele><time>2026-05-01T07:13:19.994Z</time></trkpt><trkpt lat="44.928507238297904" lon="9.217520781574018"><ele>518.0</ele><time>2026-05-01T07:13:23.994Z</time></trkpt><trkpt lat="44.92842224046442" lon="9.217575338224606"><ele>519.2857142857143</ele><time>2026-05-01T07:13:27.994Z</time></trkpt><trkpt lat="44.92835634194999" lon="9.217604809937843"><ele>520.5714285714286</ele><time>2026-05-01T07:13:30.994Z</time></trkpt><trkpt lat="44.92829838905222" lon="9.217642236568466"><ele>521.8571428571429</ele><time>2026-05-01T07:13:33.994Z</time></trkpt><trkpt lat="44.92821680656983" lon="9.217696009963102"><ele>523.1428571428571</ele><time>2026-05-01T07:13:37.994Z</time></trkpt><trkpt lat="44.928160605142445" lon="9.217736401017486"><ele>524.4285714285714</ele><time>2026-05-01T07:13:41.994Z</time></trkpt><trkpt lat="44.92809047859845" lon="9.217775302477003"><ele>525.7142857142858</ele><time>2026-05-01T07:13:44.994Z</time></trkpt><trkpt lat="44.92802231408255" lon="9.217819676958843"><ele>527.0</ele><time>2026-05-01T07:13:47.994Z</time></trkpt><trkpt lat="44.9279443462069" lon="9.21782141706661"><ele>527.0000000000001</ele><time>2026-05-01T07:13:50.994Z</time></trkpt><trkpt lat="44.92787583735741" lon="9.217850678558735"><ele>527.0</ele><time>2026-05-01T07:13:54.994Z</time></trkpt><trkpt lat="44.92781386346025" lon="9.217866692912333"><ele>527.0</ele><time>2026-05-01T07:13:57.994Z</time></trkpt><trkpt lat="44.927728800137935" lon="9.21788893786245"><ele>527.0</ele><time>2026-05-01T07:14:01.993Z</time></trkpt><trkpt lat="44.92765060090786" lon="9.217900891406494"><ele>527.0</ele><time>2026-05-01T07:14:04.993Z</time></trkpt><trkpt lat="44.92757624341602" lon="9.217921873680373"><ele>527.0000000000001</ele><time>2026-05-01T07:14:08.993Z</time></trkpt><trkpt lat="44.92751005268828" lon="9.21794845903373"><ele>527.0</ele><time>2026-05-01T07:14:11.993Z</time></trkpt><trkpt lat="44.92743821120845" lon="9.217961166864667"><ele>528.5714285714287</ele><time>2026-05-01T07:14:15.993Z</time></trkpt><trkpt lat="44.927368638527476" lon="9.217964706240972"><ele>530.1428571428571</ele><time>2026-05-01T07:14:18.993Z</time></trkpt><trkpt lat="44.927284221039486" lon="9.217986347257577"><ele>531.7142857142858</ele><time>2026-05-01T07:14:22.993Z</time></trkpt><trkpt lat="44.92721312889762" lon="9.217949687938535"><ele>533.2857142857143</ele><time>2026-05-01T07:14:27.993Z</time></trkpt><trkpt lat="44.9271488160296" lon="9.21791249569879"><ele>534.8571428571429</ele><time>2026-05-01T07:14:29.993Z</time></trkpt><trkpt lat="44.927095789776374" lon="9.217864457897939"><ele>536.4285714285714</ele><time>2026-05-01T07:14:31.993Z</time></trkpt><trkpt lat="44.92703136870743" lon="9.217806576469197"><ele>538.0</ele><time>2026-05-01T07:14:33.993Z</time></trkpt><trkpt lat="44.9269768656505" lon="9.21776158809686"><ele>538.0</ele><time>2026-05-01T07:14:34.993Z</time></trkpt><trkpt lat="44.926914714593636" lon="9.217694996696435"><ele>538.0</ele><time>2026-05-01T07:14:35.993Z</time></trkpt><trkpt lat="44.92685198998812" lon="9.21760928041907"><ele>538.0</ele><time>2026-05-01T07:14:36.993Z</time></trkpt><trkpt lat="44.9267903483219" lon="9.217528475867773"><ele>538.0</ele><time>2026-05-01T07:14:37.993Z</time></trkpt><trkpt lat="44.92673422122141" lon="9.217458266981613"><ele>538.0</ele><time>2026-05-01T07:14:38.993Z</time></trkpt><trkpt lat="44.926687483846116" lon="9.217393334476178"><ele>538.0</ele><time>2026-05-01T07:14:39.993Z</time></trkpt><trkpt lat="44.92663860261199" lon="9.217333596370345"><ele>536.5</ele><time>2026-05-01T07:14:40.993Z</time></trkpt><trkpt lat="44.9265908781337" lon="9.217275354399877"><ele>535.0</ele><time>2026-05-01T07:14:41.993Z</time></trkpt><trkpt lat="44.92653241034357" lon="9.217226451001089"><ele>533.5</ele><time>2026-05-01T07:14:42.993Z</time></trkpt><trkpt lat="44.92642877844664" lon="9.21715698526487"><ele>532.0</ele><time>2026-05-01T07:14:44.993Z</time></trkpt><trkpt lat="44.92636842532645" lon="9.217121117110189"><ele>530.5</ele><time>2026-05-01T07:14:45.993Z</time></trkpt><trkpt lat="44.92625594326338" lon="9.217050797241138"><ele>529.0</ele><time>2026-05-01T07:14:47.993Z</time></trkpt><trkpt lat="44.92616545495079" lon="9.216964942035055"><ele>529.0</ele><time>2026-05-01T07:14:49.993Z</time></trkpt><trkpt lat="44.926090663255835" lon="9.21688575102869"><ele>529.0</ele><time>2026-05-01T07:14:51.993Z</time></trkpt><trkpt lat="44.9260220880836" lon="9.216820259816329"><ele>529.0</ele><time>2026-05-01T07:14:53.993Z</time></trkpt><trkpt lat="44.92596165479409" lon="9.216742931074295"><ele>529.0</ele><time>2026-05-01T07:14:55.993Z</time></trkpt><trkpt lat="44.92589081734452" lon="9.21663481279376"><ele>529.0</ele><time>2026-05-01T07:14:57.993Z</time></trkpt><trkpt lat="44.92583174080507" lon="9.216537087590593"><ele>529.0</ele><time>2026-05-01T07:14:59.993Z</time></trkpt><trkpt lat="44.92579339961373" lon="9.21643421100565"><ele>529.0</ele><time>2026-05-01T07:15:01.993Z</time></trkpt><trkpt lat="44.925756487993084" lon="9.216333568566332"><ele>529.0</ele><time>2026-05-01T07:15:03.993Z</time></trkpt><trkpt lat="44.925689516625766" lon="9.216265811766444"><ele>529.0</ele><time>2026-05-01T07:15:06.993Z</time></trkpt><trkpt lat="44.925614601583696" lon="9.216221590046345"><ele>529.0</ele><time>2026-05-01T07:15:10.993Z</time></trkpt><trkpt lat="44.925532691532574" lon="9.216211082465396"><ele>529.0</ele><time>2026-05-01T07:15:13.993Z</time></trkpt><trkpt lat="44.92546608082048" lon="9.216213794009876"><ele>529.0</ele><time>2026-05-01T07:15:15.993Z</time></trkpt><trkpt lat="44.925370287388915" lon="9.216215486514011"><ele>529.0</ele><time>2026-05-01T07:15:17.993Z</time></trkpt><trkpt lat="44.92524300301285" lon="9.216228028237309"><ele>529.0</ele><time>2026-05-01T07:15:19.993Z</time></trkpt><trkpt lat="44.925143033815594" lon="9.21622924984992"><ele>529.0</ele><time>2026-05-01T07:15:21.993Z</time></trkpt><trkpt lat="44.92502619909865" lon="9.216207707081516"><ele>529.0</ele><time>2026-05-01T07:15:23.993Z</time></trkpt><trkpt lat="44.92496284369815" lon="9.216186390949423"><ele>528.0</ele><time>2026-05-01T07:15:24.993Z</time></trkpt><trkpt lat="44.92489057824102" lon="9.216171110676713"><ele>527.0</ele><time>2026-05-01T07:15:25.993Z</time></trkpt><trkpt lat="44.92481109567164" lon="9.21616351949849"><ele>526.0</ele><time>2026-05-01T07:15:26.993Z</time></trkpt><trkpt lat="44.924722875214954" lon="9.216144358161344"><ele>525.0</ele><time>2026-05-01T07:15:27.993Z</time></trkpt><trkpt lat="44.92463647661938" lon="9.21611991875061"><ele>524.0</ele><time>2026-05-01T07:15:28.993Z</time></trkpt><trkpt lat="44.924549271875364" lon="9.216096853623624"><ele>523.0</ele><time>2026-05-01T07:15:29.993Z</time></trkpt><trkpt lat="44.92445411038791" lon="9.216078590343017"><ele>523.0</ele><time>2026-05-01T07:15:30.993Z</time></trkpt><trkpt lat="44.924366267305714" lon="9.216056814856573"><ele>523.0</ele><time>2026-05-01T07:15:31.993Z</time></trkpt><trkpt lat="44.92427493543311" lon="9.216038446457556"><ele>523.0</ele><time>2026-05-01T07:15:32.993Z</time></trkpt><trkpt lat="44.92418495371125" lon="9.216029443749985"><ele>523.0</ele><time>2026-05-01T07:15:33.993Z</time></trkpt><trkpt lat="44.92408848927602" lon="9.21601851262107"><ele>523.0</ele><time>2026-05-01T07:15:34.993Z</time></trkpt><trkpt lat="44.9239964654344" lon="9.21601547823167"><ele>521.0</ele><time>2026-05-01T07:15:35.993Z</time></trkpt><trkpt lat="44.92390236471379" lon="9.216003965972854"><ele>519.0</ele><time>2026-05-01T07:15:36.993Z</time></trkpt><trkpt lat="44.9238078468187" lon="9.216001620862952"><ele>517.0</ele><time>2026-05-01T07:15:37.993Z</time></trkpt><trkpt lat="44.923710669594996" lon="9.216012061604298"><ele>515.0</ele><time>2026-05-01T07:15:38.993Z</time></trkpt><trkpt lat="44.92361334791145" lon="9.216018471820563"><ele>513.0</ele><time>2026-05-01T07:15:39.993Z</time></trkpt><trkpt lat="44.92351064731724" lon="9.216039582799835"><ele>513.0</ele><time>2026-05-01T07:15:40.992Z</time></trkpt><trkpt lat="44.923412272641826" lon="9.216062819967883"><ele>513.0</ele><time>2026-05-01T07:15:41.992Z</time></trkpt><trkpt lat="44.923321714428965" lon="9.216083773705757"><ele>513.0</ele><time>2026-05-01T07:15:42.992Z</time></trkpt><trkpt lat="44.92324289580363" lon="9.21611122470324"><ele>513.0</ele><time>2026-05-01T07:15:43.992Z</time></trkpt><trkpt lat="44.923164588695684" lon="9.216131682536348"><ele>513.0</ele><time>2026-05-01T07:15:44.992Z</time></trkpt><trkpt lat="44.92308671101284" lon="9.216136480068327"><ele>513.0</ele><time>2026-05-01T07:15:45.992Z</time></trkpt><trkpt lat="44.92299888895583" lon="9.216130773716584"><ele>511.0</ele><time>2026-05-01T07:15:46.992Z</time></trkpt><trkpt lat="44.92291204478771" lon="9.216129193453874"><ele>508.99999999999994</ele><time>2026-05-01T07:15:47.992Z</time></trkpt><trkpt lat="44.922819350588874" lon="9.216136084675052"><ele>506.99999999999994</ele><time>2026-05-01T07:15:48.992Z</time></trkpt><trkpt lat="44.92272670180795" lon="9.216141522467554"><ele>505.0</ele><time>2026-05-01T07:15:49.992Z</time></trkpt><trkpt lat="44.922634164486276" lon="9.216137263142341"><ele>503.0</ele><time>2026-05-01T07:15:50.992Z</time></trkpt><trkpt lat="44.92254503628479" lon="9.216116492897216"><ele>502.16666666666663</ele><time>2026-05-01T07:15:51.992Z</time></trkpt><trkpt lat="44.9224578651852" lon="9.216080850851204"><ele>501.3333333333333</ele><time>2026-05-01T07:15:52.992Z</time></trkpt><trkpt lat="44.922374571600706" lon="9.216064864787775"><ele>500.5</ele><time>2026-05-01T07:15:53.992Z</time></trkpt><trkpt lat="44.922299225071974" lon="9.216043265620304"><ele>499.66666666666663</ele><time>2026-05-01T07:15:54.992Z</time></trkpt><trkpt lat="44.92222549943248" lon="9.21601884264484"><ele>498.8333333333333</ele><time>2026-05-01T07:15:55.992Z</time></trkpt><trkpt lat="44.922106953161524" lon="9.2159951319535"><ele>498.0</ele><time>2026-05-01T07:15:57.992Z</time></trkpt><trkpt lat="44.922011599246936" lon="9.215909654084104"><ele>498.0</ele><time>2026-05-01T07:15:59.992Z</time></trkpt><trkpt lat="44.92192618538047" lon="9.215949725250605"><ele>498.0</ele><time>2026-05-01T07:16:01.992Z</time></trkpt><trkpt lat="44.92184106211822" lon="9.215951700657694"><ele>498.0</ele><time>2026-05-01T07:16:03.992Z</time></trkpt><trkpt lat="44.92176207054619" lon="9.21594166255837"><ele>498.0</ele><time>2026-05-01T07:16:05.992Z</time></trkpt><trkpt lat="44.92167515472701" lon="9.215949419811253"><ele>498.0</ele><time>2026-05-01T07:16:07.992Z</time></trkpt><trkpt lat="44.921591043112365" lon="9.215962488771721"><ele>498.0</ele><time>2026-05-01T07:16:09.992Z</time></trkpt><trkpt lat="44.92149812617104" lon="9.215962483208004"><ele>499.0</ele><time>2026-05-01T07:16:12.992Z</time></trkpt><trkpt lat="44.92141408761545" lon="9.215951136291304"><ele>500.0</ele><time>2026-05-01T07:16:15.992Z</time></trkpt><trkpt lat="44.921346212640074" lon="9.215956575130573"><ele>501.0</ele><time>2026-05-01T07:16:17.992Z</time></trkpt><trkpt lat="44.921259562053606" lon="9.215927246742291"><ele>502.0</ele><time>2026-05-01T07:16:19.992Z</time></trkpt><trkpt lat="44.921175431548725" lon="9.215883657106255"><ele>503.0</ele><time>2026-05-01T07:16:21.992Z</time></trkpt><trkpt lat="44.92110762200809" lon="9.215835773750083"><ele>504.0</ele><time>2026-05-01T07:16:23.992Z</time></trkpt><trkpt lat="44.9210212813408" lon="9.215809810037078"><ele>504.0</ele><time>2026-05-01T07:16:25.992Z</time></trkpt><trkpt lat="44.92092727053374" lon="9.21577801745442"><ele>504.0</ele><time>2026-05-01T07:16:27.992Z</time></trkpt><trkpt lat="44.920822405309174" lon="9.215736304200014"><ele>504.0</ele><time>2026-05-01T07:16:29.992Z</time></trkpt><trkpt lat="44.92073910547071" lon="9.215703211870965"><ele>504.0</ele><time>2026-05-01T07:16:31.992Z</time></trkpt><trkpt lat="44.92064294553868" lon="9.215678322759821"><ele>504.0</ele><time>2026-05-01T07:16:33.992Z</time></trkpt><trkpt lat="44.92056111070287" lon="9.2156396788401"><ele>503.8571428571429</ele><time>2026-05-01T07:16:35.992Z</time></trkpt><trkpt lat="44.92049737366746" lon="9.215605980592303"><ele>503.7142857142857</ele><time>2026-05-01T07:16:37.992Z</time></trkpt><trkpt lat="44.920423966074836" lon="9.215561241983352"><ele>503.57142857142856</ele><time>2026-05-01T07:16:39.992Z</time></trkpt><trkpt lat="44.920354481834586" lon="9.21552155980719"><ele>503.42857142857144</ele><time>2026-05-01T07:16:41.992Z</time></trkpt><trkpt lat="44.920300327641165" lon="9.215475257661554"><ele>503.28571428571433</ele><time>2026-05-01T07:16:43.992Z</time></trkpt><trkpt lat="44.92022871592148" lon="9.215424078878305"><ele>503.14285714285717</ele><time>2026-05-01T07:16:45.992Z</time></trkpt><trkpt lat="44.9201664834242" lon="9.215368881284478"><ele>503.0</ele><time>2026-05-01T07:16:47.992Z</time></trkpt><trkpt lat="44.92007961843849" lon="9.215302743273112"><ele>504.3333333333333</ele><time>2026-05-01T07:16:49.992Z</time></trkpt><trkpt lat="44.920016688418194" lon="9.215239379453966"><ele>505.66666666666663</ele><time>2026-05-01T07:16:51.992Z</time></trkpt><trkpt lat="44.91996608600002" lon="9.215165326522039"><ele>507.0</ele><time>2026-05-01T07:16:53.992Z</time></trkpt><trkpt lat="44.91990931840938" lon="9.21506753008061"><ele>508.33333333333337</ele><time>2026-05-01T07:16:55.992Z</time></trkpt><trkpt lat="44.919865639747385" lon="9.214975902309938"><ele>509.6666666666667</ele><time>2026-05-01T07:16:57.992Z</time></trkpt><trkpt lat="44.91981047884007" lon="9.21489906959012"><ele>511.0</ele><time>2026-05-01T07:16:59.992Z</time></trkpt><trkpt lat="44.9197540528831" lon="9.214804314832302"><ele>511.0</ele><time>2026-05-01T07:17:02.992Z</time></trkpt><trkpt lat="44.919716418257366" lon="9.214709708533672"><ele>511.0</ele><time>2026-05-01T07:17:06.992Z</time></trkpt><trkpt lat="44.91966494495375" lon="9.214645952480138"><ele>511.0</ele><time>2026-05-01T07:17:08.992Z</time></trkpt><trkpt lat="44.919610200391006" lon="9.214601306942537"><ele>511.0</ele><time>2026-05-01T07:17:10.992Z</time></trkpt><trkpt lat="44.919548079086034" lon="9.214492859352116"><ele>511.0</ele><time>2026-05-01T07:17:12.992Z</time></trkpt><trkpt lat="44.91950059685367" lon="9.214418363941972"><ele>511.0</ele><time>2026-05-01T07:17:13.992Z</time></trkpt><trkpt lat="44.919446643517716" lon="9.21435308747708"><ele>511.0</ele><time>2026-05-01T07:17:14.992Z</time></trkpt><trkpt lat="44.9193885785001" lon="9.21429962165441"><ele>511.0</ele><time>2026-05-01T07:17:15.992Z</time></trkpt><trkpt lat="44.91938508453446" lon="9.21400151464882"><ele>511.0</ele><time>2026-05-01T07:17:17.992Z</time></trkpt><trkpt lat="44.91928026469905" lon="9.213941249083176"><ele>511.0</ele><time>2026-05-01T07:17:18.992Z</time></trkpt><trkpt lat="44.919205217452834" lon="9.213922560529959"><ele>511.0</ele><time>2026-05-01T07:17:19.992Z</time></trkpt><trkpt lat="44.91912609835564" lon="9.213935617772904"><ele>510.33333333333337</ele><time>2026-05-01T07:17:20.992Z</time></trkpt><trkpt lat="44.91902969513673" lon="9.213964130076931"><ele>509.6666666666667</ele><time>2026-05-01T07:17:22.992Z</time></trkpt><trkpt lat="44.91896795114126" lon="9.213985130289224"><ele>509.0</ele><time>2026-05-01T07:17:25.991Z</time></trkpt><trkpt lat="44.91890101580571" lon="9.214013273617777"><ele>508.33333333333337</ele><time>2026-05-01T07:17:28.991Z</time></trkpt><trkpt lat="44.91882300474453" lon="9.214044353583205"><ele>507.6666666666667</ele><time>2026-05-01T07:17:31.991Z</time></trkpt><trkpt lat="44.918737798482866" lon="9.21410020866759"><ele>507.0</ele><time>2026-05-01T07:17:34.991Z</time></trkpt><trkpt lat="44.9186587968853" lon="9.214077525372469"><ele>508.6666666666667</ele><time>2026-05-01T07:17:37.991Z</time></trkpt><trkpt lat="44.918582267379556" lon="9.214067046482583"><ele>510.33333333333337</ele><time>2026-05-01T07:17:39.991Z</time></trkpt><trkpt lat="44.91849270063751" lon="9.21406462541025"><ele>512.0</ele><time>2026-05-01T07:17:41.991Z</time></trkpt><trkpt lat="44.91841871384789" lon="9.21406282417824"><ele>513.6666666666667</ele><time>2026-05-01T07:17:43.991Z</time></trkpt><trkpt lat="44.918342356603326" lon="9.214073876066736"><ele>515.3333333333334</ele><time>2026-05-01T07:17:45.991Z</time></trkpt><trkpt lat="44.91824572508984" lon="9.214088996840504"><ele>517.0</ele><time>2026-05-01T07:17:48.991Z</time></trkpt><trkpt lat="44.91815543674967" lon="9.214074647172444"><ele>517.8571428571429</ele><time>2026-05-01T07:17:50.991Z</time></trkpt><trkpt lat="44.91808071063094" lon="9.214062789285258"><ele>518.7142857142858</ele><time>2026-05-01T07:17:52.991Z</time></trkpt><trkpt lat="44.917994566662344" lon="9.214054445775329"><ele>519.5714285714286</ele><time>2026-05-01T07:17:54.991Z</time></trkpt><trkpt lat="44.917927367845955" lon="9.214055062087331"><ele>520.4285714285714</ele><time>2026-05-01T07:17:56.991Z</time></trkpt><trkpt lat="44.91786221302417" lon="9.21406387072233"><ele>521.2857142857142</ele><time>2026-05-01T07:17:58.991Z</time></trkpt><trkpt lat="44.91779324280923" lon="9.214062561631602"><ele>522.1428571428571</ele><time>2026-05-01T07:18:00.991Z</time></trkpt><trkpt lat="44.917727863806995" lon="9.214064285742062"><ele>523.0</ele><time>2026-05-01T07:18:02.991Z</time></trkpt><trkpt lat="44.91763424572688" lon="9.214067251541334"><ele>523.7142857142857</ele><time>2026-05-01T07:18:05.991Z</time></trkpt><trkpt lat="44.91756241352458" lon="9.214073335792563"><ele>524.4285714285714</ele><time>2026-05-01T07:18:07.991Z</time></trkpt><trkpt lat="44.91749416845064" lon="9.214065934024765"><ele>525.1428571428571</ele><time>2026-05-01T07:18:09.991Z</time></trkpt><trkpt lat="44.9174271019703" lon="9.214062112916556"><ele>525.8571428571429</ele><time>2026-05-01T07:18:11.991Z</time></trkpt><trkpt lat="44.91736102367997" lon="9.214071401281661"><ele>526.5714285714286</ele><time>2026-05-01T07:18:13.991Z</time></trkpt><trkpt lat="44.9172902663451" lon="9.214085838128689"><ele>527.2857142857142</ele><time>2026-05-01T07:18:15.991Z</time></trkpt><trkpt lat="44.91721929251315" lon="9.214085675970274"><ele>528.0</ele><time>2026-05-01T07:18:17.991Z</time></trkpt><trkpt lat="44.917146456984405" lon="9.214101832549547"><ele>528.0</ele><time>2026-05-01T07:18:19.991Z</time></trkpt><trkpt lat="44.91708332366126" lon="9.214122290926626"><ele>528.0</ele><time>2026-05-01T07:18:21.991Z</time></trkpt><trkpt lat="44.91701023661662" lon="9.214148111374127"><ele>528.0</ele><time>2026-05-01T07:18:23.991Z</time></trkpt><trkpt lat="44.91693821540223" lon="9.21417679131458"><ele>528.0</ele><time>2026-05-01T07:18:25.991Z</time></trkpt><trkpt lat="44.916852612591875" lon="9.214222176147064"><ele>528.0</ele><time>2026-05-01T07:18:28.991Z</time></trkpt><trkpt lat="44.91676772356345" lon="9.21425069800349"><ele>528.0</ele><time>2026-05-01T07:18:31.991Z</time></trkpt><trkpt lat="44.91668426917164" lon="9.214281562587397"><ele>529.5</ele><time>2026-05-01T07:18:34.991Z</time></trkpt><trkpt lat="44.916611809888444" lon="9.214296569975334"><ele>531.0</ele><time>2026-05-01T07:18:37.991Z</time></trkpt><trkpt lat="44.91655103454047" lon="9.21432402336017"><ele>532.5</ele><time>2026-05-01T07:18:41.991Z</time></trkpt><trkpt lat="44.91652524760401" lon="9.21440545433913"><ele>534.0</ele><time>2026-05-01T07:18:43.991Z</time></trkpt><trkpt lat="44.91657269642948" lon="9.214518960989656"><ele>535.5</ele><time>2026-05-01T07:18:45.991Z</time></trkpt><trkpt lat="44.91653541274848" lon="9.214657531483404"><ele>537.0</ele><time>2026-05-01T07:18:47.991Z</time></trkpt><trkpt lat="44.91646925941687" lon="9.21476869314015"><ele>536.5</ele><time>2026-05-01T07:18:49.991Z</time></trkpt><trkpt lat="44.916431992997325" lon="9.214865698762408"><ele>536.0</ele><time>2026-05-01T07:18:51.991Z</time></trkpt><trkpt lat="44.91641183753528" lon="9.214972352473481"><ele>535.5</ele><time>2026-05-01T07:18:53.991Z</time></trkpt><trkpt lat="44.91639604777839" lon="9.215062035418295"><ele>535.0</ele><time>2026-05-01T07:18:54.991Z</time></trkpt><trkpt lat="44.91636325959235" lon="9.215201144155653"><ele>534.5</ele><time>2026-05-01T07:18:56.991Z</time></trkpt><trkpt lat="44.916354348398386" lon="9.215343071238095"><ele>534.0</ele><time>2026-05-01T07:18:58.991Z</time></trkpt><trkpt lat="44.916348086899966" lon="9.215455028601555"><ele>534.0</ele><time>2026-05-01T07:19:00.991Z</time></trkpt><trkpt lat="44.916337616971276" lon="9.215547658795401"><ele>534.0</ele><time>2026-05-01T07:19:02.991Z</time></trkpt><trkpt lat="44.91631519997578" lon="9.215679047748957"><ele>534.0</ele><time>2026-05-01T07:19:05.991Z</time></trkpt><trkpt lat="44.91627574125497" lon="9.215761668706524"><ele>534.0</ele><time>2026-05-01T07:19:07.99Z</time></trkpt><trkpt lat="44.91621283485639" lon="9.215862151352459"><ele>534.0</ele><time>2026-05-01T07:19:09.99Z</time></trkpt><trkpt lat="44.91615649102604" lon="9.216000754379706"><ele>534.0</ele><time>2026-05-01T07:19:11.99Z</time></trkpt><trkpt lat="44.91613823477886" lon="9.216086179801604"><ele>532.8</ele><time>2026-05-01T07:19:12.99Z</time></trkpt><trkpt lat="44.91612267896886" lon="9.216175327444004"><ele>531.5999999999999</ele><time>2026-05-01T07:19:13.99Z</time></trkpt><trkpt lat="44.916088984605395" lon="9.216343701591773"><ele>530.4</ele><time>2026-05-01T07:19:15.99Z</time></trkpt><trkpt lat="44.91608429853323" lon="9.216482573570095"><ele>529.1999999999999</ele><time>2026-05-01T07:19:17.99Z</time></trkpt><trkpt lat="44.91609137992567" lon="9.216616583744619"><ele>528.0</ele><time>2026-05-01T07:19:19.99Z</time></trkpt><trkpt lat="44.916111310928315" lon="9.216748439231065"><ele>525.5</ele><time>2026-05-01T07:19:21.99Z</time></trkpt><trkpt lat="44.91612565296527" lon="9.216866922570796"><ele>523.0</ele><time>2026-05-01T07:19:23.99Z</time></trkpt><trkpt lat="44.91612401815341" lon="9.21698403515665"><ele>520.5</ele><time>2026-05-01T07:19:25.99Z</time></trkpt><trkpt lat="44.91612880364419" lon="9.217101426134487"><ele>518.0</ele><time>2026-05-01T07:19:28.99Z</time></trkpt><trkpt lat="44.91613884647575" lon="9.217197793400764"><ele>515.5</ele><time>2026-05-01T07:19:35.99Z</time></trkpt><trkpt lat="44.916146135418806" lon="9.217300125793553"><ele>513.0</ele><time>2026-05-01T07:19:37.99Z</time></trkpt><trkpt lat="44.91616512793761" lon="9.217418570360525"><ele>509.8333333333333</ele><time>2026-05-01T07:19:40.99Z</time></trkpt><trkpt lat="44.916164112516086" lon="9.21752250321849"><ele>506.66666666666663</ele><time>2026-05-01T07:19:43.99Z</time></trkpt><trkpt lat="44.91616735051621" lon="9.21763312562585"><ele>503.5</ele><time>2026-05-01T07:19:46.99Z</time></trkpt><trkpt lat="44.91616218996297" lon="9.217733795314246"><ele>500.3333333333333</ele><time>2026-05-01T07:19:48.99Z</time></trkpt><trkpt lat="44.916170382650805" lon="9.217841319609757"><ele>497.16666666666663</ele><time>2026-05-01T07:19:50.99Z</time></trkpt><trkpt lat="44.91620524314839" lon="9.217963986734171"><ele>494.0</ele><time>2026-05-01T07:19:52.99Z</time></trkpt><trkpt lat="44.91623142513682" lon="9.218098854987343"><ele>491.3333333333333</ele><time>2026-05-01T07:19:54.99Z</time></trkpt><trkpt lat="44.91626226235288" lon="9.218213846203092"><ele>488.66666666666663</ele><time>2026-05-01T07:19:56.99Z</time></trkpt><trkpt lat="44.91629632186518" lon="9.218300742320753"><ele>486.0</ele><time>2026-05-01T07:19:58.99Z</time></trkpt><trkpt lat="44.9163174227305" lon="9.218407951449112"><ele>483.33333333333337</ele><time>2026-05-01T07:20:01.99Z</time></trkpt><trkpt lat="44.916349381836" lon="9.218519498418127"><ele>480.6666666666667</ele><time>2026-05-01T07:20:04.99Z</time></trkpt><trkpt lat="44.9163848555881" lon="9.218646484371837"><ele>478.0</ele><time>2026-05-01T07:20:07.99Z</time></trkpt><trkpt lat="44.91641151497204" lon="9.218744245956524"><ele>478.00000000000006</ele><time>2026-05-01T07:20:09.99Z</time></trkpt><trkpt lat="44.91642441711067" lon="9.218849981790273"><ele>478.0</ele><time>2026-05-01T07:20:11.99Z</time></trkpt><trkpt lat="44.91640904709664" lon="9.218945153587503"><ele>478.00000000000006</ele><time>2026-05-01T07:20:14.99Z</time></trkpt><trkpt lat="44.91636332375555" lon="9.219028464117029"><ele>478.00000000000006</ele><time>2026-05-01T07:20:18.99Z</time></trkpt><trkpt lat="44.91632772448833" lon="9.219126831674147"><ele>478.0</ele><time>2026-05-01T07:20:22.99Z</time></trkpt><trkpt lat="44.91629307041822" lon="9.21921144911697"><ele>478.00000000000006</ele><time>2026-05-01T07:20:25.99Z</time></trkpt><trkpt lat="44.91622059365193" lon="9.219236011256628"><ele>478.00000000000006</ele><time>2026-05-01T07:20:28.99Z</time></trkpt><trkpt lat="44.91615832013991" lon="9.219145734161765"><ele>477.00000000000006</ele><time>2026-05-01T07:20:31.99Z</time></trkpt><trkpt lat="44.91608270987841" lon="9.219104587350541"><ele>476.0</ele><time>2026-05-01T07:20:34.99Z</time></trkpt><trkpt lat="44.916000483156104" lon="9.219084632387919"><ele>475.0</ele><time>2026-05-01T07:20:38.99Z</time></trkpt><trkpt lat="44.91593344453208" lon="9.219055954078328"><ele>474.0</ele><time>2026-05-01T07:20:40.99Z</time></trkpt><trkpt lat="44.91586970364502" lon="9.21899640787762"><ele>473.00000000000006</ele><time>2026-05-01T07:20:42.99Z</time></trkpt><trkpt lat="44.915801321312955" lon="9.21890197679706"><ele>472.0</ele><time>2026-05-01T07:20:44.99Z</time></trkpt><trkpt lat="44.91573108806179" lon="9.218809870071546"><ele>472.0</ele><time>2026-05-01T07:20:46.99Z</time></trkpt><trkpt lat="44.91565434714961" lon="9.21873977914675"><ele>472.00000000000006</ele><time>2026-05-01T07:20:48.99Z</time></trkpt><trkpt lat="44.915583959029846" lon="9.218680416731944"><ele>472.00000000000006</ele><time>2026-05-01T07:20:50.989Z</time></trkpt><trkpt lat="44.915483309530636" lon="9.218612926181704"><ele>472.0</ele><time>2026-05-01T07:20:52.989Z</time></trkpt><trkpt lat="44.91538758041209" lon="9.218586507946627"><ele>472.0</ele><time>2026-05-01T07:20:54.989Z</time></trkpt><trkpt lat="44.91531518894732" lon="9.21857602914812"><ele>472.00000000000006</ele><time>2026-05-01T07:20:56.989Z</time></trkpt><trkpt lat="44.91524412326711" lon="9.218633574527232"><ele>472.0</ele><time>2026-05-01T07:21:00.989Z</time></trkpt><trkpt lat="44.91518165364545" lon="9.218657830540584"><ele>472.0</ele><time>2026-05-01T07:21:03.989Z</time></trkpt><trkpt lat="44.915100079238854" lon="9.21867360457095"><ele>472.0</ele><time>2026-05-01T07:21:07.989Z</time></trkpt><trkpt lat="44.91501882782305" lon="9.218699736040504"><ele>472.00000000000006</ele><time>2026-05-01T07:21:11.989Z</time></trkpt><trkpt lat="44.914938491094105" lon="9.21872663500191"><ele>472.0</ele><time>2026-05-01T07:21:15.989Z</time></trkpt><trkpt lat="44.91489747772215" lon="9.218811082746294"><ele>471.1666666666667</ele><time>2026-05-01T07:21:19.989Z</time></trkpt><trkpt lat="44.914908777659086" lon="9.218971417488888"><ele>470.33333333333337</ele><time>2026-05-01T07:21:21.989Z</time></trkpt><trkpt lat="44.91490795265476" lon="9.219071902644057"><ele>469.5</ele><time>2026-05-01T07:21:22.989Z</time></trkpt><trkpt lat="44.914908579160716" lon="9.219170598678337"><ele>468.66666666666663</ele><time>2026-05-01T07:21:23.989Z</time></trkpt><trkpt lat="44.91491358724718" lon="9.219260703906416"><ele>467.8333333333333</ele><time>2026-05-01T07:21:24.989Z</time></trkpt><trkpt lat="44.91492230268598" lon="9.219353449181234"><ele>467.0</ele><time>2026-05-01T07:21:25.989Z</time></trkpt><trkpt lat="44.914920042063926" lon="9.219534880131176"><ele>465.8</ele><time>2026-05-01T07:21:27.989Z</time></trkpt><trkpt lat="44.91491215428956" lon="9.219635924735387"><ele>464.6</ele><time>2026-05-01T07:21:28.989Z</time></trkpt><trkpt lat="44.91489434920877" lon="9.219776339068776"><ele>463.40000000000003</ele><time>2026-05-01T07:21:30.989Z</time></trkpt><trkpt lat="44.91484983521415" lon="9.219920899328715"><ele>462.20000000000005</ele><time>2026-05-01T07:21:32.989Z</time></trkpt><trkpt lat="44.914813824714415" lon="9.220069720660021"><ele>461.0</ele><time>2026-05-01T07:21:34.989Z</time></trkpt><trkpt lat="44.91481553210904" lon="9.220239373590465"><ele>459.66666666666663</ele><time>2026-05-01T07:21:36.989Z</time></trkpt><trkpt lat="44.91481207128408" lon="9.220335179106607"><ele>458.3333333333333</ele><time>2026-05-01T07:21:37.989Z</time></trkpt><trkpt lat="44.91481480633386" lon="9.220435282168882"><ele>457.0</ele><time>2026-05-01T07:21:38.989Z</time></trkpt><trkpt lat="44.914815163087916" lon="9.22053417651036"><ele>455.66666666666663</ele><time>2026-05-01T07:21:39.989Z</time></trkpt><trkpt lat="44.91480684858374" lon="9.220627364003597"><ele>454.3333333333333</ele><time>2026-05-01T07:21:40.989Z</time></trkpt><trkpt lat="44.91481086086986" lon="9.220805732719136"><ele>453.0</ele><time>2026-05-01T07:21:42.989Z</time></trkpt><trkpt lat="44.91481578394458" lon="9.220902850430576"><ele>451.4285714285714</ele><time>2026-05-01T07:21:43.989Z</time></trkpt><trkpt lat="44.91482517542755" lon="9.221005778244566"><ele>449.85714285714283</ele><time>2026-05-01T07:21:44.989Z</time></trkpt><trkpt lat="44.91484306662689" lon="9.221108584843785"><ele>448.2857142857143</ele><time>2026-05-01T07:21:45.989Z</time></trkpt><trkpt lat="44.914871464448915" lon="9.221206685728452"><ele>446.71428571428567</ele><time>2026-05-01T07:21:46.989Z</time></trkpt><trkpt lat="44.91489259953259" lon="9.221299547231197"><ele>445.1428571428571</ele><time>2026-05-01T07:21:47.989Z</time></trkpt><trkpt lat="44.91490379042766" lon="9.221399213655118"><ele>443.5714285714286</ele><time>2026-05-01T07:21:48.989Z</time></trkpt><trkpt lat="44.91491091324091" lon="9.221504822226244"><ele>442.0</ele><time>2026-05-01T07:21:49.989Z</time></trkpt><trkpt lat="44.91490998099694" lon="9.221611754603048"><ele>441.1666666666667</ele><time>2026-05-01T07:21:50.989Z</time></trkpt><trkpt lat="44.91490625238052" lon="9.221710688978428"><ele>440.33333333333337</ele><time>2026-05-01T07:21:51.989Z</time></trkpt><trkpt lat="44.91492105673006" lon="9.221804112645932"><ele>439.5</ele><time>2026-05-01T07:21:52.989Z</time></trkpt><trkpt lat="44.91492938143091" lon="9.221907008280116"><ele>438.66666666666663</ele><time>2026-05-01T07:21:53.989Z</time></trkpt><trkpt lat="44.914944943447" lon="9.222008769373929"><ele>437.8333333333333</ele><time>2026-05-01T07:21:54.989Z</time></trkpt><trkpt lat="44.91496237812623" lon="9.222098664619399"><ele>437.0</ele><time>2026-05-01T07:21:55.989Z</time></trkpt><trkpt lat="44.9150026506391" lon="9.222258435761395"><ele>436.3333333333333</ele><time>2026-05-01T07:21:57.989Z</time></trkpt><trkpt lat="44.91504594337467" lon="9.222424162099598"><ele>435.66666666666663</ele><time>2026-05-01T07:21:59.989Z</time></trkpt><trkpt lat="44.91506413661145" lon="9.222513129815734"><ele>435.0</ele><time>2026-05-01T07:22:00.989Z</time></trkpt><trkpt lat="44.91507737789644" lon="9.222603691040394"><ele>434.33333333333337</ele><time>2026-05-01T07:22:01.989Z</time></trkpt><trkpt lat="44.91508163187229" lon="9.222697872061733"><ele>433.6666666666667</ele><time>2026-05-01T07:22:02.989Z</time></trkpt><trkpt lat="44.91509554537515" lon="9.222791460183002"><ele>433.0</ele><time>2026-05-01T07:22:03.989Z</time></trkpt><trkpt lat="44.915092822598474" lon="9.222958362672452"><ele>430.59999999999997</ele><time>2026-05-01T07:22:05.989Z</time></trkpt><trkpt lat="44.91508934300832" lon="9.223131286718464"><ele>428.19999999999993</ele><time>2026-05-01T07:22:07.989Z</time></trkpt><trkpt lat="44.915091950293295" lon="9.22322053397482"><ele>425.8</ele><time>2026-05-01T07:22:08.989Z</time></trkpt><trkpt lat="44.9151048479872" lon="9.223390228770866"><ele>423.4</ele><time>2026-05-01T07:22:10.989Z</time></trkpt><trkpt lat="44.91512856562845" lon="9.223536917650115"><ele>421.0</ele><time>2026-05-01T07:22:12.989Z</time></trkpt><trkpt lat="44.91516443821739" lon="9.22366918744294"><ele>420.20000000000005</ele><time>2026-05-01T07:22:14.989Z</time></trkpt><trkpt lat="44.9152095831122" lon="9.22378836713345"><ele>419.40000000000003</ele><time>2026-05-01T07:22:16.989Z</time></trkpt><trkpt lat="44.915236069943816" lon="9.223912704438826"><ele>418.6</ele><time>2026-05-01T07:22:18.989Z</time></trkpt><trkpt lat="44.91527290245848" lon="9.224052240838033"><ele>417.8</ele><time>2026-05-01T07:22:20.989Z</time></trkpt><trkpt lat="44.91530994028324" lon="9.224216820412126"><ele>417.0</ele><time>2026-05-01T07:22:22.989Z</time></trkpt><trkpt lat="44.91533306940855" lon="9.224301052191784"><ele>416.3333333333333</ele><time>2026-05-01T07:22:23.989Z</time></trkpt><trkpt lat="44.915364243212395" lon="9.224392156066818"><ele>415.66666666666663</ele><time>2026-05-01T07:22:24.989Z</time></trkpt><trkpt lat="44.91539086654943" lon="9.224487813226956"><ele>415.0</ele><time>2026-05-01T07:22:25.989Z</time></trkpt><trkpt lat="44.91541686192176" lon="9.22458039621307"><ele>414.3333333333333</ele><time>2026-05-01T07:22:26.989Z</time></trkpt><trkpt lat="44.91545312423404" lon="9.224730700943965"><ele>413.66666666666663</ele><time>2026-05-01T07:22:28.989Z</time></trkpt><trkpt lat="44.91547402236905" lon="9.22487226862753"><ele>413.0</ele><time>2026-05-01T07:22:30.989Z</time></trkpt><trkpt lat="44.915470281164424" lon="9.22499821988393"><ele>412.0</ele><time>2026-05-01T07:22:32.988Z</time></trkpt><trkpt lat="44.915477982075295" lon="9.225136396251065"><ele>411.0</ele><time>2026-05-01T07:22:34.988Z</time></trkpt><trkpt lat="44.9155184339751" lon="9.225269597042512"><ele>410.0</ele><time>2026-05-01T07:22:36.988Z</time></trkpt><trkpt lat="44.915585317604474" lon="9.225374940141444"><ele>409.0</ele><time>2026-05-01T07:22:38.988Z</time></trkpt><trkpt lat="44.915661000344855" lon="9.22547041655815"><ele>408.0</ele><time>2026-05-01T07:22:40.988Z</time></trkpt><trkpt lat="44.91573401938504" lon="9.22558237702991"><ele>407.0</ele><time>2026-05-01T07:22:42.988Z</time></trkpt><trkpt lat="44.91578952844137" lon="9.225727564670112"><ele>406.0</ele><time>2026-05-01T07:22:44.988Z</time></trkpt><trkpt lat="44.91581685779768" lon="9.225813572634346"><ele>405.0</ele><time>2026-05-01T07:22:45.988Z</time></trkpt><trkpt lat="44.91584759013425" lon="9.225894283357768"><ele>404.0</ele><time>2026-05-01T07:22:46.988Z</time></trkpt><trkpt lat="44.91587159871288" lon="9.225980322753284"><ele>403.0</ele><time>2026-05-01T07:22:47.988Z</time></trkpt><trkpt lat="44.915893360856465" lon="9.226064060249396"><ele>402.0</ele><time>2026-05-01T07:22:48.988Z</time></trkpt><trkpt lat="44.91592631206812" lon="9.226214305561092"><ele>399.20000000000005</ele><time>2026-05-01T07:22:50.988Z</time></trkpt><trkpt lat="44.915948410838965" lon="9.226362630872194"><ele>396.4</ele><time>2026-05-01T07:22:52.988Z</time></trkpt><trkpt lat="44.915962102577616" lon="9.226500942154718"><ele>393.6</ele><time>2026-05-01T07:22:54.988Z</time></trkpt><trkpt lat="44.9159844267015" lon="9.226598744313149"><ele>390.79999999999995</ele><time>2026-05-01T07:22:56.988Z</time></trkpt><trkpt lat="44.91603439882457" lon="9.22669508487104"><ele>388.0</ele><time>2026-05-01T07:22:59.988Z</time></trkpt><trkpt lat="44.91612205646418" lon="9.22676196603991"><ele>387.0</ele><time>2026-05-01T07:23:02.988Z</time></trkpt><trkpt lat="44.91621095684918" lon="9.226822850183154"><ele>386.0</ele><time>2026-05-01T07:23:04.988Z</time></trkpt><trkpt lat="44.91630882001326" lon="9.226890384747364"><ele>385.0</ele><time>2026-05-01T07:23:06.988Z</time></trkpt><trkpt lat="44.9164067429093" lon="9.226971403512666"><ele>384.0</ele><time>2026-05-01T07:23:08.988Z</time></trkpt><trkpt lat="44.91650320102642" lon="9.22704809061298"><ele>383.0</ele><time>2026-05-01T07:23:10.988Z</time></trkpt><trkpt lat="44.91659123714619" lon="9.227134087144208"><ele>383.0</ele><time>2026-05-01T07:23:12.988Z</time></trkpt><trkpt lat="44.916663720603545" lon="9.22722482105929"><ele>383.0</ele><time>2026-05-01T07:23:14.988Z</time></trkpt><trkpt lat="44.9167466628197" lon="9.227343990254107"><ele>383.0</ele><time>2026-05-01T07:23:16.988Z</time></trkpt><trkpt lat="44.91680518622121" lon="9.227444319407645"><ele>383.0</ele><time>2026-05-01T07:23:18.988Z</time></trkpt><trkpt lat="44.91684424256072" lon="9.227517930643135"><ele>383.0</ele><time>2026-05-01T07:23:20.988Z</time></trkpt><trkpt lat="44.91691952106369" lon="9.227624636471262"><ele>381.59999999999997</ele><time>2026-05-01T07:23:22.988Z</time></trkpt><trkpt lat="44.91700492203484" lon="9.227763989483844"><ele>380.2</ele><time>2026-05-01T07:23:24.988Z</time></trkpt><trkpt lat="44.9170520112962" lon="9.22782890383845"><ele>378.8</ele><time>2026-05-01T07:23:25.988Z</time></trkpt><trkpt lat="44.91709429623912" lon="9.227898315628073"><ele>377.4</ele><time>2026-05-01T07:23:26.988Z</time></trkpt><trkpt lat="44.91716455402168" lon="9.228011297831832"><ele>376.0</ele><time>2026-05-01T07:23:28.988Z</time></trkpt><trkpt lat="44.917224547012495" lon="9.228132442465807"><ele>376.2857142857143</ele><time>2026-05-01T07:23:31.001Z</time></trkpt><trkpt lat="44.91726261321233" lon="9.22821724347574"><ele>376.57142857142856</ele><time>2026-05-01T07:23:33Z</time></trkpt><trkpt lat="44.91730402332775" lon="9.22828462464741"><ele>376.8571428571429</ele><time>2026-05-01T07:23:35Z</time></trkpt><trkpt lat="44.91733846167309" lon="9.228386812364253"><ele>377.1428571428571</ele><time>2026-05-01T07:23:37Z</time></trkpt><trkpt lat="44.91738582135336" lon="9.228475658432425"><ele>377.42857142857144</ele><time>2026-05-01T07:23:39Z</time></trkpt><trkpt lat="44.917410454406884" lon="9.228567406665123"><ele>377.7142857142857</ele><time>2026-05-01T07:23:41Z</time></trkpt><trkpt lat="44.91742666597353" lon="9.228679034371153"><ele>378.0</ele><time>2026-05-01T07:23:43Z</time></trkpt><trkpt lat="44.91744427919969" lon="9.228809598865908"><ele>378.0</ele><time>2026-05-01T07:23:45Z</time></trkpt><trkpt lat="44.91745362587929" lon="9.228930779982914"><ele>378.0</ele><time>2026-05-01T07:23:47Z</time></trkpt><trkpt lat="44.91747492060282" lon="9.229045003715699"><ele>378.0</ele><time>2026-05-01T07:23:49Z</time></trkpt><trkpt lat="44.91749004735538" lon="9.229178353135945"><ele>378.0</ele><time>2026-05-01T07:23:51Z</time></trkpt><trkpt lat="44.917499344468425" lon="9.229275047411633"><ele>378.0</ele><time>2026-05-01T07:23:53Z</time></trkpt><trkpt lat="44.91749878025445" lon="9.229383070352943"><ele>378.0</ele><time>2026-05-01T07:23:56Z</time></trkpt><trkpt lat="44.91748409819112" lon="9.229478496642527"><ele>377.14285714285717</ele><time>2026-05-01T07:24:09Z</time></trkpt><trkpt lat="44.91747401152926" lon="9.229572850173206"><ele>376.2857142857143</ele><time>2026-05-01T07:24:13Z</time></trkpt><trkpt lat="44.91747315756489" lon="9.22966181719001"><ele>375.42857142857144</ele><time>2026-05-01T07:24:17Z</time></trkpt><trkpt lat="44.91747613213484" lon="9.229753342084523"><ele>374.57142857142856</ele><time>2026-05-01T07:24:22.001Z</time></trkpt><trkpt lat="44.91749469223644" lon="9.229848328639864"><ele>373.7142857142857</ele><time>2026-05-01T07:24:25.001Z</time></trkpt><trkpt lat="44.917522099171514" lon="9.229959397060924"><ele>372.8571428571429</ele><time>2026-05-01T07:24:27.001Z</time></trkpt><trkpt lat="44.91754207642725" lon="9.230096662269055"><ele>372.0</ele><time>2026-05-01T07:24:29.001Z</time></trkpt><trkpt lat="44.91755898185352" lon="9.230205191153303"><ele>368.28571428571433</ele><time>2026-05-01T07:24:31.001Z</time></trkpt><trkpt lat="44.917595121843725" lon="9.230302436293712"><ele>364.57142857142856</ele><time>2026-05-01T07:24:34.001Z</time></trkpt><trkpt lat="44.917621682902904" lon="9.230385526503406"><ele>360.8571428571429</ele><time>2026-05-01T07:24:50.001Z</time></trkpt><trkpt lat="44.917658342866346" lon="9.2304655825764"><ele>357.14285714285717</ele><time>2026-05-01T07:24:56.001Z</time></trkpt><trkpt lat="44.917708330152024" lon="9.23052799243559"><ele>353.42857142857144</ele><time>2026-05-01T07:25:01.001Z</time></trkpt><trkpt lat="44.91777431374127" lon="9.230568933405651"><ele>349.7142857142857</ele><time>2026-05-01T07:25:05.001Z</time></trkpt><trkpt lat="44.91779390463811" lon="9.230668004153452"><ele>346.0</ele><time>2026-05-01T07:25:08.001Z</time></trkpt><trkpt lat="44.91774713176198" lon="9.230752318662034"><ele>344.4285714285714</ele><time>2026-05-01T07:25:11.001Z</time></trkpt><trkpt lat="44.91768543977174" lon="9.230797518146542"><ele>342.8571428571429</ele><time>2026-05-01T07:25:13.001Z</time></trkpt><trkpt lat="44.91768475471486" lon="9.230913566325635"><ele>341.2857142857143</ele><time>2026-05-01T07:25:16.001Z</time></trkpt><trkpt lat="44.91770873231305" lon="9.231005335969403"><ele>339.71428571428567</ele><time>2026-05-01T07:25:25Z</time></trkpt><trkpt lat="44.91772396714828" lon="9.231100094957153"><ele>338.1428571428571</ele><time>2026-05-01T07:25:31Z</time></trkpt><trkpt lat="44.91775268473406" lon="9.231201992165923"><ele>336.57142857142856</ele><time>2026-05-01T07:25:37Z</time></trkpt><trkpt lat="44.91776317643637" lon="9.231300842260449"><ele>335.0</ele><time>2026-05-01T07:25:46Z</time></trkpt><trkpt lat="44.91777505839906" lon="9.231396484494057"><ele>333.85714285714283</ele><time>2026-05-01T07:25:52Z</time></trkpt><trkpt lat="44.917794539645804" lon="9.231529375872709"><ele>332.7142857142857</ele><time>2026-05-01T07:26:05Z</time></trkpt><trkpt lat="44.91780782920853" lon="9.231629820470484"><ele>331.57142857142856</ele><time>2026-05-01T07:26:14Z</time></trkpt><trkpt lat="44.91777687300292" lon="9.231724900810159"><ele>330.42857142857144</ele><time>2026-05-01T07:26:21Z</time></trkpt><trkpt lat="44.917725194961314" lon="9.231786097533448"><ele>329.2857142857143</ele><time>2026-05-01T07:26:33.001Z</time></trkpt><trkpt lat="44.917662543780594" lon="9.23181984605764"><ele>328.1428571428571</ele><time>2026-05-01T07:26:40.002Z</time></trkpt><trkpt lat="44.91760022649253" lon="9.231835672837725"><ele>327.0</ele><time>2026-05-01T07:26:47.001Z</time></trkpt><trkpt lat="44.91752736341958" lon="9.231842530770694"><ele>327.0</ele><time>2026-05-01T07:26:50.001Z</time></trkpt><trkpt lat="44.917486373322795" lon="9.231916779530156"><ele>327.0</ele><time>2026-05-01T07:27:31.001Z</time></trkpt><trkpt lat="44.917452382556114" lon="9.232002733165746"><ele>327.0</ele><time>2026-05-01T07:27:38.001Z</time></trkpt><trkpt lat="44.917428142380416" lon="9.232088119742404"><ele>327.0</ele><time>2026-05-01T07:27:40.001Z</time></trkpt><trkpt lat="44.91740425162091" lon="9.232171496881897"><ele>327.0</ele><time>2026-05-01T07:27:44.001Z</time></trkpt><trkpt lat="44.917468038604056" lon="9.232205868319358"><ele>327.0</ele><time>2026-05-01T07:27:50.001Z</time></trkpt><trkpt lat="44.917534985188254" lon="9.232213742061033"><ele>327.0</ele><time>2026-05-01T07:27:53.001Z</time></trkpt><trkpt lat="44.91761196117526" lon="9.232228090596923"><ele>326.5</ele><time>2026-05-01T07:27:56.001Z</time></trkpt><trkpt lat="44.91767269228571" lon="9.232254161604022"><ele>326.0</ele><time>2026-05-01T07:27:58.001Z</time></trkpt><trkpt lat="44.917740845726975" lon="9.232267447968566"><ele>325.5</ele><time>2026-05-01T07:28:00.001Z</time></trkpt><trkpt lat="44.917833558635564" lon="9.232288227349354"><ele>325.0</ele><time>2026-05-01T07:28:03.001Z</time></trkpt><trkpt lat="44.91792292451952" lon="9.23228588225647"><ele>324.5</ele><time>2026-05-01T07:28:05.001Z</time></trkpt><trkpt lat="44.91800506704925" lon="9.23234647653622"><ele>324.0</ele><time>2026-05-01T07:28:07.001Z</time></trkpt><trkpt lat="44.918106198956266" lon="9.232455027464217"><ele>322.5</ele><time>2026-05-01T07:28:09.001Z</time></trkpt><trkpt lat="44.91819970608919" lon="9.23248436332552"><ele>321.0</ele><time>2026-05-01T07:28:11.001Z</time></trkpt><trkpt lat="44.91829823186139" lon="9.232582710361342"><ele>319.5</ele><time>2026-05-01T07:28:13.001Z</time></trkpt><trkpt lat="44.91849686692353" lon="9.232616243359306"><ele>318.0</ele><time>2026-05-01T07:28:18.001Z</time></trkpt><trkpt lat="44.918553806279625" lon="9.232682804088908"><ele>318.0</ele><time>2026-05-01T07:28:21.001Z</time></trkpt><trkpt lat="44.918606284504754" lon="9.232790093326113"><ele>318.0</ele><time>2026-05-01T07:28:24.001Z</time></trkpt><trkpt lat="44.91864004041913" lon="9.23286931520473"><ele>318.0</ele><time>2026-05-01T07:28:26Z</time></trkpt><trkpt lat="44.91868031796945" lon="9.232971259792448"><ele>318.0</ele><time>2026-05-01T07:28:28Z</time></trkpt><trkpt lat="44.91869987893796" lon="9.23306826457955"><ele>318.0</ele><time>2026-05-01T07:28:30.002Z</time></trkpt><trkpt lat="44.9187115308404" lon="9.233181648269268"><ele>318.0</ele><time>2026-05-01T07:28:33.002Z</time></trkpt><trkpt lat="44.91869956509744" lon="9.233299218144458"><ele>317.1666666666667</ele><time>2026-05-01T07:28:35.002Z</time></trkpt><trkpt lat="44.9186332240998" lon="9.233381328940652"><ele>316.3333333333333</ele><time>2026-05-01T07:28:37.002Z</time></trkpt><trkpt lat="44.9185699713512" lon="9.23345143699532"><ele>315.5</ele><time>2026-05-01T07:28:39.002Z</time></trkpt><trkpt lat="44.91850348900324" lon="9.233518810796204"><ele>314.66666666666663</ele><time>2026-05-01T07:28:42.002Z</time></trkpt><trkpt lat="44.91846282546439" lon="9.233604120094713"><ele>313.8333333333333</ele><time>2026-05-01T07:28:45.002Z</time></trkpt><trkpt lat="44.91840136314748" lon="9.23362627571213"><ele>313.0</ele><time>2026-05-01T07:28:47.002Z</time></trkpt><trkpt lat="44.91834439011498" lon="9.233676217794988"><ele>313.0</ele><time>2026-05-01T07:28:49.002Z</time></trkpt><trkpt lat="44.918254169591144" lon="9.233716382295281"><ele>313.0</ele><time>2026-05-01T07:28:52.002Z</time></trkpt><trkpt lat="44.91818137779555" lon="9.233765053862493"><ele>313.0</ele><time>2026-05-01T07:28:54.002Z</time></trkpt><trkpt lat="44.91811443094046" lon="9.233811762989466"><ele>313.0</ele><time>2026-05-01T07:28:56.002Z</time></trkpt><trkpt lat="44.91807668860733" lon="9.233902200738951"><ele>313.0</ele><time>2026-05-01T07:28:59.002Z</time></trkpt><trkpt lat="44.9180247543728" lon="9.233990093723335"><ele>313.0</ele><time>2026-05-01T07:29:02.002Z</time></trkpt><trkpt lat="44.91802254686748" lon="9.234127226240105"><ele>313.5</ele><time>2026-05-01T07:29:06.002Z</time></trkpt><trkpt lat="44.91797532792508" lon="9.234215054787441"><ele>314.0</ele><time>2026-05-01T07:29:08.002Z</time></trkpt><trkpt lat="44.91790723273474" lon="9.234305913758334"><ele>314.5</ele><time>2026-05-01T07:29:11.002Z</time></trkpt><trkpt lat="44.91790175263949" lon="9.234398219015153"><ele>315.0</ele><time>2026-05-01T07:29:13.002Z</time></trkpt><trkpt lat="44.91786953671516" lon="9.234487415037423"><ele>315.5</ele><time>2026-05-01T07:29:15.002Z</time></trkpt><trkpt lat="44.91781351098246" lon="9.234538897989953"><ele>316.0</ele><time>2026-05-01T07:29:17.002Z</time></trkpt><trkpt lat="44.917742307442055" lon="9.234596851403566"><ele>316.0</ele><time>2026-05-01T07:29:19.002Z</time></trkpt><trkpt lat="44.91768830376853" lon="9.234689053354703"><ele>316.0</ele><time>2026-05-01T07:29:22.002Z</time></trkpt><trkpt lat="44.91761972071965" lon="9.234778518886454"><ele>316.0</ele><time>2026-05-01T07:29:25.002Z</time></trkpt><trkpt lat="44.91755956039564" lon="9.23485754969116"><ele>316.0</ele><time>2026-05-01T07:29:28.002Z</time></trkpt><trkpt lat="44.91747327058384" lon="9.234862175862414"><ele>316.0</ele><time>2026-05-01T07:29:30.002Z</time></trkpt><trkpt lat="44.91739503842843" lon="9.234882137937417"><ele>316.0</ele><time>2026-05-01T07:29:33.002Z</time></trkpt><trkpt lat="44.91733189573028" lon="9.234946299382695"><ele>316.8333333333333</ele><time>2026-05-01T07:29:36.002Z</time></trkpt><trkpt lat="44.91726484147324" lon="9.235004740297175"><ele>317.66666666666663</ele><time>2026-05-01T07:29:39.002Z</time></trkpt><trkpt lat="44.91720627263193" lon="9.235073203852709"><ele>318.5</ele><time>2026-05-01T07:29:43.002Z</time></trkpt><trkpt lat="44.91717041810956" lon="9.235153585939587"><ele>319.3333333333333</ele><time>2026-05-01T07:29:46.002Z</time></trkpt><trkpt lat="44.917114076869524" lon="9.235243765576552"><ele>320.1666666666667</ele><time>2026-05-01T07:29:50.002Z</time></trkpt><trkpt lat="44.91706525024774" lon="9.235305689149873"><ele>321.0</ele><time>2026-05-01T07:29:54.002Z</time></trkpt><trkpt lat="44.917011716119674" lon="9.235383551896366"><ele>321.0</ele><time>2026-05-01T07:29:57.002Z</time></trkpt><trkpt lat="44.91695039643639" lon="9.235450888588206"><ele>321.0</ele><time>2026-05-01T07:30:01.002Z</time></trkpt><trkpt lat="44.91689148063774" lon="9.235527368637229"><ele>321.0</ele><time>2026-05-01T07:30:05.002Z</time></trkpt><trkpt lat="44.916823486337606" lon="9.235567334892401"><ele>321.0</ele><time>2026-05-01T07:30:08.002Z</time></trkpt><trkpt lat="44.91675955765296" lon="9.235601847782194"><ele>321.0</ele><time>2026-05-01T07:30:11.002Z</time></trkpt><trkpt lat="44.916688327046685" lon="9.23562276683489"><ele>321.0</ele><time>2026-05-01T07:30:14.001Z</time></trkpt><trkpt lat="44.91661206562063" lon="9.23567738523848"><ele>322.71428571428567</ele><time>2026-05-01T07:30:18.001Z</time></trkpt><trkpt lat="44.91655084953798" lon="9.235725313582023"><ele>324.42857142857144</ele><time>2026-05-01T07:30:22.001Z</time></trkpt><trkpt lat="44.91650964136098" lon="9.23579969758829"><ele>326.1428571428571</ele><time>2026-05-01T07:30:26.001Z</time></trkpt><trkpt lat="44.91648585508103" lon="9.235908157825332"><ele>327.85714285714283</ele><time>2026-05-01T07:30:31.001Z</time></trkpt><trkpt lat="44.916450122000505" lon="9.236008677580644"><ele>329.57142857142856</ele><time>2026-05-01T07:30:36.002Z</time></trkpt><trkpt lat="44.91641816689417" lon="9.236117630017572"><ele>331.2857142857143</ele><time>2026-05-01T07:30:40.002Z</time></trkpt><trkpt lat="44.916381123542955" lon="9.236196356719084"><ele>333.0</ele><time>2026-05-01T07:30:43.003Z</time></trkpt><trkpt lat="44.91634517497542" lon="9.236279284274087"><ele>333.0</ele><time>2026-05-01T07:30:46.003Z</time></trkpt><trkpt lat="44.91630475029161" lon="9.23636995038177"><ele>333.0</ele><time>2026-05-01T07:30:49.002Z</time></trkpt><trkpt lat="44.91623559943198" lon="9.236404094571874"><ele>333.0</ele><time>2026-05-01T07:30:53.002Z</time></trkpt><trkpt lat="44.91619731008037" lon="9.236509456404292"><ele>333.0</ele><time>2026-05-01T07:30:57.002Z</time></trkpt><trkpt lat="44.91614548227768" lon="9.236564052040663"><ele>333.0</ele><time>2026-05-01T07:31:00.002Z</time></trkpt><trkpt lat="44.916080886714724" lon="9.236579400785054"><ele>333.0</ele><time>2026-05-01T07:31:02.002Z</time></trkpt><trkpt lat="44.91601849334424" lon="9.236601219616055"><ele>333.0</ele><time>2026-05-01T07:31:04.002Z</time></trkpt><trkpt lat="44.91595507518817" lon="9.23662452629055"><ele>335.2857142857143</ele><time>2026-05-01T07:31:07.002Z</time></trkpt><trkpt lat="44.91587527489386" lon="9.236644448899867"><ele>337.57142857142856</ele><time>2026-05-01T07:31:10.002Z</time></trkpt><trkpt lat="44.91580977527318" lon="9.236662323553684"><ele>339.85714285714283</ele><time>2026-05-01T07:31:13.002Z</time></trkpt><trkpt lat="44.91573401427922" lon="9.236665459749902"><ele>342.1428571428571</ele><time>2026-05-01T07:31:16.002Z</time></trkpt><trkpt lat="44.91566564178836" lon="9.236673575472013"><ele>344.42857142857144</ele><time>2026-05-01T07:31:21.002Z</time></trkpt><trkpt lat="44.91559345744312" lon="9.236678642005892"><ele>346.71428571428567</ele><time>2026-05-01T07:31:26.002Z</time></trkpt><trkpt lat="44.915526687544556" lon="9.236667580454254"><ele>349.0</ele><time>2026-05-01T07:31:30.002Z</time></trkpt><trkpt lat="44.91544140332725" lon="9.236637543744747"><ele>349.0</ele><time>2026-05-01T07:31:32.002Z</time></trkpt><trkpt lat="44.91536090776627" lon="9.236581564865379"><ele>349.0</ele><time>2026-05-01T07:31:35.002Z</time></trkpt><trkpt lat="44.91530835845675" lon="9.236477040544557"><ele>349.0</ele><time>2026-05-01T07:31:37.002Z</time></trkpt><trkpt lat="44.915278531242514" lon="9.236337929295424"><ele>349.0</ele><time>2026-05-01T07:31:39.002Z</time></trkpt><trkpt lat="44.91524850987657" lon="9.236227868547198"><ele>349.0</ele><time>2026-05-01T07:31:41.002Z</time></trkpt><trkpt lat="44.915285055541794" lon="9.236140571623825"><ele>349.0</ele><time>2026-05-01T07:31:43.002Z</time></trkpt><trkpt lat="44.91530046802814" lon="9.23602815628565"><ele>349.0</ele><time>2026-05-01T07:31:46.002Z</time></trkpt><trkpt lat="44.91531986815365" lon="9.235919054933602"><ele>349.0</ele><time>2026-05-01T07:31:49.002Z</time></trkpt><trkpt lat="44.91532705235443" lon="9.235812225594119"><ele>349.0</ele><time>2026-05-01T07:31:52.002Z</time></trkpt><trkpt lat="44.915336577348434" lon="9.235718956160648"><ele>349.0</ele><time>2026-05-01T07:31:56.002Z</time></trkpt><trkpt lat="44.91535440190316" lon="9.235602385156605"><ele>349.0</ele><time>2026-05-01T07:31:59.002Z</time></trkpt><trkpt lat="44.91534590495531" lon="9.235503376739233"><ele>349.0</ele><time>2026-05-01T07:32:02.001Z</time></trkpt><trkpt lat="44.9153476399845" lon="9.235398929933181"><ele>349.0</ele><time>2026-05-01T07:32:05.001Z</time></trkpt><trkpt lat="44.91535643026591" lon="9.235302501440023"><ele>349.0</ele><time>2026-05-01T07:32:08.001Z</time></trkpt><trkpt lat="44.91536638311874" lon="9.235213008556654"><ele>349.0</ele><time>2026-05-01T07:32:10.001Z</time></trkpt><trkpt lat="44.9153774407977" lon="9.2351174930878"><ele>349.0</ele><time>2026-05-01T07:32:13.001Z</time></trkpt><trkpt lat="44.91539650685901" lon="9.234997966531166"><ele>349.0</ele><time>2026-05-01T07:32:16.001Z</time></trkpt><trkpt lat="44.91541280518266" lon="9.234883644831084"><ele>349.0</ele><time>2026-05-01T07:32:19.001Z</time></trkpt><trkpt lat="44.91539697715272" lon="9.23477183062126"><ele>348.85714285714283</ele><time>2026-05-01T07:32:23.001Z</time></trkpt><trkpt lat="44.915349692671306" lon="9.234710414912731"><ele>348.7142857142857</ele><time>2026-05-01T07:32:26.001Z</time></trkpt><trkpt lat="44.91527379201985" lon="9.234694221243117"><ele>348.57142857142856</ele><time>2026-05-01T07:32:31.001Z</time></trkpt><trkpt lat="44.9152005540357" lon="9.234727598829105"><ele>348.42857142857144</ele><time>2026-05-01T07:32:35.001Z</time></trkpt><trkpt lat="44.91513446772234" lon="9.234756913513971"><ele>348.2857142857143</ele><time>2026-05-01T07:32:38.001Z</time></trkpt><trkpt lat="44.91506391383935" lon="9.23478337287326"><ele>348.1428571428571</ele><time>2026-05-01T07:32:41.001Z</time></trkpt><trkpt lat="44.91500147153189" lon="9.234815992938353"><ele>348.0</ele><time>2026-05-01T07:32:44.002Z</time></trkpt><trkpt lat="44.91493446561813" lon="9.234851269772639"><ele>350.3333333333333</ele><time>2026-05-01T07:32:47.003Z</time></trkpt><trkpt lat="44.91486939586324" lon="9.234888517559256"><ele>352.6666666666667</ele><time>2026-05-01T07:32:50.002Z</time></trkpt><trkpt lat="44.91479841950366" lon="9.234920022016654"><ele>355.0</ele><time>2026-05-01T07:32:53.003Z</time></trkpt><trkpt lat="44.914736910809395" lon="9.23495588009122"><ele>357.33333333333337</ele><time>2026-05-01T07:32:56.003Z</time></trkpt><trkpt lat="44.91467395645755" lon="9.234997980255539"><ele>359.6666666666667</ele><time>2026-05-01T07:32:59.003Z</time></trkpt><trkpt lat="44.914602483395214" lon="9.235060777707867"><ele>362.0</ele><time>2026-05-01T07:33:03.003Z</time></trkpt><trkpt lat="44.91452312131511" lon="9.235107570263834"><ele>362.0</ele><time>2026-05-01T07:33:07.003Z</time></trkpt><trkpt lat="44.914444415773694" lon="9.235134683261917"><ele>362.0</ele><time>2026-05-01T07:33:10.003Z</time></trkpt><trkpt lat="44.91436024412217" lon="9.235158942021306"><ele>362.0</ele><time>2026-05-01T07:33:13.003Z</time></trkpt><trkpt lat="44.914285083761015" lon="9.235172646507413"><ele>362.0</ele><time>2026-05-01T07:33:16.002Z</time></trkpt><trkpt lat="44.91420557905673" lon="9.235184102508423"><ele>362.0</ele><time>2026-05-01T07:33:19.002Z</time></trkpt><trkpt lat="44.914133362195635" lon="9.235196515698995"><ele>362.0</ele><time>2026-05-01T07:33:22.002Z</time></trkpt><trkpt lat="44.91405545502434" lon="9.235199729334713"><ele>364.0</ele><time>2026-05-01T07:33:25.002Z</time></trkpt><trkpt lat="44.9139860466973" lon="9.235184317369198"><ele>366.0</ele><time>2026-05-01T07:33:28.002Z</time></trkpt><trkpt lat="44.913911264427085" lon="9.235185448834887"><ele>368.0</ele><time>2026-05-01T07:33:31.002Z</time></trkpt><trkpt lat="44.91383794603897" lon="9.235192165365875"><ele>370.0</ele><time>2026-05-01T07:33:34.002Z</time></trkpt><trkpt lat="44.91377320379342" lon="9.235212946895865"><ele>372.0</ele><time>2026-05-01T07:33:37.002Z</time></trkpt><trkpt lat="44.913701582406915" lon="9.23522561378068"><ele>374.0</ele><time>2026-05-01T07:33:40.002Z</time></trkpt><trkpt lat="44.913631159264675" lon="9.235238877636505"><ele>376.0</ele><time>2026-05-01T07:33:43.002Z</time></trkpt><trkpt lat="44.91356322876843" lon="9.235242973189695"><ele>376.0</ele><time>2026-05-01T07:33:46.002Z</time></trkpt><trkpt lat="44.91349362333635" lon="9.235242033618151"><ele>376.0</ele><time>2026-05-01T07:33:49.002Z</time></trkpt><trkpt lat="44.913427734538324" lon="9.235250523351922"><ele>376.0</ele><time>2026-05-01T07:33:52.002Z</time></trkpt><trkpt lat="44.91335108825604" lon="9.235246112298183"><ele>376.0</ele><time>2026-05-01T07:33:56.002Z</time></trkpt><trkpt lat="44.91327656465247" lon="9.23522047305043"><ele>376.0</ele><time>2026-05-01T07:34:00.002Z</time></trkpt><trkpt lat="44.91320426223765" lon="9.235226090641929"><ele>376.0</ele><time>2026-05-01T07:34:03.002Z</time></trkpt><trkpt lat="44.91314064051474" lon="9.235224421298598"><ele>376.0</ele><time>2026-05-01T07:34:06.002Z</time></trkpt><trkpt lat="44.91307513019645" lon="9.235231744638181"><ele>378.0</ele><time>2026-05-01T07:34:09.002Z</time></trkpt><trkpt lat="44.913007470944954" lon="9.235248091129032"><ele>380.0</ele><time>2026-05-01T07:34:12.002Z</time></trkpt><trkpt lat="44.912921356930994" lon="9.235239644285166"><ele>382.0</ele><time>2026-05-01T07:34:16.002Z</time></trkpt><trkpt lat="44.912840620363454" lon="9.235224484182265"><ele>384.0</ele><time>2026-05-01T07:34:19.002Z</time></trkpt><trkpt lat="44.912762480746004" lon="9.23522161371035"><ele>386.00000000000006</ele><time>2026-05-01T07:34:22.002Z</time></trkpt><trkpt lat="44.91267459840173" lon="9.23523140194623"><ele>388.0</ele><time>2026-05-01T07:34:25.002Z</time></trkpt><trkpt lat="44.91260087198325" lon="9.235246441222069"><ele>389.33333333333337</ele><time>2026-05-01T07:34:28.002Z</time></trkpt><trkpt lat="44.912532962368424" lon="9.235250240308012"><ele>390.6666666666667</ele><time>2026-05-01T07:34:30.002Z</time></trkpt><trkpt lat="44.9124656586613" lon="9.235274167127457"><ele>392.0</ele><time>2026-05-01T07:34:33.002Z</time></trkpt><trkpt lat="44.91238160731957" lon="9.235249662306906"><ele>393.33333333333337</ele><time>2026-05-01T07:34:36.002Z</time></trkpt><trkpt lat="44.91229679598011" lon="9.235221702585088"><ele>394.6666666666667</ele><time>2026-05-01T07:34:39.002Z</time></trkpt><trkpt lat="44.91221598509509" lon="9.235193914401357"><ele>396.0</ele><time>2026-05-01T07:34:42.002Z</time></trkpt><trkpt lat="44.91213293543071" lon="9.235191788786581"><ele>396.0</ele><time>2026-05-01T07:34:45.002Z</time></trkpt><trkpt lat="44.91205341706606" lon="9.235170028302711"><ele>396.0</ele><time>2026-05-01T07:34:48.003Z</time></trkpt><trkpt lat="44.91197364797268" lon="9.235163422277997"><ele>396.0</ele><time>2026-05-01T07:34:51.003Z</time></trkpt><trkpt lat="44.911893548205185" lon="9.23515969415296"><ele>396.0</ele><time>2026-05-01T07:34:54.003Z</time></trkpt><trkpt lat="44.911822943846204" lon="9.23515888645938"><ele>396.0</ele><time>2026-05-01T07:34:57.004Z</time></trkpt><trkpt lat="44.911754971757524" lon="9.235158391688849"><ele>396.0</ele><time>2026-05-01T07:35:00.003Z</time></trkpt><trkpt lat="44.91168774848457" lon="9.235154166115713"><ele>396.0</ele><time>2026-05-01T07:35:03.003Z</time></trkpt><trkpt lat="44.91160479072361" lon="9.23515768573371"><ele>397.0</ele><time>2026-05-01T07:35:07.003Z</time></trkpt><trkpt lat="44.91154161532724" lon="9.235156076469606"><ele>398.0</ele><time>2026-05-01T07:35:10.003Z</time></trkpt><trkpt lat="44.911472264475634" lon="9.235145145576494"><ele>399.0</ele><time>2026-05-01T07:35:13.003Z</time></trkpt><trkpt lat="44.911386955153255" lon="9.235132484095233"><ele>400.0</ele><time>2026-05-01T07:35:17.003Z</time></trkpt><trkpt lat="44.91132467125191" lon="9.235116237564393"><ele>401.0</ele><time>2026-05-01T07:35:20.003Z</time></trkpt><trkpt lat="44.911248812848" lon="9.235108521656464"><ele>402.0</ele><time>2026-05-01T07:35:24.003Z</time></trkpt><trkpt lat="44.91117965038686" lon="9.235098987797569"><ele>403.0</ele><time>2026-05-01T07:35:28.003Z</time></trkpt><trkpt lat="44.9111147125733" lon="9.235104450633694"><ele>403.0</ele><time>2026-05-01T07:35:32.003Z</time></trkpt><trkpt lat="44.9110487353413" lon="9.235090412462025"><ele>403.0</ele><time>2026-05-01T07:35:36.003Z</time></trkpt><trkpt lat="44.910984492839994" lon="9.235082101331637"><ele>403.0</ele><time>2026-05-01T07:35:40.003Z</time></trkpt><trkpt lat="44.91091636177972" lon="9.23507887009957"><ele>403.0</ele><time>2026-05-01T07:35:44.003Z</time></trkpt><trkpt lat="44.910850041499145" lon="9.235071337123873"><ele>403.0</ele><time>2026-05-01T07:35:48.003Z</time></trkpt><trkpt lat="44.91078440806873" lon="9.235076180351594"><ele>403.0</ele><time>2026-05-01T07:35:52.003Z</time></trkpt><trkpt lat="44.91070959689282" lon="9.235088086284685"><ele>403.0</ele><time>2026-05-01T07:35:56.003Z</time></trkpt><trkpt lat="44.91064623698042" lon="9.235106073288872"><ele>404.8571428571429</ele><time>2026-05-01T07:36:00.003Z</time></trkpt><trkpt lat="44.91057860540359" lon="9.235128005023675"><ele>406.71428571428567</ele><time>2026-05-01T07:36:04.003Z</time></trkpt><trkpt lat="44.910512986977665" lon="9.235156680022405"><ele>408.57142857142856</ele><time>2026-05-01T07:36:08.003Z</time></trkpt><trkpt lat="44.91044952516789" lon="9.235170706555968"><ele>410.42857142857144</ele><time>2026-05-01T07:36:12.003Z</time></trkpt><trkpt lat="44.91038279946209" lon="9.23520156402195"><ele>412.28571428571433</ele><time>2026-05-01T07:36:16.003Z</time></trkpt><trkpt lat="44.91030371634857" lon="9.2352168007359"><ele>414.1428571428571</ele><time>2026-05-01T07:36:21.003Z</time></trkpt><trkpt lat="44.91022820459947" lon="9.235212302777976"><ele>416.0</ele><time>2026-05-01T07:36:26.003Z</time></trkpt><trkpt lat="44.91016418852347" lon="9.235204281748183"><ele>415.99999999999994</ele><time>2026-05-01T07:36:30.003Z</time></trkpt><trkpt lat="44.91008327455342" lon="9.235193273102848"><ele>416.0</ele><time>2026-05-01T07:36:34.003Z</time></trkpt><trkpt lat="44.91000849404052" lon="9.235180926350074"><ele>416.0</ele><time>2026-05-01T07:36:38.003Z</time></trkpt><trkpt lat="44.909927210424996" lon="9.235172959510193"><ele>416.0</ele><time>2026-05-01T07:36:42.003Z</time></trkpt><trkpt lat="44.909851016586295" lon="9.235152763811024"><ele>415.99999999999994</ele><time>2026-05-01T07:36:46.002Z</time></trkpt><trkpt lat="44.909770399391626" lon="9.235133810229996"><ele>416.0</ele><time>2026-05-01T07:36:50.002Z</time></trkpt><trkpt lat="44.90969828525985" lon="9.235120159312736"><ele>418.49999999999994</ele><time>2026-05-01T07:36:53.002Z</time></trkpt><trkpt lat="44.909623723989405" lon="9.235117409225104"><ele>421.0</ele><time>2026-05-01T07:36:56.004Z</time></trkpt><trkpt lat="44.909539046503276" lon="9.23513526975269"><ele>423.5</ele><time>2026-05-01T07:37:00.003Z</time></trkpt><trkpt lat="44.90946339316566" lon="9.235141042194758"><ele>426.0</ele><time>2026-05-01T07:37:03.004Z</time></trkpt><trkpt lat="44.90939370627615" lon="9.235140318719283"><ele>428.49999999999994</ele><time>2026-05-01T07:37:06.003Z</time></trkpt><trkpt lat="44.9093222184582" lon="9.23513821439054"><ele>431.0</ele><time>2026-05-01T07:37:09.003Z</time></trkpt><trkpt lat="44.909248540726104" lon="9.23513403786984"><ele>431.8571428571429</ele><time>2026-05-01T07:37:12.003Z</time></trkpt><trkpt lat="44.90917410284775" lon="9.235141794885752"><ele>432.71428571428567</ele><time>2026-05-01T07:37:15.003Z</time></trkpt><trkpt lat="44.90909828423862" lon="9.235139647682047"><ele>433.57142857142856</ele><time>2026-05-01T07:37:18.003Z</time></trkpt><trkpt lat="44.90902466358467" lon="9.235136512235838"><ele>434.42857142857144</ele><time>2026-05-01T07:37:21.003Z</time></trkpt><trkpt lat="44.90895406414973" lon="9.235139907861877"><ele>435.28571428571433</ele><time>2026-05-01T07:37:24.003Z</time></trkpt><trkpt lat="44.90888460727583" lon="9.23514666308972"><ele>436.1428571428571</ele><time>2026-05-01T07:37:27.003Z</time></trkpt><trkpt lat="44.908816593009334" lon="9.235155995490665"><ele>437.0</ele><time>2026-05-01T07:37:30.003Z</time></trkpt><trkpt lat="44.90874489842647" lon="9.235158292733226"><ele>437.0</ele><time>2026-05-01T07:37:33.003Z</time></trkpt><trkpt lat="44.908674974679876" lon="9.235163916605783"><ele>437.0</ele><time>2026-05-01T07:37:36.003Z</time></trkpt><trkpt lat="44.90860607326704" lon="9.235169747185719"><ele>437.0</ele><time>2026-05-01T07:37:39.003Z</time></trkpt><trkpt lat="44.908537528346166" lon="9.235181423461093"><ele>437.0</ele><time>2026-05-01T07:37:42.003Z</time></trkpt><trkpt lat="44.908470252495995" lon="9.235184505798228"><ele>437.0</ele><time>2026-05-01T07:37:45.003Z</time></trkpt><trkpt lat="44.908406475381994" lon="9.235186320025205"><ele>437.0</ele><time>2026-05-01T07:37:48.003Z</time></trkpt><trkpt lat="44.90834281167034" lon="9.23519328434115"><ele>437.0</ele><time>2026-05-01T07:37:51.003Z</time></trkpt><trkpt lat="44.9082704977112" lon="9.235195099736089"><ele>437.99999999999994</ele><time>2026-05-01T07:37:54.003Z</time></trkpt><trkpt lat="44.90819396786895" lon="9.23520752615175"><ele>439.0</ele><time>2026-05-01T07:37:57.003Z</time></trkpt><trkpt lat="44.90810808924615" lon="9.235213542223802"><ele>440.0</ele><time>2026-05-01T07:38:00.003Z</time></trkpt><trkpt lat="44.90803614678044" lon="9.235223143955333"><ele>441.0</ele><time>2026-05-01T07:38:03.003Z</time></trkpt><trkpt lat="44.907954681506055" lon="9.235232903045038"><ele>441.99999999999994</ele><time>2026-05-01T07:38:06.003Z</time></trkpt><trkpt lat="44.907889707774515" lon="9.235238883121571"><ele>443.0</ele><time>2026-05-01T07:38:09.003Z</time></trkpt><trkpt lat="44.907804734063475" lon="9.23524238674589"><ele>442.99999999999994</ele><time>2026-05-01T07:38:12.003Z</time></trkpt><trkpt lat="44.907735287154786" lon="9.235250993230641"><ele>443.0</ele><time>2026-05-01T07:38:15.003Z</time></trkpt><trkpt lat="44.90766716979059" lon="9.23525608044723"><ele>443.0</ele><time>2026-05-01T07:38:18.003Z</time></trkpt><trkpt lat="44.90758404691976" lon="9.235262335218538"><ele>443.0</ele><time>2026-05-01T07:38:22.003Z</time></trkpt><trkpt lat="44.907506603844226" lon="9.23527840256122"><ele>442.99999999999994</ele><time>2026-05-01T07:38:26.003Z</time></trkpt><trkpt lat="44.90742860530301" lon="9.23527969050626"><ele>443.0</ele><time>2026-05-01T07:38:30.003Z</time></trkpt><trkpt lat="44.90735602301455" lon="9.235290701106655"><ele>444.57142857142856</ele><time>2026-05-01T07:38:34.003Z</time></trkpt><trkpt lat="44.907293112941105" lon="9.235306602608045"><ele>446.14285714285717</ele><time>2026-05-01T07:38:38.002Z</time></trkpt><trkpt lat="44.90722646111001" lon="9.235336831580177"><ele>447.7142857142857</ele><time>2026-05-01T07:38:40.002Z</time></trkpt><trkpt lat="44.90715736796289" lon="9.235362225286446"><ele>449.28571428571433</ele><time>2026-05-01T07:38:43.002Z</time></trkpt><trkpt lat="44.90709502596104" lon="9.235378686515523"><ele>450.8571428571429</ele><time>2026-05-01T07:38:45.002Z</time></trkpt><trkpt lat="44.90701740507095" lon="9.235404111412134"><ele>452.42857142857144</ele><time>2026-05-01T07:38:48.002Z</time></trkpt><trkpt lat="44.906947440954504" lon="9.235435101542677"><ele>454.0</ele><time>2026-05-01T07:38:51.002Z</time></trkpt><trkpt lat="44.90687459655492" lon="9.235457539969694"><ele>454.0</ele><time>2026-05-01T07:38:54.002Z</time></trkpt><trkpt lat="44.90680830528399" lon="9.235478624663129"><ele>454.00000000000006</ele><time>2026-05-01T07:38:57.002Z</time></trkpt><trkpt lat="44.90672120765758" lon="9.235513711755079"><ele>454.0</ele><time>2026-05-01T07:39:01.003Z</time></trkpt><trkpt lat="44.906650236663346" lon="9.235549185506"><ele>454.0</ele><time>2026-05-01T07:39:04.004Z</time></trkpt><trkpt lat="44.90658900739923" lon="9.235580851369454"><ele>454.00000000000006</ele><time>2026-05-01T07:39:07.004Z</time></trkpt><trkpt lat="44.906523391875304" lon="9.235619635721596"><ele>454.0</ele><time>2026-05-01T07:39:10.003Z</time></trkpt><trkpt lat="44.90645507833172" lon="9.23565442792899"><ele>454.0</ele><time>2026-05-01T07:39:13.004Z</time></trkpt><trkpt lat="44.90638811752613" lon="9.23569427109847"><ele>456.42857142857144</ele><time>2026-05-01T07:39:16.004Z</time></trkpt><trkpt lat="44.90632541098834" lon="9.235729923341243"><ele>458.8571428571429</ele><time>2026-05-01T07:39:19.004Z</time></trkpt><trkpt lat="44.90625832859612" lon="9.235753901745621"><ele>461.28571428571433</ele><time>2026-05-01T07:39:22.004Z</time></trkpt><trkpt lat="44.90617741995361" lon="9.235788027957243"><ele>463.7142857142858</ele><time>2026-05-01T07:39:26.004Z</time></trkpt><trkpt lat="44.906112568260745" lon="9.235794515868164"><ele>466.14285714285717</ele><time>2026-05-01T07:39:29.004Z</time></trkpt><trkpt lat="44.90604198538078" lon="9.235778135903315"><ele>468.57142857142867</ele><time>2026-05-01T07:39:32.004Z</time></trkpt><trkpt lat="44.90597749910054" lon="9.235756838062994"><ele>471.00000000000006</ele><time>2026-05-01T07:39:35.004Z</time></trkpt><trkpt lat="44.90591061722471" lon="9.235717136825166"><ele>472.8571428571429</ele><time>2026-05-01T07:39:38.004Z</time></trkpt><trkpt lat="44.905855427333684" lon="9.235668468426919"><ele>474.7142857142857</ele><time>2026-05-01T07:39:41.004Z</time></trkpt><trkpt lat="44.90580435864184" lon="9.235605310326667"><ele>476.57142857142856</ele><time>2026-05-01T07:39:44.004Z</time></trkpt><trkpt lat="44.905742451189354" lon="9.23555527582549"><ele>478.42857142857144</ele><time>2026-05-01T07:39:47.003Z</time></trkpt><trkpt lat="44.90568371981473" lon="9.235503597791578"><ele>480.2857142857142</ele><time>2026-05-01T07:39:50.003Z</time></trkpt><trkpt lat="44.90562542744169" lon="9.235451278674942"><ele>482.1428571428571</ele><time>2026-05-01T07:39:53.003Z</time></trkpt><trkpt lat="44.90557019015584" lon="9.235406672432317"><ele>484.0</ele><time>2026-05-01T07:39:56.003Z</time></trkpt><trkpt lat="44.90549749403228" lon="9.23536040148452"><ele>484.00000000000006</ele><time>2026-05-01T07:40:00.003Z</time></trkpt><trkpt lat="44.90542797210911" lon="9.235317929940173"><ele>484.0</ele><time>2026-05-01T07:40:03.003Z</time></trkpt><trkpt lat="44.905362289132746" lon="9.235284894892859"><ele>484.0</ele><time>2026-05-01T07:40:06.003Z</time></trkpt><trkpt lat="44.90529576695644" lon="9.235234990405623"><ele>484.0</ele><time>2026-05-01T07:40:10.003Z</time></trkpt><trkpt lat="44.90521809215043" lon="9.235185946944663"><ele>484.00000000000006</ele><time>2026-05-01T07:40:14.003Z</time></trkpt><trkpt lat="44.90514882195405" lon="9.235139583293279"><ele>484.0</ele><time>2026-05-01T07:40:18.003Z</time></trkpt><trkpt lat="44.905077397492164" lon="9.235083311171664"><ele>486.6666666666667</ele><time>2026-05-01T07:40:22.003Z</time></trkpt><trkpt lat="44.90501344857426" lon="9.235039871483508"><ele>489.33333333333337</ele><time>2026-05-01T07:40:26.003Z</time></trkpt><trkpt lat="44.90493922673469" lon="9.234998945139912"><ele>492.0</ele><time>2026-05-01T07:40:30.003Z</time></trkpt><trkpt lat="44.90487192956565" lon="9.235011790309297"><ele>494.66666666666663</ele><time>2026-05-01T07:40:34.003Z</time></trkpt><trkpt lat="44.90486363416477" lon="9.235132784497052"><ele>497.3333333333333</ele><time>2026-05-01T07:40:38.003Z</time></trkpt><trkpt lat="44.904892884747134" lon="9.235256203471504"><ele>500.0</ele><time>2026-05-01T07:40:41.003Z</time></trkpt><trkpt lat="44.90491001646763" lon="9.235350212345733"><ele>500.0</ele><time>2026-05-01T07:40:43.003Z</time></trkpt><trkpt lat="44.904912746941164" lon="9.235455406049045"><ele>500.0</ele><time>2026-05-01T07:40:45.003Z</time></trkpt><trkpt lat="44.90491993212986" lon="9.235561244822296"><ele>500.0</ele><time>2026-05-01T07:40:47.003Z</time></trkpt><trkpt lat="44.90492019936987" lon="9.235661405593367"><ele>500.0</ele><time>2026-05-01T07:40:49.003Z</time></trkpt><trkpt lat="44.904922985323395" lon="9.235762068881812"><ele>500.0</ele><time>2026-05-01T07:40:51.003Z</time></trkpt><trkpt lat="44.904921524900935" lon="9.235865656965576"><ele>500.0</ele><time>2026-05-01T07:40:53.003Z</time></trkpt><trkpt lat="44.904929294010344" lon="9.235974727377439"><ele>500.0</ele><time>2026-05-01T07:40:55.003Z</time></trkpt><trkpt lat="44.90492348411195" lon="9.236090371398685"><ele>500.8333333333333</ele><time>2026-05-01T07:40:57.003Z</time></trkpt><trkpt lat="44.904922490437066" lon="9.236207450052863"><ele>501.66666666666663</ele><time>2026-05-01T07:40:59.003Z</time></trkpt><trkpt lat="44.90492275786838" lon="9.236309491833282"><ele>502.5</ele><time>2026-05-01T07:41:01.003Z</time></trkpt><trkpt lat="44.904908699021966" lon="9.236411481962845"><ele>503.33333333333337</ele><time>2026-05-01T07:41:03.003Z</time></trkpt><trkpt lat="44.904896028456065" lon="9.236519527043455"><ele>504.1666666666667</ele><time>2026-05-01T07:41:05.003Z</time></trkpt><trkpt lat="44.90489780251605" lon="9.236630020472905"><ele>505.0</ele><time>2026-05-01T07:41:07.004Z</time></trkpt><trkpt lat="44.904905195485426" lon="9.236734949022681"><ele>505.1666666666667</ele><time>2026-05-01T07:41:09.005Z</time></trkpt><trkpt lat="44.90489445172114" lon="9.236844836729846"><ele>505.33333333333337</ele><time>2026-05-01T07:41:11.004Z</time></trkpt><trkpt lat="44.90488828068816" lon="9.236954179243426"><ele>505.5</ele><time>2026-05-01T07:41:13.004Z</time></trkpt><trkpt lat="44.9048806054003" lon="9.237069845922905"><ele>505.66666666666663</ele><time>2026-05-01T07:41:15.004Z</time></trkpt><trkpt lat="44.90486978860114" lon="9.237184672670997"><ele>505.8333333333333</ele><time>2026-05-01T07:41:17.004Z</time></trkpt><trkpt lat="44.90487445501456" lon="9.237293125457478"><ele>506.0</ele><time>2026-05-01T07:41:19.004Z</time></trkpt><trkpt lat="44.904891855081225" lon="9.237400756324298"><ele>505.99999999999994</ele><time>2026-05-01T07:41:21.004Z</time></trkpt><trkpt lat="44.90487955190694" lon="9.237521379985155"><ele>506.0</ele><time>2026-05-01T07:41:23.004Z</time></trkpt><trkpt lat="44.90488213369454" lon="9.23762503659742"><ele>506.0</ele><time>2026-05-01T07:41:25.004Z</time></trkpt><trkpt lat="44.90488313246782" lon="9.237721170866994"><ele>506.0</ele><time>2026-05-01T07:41:27.004Z</time></trkpt><trkpt lat="44.904884133902016" lon="9.237841529010316"><ele>505.99999999999994</ele><time>2026-05-01T07:41:29.004Z</time></trkpt><trkpt lat="44.904893354137236" lon="9.237946945476772"><ele>506.0</ele><time>2026-05-01T07:41:31.004Z</time></trkpt><trkpt lat="44.904895899687645" lon="9.238059815112615"><ele>505.8333333333333</ele><time>2026-05-01T07:41:33.004Z</time></trkpt><trkpt lat="44.90490002021834" lon="9.23816722955684"><ele>505.66666666666663</ele><time>2026-05-01T07:41:35.004Z</time></trkpt><trkpt lat="44.904883290639944" lon="9.23827535530998"><ele>505.5</ele><time>2026-05-01T07:41:37.004Z</time></trkpt><trkpt lat="44.90486691156942" lon="9.238384131595044"><ele>505.33333333333337</ele><time>2026-05-01T07:41:39.004Z</time></trkpt><trkpt lat="44.90485442583006" lon="9.238485947473356"><ele>505.1666666666667</ele><time>2026-05-01T07:41:41.004Z</time></trkpt><trkpt lat="44.90484501006903" lon="9.238593374279368"><ele>505.0</ele><time>2026-05-01T07:41:43.004Z</time></trkpt><trkpt lat="44.90482649462943" lon="9.238701600412622"><ele>505.0</ele><time>2026-05-01T07:41:45.004Z</time></trkpt><trkpt lat="44.90481912804281" lon="9.23880449935318"><ele>504.99999999999994</ele><time>2026-05-01T07:41:47.004Z</time></trkpt><trkpt lat="44.904809321892806" lon="9.238906935012473"><ele>505.0</ele><time>2026-05-01T07:41:49.004Z</time></trkpt><trkpt lat="44.904815122862026" lon="9.239007569595183"><ele>505.0</ele><time>2026-05-01T07:41:51.004Z</time></trkpt><trkpt lat="44.904816269485735" lon="9.239114747287543"><ele>504.99999999999994</ele><time>2026-05-01T07:41:53.004Z</time></trkpt><trkpt lat="44.90480925277354" lon="9.23920949059437"><ele>505.0</ele><time>2026-05-01T07:41:55.004Z</time></trkpt><trkpt lat="44.9048080184258" lon="9.239312155276266"><ele>505.0</ele><time>2026-05-01T07:41:57.004Z</time></trkpt><trkpt lat="44.90478253036828" lon="9.239414406387093"><ele>504.1666666666667</ele><time>2026-05-01T07:41:59.004Z</time></trkpt><trkpt lat="44.90475108038714" lon="9.239513888923529"><ele>503.33333333333337</ele><time>2026-05-01T07:42:01.004Z</time></trkpt><trkpt lat="44.90470611301523" lon="9.23960763293254"><ele>502.5</ele><time>2026-05-01T07:42:03.004Z</time></trkpt><trkpt lat="44.904656113523345" lon="9.239696013119206"><ele>501.66666666666663</ele><time>2026-05-01T07:42:05.004Z</time></trkpt><trkpt lat="44.904593694705326" lon="9.239781650366828"><ele>500.8333333333333</ele><time>2026-05-01T07:42:07.004Z</time></trkpt><trkpt lat="44.90453450406167" lon="9.239866936655412"><ele>500.0</ele><time>2026-05-01T07:42:09.004Z</time></trkpt><trkpt lat="44.90448409374735" lon="9.239961763795653"><ele>499.3333333333333</ele><time>2026-05-01T07:42:11.004Z</time></trkpt><trkpt lat="44.904442390439705" lon="9.24006483305188"><ele>498.66666666666663</ele><time>2026-05-01T07:42:13.004Z</time></trkpt><trkpt lat="44.90441084632666" lon="9.240171493996986"><ele>498.0</ele><time>2026-05-01T07:42:15.004Z</time></trkpt><trkpt lat="44.90439000421663" lon="9.240279316266083"><ele>497.33333333333337</ele><time>2026-05-01T07:42:17.004Z</time></trkpt><trkpt lat="44.90436496342313" lon="9.240387057079719"><ele>496.6666666666667</ele><time>2026-05-01T07:42:19.004Z</time></trkpt><trkpt lat="44.90434833955691" lon="9.240503943891714"><ele>496.0</ele><time>2026-05-01T07:42:21.004Z</time></trkpt><trkpt lat="44.904333976374595" lon="9.240616965737255"><ele>495.50000000000006</ele><time>2026-05-01T07:42:23.004Z</time></trkpt><trkpt lat="44.904321855620026" lon="9.240741078729204"><ele>495.0</ele><time>2026-05-01T07:42:25.004Z</time></trkpt><trkpt lat="44.90432445876762" lon="9.240851565228496"><ele>494.5</ele><time>2026-05-01T07:42:27.004Z</time></trkpt><trkpt lat="44.90431699320519" lon="9.240967769775441"><ele>494.0</ele><time>2026-05-01T07:42:29.004Z</time></trkpt><trkpt lat="44.90432030717877" lon="9.241081737659982"><ele>493.50000000000006</ele><time>2026-05-01T07:42:31.004Z</time></trkpt><trkpt lat="44.90432731446107" lon="9.241191133253217"><ele>493.0</ele><time>2026-05-01T07:42:33.004Z</time></trkpt><trkpt lat="44.90432844575388" lon="9.24131058399234"><ele>493.00000000000006</ele><time>2026-05-01T07:42:35.004Z</time></trkpt><trkpt lat="44.904331312031545" lon="9.241418839777959"><ele>493.0</ele><time>2026-05-01T07:42:37.004Z</time></trkpt><trkpt lat="44.90432201250126" lon="9.24153292393635"><ele>493.0</ele><time>2026-05-01T07:42:39.004Z</time></trkpt><trkpt lat="44.90430558572585" lon="9.241651138497998"><ele>493.0</ele><time>2026-05-01T07:42:41.004Z</time></trkpt><trkpt lat="44.90429464648925" lon="9.241765513046403"><ele>493.00000000000006</ele><time>2026-05-01T07:42:43.004Z</time></trkpt><trkpt lat="44.90425558392618" lon="9.241878088573024"><ele>493.0</ele><time>2026-05-01T07:42:45.004Z</time></trkpt><trkpt lat="44.904216496769024" lon="9.241980993111214"><ele>495.33333333333337</ele><time>2026-05-01T07:42:47.004Z</time></trkpt><trkpt lat="44.904164965228645" lon="9.242079699225663"><ele>497.6666666666667</ele><time>2026-05-01T07:42:49.003Z</time></trkpt><trkpt lat="44.90411996677324" lon="9.242199302985476"><ele>500.0</ele><time>2026-05-01T07:42:51.003Z</time></trkpt><trkpt lat="44.90409776833795" lon="9.242308318706428"><ele>502.33333333333337</ele><time>2026-05-01T07:42:53.003Z</time></trkpt><trkpt lat="44.90408085825854" lon="9.242417643109896"><ele>504.6666666666667</ele><time>2026-05-01T07:42:55.003Z</time></trkpt><trkpt lat="44.90405766872994" lon="9.242535163666995"><ele>507.0</ele><time>2026-05-01T07:42:57.003Z</time></trkpt><trkpt lat="44.904034636455584" lon="9.242647320463757"><ele>507.0</ele><time>2026-05-01T07:42:59.003Z</time></trkpt><trkpt lat="44.90401946892227" lon="9.242758933902854"><ele>507.0</ele><time>2026-05-01T07:43:01.003Z</time></trkpt><trkpt lat="44.903990787016646" lon="9.242884739118617"><ele>507.0</ele><time>2026-05-01T07:43:03.003Z</time></trkpt><trkpt lat="44.903977168634114" lon="9.242996791524321"><ele>507.0</ele><time>2026-05-01T07:43:05.003Z</time></trkpt><trkpt lat="44.903968361741384" lon="9.243100945295527"><ele>507.0</ele><time>2026-05-01T07:43:07.003Z</time></trkpt><trkpt lat="44.90393340650411" lon="9.24321553981151"><ele>507.0</ele><time>2026-05-01T07:43:09.003Z</time></trkpt><trkpt lat="44.90388287242078" lon="9.243332596750697"><ele>507.0</ele><time>2026-05-01T07:43:11.003Z</time></trkpt><trkpt lat="44.903840659725624" lon="9.243435766200736"><ele>507.0</ele><time>2026-05-01T07:43:13.004Z</time></trkpt><trkpt lat="44.903792542661705" lon="9.243539346925596"><ele>507.0</ele><time>2026-05-01T07:43:15.004Z</time></trkpt><trkpt lat="44.90374539859217" lon="9.243634596461874"><ele>507.0</ele><time>2026-05-01T07:43:17.004Z</time></trkpt><trkpt lat="44.90370499272405" lon="9.243734980584286"><ele>507.0</ele><time>2026-05-01T07:43:19.005Z</time></trkpt><trkpt lat="44.903664646417326" lon="9.243844833285541"><ele>507.0</ele><time>2026-05-01T07:43:21.004Z</time></trkpt><trkpt lat="44.903625745059124" lon="9.243965552636261"><ele>505.3333333333333</ele><time>2026-05-01T07:43:23.004Z</time></trkpt><trkpt lat="44.90359189845688" lon="9.244066546180159"><ele>503.66666666666663</ele><time>2026-05-01T07:43:25.005Z</time></trkpt><trkpt lat="44.90355615552989" lon="9.244185515556968"><ele>502.0</ele><time>2026-05-01T07:43:27.005Z</time></trkpt><trkpt lat="44.903545063898804" lon="9.24429320528397"><ele>500.3333333333333</ele><time>2026-05-01T07:43:29.005Z</time></trkpt><trkpt lat="44.90353705271225" lon="9.244410361923116"><ele>498.66666666666663</ele><time>2026-05-01T07:43:31.004Z</time></trkpt><trkpt lat="44.90353929507022" lon="9.244516530819478"><ele>497.0</ele><time>2026-05-01T07:43:33.004Z</time></trkpt><trkpt lat="44.903534052460486" lon="9.244632521619051"><ele>496.99999999999994</ele><time>2026-05-01T07:43:35.004Z</time></trkpt><trkpt lat="44.903528399037384" lon="9.244755876317457"><ele>497.0</ele><time>2026-05-01T07:43:37.004Z</time></trkpt><trkpt lat="44.90353496467264" lon="9.24488097606839"><ele>497.0</ele><time>2026-05-01T07:43:39.004Z</time></trkpt><trkpt lat="44.90355787621916" lon="9.244987117976201"><ele>497.0</ele><time>2026-05-01T07:43:41.004Z</time></trkpt><trkpt lat="44.90359488638313" lon="9.245082149216621"><ele>496.99999999999994</ele><time>2026-05-01T07:43:43.004Z</time></trkpt><trkpt lat="44.90364092191759" lon="9.24516285294311"><ele>497.0</ele><time>2026-05-01T07:43:45.004Z</time></trkpt><trkpt lat="44.90368447332917" lon="9.245244004532784"><ele>497.3333333333333</ele><time>2026-05-01T07:43:47.004Z</time></trkpt><trkpt lat="44.90373068887648" lon="9.245345237020533"><ele>497.66666666666663</ele><time>2026-05-01T07:43:49.004Z</time></trkpt><trkpt lat="44.90378471115919" lon="9.245442700663363"><ele>498.0</ele><time>2026-05-01T07:43:51.004Z</time></trkpt><trkpt lat="44.90383801422516" lon="9.245535134130108"><ele>498.33333333333337</ele><time>2026-05-01T07:43:53.004Z</time></trkpt><trkpt lat="44.90388631046332" lon="9.245625391513496"><ele>498.6666666666667</ele><time>2026-05-01T07:43:55.004Z</time></trkpt><trkpt lat="44.90393954164409" lon="9.245718601706889"><ele>499.0</ele><time>2026-05-01T07:43:57.004Z</time></trkpt><trkpt lat="44.90397906155774" lon="9.245816736192614"><ele>500.1666666666667</ele><time>2026-05-01T07:43:59.004Z</time></trkpt><trkpt lat="44.90401989075285" lon="9.245915972603775"><ele>501.33333333333337</ele><time>2026-05-01T07:44:01.004Z</time></trkpt><trkpt lat="44.90404292089804" lon="9.246022827071792"><ele>502.5</ele><time>2026-05-01T07:44:03.004Z</time></trkpt><trkpt lat="44.90404816172819" lon="9.246148646497986"><ele>503.66666666666663</ele><time>2026-05-01T07:44:05.004Z</time></trkpt><trkpt lat="44.904049111005534" lon="9.24627639673656"><ele>504.8333333333333</ele><time>2026-05-01T07:44:07.004Z</time></trkpt><trkpt lat="44.90405651871867" lon="9.246397283285747"><ele>506.0</ele><time>2026-05-01T07:44:09.004Z</time></trkpt><trkpt lat="44.9040620774591" lon="9.246517440627931"><ele>506.16666666666663</ele><time>2026-05-01T07:44:11.004Z</time></trkpt><trkpt lat="44.90406357031029" lon="9.246635009087626"><ele>506.3333333333333</ele><time>2026-05-01T07:44:13.004Z</time></trkpt><trkpt lat="44.90407483614155" lon="9.246760050934299"><ele>506.5</ele><time>2026-05-01T07:44:15.004Z</time></trkpt><trkpt lat="44.904109078108355" lon="9.246877521415875"><ele>506.66666666666663</ele><time>2026-05-01T07:44:17.004Z</time></trkpt><trkpt lat="44.904146850281066" lon="9.246987298352412"><ele>506.8333333333333</ele><time>2026-05-01T07:44:19.004Z</time></trkpt><trkpt lat="44.904187483932375" lon="9.247084217712985"><ele>507.0</ele><time>2026-05-01T07:44:21.003Z</time></trkpt><trkpt lat="44.904224966840154" lon="9.247182862546971"><ele>505.8333333333333</ele><time>2026-05-01T07:44:23.002Z</time></trkpt><trkpt lat="44.90427766489024" lon="9.247283029476687"><ele>504.66666666666663</ele><time>2026-05-01T07:44:25.001Z</time></trkpt><trkpt lat="44.90432654904784" lon="9.247385501412289"><ele>503.5</ele><time>2026-05-01T07:44:27Z</time></trkpt><trkpt lat="44.90437744524624" lon="9.247491353138452"><ele>502.3333333333333</ele><time>2026-05-01T07:44:28.999Z</time></trkpt><trkpt lat="44.90442795018732" lon="9.247589443520326"><ele>501.16666666666663</ele><time>2026-05-01T07:44:30.999Z</time></trkpt><trkpt lat="44.904470609299636" lon="9.247699754278141"><ele>500.0</ele><time>2026-05-01T07:44:32.998Z</time></trkpt><trkpt lat="44.90451383345181" lon="9.247802128341418"><ele>499.99999999999994</ele><time>2026-05-01T07:44:34.997Z</time></trkpt><trkpt lat="44.9045519930393" lon="9.24791058997776"><ele>500.0</ele><time>2026-05-01T07:44:36.997Z</time></trkpt><trkpt lat="44.904588538298505" lon="9.24802712893102"><ele>500.0</ele><time>2026-05-01T07:44:38.996Z</time></trkpt><trkpt lat="44.90462739169398" lon="9.248131927806005"><ele>500.0</ele><time>2026-05-01T07:44:40.996Z</time></trkpt><trkpt lat="44.904652653339355" lon="9.248245143252742"><ele>499.99999999999994</ele><time>2026-05-01T07:44:42.996Z</time></trkpt><trkpt lat="44.90467787824042" lon="9.248359392064298"><ele>500.0</ele><time>2026-05-01T07:44:44.995Z</time></trkpt><trkpt lat="44.90469415944842" lon="9.248466948411561"><ele>500.99999999999994</ele><time>2026-05-01T07:44:46.995Z</time></trkpt><trkpt lat="44.90469320156271" lon="9.248577877311005"><ele>502.0</ele><time>2026-05-01T07:44:48.995Z</time></trkpt><trkpt lat="44.90468003698958" lon="9.248682617943022"><ele>503.0</ele><time>2026-05-01T07:44:50.995Z</time></trkpt><trkpt lat="44.904659264250114" lon="9.248809411510809"><ele>504.0</ele><time>2026-05-01T07:44:53.994Z</time></trkpt><trkpt lat="44.90464615617822" lon="9.248915192995323"><ele>504.99999999999994</ele><time>2026-05-01T07:44:55.994Z</time></trkpt><trkpt lat="44.904635810809815" lon="9.24900848750256"><ele>506.0</ele><time>2026-05-01T07:44:57.994Z</time></trkpt><trkpt lat="44.90460947613883" lon="9.249096757368518"><ele>506.3333333333333</ele><time>2026-05-01T07:44:59.994Z</time></trkpt><trkpt lat="44.9045913057123" lon="9.249220437846546"><ele>506.66666666666663</ele><time>2026-05-01T07:45:02.994Z</time></trkpt><trkpt lat="44.90459859813637" lon="9.249326146737843"><ele>507.0</ele><time>2026-05-01T07:45:04.993Z</time></trkpt><trkpt lat="44.90461087015543" lon="9.249436249041693"><ele>507.33333333333337</ele><time>2026-05-01T07:45:06.993Z</time></trkpt><trkpt lat="44.90461894529222" lon="9.24953979045032"><ele>507.6666666666667</ele><time>2026-05-01T07:45:08.993Z</time></trkpt><trkpt lat="44.90464568359831" lon="9.249634224892533"><ele>508.0</ele><time>2026-05-01T07:45:10.993Z</time></trkpt><trkpt lat="44.90467761797203" lon="9.24972294467818"><ele>508.50000000000006</ele><time>2026-05-01T07:45:12.993Z</time></trkpt><trkpt lat="44.90470532907335" lon="9.249808418301374"><ele>509.0</ele><time>2026-05-01T07:45:14.993Z</time></trkpt><trkpt lat="44.904747478002875" lon="9.249904611417035"><ele>509.5</ele><time>2026-05-01T07:45:16.994Z</time></trkpt><trkpt lat="44.904796614551564" lon="9.25002712360058"><ele>510.0</ele><time>2026-05-01T07:45:19.995Z</time></trkpt><trkpt lat="44.904834403492444" lon="9.250118307086728"><ele>510.50000000000006</ele><time>2026-05-01T07:45:21.994Z</time></trkpt><trkpt lat="44.904869770355866" lon="9.250217137093694"><ele>511.0</ele><time>2026-05-01T07:45:23.995Z</time></trkpt><trkpt lat="44.90490340782623" lon="9.25032293789829"><ele>511.00000000000006</ele><time>2026-05-01T07:45:25.994Z</time></trkpt><trkpt lat="44.90493729485729" lon="9.250422930219122"><ele>511.0</ele><time>2026-05-01T07:45:27.994Z</time></trkpt><trkpt lat="44.90497022020314" lon="9.25051966469575"><ele>511.0</ele><time>2026-05-01T07:45:29.994Z</time></trkpt><trkpt lat="44.90500477790872" lon="9.250618191659928"><ele>511.0</ele><time>2026-05-01T07:45:31.994Z</time></trkpt><trkpt lat="44.905041384321294" lon="9.250707122865956"><ele>511.00000000000006</ele><time>2026-05-01T07:45:33.994Z</time></trkpt><trkpt lat="44.90507711182653" lon="9.250800882978726"><ele>511.0</ele><time>2026-05-01T07:45:35.994Z</time></trkpt><trkpt lat="44.9051144782027" lon="9.25088408302162"><ele>510.57142857142856</ele><time>2026-05-01T07:45:37.994Z</time></trkpt><trkpt lat="44.90515974266519" lon="9.250957239168622"><ele>510.1428571428571</ele><time>2026-05-01T07:45:39.994Z</time></trkpt><trkpt lat="44.9051961321037" lon="9.251042109053552"><ele>509.7142857142857</ele><time>2026-05-01T07:45:41.994Z</time></trkpt><trkpt lat="44.90524378557303" lon="9.251117866060007"><ele>509.2857142857143</ele><time>2026-05-01T07:45:43.994Z</time></trkpt><trkpt lat="44.90528931604711" lon="9.251190113621357"><ele>508.85714285714283</ele><time>2026-05-01T07:45:45.994Z</time></trkpt><trkpt lat="44.90533384587278" lon="9.251253437904552"><ele>508.42857142857144</ele><time>2026-05-01T07:45:47.993Z</time></trkpt><trkpt lat="44.90539066194762" lon="9.251320129084176"><ele>508.0</ele><time>2026-05-01T07:45:49.993Z</time></trkpt><trkpt lat="44.905438240155824" lon="9.251382301594793"><ele>509.33333333333337</ele><time>2026-05-01T07:45:51.993Z</time></trkpt><trkpt lat="44.90549992770227" lon="9.251476095974963"><ele>510.6666666666667</ele><time>2026-05-01T07:45:54.993Z</time></trkpt><trkpt lat="44.905545146193" lon="9.251568675348318"><ele>512.0</ele><time>2026-05-01T07:45:56.993Z</time></trkpt><trkpt lat="44.90558086060803" lon="9.251653934936733"><ele>513.3333333333334</ele><time>2026-05-01T07:45:58.993Z</time></trkpt><trkpt lat="44.90559983669336" lon="9.25176603628764"><ele>514.6666666666666</ele><time>2026-05-01T07:46:01.993Z</time></trkpt><trkpt lat="44.905583106012166" lon="9.25189490713139"><ele>516.0</ele><time>2026-05-01T07:46:04.993Z</time></trkpt><trkpt lat="44.90557493114519" lon="9.252004429780833"><ele>515.9999999999999</ele><time>2026-05-01T07:46:06.993Z</time></trkpt><trkpt lat="44.905557296570436" lon="9.252118435170827"><ele>516.0</ele><time>2026-05-01T07:46:09.993Z</time></trkpt><trkpt lat="44.90552399464501" lon="9.252202291480613"><ele>516.0</ele><time>2026-05-01T07:46:11.993Z</time></trkpt><trkpt lat="44.90548744655165" lon="9.252289233033737"><ele>516.0</ele><time>2026-05-01T07:46:13.993Z</time></trkpt><trkpt lat="44.90545572404657" lon="9.252374713626393"><ele>516.0</ele><time>2026-05-01T07:46:15.993Z</time></trkpt><trkpt lat="44.90543577713967" lon="9.25246040104717"><ele>515.9999999999999</ele><time>2026-05-01T07:46:17.993Z</time></trkpt><trkpt lat="44.9053970567109" lon="9.2525450032798"><ele>516.0</ele><time>2026-05-01T07:46:19.993Z</time></trkpt><trkpt lat="44.90536045808692" lon="9.252660032408983"><ele>516.0</ele><time>2026-05-01T07:46:22.993Z</time></trkpt><trkpt lat="44.905320312983136" lon="9.252741324923742"><ele>516.0</ele><time>2026-05-01T07:46:24.993Z</time></trkpt><trkpt lat="44.90528813737657" lon="9.252861234727657"><ele>516.0</ele><time>2026-05-01T07:46:27.993Z</time></trkpt><trkpt lat="44.90524563426937" lon="9.25294380706347"><ele>516.0</ele><time>2026-05-01T07:46:29.993Z</time></trkpt><trkpt lat="44.90522495465748" lon="9.25303294350192"><ele>516.0</ele><time>2026-05-01T07:46:31.993Z</time></trkpt><trkpt lat="44.90518112139807" lon="9.253139691294157"><ele>516.0</ele><time>2026-05-01T07:46:34.993Z</time></trkpt><trkpt lat="44.90514888997763" lon="9.25322801576074"><ele>514.1666666666666</ele><time>2026-05-01T07:46:36.993Z</time></trkpt><trkpt lat="44.90512109428209" lon="9.253325040248253"><ele>512.3333333333334</ele><time>2026-05-01T07:46:38.993Z</time></trkpt><trkpt lat="44.90511128110078" lon="9.25342502543984"><ele>510.5</ele><time>2026-05-01T07:46:40.993Z</time></trkpt><trkpt lat="44.90509164464801" lon="9.253521360098592"><ele>508.6666666666667</ele><time>2026-05-01T07:46:42.993Z</time></trkpt><trkpt lat="44.90508931949766" lon="9.25362834051115"><ele>506.83333333333337</ele><time>2026-05-01T07:46:44.993Z</time></trkpt><trkpt lat="44.905086408327335" lon="9.253740951679763"><ele>505.0</ele><time>2026-05-01T07:46:46.993Z</time></trkpt><trkpt lat="44.905087652439775" lon="9.253856683948696"><ele>505.1666666666667</ele><time>2026-05-01T07:46:48.993Z</time></trkpt><trkpt lat="44.90509506998685" lon="9.253977480627379"><ele>505.33333333333337</ele><time>2026-05-01T07:46:50.992Z</time></trkpt><trkpt lat="44.90509929552457" lon="9.254091354282709"><ele>505.5</ele><time>2026-05-01T07:46:52.992Z</time></trkpt><trkpt lat="44.90510851664726" lon="9.25420244546786"><ele>505.66666666666663</ele><time>2026-05-01T07:46:54.992Z</time></trkpt><trkpt lat="44.90511657509015" lon="9.254317321257872"><ele>505.8333333333333</ele><time>2026-05-01T07:46:56.992Z</time></trkpt><trkpt lat="44.905122868789974" lon="9.254426663318116"><ele>506.0</ele><time>2026-05-01T07:46:58.992Z</time></trkpt><trkpt lat="44.905122984504274" lon="9.254535589394331"><ele>505.99999999999994</ele><time>2026-05-01T07:47:00.992Z</time></trkpt><trkpt lat="44.90511952267553" lon="9.254638079493663"><ele>506.0</ele><time>2026-05-01T07:47:02.992Z</time></trkpt><trkpt lat="44.90509367678054" lon="9.25474101773595"><ele>506.0</ele><time>2026-05-01T07:47:04.992Z</time></trkpt><trkpt lat="44.90501247931323" lon="9.25482236663367"><ele>506.0</ele><time>2026-05-01T07:47:07.992Z</time></trkpt><trkpt lat="44.90494195986945" lon="9.254831580338807"><ele>505.99999999999994</ele><time>2026-05-01T07:47:09.992Z</time></trkpt><trkpt lat="44.90486745329439" lon="9.254820913900375"><ele>506.0</ele><time>2026-05-01T07:47:11.992Z</time></trkpt><trkpt lat="44.90479119080936" lon="9.25479637235932"><ele>508.99999999999994</ele><time>2026-05-01T07:47:13.992Z</time></trkpt><trkpt lat="44.904719956477734" lon="9.254783045546754"><ele>512.0</ele><time>2026-05-01T07:47:15.992Z</time></trkpt><trkpt lat="44.90463222167661" lon="9.254818755074227"><ele>515.0</ele><time>2026-05-01T07:47:18.992Z</time></trkpt><trkpt lat="44.904588665376224" lon="9.254943304646622"><ele>518.0</ele><time>2026-05-01T07:47:21.992Z</time></trkpt><trkpt lat="44.90460340957549" lon="9.25504643199507"><ele>521.0</ele><time>2026-05-01T07:47:23.994Z</time></trkpt><trkpt lat="44.90464119070439" lon="9.255130462798405"><ele>524.0</ele><time>2026-05-01T07:47:25.994Z</time></trkpt><trkpt lat="44.90468278260541" lon="9.255197275359798"><ele>525.0</ele><time>2026-05-01T07:47:27.994Z</time></trkpt><trkpt lat="44.904726932114016" lon="9.255266051873386"><ele>526.0</ele><time>2026-05-01T07:47:29.993Z</time></trkpt><trkpt lat="44.904774667223606" lon="9.255346758002734"><ele>527.0</ele><time>2026-05-01T07:47:31.993Z</time></trkpt><trkpt lat="44.904824835754845" lon="9.255465841081964"><ele>528.0</ele><time>2026-05-01T07:47:34.993Z</time></trkpt><trkpt lat="44.90483763659999" lon="9.255558732255736"><ele>529.0</ele><time>2026-05-01T07:47:36.994Z</time></trkpt><trkpt lat="44.904818455168254" lon="9.255656764051224"><ele>530.0</ele><time>2026-05-01T07:47:38.994Z</time></trkpt><trkpt lat="44.90477938841136" lon="9.255727538363395"><ele>531.0</ele><time>2026-05-01T07:47:40.994Z</time></trkpt><trkpt lat="44.90472257604956" lon="9.255775907202366"><ele>532.1428571428571</ele><time>2026-05-01T07:47:42.994Z</time></trkpt><trkpt lat="44.904660756710925" lon="9.255821841685231"><ele>533.2857142857143</ele><time>2026-05-01T07:47:44.994Z</time></trkpt><trkpt lat="44.904604858582125" lon="9.255866072329646"><ele>534.4285714285714</ele><time>2026-05-01T07:47:46.994Z</time></trkpt><trkpt lat="44.9045522268457" lon="9.25592414762389"><ele>535.5714285714286</ele><time>2026-05-01T07:47:48.994Z</time></trkpt><trkpt lat="44.90450740428458" lon="9.256042698822073"><ele>536.7142857142858</ele><time>2026-05-01T07:47:51.994Z</time></trkpt><trkpt lat="44.90449290129186" lon="9.2561471024947"><ele>537.8571428571429</ele><time>2026-05-01T07:47:53.994Z</time></trkpt><trkpt lat="44.904500371214354" lon="9.256243371881048"><ele>539.0</ele><time>2026-05-01T07:47:55.994Z</time></trkpt><trkpt lat="44.90453616628391" lon="9.256327973992624"><ele>539.0</ele><time>2026-05-01T07:47:57.994Z</time></trkpt><trkpt lat="44.90462152790369" lon="9.256387557943828"><ele>539.0</ele><time>2026-05-01T07:48:00.993Z</time></trkpt><trkpt lat="44.9047065448992" lon="9.256426848634629"><ele>539.0</ele><time>2026-05-01T07:48:03.993Z</time></trkpt><trkpt lat="44.904812319603074" lon="9.256453098690084"><ele>539.0</ele><time>2026-05-01T07:48:07.993Z</time></trkpt><trkpt lat="44.90493779193025" lon="9.25648224000437"><ele>539.0</ele><time>2026-05-01T07:48:11.993Z</time></trkpt><trkpt lat="44.905011239892126" lon="9.25652609328095"><ele>538.5</ele><time>2026-05-01T07:48:13.993Z</time></trkpt><trkpt lat="44.90507288173122" lon="9.256562653644181"><ele>538.0</ele><time>2026-05-01T07:48:15.993Z</time></trkpt><trkpt lat="44.90512869449295" lon="9.256628399288191"><ele>537.5</ele><time>2026-05-01T07:48:17.993Z</time></trkpt><trkpt lat="44.90516398146174" lon="9.25673376543587"><ele>537.0</ele><time>2026-05-01T07:48:19.993Z</time></trkpt><trkpt lat="44.90517653499841" lon="9.256873896122741"><ele>536.5</ele><time>2026-05-01T07:48:22.993Z</time></trkpt><trkpt lat="44.90515859144449" lon="9.256978378854258"><ele>536.0</ele><time>2026-05-01T07:48:24.993Z</time></trkpt><trkpt lat="44.90509854352931" lon="9.257033337656917"><ele>537.8333333333333</ele><time>2026-05-01T07:48:26.993Z</time></trkpt><trkpt lat="44.90503997485843" lon="9.257077884070037"><ele>539.6666666666666</ele><time>2026-05-01T07:48:28.993Z</time></trkpt><trkpt lat="44.90495072565736" lon="9.257111980355063"><ele>541.5</ele><time>2026-05-01T07:48:31.993Z</time></trkpt><trkpt lat="44.90487597127195" lon="9.257138118881635"><ele>543.3333333333334</ele><time>2026-05-01T07:48:33.993Z</time></trkpt><trkpt lat="44.90481119534817" lon="9.257162260553235"><ele>545.1666666666667</ele><time>2026-05-01T07:48:35.993Z</time></trkpt><trkpt lat="44.9047383726745" lon="9.257198515197718"><ele>547.0</ele><time>2026-05-01T07:48:37.993Z</time></trkpt><trkpt lat="44.90467166722878" lon="9.257237823168921"><ele>548.2857142857142</ele><time>2026-05-01T07:48:39.993Z</time></trkpt><trkpt lat="44.90461542144848" lon="9.257293666803665"><ele>549.5714285714286</ele><time>2026-05-01T07:48:41.993Z</time></trkpt><trkpt lat="44.90459252694918" lon="9.257383006415214"><ele>550.8571428571429</ele><time>2026-05-01T07:48:43.993Z</time></trkpt><trkpt lat="44.90459077729255" lon="9.257474893700016"><ele>552.1428571428571</ele><time>2026-05-01T07:48:45.993Z</time></trkpt><trkpt lat="44.90462824767205" lon="9.257583298555103"><ele>553.4285714285714</ele><time>2026-05-01T07:48:48.993Z</time></trkpt><trkpt lat="44.904687237150256" lon="9.257625383368781"><ele>554.7142857142857</ele><time>2026-05-01T07:48:50.993Z</time></trkpt><trkpt lat="44.904753568323386" lon="9.257658125234771"><ele>556.0</ele><time>2026-05-01T07:48:52.993Z</time></trkpt><trkpt lat="44.90481598475862" lon="9.257674512298612"><ele>556.0</ele><time>2026-05-01T07:48:54.993Z</time></trkpt><trkpt lat="44.90488153664392" lon="9.257683623390639"><ele>556.0</ele><time>2026-05-01T07:48:56.993Z</time></trkpt><trkpt lat="44.9049800043506" lon="9.257703318616619"><ele>556.0</ele><time>2026-05-01T07:48:59.993Z</time></trkpt><trkpt lat="44.905043604774725" lon="9.257749057986096"><ele>556.0</ele><time>2026-05-01T07:49:01.993Z</time></trkpt><trkpt lat="44.905098393423835" lon="9.257808872824164"><ele>556.0</ele><time>2026-05-01T07:49:03.992Z</time></trkpt><trkpt lat="44.90514009288233" lon="9.257886196654184"><ele>556.0</ele><time>2026-05-01T07:49:05.992Z</time></trkpt><trkpt lat="44.905159017090526" lon="9.257977712715983"><ele>556.0</ele><time>2026-05-01T07:49:07.992Z</time></trkpt><trkpt lat="44.90518197659528" lon="9.258064434789338"><ele>555.8333333333334</ele><time>2026-05-01T07:49:09.992Z</time></trkpt><trkpt lat="44.905184998054196" lon="9.258162754782242"><ele>555.6666666666667</ele><time>2026-05-01T07:49:11.992Z</time></trkpt><trkpt lat="44.90519510006818" lon="9.258262529904302"><ele>555.5</ele><time>2026-05-01T07:49:13.992Z</time></trkpt><trkpt lat="44.90518473917447" lon="9.25839189016728"><ele>555.3333333333334</ele><time>2026-05-01T07:49:16.992Z</time></trkpt><trkpt lat="44.90518303453888" lon="9.258499743477365"><ele>555.1666666666666</ele><time>2026-05-01T07:49:18.992Z</time></trkpt><trkpt lat="44.90515611350478" lon="9.258603417146764"><ele>555.0</ele><time>2026-05-01T07:49:20.992Z</time></trkpt><trkpt lat="44.905111730748054" lon="9.258714067394187"><ele>556.5714285714287</ele><time>2026-05-01T07:49:23.992Z</time></trkpt><trkpt lat="44.905056765996925" lon="9.258773570373757"><ele>558.1428571428571</ele><time>2026-05-01T07:49:25.992Z</time></trkpt><trkpt lat="44.90500421616006" lon="9.258834328330966"><ele>559.7142857142858</ele><time>2026-05-01T07:49:27.992Z</time></trkpt><trkpt lat="44.904953968789464" lon="9.258890390745911"><ele>561.2857142857143</ele><time>2026-05-01T07:49:29.993Z</time></trkpt><trkpt lat="44.90488941594032" lon="9.258960172791413"><ele>562.8571428571429</ele><time>2026-05-01T07:49:32.994Z</time></trkpt><trkpt lat="44.90483106497172" lon="9.259036656289076"><ele>564.4285714285714</ele><time>2026-05-01T07:49:35.994Z</time></trkpt><trkpt lat="44.90477908998146" lon="9.259134405825378"><ele>566.0</ele><time>2026-05-01T07:49:38.993Z</time></trkpt><trkpt lat="44.90474110554143" lon="9.259213426670149"><ele>567.0</ele><time>2026-05-01T07:49:40.993Z</time></trkpt><trkpt lat="44.90470735891136" lon="9.25933751828744"><ele>568.0</ele><time>2026-05-01T07:49:43.993Z</time></trkpt><trkpt lat="44.90469400277355" lon="9.259425649659372"><ele>569.0</ele><time>2026-05-01T07:49:45.993Z</time></trkpt><trkpt lat="44.90467682283375" lon="9.25955126679046"><ele>570.0</ele><time>2026-05-01T07:49:48.993Z</time></trkpt><trkpt lat="44.90466689531105" lon="9.259640540704746"><ele>571.0</ele><time>2026-05-01T07:49:50.993Z</time></trkpt><trkpt lat="44.90465348906761" lon="9.259730700027557"><ele>572.0</ele><time>2026-05-01T07:49:52.993Z</time></trkpt><trkpt lat="44.9046392744884" lon="9.259817916249933"><ele>573.0</ele><time>2026-05-01T07:49:54.993Z</time></trkpt><trkpt lat="44.904617408108294" lon="9.259937978252001"><ele>574.0</ele><time>2026-05-01T07:49:57.993Z</time></trkpt><trkpt lat="44.90461572207546" lon="9.260059346980759"><ele>575.0</ele><time>2026-05-01T07:50:00.993Z</time></trkpt><trkpt lat="44.904635580747325" lon="9.260149971965506"><ele>576.0</ele><time>2026-05-01T07:50:03.993Z</time></trkpt><trkpt lat="44.904744327208114" lon="9.260167696953781"><ele>577.0</ele><time>2026-05-01T07:50:07.993Z</time></trkpt><trkpt lat="44.90482240180424" lon="9.260148860616109"><ele>578.0</ele><time>2026-05-01T07:50:10.993Z</time></trkpt><trkpt lat="44.90488763359939" lon="9.260131148913674"><ele>579.0</ele><time>2026-05-01T07:50:12.993Z</time></trkpt><trkpt lat="44.9049521316409" lon="9.260135148164558"><ele>579.0</ele><time>2026-05-01T07:50:14.993Z</time></trkpt><trkpt lat="44.90501508862818" lon="9.260143331135199"><ele>579.0</ele><time>2026-05-01T07:50:16.993Z</time></trkpt><trkpt lat="44.90513309365857" lon="9.260165629044376"><ele>579.0</ele><time>2026-05-01T07:50:20.993Z</time></trkpt><trkpt lat="44.905196392192146" lon="9.260203866629674"><ele>579.0</ele><time>2026-05-01T07:50:22.993Z</time></trkpt><trkpt lat="44.905258113547866" lon="9.260239697108283"><ele>579.0</ele><time>2026-05-01T07:50:24.993Z</time></trkpt><trkpt lat="44.905344653593225" lon="9.260280904779057"><ele>579.0</ele><time>2026-05-01T07:50:27.993Z</time></trkpt><trkpt lat="44.905427540391315" lon="9.26027572762993"><ele>578.8333333333334</ele><time>2026-05-01T07:50:30.993Z</time></trkpt><trkpt lat="44.90548795061598" lon="9.260307885524938"><ele>578.6666666666666</ele><time>2026-05-01T07:50:32.993Z</time></trkpt><trkpt lat="44.905553301469524" lon="9.260333364069592"><ele>578.5</ele><time>2026-05-01T07:50:34.993Z</time></trkpt><trkpt lat="44.905617570857" lon="9.26036089459641"><ele>578.3333333333333</ele><time>2026-05-01T07:50:36.993Z</time></trkpt><trkpt lat="44.90568176745904" lon="9.260361126825474"><ele>578.1666666666666</ele><time>2026-05-01T07:50:38.993Z</time></trkpt><trkpt lat="44.90577404005185" lon="9.260401487950913"><ele>578.0</ele><time>2026-05-01T07:50:41.992Z</time></trkpt><trkpt lat="44.905864817223645" lon="9.260453882187248"><ele>577.7142857142858</ele><time>2026-05-01T07:50:44.992Z</time></trkpt><trkpt lat="44.9059235262929" lon="9.260509238545723"><ele>577.4285714285714</ele><time>2026-05-01T07:50:46.992Z</time></trkpt><trkpt lat="44.90598503257149" lon="9.26055850692257"><ele>577.1428571428571</ele><time>2026-05-01T07:50:48.992Z</time></trkpt><trkpt lat="44.906042160080766" lon="9.260601938275089"><ele>576.8571428571429</ele><time>2026-05-01T07:50:50.992Z</time></trkpt><trkpt lat="44.90609948496417" lon="9.260660554700763"><ele>576.5714285714286</ele><time>2026-05-01T07:50:52.992Z</time></trkpt><trkpt lat="44.90615135152007" lon="9.26072260343889"><ele>576.2857142857143</ele><time>2026-05-01T07:50:54.992Z</time></trkpt><trkpt lat="44.906209453535524" lon="9.26077905770324"><ele>576.0</ele><time>2026-05-01T07:50:56.992Z</time></trkpt><trkpt lat="44.90626716436188" lon="9.260826377593418"><ele>577.0000000000001</ele><time>2026-05-01T07:50:58.992Z</time></trkpt><trkpt lat="44.90632306591697" lon="9.260895083208828"><ele>578.0</ele><time>2026-05-01T07:51:00.992Z</time></trkpt><trkpt lat="44.90638026476342" lon="9.260949314933983"><ele>579.0</ele><time>2026-05-01T07:51:02.992Z</time></trkpt><trkpt lat="44.90643009924724" lon="9.261013744196676"><ele>580.0</ele><time>2026-05-01T07:51:04.992Z</time></trkpt><trkpt lat="44.906478495772355" lon="9.261076714738389"><ele>581.0</ele><time>2026-05-01T07:51:06.992Z</time></trkpt><trkpt lat="44.906546139490665" lon="9.261148648361567"><ele>582.0000000000001</ele><time>2026-05-01T07:51:09.992Z</time></trkpt><trkpt lat="44.906596725363194" lon="9.261208302114936"><ele>583.0</ele><time>2026-05-01T07:51:11.992Z</time></trkpt><trkpt lat="44.90666668904688" lon="9.261288635391615"><ele>583.0</ele><time>2026-05-01T07:51:14.992Z</time></trkpt><trkpt lat="44.90673824428767" lon="9.261370528954432"><ele>583.0</ele><time>2026-05-01T07:51:17.992Z</time></trkpt><trkpt lat="44.90678871845502" lon="9.261431073953911"><ele>583.0</ele><time>2026-05-01T07:51:19.992Z</time></trkpt><trkpt lat="44.906863884811" lon="9.261518202124012"><ele>583.0</ele><time>2026-05-01T07:51:22.992Z</time></trkpt><trkpt lat="44.90691515533201" lon="9.261572332956211"><ele>583.0</ele><time>2026-05-01T07:51:24.992Z</time></trkpt><trkpt lat="44.90698894901319" lon="9.261660699342627"><ele>583.0</ele><time>2026-05-01T07:51:27.992Z</time></trkpt><trkpt lat="44.907038412113586" lon="9.261719841406364"><ele>583.5714285714287</ele><time>2026-05-01T07:51:29.992Z</time></trkpt><trkpt lat="44.907091902922865" lon="9.26178553622778"><ele>584.1428571428571</ele><time>2026-05-01T07:51:31.992Z</time></trkpt><trkpt lat="44.907154039158" lon="9.261886474889195"><ele>584.7142857142858</ele><time>2026-05-01T07:51:34.994Z</time></trkpt><trkpt lat="44.907199770315664" lon="9.261963238471852"><ele>585.2857142857143</ele><time>2026-05-01T07:51:36.993Z</time></trkpt><trkpt lat="44.90723348808895" lon="9.262048249752322"><ele>585.8571428571429</ele><time>2026-05-01T07:51:38.993Z</time></trkpt><trkpt lat="44.90726711227412" lon="9.262130394789374"><ele>586.4285714285714</ele><time>2026-05-01T07:51:40.993Z</time></trkpt><trkpt lat="44.90729732867823" lon="9.262213525154328"><ele>587.0</ele><time>2026-05-01T07:51:42.993Z</time></trkpt><trkpt lat="44.90732637319401" lon="9.262299016757046"><ele>587.6666666666666</ele><time>2026-05-01T07:51:44.993Z</time></trkpt><trkpt lat="44.90736033023293" lon="9.26239137356158"><ele>588.3333333333333</ele><time>2026-05-01T07:51:46.993Z</time></trkpt><trkpt lat="44.907390900488686" lon="9.262476715205791"><ele>589.0</ele><time>2026-05-01T07:51:48.993Z</time></trkpt><trkpt lat="44.90744063137113" lon="9.26259388849"><ele>589.6666666666666</ele><time>2026-05-01T07:51:51.993Z</time></trkpt><trkpt lat="44.907481405489804" lon="9.262664138711301"><ele>590.3333333333334</ele><time>2026-05-01T07:51:53.993Z</time></trkpt><trkpt lat="44.907547450419464" lon="9.262760018489567"><ele>591.0</ele><time>2026-05-01T07:51:56.993Z</time></trkpt><trkpt lat="44.907597079023766" lon="9.262816545170203"><ele>591.0</ele><time>2026-05-01T07:51:58.993Z</time></trkpt><trkpt lat="44.907652738506314" lon="9.262874610860898"><ele>591.0</ele><time>2026-05-01T07:52:00.993Z</time></trkpt><trkpt lat="44.9077153279703" lon="9.262919440482227"><ele>591.0</ele><time>2026-05-01T07:52:02.993Z</time></trkpt><trkpt lat="44.907773615107914" lon="9.262962266199283"><ele>591.0</ele><time>2026-05-01T07:52:04.993Z</time></trkpt><trkpt lat="44.907834739052205" lon="9.263003766466204"><ele>591.0</ele><time>2026-05-01T07:52:06.993Z</time></trkpt><trkpt lat="44.90789559818899" lon="9.263042859136352"><ele>591.0</ele><time>2026-05-01T07:52:08.993Z</time></trkpt><trkpt lat="44.90796397719298" lon="9.263081583187466"><ele>591.0</ele><time>2026-05-01T07:52:10.993Z</time></trkpt><trkpt lat="44.90802737540557" lon="9.26312469879913"><ele>591.6666666666666</ele><time>2026-05-01T07:52:12.993Z</time></trkpt><trkpt lat="44.90809204089497" lon="9.263175845749046"><ele>592.3333333333334</ele><time>2026-05-01T07:52:14.993Z</time></trkpt><trkpt lat="44.90816272110962" lon="9.263220733737267"><ele>593.0</ele><time>2026-05-01T07:52:17.993Z</time></trkpt><trkpt lat="44.908268430854164" lon="9.263247940208055"><ele>593.6666666666667</ele><time>2026-05-01T07:52:21.993Z</time></trkpt><trkpt lat="44.90833061226475" lon="9.26329688680913"><ele>594.3333333333334</ele><time>2026-05-01T07:52:23.993Z</time></trkpt><trkpt lat="44.90841927688842" lon="9.263341310540529"><ele>595.0</ele><time>2026-05-01T07:52:26.993Z</time></trkpt><trkpt lat="44.90847587696749" lon="9.263385988401183"><ele>595.0</ele><time>2026-05-01T07:52:28.992Z</time></trkpt><trkpt lat="44.90854003018887" lon="9.263435206130984"><ele>595.0</ele><time>2026-05-01T07:52:30.992Z</time></trkpt><trkpt lat="44.90860679176702" lon="9.263479070771622"><ele>595.0</ele><time>2026-05-01T07:52:32.992Z</time></trkpt><trkpt lat="44.9086656451649" lon="9.263525633679915"><ele>595.0</ele><time>2026-05-01T07:52:34.992Z</time></trkpt><trkpt lat="44.90873044590933" lon="9.263573500721694"><ele>595.0</ele><time>2026-05-01T07:52:36.992Z</time></trkpt><trkpt lat="44.90878979122631" lon="9.263614477949972"><ele>595.0</ele><time>2026-05-01T07:52:38.992Z</time></trkpt><trkpt lat="44.908855196302596" lon="9.263674270867382"><ele>595.0</ele><time>2026-05-01T07:52:40.992Z</time></trkpt><trkpt lat="44.90892009323385" lon="9.26371837661993"><ele>595.0</ele><time>2026-05-01T07:52:42.992Z</time></trkpt><trkpt lat="44.908991190506455" lon="9.263777262396628"><ele>595.0</ele><time>2026-05-01T07:52:44.992Z</time></trkpt><trkpt lat="44.90905747949584" lon="9.263828071723166"><ele>595.0</ele><time>2026-05-01T07:52:47.992Z</time></trkpt><trkpt lat="44.9091224549006" lon="9.263865920198874"><ele>595.0</ele><time>2026-05-01T07:52:49.992Z</time></trkpt><trkpt lat="44.90920242065977" lon="9.263907190908183"><ele>595.0</ele><time>2026-05-01T07:52:51.992Z</time></trkpt><trkpt lat="44.90928093205732" lon="9.263953728337384"><ele>595.0</ele><time>2026-05-01T07:52:53.992Z</time></trkpt><trkpt lat="44.90935113024951" lon="9.263996337188187"><ele>596.6666666666667</ele><time>2026-05-01T07:52:55.992Z</time></trkpt><trkpt lat="44.90942114028082" lon="9.264050438096891"><ele>598.3333333333334</ele><time>2026-05-01T07:52:57.992Z</time></trkpt><trkpt lat="44.90948654898679" lon="9.264097387893539"><ele>600.0</ele><time>2026-05-01T07:52:59.992Z</time></trkpt><trkpt lat="44.90956066997002" lon="9.264150903601731"><ele>601.6666666666666</ele><time>2026-05-01T07:53:01.992Z</time></trkpt><trkpt lat="44.90963513362422" lon="9.264193820285842"><ele>603.3333333333333</ele><time>2026-05-01T07:53:03.992Z</time></trkpt><trkpt lat="44.9097075280084" lon="9.264230232942449"><ele>605.0</ele><time>2026-05-01T07:53:05.992Z</time></trkpt><trkpt lat="44.909782860720384" lon="9.264265603297034"><ele>605.0</ele><time>2026-05-01T07:53:07.992Z</time></trkpt><trkpt lat="44.909851491250286" lon="9.264298181386383"><ele>605.0</ele><time>2026-05-01T07:53:09.992Z</time></trkpt><trkpt lat="44.90991976995587" lon="9.264351237317957"><ele>605.0</ele><time>2026-05-01T07:53:11.992Z</time></trkpt><trkpt lat="44.90998197629283" lon="9.264403337616791"><ele>605.0</ele><time>2026-05-01T07:53:13.992Z</time></trkpt><trkpt lat="44.910039704763335" lon="9.26444824987176"><ele>605.0</ele><time>2026-05-01T07:53:15.992Z</time></trkpt><trkpt lat="44.91009309184993" lon="9.26454449561584"><ele>605.0</ele><time>2026-05-01T07:53:18.992Z</time></trkpt><trkpt lat="44.91013014006525" lon="9.26462714353819"><ele>605.0</ele><time>2026-05-01T07:53:21.992Z</time></trkpt><trkpt lat="44.910177412359644" lon="9.26469216015232"><ele>605.0</ele><time>2026-05-01T07:53:24.992Z</time></trkpt><trkpt lat="44.910225715232144" lon="9.264770666282924"><ele>605.0</ele><time>2026-05-01T07:53:27.992Z</time></trkpt><trkpt lat="44.9102858964807" lon="9.264842770532796"><ele>605.0</ele><time>2026-05-01T07:53:31.992Z</time></trkpt><trkpt lat="44.91032661880936" lon="9.26491688947072"><ele>605.0</ele><time>2026-05-01T07:53:34.991Z</time></trkpt><trkpt lat="44.91038126664809" lon="9.265018727881948"><ele>605.0</ele><time>2026-05-01T07:53:38.991Z</time></trkpt><trkpt lat="44.91043568800339" lon="9.265085526807205"><ele>605.0</ele><time>2026-05-01T07:53:42.993Z</time></trkpt><trkpt lat="44.9104674063275" lon="9.265169443992948"><ele>605.0</ele><time>2026-05-01T07:53:45.995Z</time></trkpt><trkpt lat="44.91050750696" lon="9.265255792860579"><ele>606.0</ele><time>2026-05-01T07:53:48.996Z</time></trkpt><trkpt lat="44.910548804658056" lon="9.265325433398043"><ele>607.0</ele><time>2026-05-01T07:53:51.997Z</time></trkpt><trkpt lat="44.910590932826764" lon="9.265407324278934"><ele>608.0</ele><time>2026-05-01T07:53:55.997Z</time></trkpt><trkpt lat="44.910633051419104" lon="9.265481800919908"><ele>609.0</ele><time>2026-05-01T07:53:58.998Z</time></trkpt><trkpt lat="44.91066114015046" lon="9.265565488898863"><ele>610.0</ele><time>2026-05-01T07:54:02.999Z</time></trkpt><trkpt lat="44.91068021297536" lon="9.26566904228911"><ele>611.0</ele><time>2026-05-01T07:54:06.999Z</time></trkpt><trkpt lat="44.91074424511678" lon="9.265630712049244"><ele>612.0</ele><time>2026-05-01T07:54:11.999Z</time></trkpt><trkpt lat="44.91081054949151" lon="9.265591315748894"><ele>612.0</ele><time>2026-05-01T07:54:13.999Z</time></trkpt><trkpt lat="44.910902351448236" lon="9.265519520594914"><ele>612.0</ele><time>2026-05-01T07:54:15.999Z</time></trkpt><trkpt lat="44.9110090147125" lon="9.265448768186609"><ele>612.0</ele><time>2026-05-01T07:54:18Z</time></trkpt><trkpt lat="44.9111241626305" lon="9.265391695877307"><ele>612.0</ele><time>2026-05-01T07:54:20Z</time></trkpt><trkpt lat="44.911230947747676" lon="9.265322549599647"><ele>611.8000000000001</ele><time>2026-05-01T07:54:22Z</time></trkpt><trkpt lat="44.91134057083496" lon="9.265268946224513"><ele>611.6</ele><time>2026-05-01T07:54:24Z</time></trkpt><trkpt lat="44.911446345073195" lon="9.26520110097354"><ele>611.4000000000001</ele><time>2026-05-01T07:54:26Z</time></trkpt><trkpt lat="44.91155027089726" lon="9.265141979850103"><ele>611.2</ele><time>2026-05-01T07:54:28Z</time></trkpt><trkpt lat="44.911640125573854" lon="9.265087016936297"><ele>611.0</ele><time>2026-05-01T07:54:30Z</time></trkpt><trkpt lat="44.91172350628412" lon="9.265045326107698"><ele>610.8</ele><time>2026-05-01T07:54:32Z</time></trkpt><trkpt lat="44.911819374090776" lon="9.264997640715894"><ele>610.6</ele><time>2026-05-01T07:54:34Z</time></trkpt><trkpt lat="44.91191282398388" lon="9.264959005708839"><ele>610.4</ele><time>2026-05-01T07:54:36Z</time></trkpt><trkpt lat="44.91200137318378" lon="9.264901158209007"><ele>610.2</ele><time>2026-05-01T07:54:38Z</time></trkpt><trkpt lat="44.91207930286343" lon="9.264858284277315"><ele>610.0</ele><time>2026-05-01T07:54:40Z</time></trkpt><trkpt lat="44.91217510285793" lon="9.26482994414082"><ele>610.0</ele><time>2026-05-01T07:54:42Z</time></trkpt><trkpt lat="44.91226220753356" lon="9.26478952335871"><ele>610.0</ele><time>2026-05-01T07:54:44Z</time></trkpt><trkpt lat="44.91232439354846" lon="9.264748765103327"><ele>610.0</ele><time>2026-05-01T07:54:46Z</time></trkpt><trkpt lat="44.91239324171601" lon="9.264692204006444"><ele>610.0</ele><time>2026-05-01T07:54:49Z</time></trkpt><trkpt lat="44.91240327065612" lon="9.26459561556481"><ele>610.0</ele><time>2026-05-01T07:54:52Z</time></trkpt><trkpt lat="44.91240322389296" lon="9.264452851241911"><ele>610.0</ele><time>2026-05-01T07:54:55Z</time></trkpt><trkpt lat="44.91241953264106" lon="9.264338514383342"><ele>609.8</ele><time>2026-05-01T07:54:57Z</time></trkpt><trkpt lat="44.9124095591634" lon="9.264219740756692"><ele>609.6</ele><time>2026-05-01T07:54:59Z</time></trkpt><trkpt lat="44.91240880057148" lon="9.264100697955682"><ele>609.4</ele><time>2026-05-01T07:55:01Z</time></trkpt><trkpt lat="44.91243039909476" lon="9.26397839337115"><ele>609.2</ele><time>2026-05-01T07:55:03Z</time></trkpt><trkpt lat="44.91244751805543" lon="9.263839718135367"><ele>609.0</ele><time>2026-05-01T07:55:05Z</time></trkpt><trkpt lat="44.91245803849256" lon="9.263705756976288"><ele>608.5</ele><time>2026-05-01T07:55:07Z</time></trkpt><trkpt lat="44.912467397494325" lon="9.263574651105218"><ele>608.0</ele><time>2026-05-01T07:55:09Z</time></trkpt><trkpt lat="44.91248357644874" lon="9.263462444243453"><ele>607.5</ele><time>2026-05-01T07:55:11Z</time></trkpt><trkpt lat="44.912508928583925" lon="9.26337700907539"><ele>607.0</ele><time>2026-05-01T07:55:13Z</time></trkpt><trkpt lat="44.91249172326656" lon="9.26327303921034"><ele>606.5</ele><time>2026-05-01T07:55:17Z</time></trkpt><trkpt lat="44.91256923649507" lon="9.263215289566153"><ele>606.0</ele><time>2026-05-01T07:55:21Z</time></trkpt><trkpt lat="44.912644894229665" lon="9.26328905636108"><ele>604.0</ele><time>2026-05-01T07:55:23Z</time></trkpt><trkpt lat="44.91273566014462" lon="9.26334992425038"><ele>602.0</ele><time>2026-05-01T07:55:24.999Z</time></trkpt><trkpt lat="44.912820796526965" lon="9.26342793995005"><ele>600.0</ele><time>2026-05-01T07:55:26.999Z</time></trkpt><trkpt lat="44.91291970045916" lon="9.263498716698018"><ele>598.0</ele><time>2026-05-01T07:55:28.999Z</time></trkpt><trkpt lat="44.91302103709332" lon="9.263577102962072"><ele>596.0</ele><time>2026-05-01T07:55:30.999Z</time></trkpt><trkpt lat="44.91311509776233" lon="9.263653099822536"><ele>596.0</ele><time>2026-05-01T07:55:32.999Z</time></trkpt><trkpt lat="44.91321439318657" lon="9.263724223847314"><ele>596.0</ele><time>2026-05-01T07:55:34.999Z</time></trkpt><trkpt lat="44.913278315062165" lon="9.263764094390819"><ele>596.0</ele><time>2026-05-01T07:55:35.999Z</time></trkpt><trkpt lat="44.913342469993445" lon="9.263805201816751"><ele>596.0</ele><time>2026-05-01T07:55:36.999Z</time></trkpt><trkpt lat="44.913403141673626" lon="9.263835514399103"><ele>596.0</ele><time>2026-05-01T07:55:37.999Z</time></trkpt><trkpt lat="44.91346584313452" lon="9.263859920538374"><ele>596.0</ele><time>2026-05-01T07:55:38.999Z</time></trkpt><trkpt lat="44.91353460347432" lon="9.263877787389498"><ele>595.4285714285714</ele><time>2026-05-01T07:55:39.999Z</time></trkpt><trkpt lat="44.91360132270995" lon="9.263873288548044"><ele>594.8571428571428</ele><time>2026-05-01T07:55:40.999Z</time></trkpt><trkpt lat="44.91367316652589" lon="9.263862130329404"><ele>594.2857142857142</ele><time>2026-05-01T07:55:41.999Z</time></trkpt><trkpt lat="44.91374364370447" lon="9.263847981123288"><ele>593.7142857142857</ele><time>2026-05-01T07:55:42.999Z</time></trkpt><trkpt lat="44.913817276663245" lon="9.263835957333624"><ele>593.1428571428571</ele><time>2026-05-01T07:55:43.999Z</time></trkpt><trkpt lat="44.91388521089993" lon="9.263816639130603"><ele>592.5714285714286</ele><time>2026-05-01T07:55:44.999Z</time></trkpt><trkpt lat="44.91395452719454" lon="9.263794306244755"><ele>592.0</ele><time>2026-05-01T07:55:45.999Z</time></trkpt><trkpt lat="44.914026535066704" lon="9.263779455664217"><ele>592.0</ele><time>2026-05-01T07:55:47.001Z</time></trkpt><trkpt lat="44.9140966812758" lon="9.26376067481043"><ele>592.0</ele><time>2026-05-01T07:55:48.001Z</time></trkpt><trkpt lat="44.91416019934803" lon="9.263738357426845"><ele>592.0</ele><time>2026-05-01T07:55:49.001Z</time></trkpt><trkpt lat="44.914226237899186" lon="9.26371915787986"><ele>592.0</ele><time>2026-05-01T07:55:50.001Z</time></trkpt><trkpt lat="44.914297095275245" lon="9.263704854440302"><ele>592.0</ele><time>2026-05-01T07:55:51.001Z</time></trkpt><trkpt lat="44.91436691640994" lon="9.263684027365576"><ele>592.0</ele><time>2026-05-01T07:55:52.001Z</time></trkpt><trkpt lat="44.91443365396849" lon="9.263646296772656"><ele>592.0</ele><time>2026-05-01T07:55:53.001Z</time></trkpt><trkpt lat="44.91450037371888" lon="9.263606833908824"><ele>591.8333333333334</ele><time>2026-05-01T07:55:54.001Z</time></trkpt><trkpt lat="44.91457107973474" lon="9.26356214866755"><ele>591.6666666666667</ele><time>2026-05-01T07:55:55.001Z</time></trkpt><trkpt lat="44.91463612147188" lon="9.263510492992008"><ele>591.5</ele><time>2026-05-01T07:55:56.001Z</time></trkpt><trkpt lat="44.914701567256046" lon="9.263456413747255"><ele>591.3333333333334</ele><time>2026-05-01T07:55:57.001Z</time></trkpt><trkpt lat="44.91476882397132" lon="9.263400362578524"><ele>591.1666666666666</ele><time>2026-05-01T07:55:58.001Z</time></trkpt><trkpt lat="44.91483168996838" lon="9.26332918357423"><ele>591.0</ele><time>2026-05-01T07:55:59.001Z</time></trkpt><trkpt lat="44.914887870231624" lon="9.263248163379046"><ele>591.0</ele><time>2026-05-01T07:56:00.001Z</time></trkpt><trkpt lat="44.914957496894644" lon="9.26318321956632"><ele>591.0</ele><time>2026-05-01T07:56:01.001Z</time></trkpt><trkpt lat="44.915026371290566" lon="9.26310769389472"><ele>591.0</ele><time>2026-05-01T07:56:02.001Z</time></trkpt><trkpt lat="44.915095560360314" lon="9.26302868911485"><ele>591.0</ele><time>2026-05-01T07:56:03Z</time></trkpt><trkpt lat="44.915162459494695" lon="9.262950098054691"><ele>591.0</ele><time>2026-05-01T07:56:04Z</time></trkpt><trkpt lat="44.91523330494359" lon="9.26286795839276"><ele>591.0</ele><time>2026-05-01T07:56:05Z</time></trkpt><trkpt lat="44.915305514720366" lon="9.26278277018378"><ele>589.8</ele><time>2026-05-01T07:56:06Z</time></trkpt><trkpt lat="44.91538630687088" lon="9.26272137281377"><ele>588.6</ele><time>2026-05-01T07:56:07Z</time></trkpt><trkpt lat="44.915458944426426" lon="9.262641395476678"><ele>587.4</ele><time>2026-05-01T07:56:08Z</time></trkpt><trkpt lat="44.91553419990149" lon="9.262558535627626"><ele>586.2</ele><time>2026-05-01T07:56:09Z</time></trkpt><trkpt lat="44.91561039017933" lon="9.262474646553272"><ele>585.0</ele><time>2026-05-01T07:56:10Z</time></trkpt><trkpt lat="44.91568975519519" lon="9.26238791711128"><ele>585.0</ele><time>2026-05-01T07:56:11Z</time></trkpt><trkpt lat="44.91576193290176" lon="9.262285548107654"><ele>585.0</ele><time>2026-05-01T07:56:12Z</time></trkpt><trkpt lat="44.915847070737875" lon="9.262197997822613"><ele>585.0</ele><time>2026-05-01T07:56:13Z</time></trkpt><trkpt lat="44.915928501264744" lon="9.262113945866151"><ele>585.0</ele><time>2026-05-01T07:56:14Z</time></trkpt><trkpt lat="44.91600608288627" lon="9.26202880582654"><ele>585.0</ele><time>2026-05-01T07:56:15Z</time></trkpt><trkpt lat="44.916082003273154" lon="9.261946436011314"><ele>583.0</ele><time>2026-05-01T07:56:16Z</time></trkpt><trkpt lat="44.91615967721608" lon="9.26186292570729"><ele>581.0</ele><time>2026-05-01T07:56:17Z</time></trkpt><trkpt lat="44.91623626963154" lon="9.261781028424236"><ele>579.0</ele><time>2026-05-01T07:56:18Z</time></trkpt><trkpt lat="44.91630922735097" lon="9.261701054234232"><ele>577.0</ele><time>2026-05-01T07:56:19Z</time></trkpt><trkpt lat="44.91638639008943" lon="9.26162048476051"><ele>575.0</ele><time>2026-05-01T07:56:20Z</time></trkpt><trkpt lat="44.91645709688401" lon="9.26153956156233"><ele>575.0</ele><time>2026-05-01T07:56:21Z</time></trkpt><trkpt lat="44.9165289058245" lon="9.261462653207836"><ele>575.0</ele><time>2026-05-01T07:56:22Z</time></trkpt><trkpt lat="44.91660530300456" lon="9.261388588926406"><ele>575.0</ele><time>2026-05-01T07:56:23Z</time></trkpt><trkpt lat="44.91667987501209" lon="9.26131428740301"><ele>575.0</ele><time>2026-05-01T07:56:24Z</time></trkpt><trkpt lat="44.91674807922806" lon="9.261243763911327"><ele>575.0</ele><time>2026-05-01T07:56:25Z</time></trkpt><trkpt lat="44.916819522793475" lon="9.261171948157882"><ele>575.0</ele><time>2026-05-01T07:56:26Z</time></trkpt><trkpt lat="44.91689019997922" lon="9.261105420718728"><ele>574.0</ele><time>2026-05-01T07:56:27Z</time></trkpt><trkpt lat="44.916970135976236" lon="9.261064451711308"><ele>573.0</ele><time>2026-05-01T07:56:28Z</time></trkpt><trkpt lat="44.917058986472426" lon="9.261047680922951"><ele>572.0</ele><time>2026-05-01T07:56:29Z</time></trkpt><trkpt lat="44.91714134649359" lon="9.261062525453685"><ele>571.0</ele><time>2026-05-01T07:56:30Z</time></trkpt><trkpt lat="44.91720300237521" lon="9.261095723951698"><ele>570.0</ele><time>2026-05-01T07:56:31Z</time></trkpt><trkpt lat="44.91728219609552" lon="9.261150786709019"><ele>569.0</ele><time>2026-05-01T07:56:33Z</time></trkpt><trkpt lat="44.91734996036478" lon="9.261195252829129"><ele>569.0</ele><time>2026-05-01T07:56:35Z</time></trkpt><trkpt lat="44.91741712171" lon="9.261222926326782"><ele>569.0</ele><time>2026-05-01T07:56:37Z</time></trkpt><trkpt lat="44.91748747667433" lon="9.261104580025739"><ele>569.0</ele><time>2026-05-01T07:56:39Z</time></trkpt><trkpt lat="44.91755388962791" lon="9.261008894565018"><ele>569.0</ele><time>2026-05-01T07:56:41Z</time></trkpt><trkpt lat="44.91763839126192" lon="9.26092797151396"><ele>569.0</ele><time>2026-05-01T07:56:43Z</time></trkpt><trkpt lat="44.91772092178119" lon="9.260839647764529"><ele>568.8</ele><time>2026-05-01T07:56:45Z</time></trkpt><trkpt lat="44.91781715749461" lon="9.260765885540593"><ele>568.5999999999999</ele><time>2026-05-01T07:56:47Z</time></trkpt><trkpt lat="44.91791511103647" lon="9.260688174394787"><ele>568.4</ele><time>2026-05-01T07:56:49Z</time></trkpt><trkpt lat="44.9180291752363" lon="9.26062356428227"><ele>568.1999999999999</ele><time>2026-05-01T07:56:51Z</time></trkpt><trkpt lat="44.91809082443977" lon="9.260586718652458"><ele>568.0</ele><time>2026-05-01T07:56:52Z</time></trkpt><trkpt lat="44.918156530847924" lon="9.260544015375949"><ele>566.6666666666667</ele><time>2026-05-01T07:56:53Z</time></trkpt><trkpt lat="44.91821962707341" lon="9.260482320673024"><ele>565.3333333333334</ele><time>2026-05-01T07:56:54Z</time></trkpt><trkpt lat="44.91828635245833" lon="9.260414366669048"><ele>564.0</ele><time>2026-05-01T07:56:55Z</time></trkpt><trkpt lat="44.91835397610864" lon="9.260337290742163"><ele>562.6666666666666</ele><time>2026-05-01T07:56:56Z</time></trkpt><trkpt lat="44.91843303078806" lon="9.26026806643252"><ele>561.3333333333333</ele><time>2026-05-01T07:56:57Z</time></trkpt><trkpt lat="44.91849724185594" lon="9.26017630856532"><ele>560.0</ele><time>2026-05-01T07:56:58Z</time></trkpt><trkpt lat="44.91854785873233" lon="9.260063947206673"><ele>559.4</ele><time>2026-05-01T07:56:59Z</time></trkpt><trkpt lat="44.918622771025625" lon="9.259979136262853"><ele>558.8</ele><time>2026-05-01T07:57:00Z</time></trkpt><trkpt lat="44.91867893073417" lon="9.25985607423639"><ele>558.2</ele><time>2026-05-01T07:57:01Z</time></trkpt><trkpt lat="44.91871262087917" lon="9.259716244873948"><ele>557.6</ele><time>2026-05-01T07:57:02Z</time></trkpt><trkpt lat="44.91873873183254" lon="9.259576451427792"><ele>557.0</ele><time>2026-05-01T07:57:03Z</time></trkpt><trkpt lat="44.91876049405844" lon="9.259427492609975"><ele>555.8000000000001</ele><time>2026-05-01T07:57:04Z</time></trkpt><trkpt lat="44.91881613731309" lon="9.259287863894963"><ele>554.6</ele><time>2026-05-01T07:57:05Z</time></trkpt><trkpt lat="44.91885845797386" lon="9.25914811838943"><ele>553.4000000000001</ele><time>2026-05-01T07:57:06Z</time></trkpt><trkpt lat="44.91889788757366" lon="9.259016836040656"><ele>552.2</ele><time>2026-05-01T07:57:07Z</time></trkpt><trkpt lat="44.91893371239104" lon="9.258898742570318"><ele>551.0</ele><time>2026-05-01T07:57:07.999Z</time></trkpt><trkpt lat="44.91896595166451" lon="9.258790514551743"><ele>549.6666666666666</ele><time>2026-05-01T07:57:08.999Z</time></trkpt><trkpt lat="44.91900369007942" lon="9.258696361071635"><ele>548.3333333333333</ele><time>2026-05-01T07:57:09.999Z</time></trkpt><trkpt lat="44.91905926541485" lon="9.258616506130931"><ele>547.0</ele><time>2026-05-01T07:57:10.999Z</time></trkpt><trkpt lat="44.91913127264345" lon="9.258557677946305"><ele>545.6666666666666</ele><time>2026-05-01T07:57:11.999Z</time></trkpt><trkpt lat="44.91921294465287" lon="9.258515782293463"><ele>544.3333333333334</ele><time>2026-05-01T07:57:12.999Z</time></trkpt><trkpt lat="44.91929607399906" lon="9.258474396216497"><ele>543.0</ele><time>2026-05-01T07:57:13.999Z</time></trkpt><trkpt lat="44.91937757630019" lon="9.25841111019455"><ele>542.6</ele><time>2026-05-01T07:57:14.999Z</time></trkpt><trkpt lat="44.91945331959306" lon="9.258335556996359"><ele>542.1999999999999</ele><time>2026-05-01T07:57:15.999Z</time></trkpt><trkpt lat="44.91952597808398" lon="9.258243936284632"><ele>541.8</ele><time>2026-05-01T07:57:16.999Z</time></trkpt><trkpt lat="44.91959485699317" lon="9.258156757635946"><ele>541.4</ele><time>2026-05-01T07:57:17.999Z</time></trkpt><trkpt lat="44.91964467163137" lon="9.258045815781548"><ele>541.0</ele><time>2026-05-01T07:57:18.999Z</time></trkpt><trkpt lat="44.91967904321918" lon="9.257926735453703"><ele>540.5</ele><time>2026-05-01T07:57:19.999Z</time></trkpt><trkpt lat="44.91968814110578" lon="9.257801779293716"><ele>540.0</ele><time>2026-05-01T07:57:20.999Z</time></trkpt><trkpt lat="44.91968984572395" lon="9.257681423168432"><ele>539.5</ele><time>2026-05-01T07:57:21.999Z</time></trkpt><trkpt lat="44.91966990162619" lon="9.257570783164105"><ele>539.0</ele><time>2026-05-01T07:57:22.999Z</time></trkpt><trkpt lat="44.91968047446489" lon="9.25745868326429"><ele>538.5</ele><time>2026-05-01T07:57:23.999Z</time></trkpt><trkpt lat="44.919719473143196" lon="9.257346782866527"><ele>538.0</ele><time>2026-05-01T07:57:24.999Z</time></trkpt><trkpt lat="44.91977954695445" lon="9.257251348982292"><ele>536.0</ele><time>2026-05-01T07:57:25.999Z</time></trkpt><trkpt lat="44.91984832458094" lon="9.257162009453506"><ele>534.0</ele><time>2026-05-01T07:57:26.999Z</time></trkpt><trkpt lat="44.919924694956826" lon="9.257084094511674"><ele>532.0</ele><time>2026-05-01T07:57:27.999Z</time></trkpt><trkpt lat="44.92000626915906" lon="9.257017407030997"><ele>530.0</ele><time>2026-05-01T07:57:28.999Z</time></trkpt><trkpt lat="44.920080197815324" lon="9.2569538820847"><ele>528.0</ele><time>2026-05-01T07:57:29.999Z</time></trkpt><trkpt lat="44.920162428633695" lon="9.256909702834644"><ele>526.0</ele><time>2026-05-01T07:57:30.999Z</time></trkpt><trkpt lat="44.92023734067702" lon="9.25683940350097"><ele>524.0</ele><time>2026-05-01T07:57:31.999Z</time></trkpt><trkpt lat="44.920313913450315" lon="9.25675205183127"><ele>522.0</ele><time>2026-05-01T07:57:32.999Z</time></trkpt><trkpt lat="44.92038187253749" lon="9.256636348754112"><ele>520.0</ele><time>2026-05-01T07:57:33.999Z</time></trkpt><trkpt lat="44.92043006352894" lon="9.256492537856708"><ele>518.0</ele><time>2026-05-01T07:57:34.999Z</time></trkpt><trkpt lat="44.920472533991614" lon="9.256353297942155"><ele>517.25</ele><time>2026-05-01T07:57:35.999Z</time></trkpt><trkpt lat="44.920501352438286" lon="9.256194328671029"><ele>516.5</ele><time>2026-05-01T07:57:36.999Z</time></trkpt><trkpt lat="44.92055561174287" lon="9.25605178664374"><ele>515.75</ele><time>2026-05-01T07:57:37.999Z</time></trkpt><trkpt lat="44.92059743025387" lon="9.255904441237321"><ele>515.0</ele><time>2026-05-01T07:57:38.999Z</time></trkpt><trkpt lat="44.92063955332117" lon="9.255761089281657"><ele>515.4</ele><time>2026-05-01T07:57:39.999Z</time></trkpt><trkpt lat="44.92068344173439" lon="9.255617170136132"><ele>515.8</ele><time>2026-05-01T07:57:40.999Z</time></trkpt><trkpt lat="44.92072647299154" lon="9.255475339713463"><ele>516.2</ele><time>2026-05-01T07:57:41.999Z</time></trkpt><trkpt lat="44.920769319158524" lon="9.25533579498679"><ele>516.6</ele><time>2026-05-01T07:57:42.999Z</time></trkpt><trkpt lat="44.920811533077725" lon="9.255195969283909"><ele>517.0</ele><time>2026-05-01T07:57:43.999Z</time></trkpt><trkpt lat="44.92085501386186" lon="9.255058986248663"><ele>517.0</ele><time>2026-05-01T07:57:44.999Z</time></trkpt><trkpt lat="44.92089792707447" lon="9.25492290086642"><ele>517.0</ele><time>2026-05-01T07:57:45.999Z</time></trkpt><trkpt lat="44.920942340196795" lon="9.254788191622428"><ele>517.0</ele><time>2026-05-01T07:57:46.999Z</time></trkpt><trkpt lat="44.920984216583136" lon="9.254651174159553"><ele>517.0</ele><time>2026-05-01T07:57:47.999Z</time></trkpt><trkpt lat="44.92102517260643" lon="9.254513072493939"><ele>517.0</ele><time>2026-05-01T07:57:48.999Z</time></trkpt><trkpt lat="44.92106582632584" lon="9.254378484738172"><ele>515.6</ele><time>2026-05-01T07:57:49.999Z</time></trkpt><trkpt lat="44.9211196147339" lon="9.254244269482363"><ele>514.2</ele><time>2026-05-01T07:57:50.999Z</time></trkpt><trkpt lat="44.92114963218597" lon="9.254100393953708"><ele>512.8</ele><time>2026-05-01T07:57:51.999Z</time></trkpt><trkpt lat="44.921177242246316" lon="9.253954436297924"><ele>511.4</ele><time>2026-05-01T07:57:53Z</time></trkpt><trkpt lat="44.921203595784064" lon="9.253809804898706"><ele>510.0</ele><time>2026-05-01T07:57:54Z</time></trkpt><trkpt lat="44.921227336649025" lon="9.253663216452676"><ele>510.0</ele><time>2026-05-01T07:57:55Z</time></trkpt><trkpt lat="44.9212533606554" lon="9.253513488275246"><ele>510.0</ele><time>2026-05-01T07:57:56Z</time></trkpt><trkpt lat="44.921275912995185" lon="9.25336936163296"><ele>510.0</ele><time>2026-05-01T07:57:57Z</time></trkpt><trkpt lat="44.92130192588941" lon="9.253227895585699"><ele>510.0</ele><time>2026-05-01T07:57:58Z</time></trkpt><trkpt lat="44.92133065074673" lon="9.253091625753362"><ele>510.0</ele><time>2026-05-01T07:57:59Z</time></trkpt><trkpt lat="44.92136151370815" lon="9.25296448715008"><ele>510.0</ele><time>2026-05-01T07:58:00Z</time></trkpt><trkpt lat="44.92140849582177" lon="9.252853151459874"><ele>510.0</ele><time>2026-05-01T07:58:01Z</time></trkpt><trkpt lat="44.92144637269912" lon="9.252741100596399"><ele>510.0</ele><time>2026-05-01T07:58:02Z</time></trkpt><trkpt lat="44.92147856611383" lon="9.252638059484157"><ele>510.0</ele><time>2026-05-01T07:58:03Z</time></trkpt><trkpt lat="44.92150949961152" lon="9.252537716608796"><ele>510.0</ele><time>2026-05-01T07:58:04Z</time></trkpt><trkpt lat="44.921537033286555" lon="9.252437738511208"><ele>510.0</ele><time>2026-05-01T07:58:05Z</time></trkpt><trkpt lat="44.92156465856252" lon="9.252342198592396"><ele>510.0</ele><time>2026-05-01T07:58:06Z</time></trkpt><trkpt lat="44.921591657615764" lon="9.252247402792564"><ele>510.0</ele><time>2026-05-01T07:58:07Z</time></trkpt><trkpt lat="44.92161491112749" lon="9.252150802258354"><ele>510.0</ele><time>2026-05-01T07:58:08Z</time></trkpt><trkpt lat="44.921636242052166" lon="9.252049413282245"><ele>510.0</ele><time>2026-05-01T07:58:09Z</time></trkpt><trkpt lat="44.92165926930768" lon="9.251942913998555"><ele>510.0</ele><time>2026-05-01T07:58:10Z</time></trkpt><trkpt lat="44.92168602534857" lon="9.251833544011838"><ele>510.0</ele><time>2026-05-01T07:58:11Z</time></trkpt><trkpt lat="44.921727589535905" lon="9.251735067078489"><ele>510.0</ele><time>2026-05-01T07:58:12Z</time></trkpt><trkpt lat="44.921757592220075" lon="9.251626504650876"><ele>510.00000000000006</ele><time>2026-05-01T07:58:13Z</time></trkpt><trkpt lat="44.921774613362565" lon="9.251515266277158"><ele>510.0</ele><time>2026-05-01T07:58:14Z</time></trkpt><trkpt lat="44.92180550025309" lon="9.251420511769014"><ele>510.0</ele><time>2026-05-01T07:58:15Z</time></trkpt><trkpt lat="44.92183431376701" lon="9.251336228980295"><ele>510.00000000000006</ele><time>2026-05-01T07:58:16Z</time></trkpt><trkpt lat="44.92186468107223" lon="9.251255104761691"><ele>510.0</ele><time>2026-05-01T07:58:17Z</time></trkpt><trkpt lat="44.921911709570665" lon="9.251190047843224"><ele>510.0</ele><time>2026-05-01T07:58:18Z</time></trkpt><trkpt lat="44.921947616639244" lon="9.251112439993072"><ele>510.0</ele><time>2026-05-01T07:58:19Z</time></trkpt><trkpt lat="44.921984566182104" lon="9.251034777015704"><ele>510.00000000000006</ele><time>2026-05-01T07:58:20Z</time></trkpt><trkpt lat="44.92202027054845" lon="9.250956780577408"><ele>510.0</ele><time>2026-05-01T07:58:21Z</time></trkpt><trkpt lat="44.92205980476699" lon="9.25087685246352"><ele>510.0</ele><time>2026-05-01T07:58:22Z</time></trkpt><trkpt lat="44.922099543967896" lon="9.250795594425602"><ele>510.00000000000006</ele><time>2026-05-01T07:58:23Z</time></trkpt><trkpt lat="44.92213986237666" lon="9.250714982751283"><ele>510.0</ele><time>2026-05-01T07:58:24Z</time></trkpt><trkpt lat="44.92217769572037" lon="9.250630897656173"><ele>510.0</ele><time>2026-05-01T07:58:25Z</time></trkpt><trkpt lat="44.922215175321085" lon="9.250546725091372"><ele>509.28571428571433</ele><time>2026-05-01T07:58:26Z</time></trkpt><trkpt lat="44.92225360445457" lon="9.250465944026425"><ele>508.5714285714286</ele><time>2026-05-01T07:58:27Z</time></trkpt><trkpt lat="44.92230951122398" lon="9.250399428671216"><ele>507.8571428571429</ele><time>2026-05-01T07:58:28Z</time></trkpt><trkpt lat="44.92234988909752" lon="9.250324586221272"><ele>507.1428571428571</ele><time>2026-05-01T07:58:29Z</time></trkpt><trkpt lat="44.9223902330186" lon="9.250245979355928"><ele>506.4285714285714</ele><time>2026-05-01T07:58:30Z</time></trkpt><trkpt lat="44.922429838097905" lon="9.250162815608428"><ele>505.71428571428567</ele><time>2026-05-01T07:58:31Z</time></trkpt><trkpt lat="44.922472696410246" lon="9.25007740080705"><ele>505.0</ele><time>2026-05-01T07:58:32Z</time></trkpt><trkpt lat="44.922513856351" lon="9.249991471615003"><ele>505.00000000000006</ele><time>2026-05-01T07:58:33Z</time></trkpt><trkpt lat="44.92255329223383" lon="9.249901088136118"><ele>505.0</ele><time>2026-05-01T07:58:34Z</time></trkpt><trkpt lat="44.92259521227784" lon="9.249807551691893"><ele>505.0</ele><time>2026-05-01T07:58:35Z</time></trkpt><trkpt lat="44.922637509282474" lon="9.249714691586014"><ele>505.0</ele><time>2026-05-01T07:58:36Z</time></trkpt><trkpt lat="44.92268012480259" lon="9.249618490118314"><ele>505.00000000000006</ele><time>2026-05-01T07:58:37Z</time></trkpt><trkpt lat="44.922721886442346" lon="9.249524421958263"><ele>505.0</ele><time>2026-05-01T07:58:38Z</time></trkpt><trkpt lat="44.922763042848416" lon="9.249433705961001"><ele>505.4</ele><time>2026-05-01T07:58:39Z</time></trkpt><trkpt lat="44.922801128068805" lon="9.249345565360578"><ele>505.8</ele><time>2026-05-01T07:58:40Z</time></trkpt><trkpt lat="44.922838609400074" lon="9.24926463043649"><ele>506.20000000000005</ele><time>2026-05-01T07:58:41Z</time></trkpt><trkpt lat="44.9229115375101" lon="9.249125325122833"><ele>506.6</ele><time>2026-05-01T07:58:43Z</time></trkpt><trkpt lat="44.92298357689427" lon="9.248994599945508"><ele>507.0</ele><time>2026-05-01T07:58:45Z</time></trkpt><trkpt lat="44.92304565366508" lon="9.24887966352181"><ele>507.0</ele><time>2026-05-01T07:58:47Z</time></trkpt><trkpt lat="44.92309439645683" lon="9.248775575604796"><ele>507.00000000000006</ele><time>2026-05-01T07:58:49Z</time></trkpt><trkpt lat="44.923143756376525" lon="9.248668808450645"><ele>507.00000000000006</ele><time>2026-05-01T07:58:51Z</time></trkpt><trkpt lat="44.923207742980665" lon="9.248569403147666"><ele>507.0</ele><time>2026-05-01T07:58:53Z</time></trkpt><trkpt lat="44.92326335325379" lon="9.248456053041082"><ele>507.0</ele><time>2026-05-01T07:58:55Z</time></trkpt><trkpt lat="44.92330931528797" lon="9.248338742242774"><ele>507.0</ele><time>2026-05-01T07:58:57Z</time></trkpt><trkpt lat="44.923355413284725" lon="9.248225043350029"><ele>507.00000000000006</ele><time>2026-05-01T07:58:59Z</time></trkpt><trkpt lat="44.92340300055792" lon="9.248099767002275"><ele>507.00000000000006</ele><time>2026-05-01T07:59:01Z</time></trkpt><trkpt lat="44.92344934024148" lon="9.247970513185017"><ele>507.0</ele><time>2026-05-01T07:59:03Z</time></trkpt><trkpt lat="44.923455464406935" lon="9.247804059369047"><ele>507.0</ele><time>2026-05-01T07:59:05Z</time></trkpt><trkpt lat="44.92347114538321" lon="9.247714213335392"><ele>506.0</ele><time>2026-05-01T07:59:06Z</time></trkpt><trkpt lat="44.923504017818786" lon="9.247628782965716"><ele>505.0</ele><time>2026-05-01T07:59:07Z</time></trkpt><trkpt lat="44.923536258619976" lon="9.247542678866497"><ele>504.0</ele><time>2026-05-01T07:59:08Z</time></trkpt><trkpt lat="44.92356553842903" lon="9.24745198056855"><ele>503.0</ele><time>2026-05-01T07:59:09Z</time></trkpt><trkpt lat="44.9235966062666" lon="9.247351414388993"><ele>502.0</ele><time>2026-05-01T07:59:10Z</time></trkpt><trkpt lat="44.92367042521391" lon="9.24727803453601"><ele>501.0</ele><time>2026-05-01T07:59:11Z</time></trkpt><trkpt lat="44.92371661040959" lon="9.24718716009978"><ele>501.0</ele><time>2026-05-01T07:59:12Z</time></trkpt><trkpt lat="44.92376854822702" lon="9.2471029974996"><ele>501.0</ele><time>2026-05-01T07:59:12.999Z</time></trkpt><trkpt lat="44.92382865686219" lon="9.247028596660003"><ele>501.0</ele><time>2026-05-01T07:59:13.999Z</time></trkpt><trkpt lat="44.92388967067707" lon="9.246958879310583"><ele>501.0</ele><time>2026-05-01T07:59:14.999Z</time></trkpt><trkpt lat="44.9239528806424" lon="9.246891964601472"><ele>501.0</ele><time>2026-05-01T07:59:15.999Z</time></trkpt><trkpt lat="44.92401114927943" lon="9.246830786531767"><ele>501.0</ele><time>2026-05-01T07:59:16.999Z</time></trkpt><trkpt lat="44.92407172405626" lon="9.24676450749405"><ele>501.0</ele><time>2026-05-01T07:59:17.999Z</time></trkpt><trkpt lat="44.92412929125003" lon="9.246698593736651"><ele>501.0</ele><time>2026-05-01T07:59:18.999Z</time></trkpt><trkpt lat="44.92418484892923" lon="9.246619724684846"><ele>501.0</ele><time>2026-05-01T07:59:19.999Z</time></trkpt><trkpt lat="44.924228368049114" lon="9.246522444493234"><ele>501.0</ele><time>2026-05-01T07:59:20.999Z</time></trkpt><trkpt lat="44.92425899514336" lon="9.24641298630671"><ele>501.0</ele><time>2026-05-01T07:59:21.999Z</time></trkpt><trkpt lat="44.92428207823891" lon="9.246293643303725"><ele>501.0</ele><time>2026-05-01T07:59:22.999Z</time></trkpt><trkpt lat="44.924300212807736" lon="9.246176414416514"><ele>497.8</ele><time>2026-05-01T07:59:23.999Z</time></trkpt><trkpt lat="44.92431994022242" lon="9.24604888844536"><ele>494.6</ele><time>2026-05-01T07:59:24.999Z</time></trkpt><trkpt lat="44.92432561749376" lon="9.245911458414085"><ele>491.4</ele><time>2026-05-01T07:59:25.999Z</time></trkpt><trkpt lat="44.92436046204247" lon="9.245770479399276"><ele>488.2</ele><time>2026-05-01T07:59:26.999Z</time></trkpt><trkpt lat="44.92438439358869" lon="9.245629188211794"><ele>485.0</ele><time>2026-05-01T07:59:27.999Z</time></trkpt><trkpt lat="44.92440193851061" lon="9.24548681053113"><ele>484.6</ele><time>2026-05-01T07:59:28.999Z</time></trkpt><trkpt lat="44.924412763198056" lon="9.245351921683747"><ele>484.2</ele><time>2026-05-01T07:59:29.999Z</time></trkpt><trkpt lat="44.924423528748136" lon="9.245217699082616"><ele>483.79999999999995</ele><time>2026-05-01T07:59:30.999Z</time></trkpt><trkpt lat="44.92443582124463" lon="9.245088577065728"><ele>483.4</ele><time>2026-05-01T07:59:31.999Z</time></trkpt><trkpt lat="44.9244504607472" lon="9.244964362862023"><ele>483.0</ele><time>2026-05-01T07:59:32.999Z</time></trkpt><trkpt lat="44.924460874354686" lon="9.244835500465696"><ele>483.0</ele><time>2026-05-01T07:59:33.999Z</time></trkpt><trkpt lat="44.92446912022899" lon="9.244714087263059"><ele>482.99999999999994</ele><time>2026-05-01T07:59:34.999Z</time></trkpt><trkpt lat="44.92450105168897" lon="9.244591241372161"><ele>482.99999999999994</ele><time>2026-05-01T07:59:35.999Z</time></trkpt><trkpt lat="44.92453196205026" lon="9.244470436492822"><ele>483.0</ele><time>2026-05-01T07:59:36.999Z</time></trkpt><trkpt lat="44.92458152253245" lon="9.244357353244656"><ele>483.0</ele><time>2026-05-01T07:59:37.999Z</time></trkpt><trkpt lat="44.92464723358129" lon="9.244254063814568"><ele>483.0</ele><time>2026-05-01T07:59:38.999Z</time></trkpt><trkpt lat="44.92472207401946" lon="9.24416062564287"><ele>482.99999999999994</ele><time>2026-05-01T07:59:39.999Z</time></trkpt><trkpt lat="44.92479652963617" lon="9.24407095636046"><ele>482.99999999999994</ele><time>2026-05-01T07:59:40.999Z</time></trkpt><trkpt lat="44.92487394675459" lon="9.243989111255221"><ele>483.0</ele><time>2026-05-01T07:59:41.999Z</time></trkpt><trkpt lat="44.92495578762752" lon="9.243932624125911"><ele>483.0</ele><time>2026-05-01T07:59:42.999Z</time></trkpt><trkpt lat="44.92502459453258" lon="9.243858768886055"><ele>481.3333333333333</ele><time>2026-05-01T07:59:43.999Z</time></trkpt><trkpt lat="44.925088035924745" lon="9.24379064908984"><ele>479.66666666666663</ele><time>2026-05-01T07:59:44.999Z</time></trkpt><trkpt lat="44.92514692126264" lon="9.243729125646702"><ele>478.0</ele><time>2026-05-01T07:59:45.999Z</time></trkpt><trkpt lat="44.92519733019345" lon="9.24365656353074"><ele>476.3333333333333</ele><time>2026-05-01T07:59:46.999Z</time></trkpt><trkpt lat="44.92523811890366" lon="9.243566427220728"><ele>474.66666666666663</ele><time>2026-05-01T07:59:47.999Z</time></trkpt><trkpt lat="44.925267391237185" lon="9.24346154049136"><ele>473.0</ele><time>2026-05-01T07:59:48.999Z</time></trkpt><trkpt lat="44.925284940490926" lon="9.243352284156156"><ele>472.99999999999994</ele><time>2026-05-01T07:59:49.999Z</time></trkpt><trkpt lat="44.925294421419856" lon="9.243245461587298"><ele>473.0</ele><time>2026-05-01T07:59:50.999Z</time></trkpt><trkpt lat="44.92530175597993" lon="9.243142949413597"><ele>473.0</ele><time>2026-05-01T07:59:51.999Z</time></trkpt><trkpt lat="44.92531037993543" lon="9.243042143510984"><ele>473.0</ele><time>2026-05-01T07:59:52.999Z</time></trkpt><trkpt lat="44.925333491646064" lon="9.242944492393935"><ele>472.99999999999994</ele><time>2026-05-01T07:59:53.999Z</time></trkpt><trkpt lat="44.925373285157335" lon="9.242850435464334"><ele>473.0</ele><time>2026-05-01T07:59:54.999Z</time></trkpt><trkpt lat="44.92542981330117" lon="9.24276703501605"><ele>471.99999999999994</ele><time>2026-05-01T07:59:55.999Z</time></trkpt><trkpt lat="44.92550378989241" lon="9.242699759104783"><ele>471.0</ele><time>2026-05-01T07:59:56.999Z</time></trkpt><trkpt lat="44.925585062390645" lon="9.242649084076431"><ele>470.0</ele><time>2026-05-01T07:59:57.999Z</time></trkpt><trkpt lat="44.925664786350644" lon="9.242610876511893"><ele>469.0</ele><time>2026-05-01T07:59:59Z</time></trkpt><trkpt lat="44.9257457305212" lon="9.242579323184385"><ele>467.99999999999994</ele><time>2026-05-01T08:00:00Z</time></trkpt><trkpt lat="44.92582447920128" lon="9.242548594172074"><ele>467.0</ele><time>2026-05-01T08:00:01Z</time></trkpt><trkpt lat="44.925900947574064" lon="9.242524613932705"><ele>464.3333333333333</ele><time>2026-05-01T08:00:02Z</time></trkpt><trkpt lat="44.92596422449478" lon="9.242503075391657"><ele>461.66666666666663</ele><time>2026-05-01T08:00:03Z</time></trkpt><trkpt lat="44.92605225028004" lon="9.242455469166178"><ele>459.0</ele><time>2026-05-01T08:00:05Z</time></trkpt><trkpt lat="44.92611185838202" lon="9.242486943254272"><ele>456.33333333333337</ele><time>2026-05-01T08:00:08Z</time></trkpt><trkpt lat="44.926164669410674" lon="9.242548152985826"><ele>453.6666666666667</ele><time>2026-05-01T08:00:39Z</time></trkpt><trkpt lat="44.92615437612559" lon="9.242665993035708"><ele>451.0</ele><time>2026-05-01T08:00:42Z</time></trkpt><trkpt lat="44.9261395743469" lon="9.242807740858293"><ele>451.00000000000006</ele><time>2026-05-01T08:00:44Z</time></trkpt><trkpt lat="44.92610462127723" lon="9.242970350150275"><ele>451.0</ele><time>2026-05-01T08:00:46Z</time></trkpt><trkpt lat="44.926089453767126" lon="9.243059634498122"><ele>451.0</ele><time>2026-05-01T08:00:47Z</time></trkpt><trkpt lat="44.926077842501186" lon="9.24315609600683"><ele>451.0</ele><time>2026-05-01T08:00:48Z</time></trkpt><trkpt lat="44.926063166616956" lon="9.243245313599726"><ele>451.00000000000006</ele><time>2026-05-01T08:00:49Z</time></trkpt><trkpt lat="44.92605616123463" lon="9.243381701502917"><ele>451.0</ele><time>2026-05-01T08:00:51Z</time></trkpt><trkpt lat="44.926106249928615" lon="9.243515120829612"><ele>451.0</ele><time>2026-05-01T08:00:53Z</time></trkpt><trkpt lat="44.92622587398665" lon="9.243431875694267"><ele>451.0</ele><time>2026-05-01T08:00:54Z</time></trkpt><trkpt lat="44.92628029680109" lon="9.24334837076398"><ele>451.0</ele><time>2026-05-01T08:00:55Z</time></trkpt><trkpt lat="44.92632000709507" lon="9.243253886097603"><ele>451.0</ele><time>2026-05-01T08:00:56Z</time></trkpt><trkpt lat="44.926369902988846" lon="9.243166344511316"><ele>451.0</ele><time>2026-05-01T08:00:57Z</time></trkpt><trkpt lat="44.926419656005514" lon="9.243074515687928"><ele>451.00000000000006</ele><time>2026-05-01T08:00:58Z</time></trkpt><trkpt lat="44.92648264179204" lon="9.243011395690111"><ele>451.0</ele><time>2026-05-01T08:00:59Z</time></trkpt><trkpt lat="44.9265429483662" lon="9.242937195951539"><ele>451.0</ele><time>2026-05-01T08:01:00Z</time></trkpt><trkpt lat="44.926613742157485" lon="9.242881654995267"><ele>451.0</ele><time>2026-05-01T08:01:01Z</time></trkpt><trkpt lat="44.92669659357988" lon="9.242847526497313"><ele>451.00000000000006</ele><time>2026-05-01T08:01:02Z</time></trkpt><trkpt lat="44.92679327239297" lon="9.242819511064152"><ele>451.0</ele><time>2026-05-01T08:01:03Z</time></trkpt><trkpt lat="44.92688324995871" lon="9.2428109156648"><ele>448.0</ele><time>2026-05-01T08:01:04Z</time></trkpt><trkpt lat="44.926978939753" lon="9.242814464009596"><ele>445.0</ele><time>2026-05-01T08:01:05Z</time></trkpt><trkpt lat="44.92708107757339" lon="9.242807961323185"><ele>442.0</ele><time>2026-05-01T08:01:06Z</time></trkpt><trkpt lat="44.92718221531707" lon="9.242781892725187"><ele>439.0</ele><time>2026-05-01T08:01:07Z</time></trkpt><trkpt lat="44.92727993227262" lon="9.242747350529502"><ele>436.0</ele><time>2026-05-01T08:01:08Z</time></trkpt><trkpt lat="44.927372463879" lon="9.2427106370684"><ele>436.00000000000006</ele><time>2026-05-01T08:01:09Z</time></trkpt><trkpt lat="44.92745591815167" lon="9.2426775251099"><ele>436.0</ele><time>2026-05-01T08:01:10Z</time></trkpt><trkpt lat="44.92753190145532" lon="9.242643488900391"><ele>436.0</ele><time>2026-05-01T08:01:11Z</time></trkpt><trkpt lat="44.927601334840176" lon="9.242605289718162"><ele>436.0</ele><time>2026-05-01T08:01:12Z</time></trkpt><trkpt lat="44.92766272672104" lon="9.242552118094952"><ele>436.00000000000006</ele><time>2026-05-01T08:01:13Z</time></trkpt><trkpt lat="44.92770886031561" lon="9.242485105754836"><ele>436.0</ele><time>2026-05-01T08:01:14Z</time></trkpt><trkpt lat="44.92771294137112" lon="9.242362212340115"><ele>434.83333333333337</ele><time>2026-05-01T08:01:15Z</time></trkpt><trkpt lat="44.92767588655258" lon="9.24225328198429"><ele>433.6666666666667</ele><time>2026-05-01T08:01:16Z</time></trkpt><trkpt lat="44.92763522328577" lon="9.242156630196611"><ele>432.5</ele><time>2026-05-01T08:01:17Z</time></trkpt><trkpt lat="44.92758806174326" lon="9.242069151341154"><ele>431.33333333333337</ele><time>2026-05-01T08:01:17.999Z</time></trkpt><trkpt lat="44.92753561026726" lon="9.24197574784687"><ele>430.1666666666667</ele><time>2026-05-01T08:01:18.999Z</time></trkpt><trkpt lat="44.92749099338935" lon="9.2418733911299"><ele>429.0</ele><time>2026-05-01T08:01:19.999Z</time></trkpt><trkpt lat="44.927443900085485" lon="9.241766687986267"><ele>429.0</ele><time>2026-05-01T08:01:20.999Z</time></trkpt><trkpt lat="44.92739583687808" lon="9.24165945874076"><ele>429.0</ele><time>2026-05-01T08:01:21.999Z</time></trkpt><trkpt lat="44.92734503926941" lon="9.241551349121252"><ele>429.0</ele><time>2026-05-01T08:01:22.999Z</time></trkpt><trkpt lat="44.92729904773402" lon="9.24144450024414"><ele>429.0</ele><time>2026-05-01T08:01:23.999Z</time></trkpt><trkpt lat="44.92725151031447" lon="9.241334521195862"><ele>429.0</ele><time>2026-05-01T08:01:24.999Z</time></trkpt><trkpt lat="44.92720641255641" lon="9.241228219794644"><ele>429.0</ele><time>2026-05-01T08:01:25.999Z</time></trkpt><trkpt lat="44.92716467907846" lon="9.241126708288483"><ele>427.8333333333333</ele><time>2026-05-01T08:01:26.999Z</time></trkpt><trkpt lat="44.92712795162733" lon="9.241028162014894"><ele>426.66666666666663</ele><time>2026-05-01T08:01:27.999Z</time></trkpt><trkpt lat="44.92709133658052" lon="9.240939464843361"><ele>425.5</ele><time>2026-05-01T08:01:28.999Z</time></trkpt><trkpt lat="44.92705739448298" lon="9.24078605496708"><ele>424.3333333333333</ele><time>2026-05-01T08:01:30.999Z</time></trkpt><trkpt lat="44.92703818701532" lon="9.240678812930229"><ele>423.16666666666663</ele><time>2026-05-01T08:01:32.999Z</time></trkpt><trkpt lat="44.92710380553942" lon="9.240605934403417"><ele>422.0</ele><time>2026-05-01T08:01:34.999Z</time></trkpt><trkpt lat="44.92718596170645" lon="9.240579451972838"><ele>421.99999999999994</ele><time>2026-05-01T08:01:36.999Z</time></trkpt><trkpt lat="44.9272795032639" lon="9.240694313678214"><ele>422.0</ele><time>2026-05-01T08:01:38.999Z</time></trkpt><trkpt lat="44.927328552780835" lon="9.240759638149317"><ele>422.0</ele><time>2026-05-01T08:01:39.999Z</time></trkpt><trkpt lat="44.92739003413565" lon="9.240832528057812"><ele>422.0</ele><time>2026-05-01T08:01:40.999Z</time></trkpt><trkpt lat="44.92745421486614" lon="9.240877300977603"><ele>421.99999999999994</ele><time>2026-05-01T08:01:41.999Z</time></trkpt><trkpt lat="44.927514551098525" lon="9.240940186206133"><ele>422.0</ele><time>2026-05-01T08:01:42.999Z</time></trkpt><trkpt lat="44.927577847249175" lon="9.241004871484133"><ele>419.8</ele><time>2026-05-01T08:01:43.999Z</time></trkpt><trkpt lat="44.9276482419336" lon="9.241063444028294"><ele>417.6</ele><time>2026-05-01T08:01:44.999Z</time></trkpt><trkpt lat="44.92772508915614" lon="9.241117591117533"><ele>415.40000000000003</ele><time>2026-05-01T08:01:45.999Z</time></trkpt><trkpt lat="44.92779730866843" lon="9.241191015707495"><ele>413.20000000000005</ele><time>2026-05-01T08:01:46.999Z</time></trkpt><trkpt lat="44.92788201449724" lon="9.241245203717698"><ele>411.0</ele><time>2026-05-01T08:01:47.999Z</time></trkpt><trkpt lat="44.9279804413301" lon="9.241288098533106"><ele>411.0</ele><time>2026-05-01T08:01:48.999Z</time></trkpt><trkpt lat="44.92807548285789" lon="9.241305422651235"><ele>411.0</ele><time>2026-05-01T08:01:49.999Z</time></trkpt><trkpt lat="44.928175746663996" lon="9.241272021308585"><ele>411.0</ele><time>2026-05-01T08:01:50.999Z</time></trkpt><trkpt lat="44.928261232568765" lon="9.241227031146531"><ele>411.0</ele><time>2026-05-01T08:01:51.999Z</time></trkpt><trkpt lat="44.92834823569841" lon="9.241202384332562"><ele>411.0</ele><time>2026-05-01T08:01:52.999Z</time></trkpt><trkpt lat="44.9284311780184" lon="9.241186247187338"><ele>408.8333333333333</ele><time>2026-05-01T08:01:53.999Z</time></trkpt><trkpt lat="44.92852131780467" lon="9.241175406509207"><ele>406.66666666666663</ele><time>2026-05-01T08:01:54.999Z</time></trkpt><trkpt lat="44.92860654172273" lon="9.241179993864082"><ele>404.5</ele><time>2026-05-01T08:01:55.999Z</time></trkpt><trkpt lat="44.92867563548486" lon="9.241180758134249"><ele>402.3333333333333</ele><time>2026-05-01T08:01:56.999Z</time></trkpt><trkpt lat="44.928742331493574" lon="9.241165676628738"><ele>400.16666666666663</ele><time>2026-05-01T08:01:57.999Z</time></trkpt><trkpt lat="44.928826034714646" lon="9.24112257480635"><ele>398.0</ele><time>2026-05-01T08:01:59.999Z</time></trkpt><trkpt lat="44.928860189719515" lon="9.241016599803702"><ele>397.99999999999994</ele><time>2026-05-01T08:02:01.999Z</time></trkpt><trkpt lat="44.92884722641573" lon="9.240908478835943"><ele>398.0</ele><time>2026-05-01T08:02:02.999Z</time></trkpt><trkpt lat="44.9287738094161" lon="9.24080540606354"><ele>398.0</ele><time>2026-05-01T08:02:03.999Z</time></trkpt><trkpt lat="44.92870484921451" lon="9.240759656374998"><ele>398.0</ele><time>2026-05-01T08:02:04.999Z</time></trkpt><trkpt lat="44.92863117547702" lon="9.24071802082711"><ele>397.99999999999994</ele><time>2026-05-01T08:02:05.999Z</time></trkpt><trkpt lat="44.9285577512575" lon="9.240673730893901"><ele>398.0</ele><time>2026-05-01T08:02:06.999Z</time></trkpt><trkpt lat="44.9284895860288" lon="9.240624355339483"><ele>397.99999999999994</ele><time>2026-05-01T08:02:07.999Z</time></trkpt><trkpt lat="44.928417858977845" lon="9.240568834194114"><ele>398.0</ele><time>2026-05-01T08:02:08.999Z</time></trkpt><trkpt lat="44.92835612804416" lon="9.24051155763796"><ele>398.0</ele><time>2026-05-01T08:02:09.999Z</time></trkpt><trkpt lat="44.9282843381783" lon="9.240436290472847"><ele>398.0</ele><time>2026-05-01T08:02:10.999Z</time></trkpt><trkpt lat="44.928215832413066" lon="9.240351662404072"><ele>397.99999999999994</ele><time>2026-05-01T08:02:11.999Z</time></trkpt><trkpt lat="44.92815058854409" lon="9.24025323701099"><ele>398.0</ele><time>2026-05-01T08:02:12.999Z</time></trkpt><trkpt lat="44.9280943659576" lon="9.240138583281121"><ele>398.0</ele><time>2026-05-01T08:02:13.999Z</time></trkpt><trkpt lat="44.928047648837605" lon="9.240002864668904"><ele>398.0</ele><time>2026-05-01T08:02:14.999Z</time></trkpt><trkpt lat="44.92800969677549" lon="9.239865677681852"><ele>398.0</ele><time>2026-05-01T08:02:15.999Z</time></trkpt><trkpt lat="44.927964452148046" lon="9.23970821552828"><ele>398.0</ele><time>2026-05-01T08:02:16.999Z</time></trkpt><trkpt lat="44.92796000785911" lon="9.239540357379392"><ele>395.79999999999995</ele><time>2026-05-01T08:02:17.999Z</time></trkpt><trkpt lat="44.92794270116093" lon="9.239386241427535"><ele>393.6</ele><time>2026-05-01T08:02:18.999Z</time></trkpt><trkpt lat="44.92793048984987" lon="9.239243227330897"><ele>391.4</ele><time>2026-05-01T08:02:19.999Z</time></trkpt><trkpt lat="44.92792354573245" lon="9.239116668267915"><ele>389.20000000000005</ele><time>2026-05-01T08:02:20.999Z</time></trkpt><trkpt lat="44.92791885443437" lon="9.239003648450156"><ele>387.0</ele><time>2026-05-01T08:02:21.999Z</time></trkpt><trkpt lat="44.927921033735416" lon="9.238896213569781"><ele>386.1666666666667</ele><time>2026-05-01T08:02:22.999Z</time></trkpt><trkpt lat="44.92792256415052" lon="9.238795651518233"><ele>385.3333333333333</ele><time>2026-05-01T08:02:23.999Z</time></trkpt><trkpt lat="44.92792706984207" lon="9.238693962820888"><ele>384.5</ele><time>2026-05-01T08:02:24.999Z</time></trkpt><trkpt lat="44.927935649724205" lon="9.238599884473166"><ele>383.66666666666663</ele><time>2026-05-01T08:02:25.999Z</time></trkpt><trkpt lat="44.92796465977413" lon="9.238440584679214"><ele>382.8333333333333</ele><time>2026-05-01T08:02:27.999Z</time></trkpt><trkpt lat="44.9279905821598" lon="9.238288298574993"><ele>382.0</ele><time>2026-05-01T08:02:29.999Z</time></trkpt><trkpt lat="44.9280296139673" lon="9.23813882803765"><ele>380.6</ele><time>2026-05-01T08:02:31.999Z</time></trkpt><trkpt lat="44.928112687373776" lon="9.238002648908607"><ele>379.20000000000005</ele><time>2026-05-01T08:02:33.999Z</time></trkpt><trkpt lat="44.928171855516936" lon="9.237948878305744"><ele>377.8</ele><time>2026-05-01T08:02:34.999Z</time></trkpt><trkpt lat="44.928244042060925" lon="9.237919384434091"><ele>376.4</ele><time>2026-05-01T08:02:35.999Z</time></trkpt><trkpt lat="44.92831596874996" lon="9.237940869472125"><ele>375.0</ele><time>2026-05-01T08:02:36.999Z</time></trkpt><trkpt lat="44.928428953071815" lon="9.237971535392482"><ele>373.8</ele><time>2026-05-01T08:02:38.998Z</time></trkpt><trkpt lat="44.928511827946195" lon="9.23800319898361"><ele>372.6</ele><time>2026-05-01T08:02:40.998Z</time></trkpt><trkpt lat="44.92862329726941" lon="9.237913527787898"><ele>371.4</ele><time>2026-05-01T08:02:43.998Z</time></trkpt><trkpt lat="44.928723441574014" lon="9.237812909525621"><ele>370.2</ele><time>2026-05-01T08:02:45.998Z</time></trkpt><trkpt lat="44.92877961202527" lon="9.237758412514586"><ele>369.0</ele><time>2026-05-01T08:02:46.998Z</time></trkpt><trkpt lat="44.928840558800815" lon="9.237725292775878"><ele>369.0</ele><time>2026-05-01T08:02:47.998Z</time></trkpt><trkpt lat="44.928935494147375" lon="9.237635393195815"><ele>369.0</ele><time>2026-05-01T08:02:49.998Z</time></trkpt><trkpt lat="44.929022839100966" lon="9.23752570872589"><ele>369.0</ele><time>2026-05-01T08:02:51.998Z</time></trkpt><trkpt lat="44.92910870929314" lon="9.23744250634112"><ele>369.0</ele><time>2026-05-01T08:02:53.998Z</time></trkpt><trkpt lat="44.92919696361166" lon="9.237363889682713"><ele>369.0</ele><time>2026-05-01T08:02:55.998Z</time></trkpt><trkpt lat="44.92927776501527" lon="9.237315708658109"><ele>366.8333333333333</ele><time>2026-05-01T08:02:57.998Z</time></trkpt><trkpt lat="44.929349214695215" lon="9.23726721370861"><ele>364.6666666666667</ele><time>2026-05-01T08:02:59.998Z</time></trkpt><trkpt lat="44.92942661848605" lon="9.237227629980861"><ele>362.5</ele><time>2026-05-01T08:03:01.998Z</time></trkpt><trkpt lat="44.92949588040492" lon="9.237192932367057"><ele>360.33333333333337</ele><time>2026-05-01T08:03:03.998Z</time></trkpt><trkpt lat="44.929559555760214" lon="9.237184235281843"><ele>358.1666666666667</ele><time>2026-05-01T08:03:06.998Z</time></trkpt><trkpt lat="44.92963063627475" lon="9.237180817218421"><ele>356.0</ele><time>2026-05-01T08:03:08.998Z</time></trkpt><trkpt lat="44.92968361366258" lon="9.236958403669083"><ele>356.0</ele><time>2026-05-01T08:03:10.998Z</time></trkpt><trkpt lat="44.929716945110656" lon="9.236873324871954"><ele>356.0</ele><time>2026-05-01T08:03:12.998Z</time></trkpt><trkpt lat="44.929819067498606" lon="9.23680445285332"><ele>356.0</ele><time>2026-05-01T08:03:14.998Z</time></trkpt><trkpt lat="44.92989317620659" lon="9.236721571312968"><ele>356.0</ele><time>2026-05-01T08:03:16.998Z</time></trkpt><trkpt lat="44.9299484470101" lon="9.236668621538653"><ele>356.0</ele><time>2026-05-01T08:03:17.998Z</time></trkpt><trkpt lat="44.930007315890414" lon="9.23661996363998"><ele>356.0</ele><time>2026-05-01T08:03:18.998Z</time></trkpt><trkpt lat="44.93006838733926" lon="9.236580126649201"><ele>353.6666666666667</ele><time>2026-05-01T08:03:19.998Z</time></trkpt><trkpt lat="44.93013404198411" lon="9.236534902933553"><ele>351.33333333333337</ele><time>2026-05-01T08:03:20.998Z</time></trkpt><trkpt lat="44.93020210644381" lon="9.23648015935394"><ele>349.0</ele><time>2026-05-01T08:03:21.998Z</time></trkpt><trkpt lat="44.93026778664292" lon="9.236407154239743"><ele>346.6666666666667</ele><time>2026-05-01T08:03:22.998Z</time></trkpt><trkpt lat="44.930327810356715" lon="9.236313493516246"><ele>344.3333333333333</ele><time>2026-05-01T08:03:23.998Z</time></trkpt><trkpt lat="44.93038064084278" lon="9.23621034877993"><ele>342.0</ele><time>2026-05-01T08:03:24.998Z</time></trkpt><trkpt lat="44.930427562714264" lon="9.236102001730854"><ele>341.8333333333333</ele><time>2026-05-01T08:03:25.998Z</time></trkpt><trkpt lat="44.93046527049649" lon="9.236004655007378"><ele>341.6666666666667</ele><time>2026-05-01T08:03:26.998Z</time></trkpt><trkpt lat="44.930498609986216" lon="9.235915055475504"><ele>341.5</ele><time>2026-05-01T08:03:27.998Z</time></trkpt><trkpt lat="44.930527338244595" lon="9.23583410514628"><ele>341.33333333333337</ele><time>2026-05-01T08:03:28.998Z</time></trkpt><trkpt lat="44.93055850577728" lon="9.235685123327691"><ele>341.1666666666667</ele><time>2026-05-01T08:03:30.998Z</time></trkpt><trkpt lat="44.93054837359638" lon="9.235571845709151"><ele>341.0</ele><time>2026-05-01T08:03:33.998Z</time></trkpt><trkpt lat="44.93051584447038" lon="9.235475375649113"><ele>339.4</ele><time>2026-05-01T08:03:36.998Z</time></trkpt><trkpt lat="44.930480312395815" lon="9.235399219850255"><ele>337.8</ele><time>2026-05-01T08:03:38.998Z</time></trkpt><trkpt lat="44.930601915624436" lon="9.23539788692651"><ele>336.2</ele><time>2026-05-01T08:03:39.998Z</time></trkpt><trkpt lat="44.930626143905776" lon="9.235252481063048"><ele>334.59999999999997</ele><time>2026-05-01T08:03:41.998Z</time></trkpt><trkpt lat="44.93064064635605" lon="9.23511160285722"><ele>333.0</ele><time>2026-05-01T08:03:43.998Z</time></trkpt><trkpt lat="44.93064634534868" lon="9.235018014600996"><ele>333.0</ele><time>2026-05-01T08:03:44.998Z</time></trkpt><trkpt lat="44.930646162142295" lon="9.234875753592"><ele>333.0</ele><time>2026-05-01T08:03:46.998Z</time></trkpt><trkpt lat="44.93066018890195" lon="9.234731129123167"><ele>333.0</ele><time>2026-05-01T08:03:48.998Z</time></trkpt><trkpt lat="44.93069587966624" lon="9.234571677814994"><ele>333.0</ele><time>2026-05-01T08:03:50.998Z</time></trkpt><trkpt lat="44.93070554005117" lon="9.234470537216398"><ele>333.0</ele><time>2026-05-01T08:03:51.998Z</time></trkpt><trkpt lat="44.93074000377563" lon="9.23432625956044"><ele>330.79999999999995</ele><time>2026-05-01T08:03:53.998Z</time></trkpt><trkpt lat="44.9307759252784" lon="9.234180828747496"><ele>328.6</ele><time>2026-05-01T08:03:55.998Z</time></trkpt><trkpt lat="44.93081344941478" lon="9.234046818991272"><ele>326.4</ele><time>2026-05-01T08:03:57.997Z</time></trkpt><trkpt lat="44.93083949224391" lon="9.233922247959047"><ele>324.20000000000005</ele><time>2026-05-01T08:03:59.997Z</time></trkpt><trkpt lat="44.930880820138114" lon="9.233802290398538"><ele>322.0</ele><time>2026-05-01T08:04:01.997Z</time></trkpt><trkpt lat="44.93089583660385" lon="9.233673796214328"><ele>318.3333333333333</ele><time>2026-05-01T08:04:03.997Z</time></trkpt><trkpt lat="44.93090442628432" lon="9.233549740613944"><ele>314.66666666666663</ele><time>2026-05-01T08:04:05.997Z</time></trkpt><trkpt lat="44.93092890845026" lon="9.233432249447029"><ele>311.0</ele><time>2026-05-01T08:04:08.997Z</time></trkpt><trkpt lat="44.93098374526574" lon="9.233358959688335"><ele>307.3333333333333</ele><time>2026-05-01T08:04:10.997Z</time></trkpt><trkpt lat="44.93105516910789" lon="9.23330705119448"><ele>303.6666666666667</ele><time>2026-05-01T08:04:12.997Z</time></trkpt><trkpt lat="44.93111284460582" lon="9.233209073816992"><ele>300.0</ele><time>2026-05-01T08:04:14.997Z</time></trkpt><trkpt lat="44.931191253267215" lon="9.233161688244758"><ele>298.6</ele><time>2026-05-01T08:04:16.997Z</time></trkpt><trkpt lat="44.93127776458222" lon="9.23309324492972"><ele>297.2</ele><time>2026-05-01T08:04:18.997Z</time></trkpt><trkpt lat="44.93137724673335" lon="9.23298290536878"><ele>295.8</ele><time>2026-05-01T08:04:22.997Z</time></trkpt><trkpt lat="44.93147003993636" lon="9.232915077414022"><ele>294.4</ele><time>2026-05-01T08:04:23.997Z</time></trkpt><trkpt lat="44.931539553157165" lon="9.23288567370757"><ele>293.0</ele><time>2026-05-01T08:04:24.997Z</time></trkpt><trkpt lat="44.93160077204033" lon="9.232856928129593"><ele>293.0</ele><time>2026-05-01T08:04:25.997Z</time></trkpt><trkpt lat="44.93165382272504" lon="9.232795622970178"><ele>293.0</ele><time>2026-05-01T08:04:26.997Z</time></trkpt><trkpt lat="44.93175293520304" lon="9.232718743066448"><ele>293.0</ele><time>2026-05-01T08:04:28.997Z</time></trkpt><trkpt lat="44.93182990947627" lon="9.232662199557758"><ele>293.0</ele><time>2026-05-01T08:04:30.997Z</time></trkpt><trkpt lat="44.93189971726978" lon="9.232616208975994"><ele>293.0</ele><time>2026-05-01T08:04:32.997Z</time></trkpt><trkpt lat="44.93197573733312" lon="9.232551850390715"><ele>293.0</ele><time>2026-05-01T08:04:34.997Z</time></trkpt><trkpt lat="44.932068581925655" lon="9.2324971144489"><ele>291.5</ele><time>2026-05-01T08:04:36.997Z</time></trkpt><trkpt lat="44.93214256910082" lon="9.232450588431924"><ele>290.0</ele><time>2026-05-01T08:04:38.997Z</time></trkpt><trkpt lat="44.93219368910068" lon="9.232372851601365"><ele>288.5</ele><time>2026-05-01T08:04:40.997Z</time></trkpt><trkpt lat="44.932226529591915" lon="9.232260478451783"><ele>287.0</ele><time>2026-05-01T08:04:43.997Z</time></trkpt><trkpt lat="44.93223018510906" lon="9.232125617089231"><ele>285.5</ele><time>2026-05-01T08:04:46.997Z</time></trkpt><trkpt lat="44.932230456782065" lon="9.232022155636557"><ele>284.0</ele><time>2026-05-01T08:04:48.997Z</time></trkpt><trkpt lat="44.93220731246851" lon="9.231886237387767"><ele>283.1666666666667</ele><time>2026-05-01T08:04:51.997Z</time></trkpt><trkpt lat="44.932147299896435" lon="9.231793044791447"><ele>282.33333333333337</ele><time>2026-05-01T08:04:54.997Z</time></trkpt><trkpt lat="44.932074552377436" lon="9.231750564685445"><ele>281.5</ele><time>2026-05-01T08:04:57.997Z</time></trkpt><trkpt lat="44.932011366249775" lon="9.231701408205389"><ele>280.6666666666667</ele><time>2026-05-01T08:05:00.997Z</time></trkpt><trkpt lat="44.93194877410952" lon="9.231658150059149"><ele>279.8333333333333</ele><time>2026-05-01T08:05:06.997Z</time></trkpt><trkpt lat="44.93196488301798" lon="9.231551101254432"><ele>279.0</ele><time>2026-05-01T08:05:09.997Z</time></trkpt><trkpt lat="44.93202084125969" lon="9.231509974729105"><ele>278.0</ele><time>2026-05-01T08:05:11.997Z</time></trkpt><trkpt lat="44.93208346921221" lon="9.231461603173221"><ele>277.0</ele><time>2026-05-01T08:05:13.997Z</time></trkpt><trkpt lat="44.93215870328704" lon="9.231405936225357"><ele>276.0</ele><time>2026-05-01T08:05:15.997Z</time></trkpt><trkpt lat="44.932223404700075" lon="9.23134790635607"><ele>275.0</ele><time>2026-05-01T08:05:17.996Z</time></trkpt><trkpt lat="44.93231563103816" lon="9.231317340078826"><ele>274.0</ele><time>2026-05-01T08:05:19.996Z</time></trkpt><trkpt lat="44.93241453286751" lon="9.23131953824246"><ele>273.0</ele><time>2026-05-01T08:05:21.996Z</time></trkpt><trkpt lat="44.93251976909928" lon="9.231307337223612"><ele>272.1666666666667</ele><time>2026-05-01T08:05:23.996Z</time></trkpt><trkpt lat="44.93261186629152" lon="9.231217815062411"><ele>271.3333333333333</ele><time>2026-05-01T08:05:25.996Z</time></trkpt><trkpt lat="44.93266469534297" lon="9.231165048361914"><ele>270.5</ele><time>2026-05-01T08:05:26.996Z</time></trkpt><trkpt lat="44.93274738845396" lon="9.231119714003018"><ele>269.66666666666663</ele><time>2026-05-01T08:05:27.996Z</time></trkpt><trkpt lat="44.93280949518131" lon="9.231057614219125"><ele>268.8333333333333</ele><time>2026-05-01T08:05:28.996Z</time></trkpt><trkpt lat="44.932848244086586" lon="9.230987137256067"><ele>268.0</ele><time>2026-05-01T08:05:29.996Z</time></trkpt><trkpt lat="44.932878315730875" lon="9.230835404004324"><ele>268.0</ele><time>2026-05-01T08:05:31.996Z</time></trkpt><trkpt lat="44.93286931035765" lon="9.230717818004402"><ele>268.0</ele><time>2026-05-01T08:05:33.996Z</time></trkpt><trkpt lat="44.93291988962343" lon="9.230647280237978"><ele>268.0</ele><time>2026-05-01T08:05:36.996Z</time></trkpt><trkpt lat="44.9329992207649" lon="9.230638381793348"><ele>268.0</ele><time>2026-05-01T08:05:39.996Z</time></trkpt><trkpt lat="44.93307928960581" lon="9.230582342354028"><ele>268.0</ele><time>2026-05-01T08:05:41.996Z</time></trkpt><trkpt lat="44.93313257748583" lon="9.230507246873387"><ele>268.0</ele><time>2026-05-01T08:05:43.996Z</time></trkpt><trkpt lat="44.93318150239919" lon="9.230434508364722"><ele>267.8333333333333</ele><time>2026-05-01T08:05:46.996Z</time></trkpt><trkpt lat="44.933233230220665" lon="9.230354628106813"><ele>267.66666666666663</ele><time>2026-05-01T08:05:48.996Z</time></trkpt><trkpt lat="44.93329766648267" lon="9.23026628186484"><ele>267.5</ele><time>2026-05-01T08:05:50.996Z</time></trkpt><trkpt lat="44.93335436691302" lon="9.230193067252094"><ele>267.3333333333333</ele><time>2026-05-01T08:05:52.996Z</time></trkpt><trkpt lat="44.93341934198483" lon="9.230107104258664"><ele>267.1666666666667</ele><time>2026-05-01T08:05:55.996Z</time></trkpt><trkpt lat="44.93348771599121" lon="9.230030115925471"><ele>267.0</ele><time>2026-05-01T08:05:57.996Z</time></trkpt><trkpt lat="44.93357907304318" lon="9.229955577976508"><ele>267.0</ele><time>2026-05-01T08:05:59.996Z</time></trkpt><trkpt lat="44.93366220074885" lon="9.22986948673105"><ele>267.0</ele><time>2026-05-01T08:06:01.996Z</time></trkpt><trkpt lat="44.933744310686386" lon="9.22977687433964"><ele>267.0</ele><time>2026-05-01T08:06:03.996Z</time></trkpt><trkpt lat="44.93381992043196" lon="9.229711921062457"><ele>267.0</ele><time>2026-05-01T08:06:05.996Z</time></trkpt><trkpt lat="44.933868155816604" lon="9.229637111516297"><ele>267.0</ele><time>2026-05-01T08:06:07.996Z</time></trkpt><trkpt lat="44.93393393580767" lon="9.229563685134716"><ele>267.8571428571429</ele><time>2026-05-01T08:06:10.996Z</time></trkpt><trkpt lat="44.933962770202015" lon="9.229469725199685"><ele>268.7142857142857</ele><time>2026-05-01T08:06:15.996Z</time></trkpt><trkpt lat="44.933934293498154" lon="9.229387739933617"><ele>269.57142857142856</ele><time>2026-05-01T08:06:21.996Z</time></trkpt><trkpt lat="44.93388773534618" lon="9.22930558066143"><ele>270.42857142857144</ele><time>2026-05-01T08:06:25.996Z</time></trkpt><trkpt lat="44.933861575564556" lon="9.22921657231433"><ele>271.2857142857143</ele><time>2026-05-01T08:06:28.996Z</time></trkpt><trkpt lat="44.93384698311117" lon="9.229128265677309"><ele>272.14285714285717</ele><time>2026-05-01T08:06:31.996Z</time></trkpt><trkpt lat="44.933873761629336" lon="9.229034353121433"><ele>273.0</ele><time>2026-05-01T08:06:33.996Z</time></trkpt><trkpt lat="44.93389944464259" lon="9.228919534526923"><ele>273.0</ele><time>2026-05-01T08:06:36.996Z</time></trkpt><trkpt lat="44.933954585404905" lon="9.228835158562548"><ele>273.0</ele><time>2026-05-01T08:06:39.995Z</time></trkpt><trkpt lat="44.93400861737865" lon="9.228783893230808"><ele>273.0</ele><time>2026-05-01T08:06:41.995Z</time></trkpt><trkpt lat="44.934087292741395" lon="9.22870517346723"><ele>273.0</ele><time>2026-05-01T08:06:44.995Z</time></trkpt><trkpt lat="44.93416983357222" lon="9.228628926598642"><ele>273.0</ele><time>2026-05-01T08:06:46.995Z</time></trkpt><trkpt lat="44.934222329982" lon="9.228567752234783"><ele>273.0</ele><time>2026-05-01T08:06:48.995Z</time></trkpt><trkpt lat="44.93423341998941" lon="9.228453054463605"><ele>273.0</ele><time>2026-05-01T08:06:51.995Z</time></trkpt><trkpt lat="44.934232778597085" lon="9.22833564295934"><ele>273.0</ele><time>2026-05-01T08:06:54.995Z</time></trkpt><trkpt lat="44.934216144530886" lon="9.228208662879128"><ele>273.0</ele><time>2026-05-01T08:06:57.995Z</time></trkpt><trkpt lat="44.93419160032249" lon="9.22810556391476"><ele>273.0</ele><time>2026-05-01T08:07:00.995Z</time></trkpt><trkpt lat="44.93416207084069" lon="9.228005234040946"><ele>273.0</ele><time>2026-05-01T08:07:03.995Z</time></trkpt><trkpt lat="44.934126700913836" lon="9.227901856002244"><ele>273.0</ele><time>2026-05-01T08:07:07.995Z</time></trkpt><trkpt lat="44.93408983778548" lon="9.227796147068227"><ele>276.3333333333333</ele><time>2026-05-01T08:07:11.995Z</time></trkpt><trkpt lat="44.93406150195421" lon="9.227710863615602"><ele>279.6666666666667</ele><time>2026-05-01T08:07:14.995Z</time></trkpt><trkpt lat="44.93403748148148" lon="9.227614676238344"><ele>283.0</ele><time>2026-05-01T08:07:17.995Z</time></trkpt><trkpt lat="44.934000951913525" lon="9.227509895090364"><ele>286.33333333333337</ele><time>2026-05-01T08:07:20.995Z</time></trkpt><trkpt lat="44.933969988536425" lon="9.227422478703652"><ele>289.6666666666667</ele><time>2026-05-01T08:07:23.995Z</time></trkpt><trkpt lat="44.93392693385028" lon="9.227335325268779"><ele>293.0</ele><time>2026-05-01T08:07:26.995Z</time></trkpt><trkpt lat="44.93388197884876" lon="9.227235802086291"><ele>295.1666666666667</ele><time>2026-05-01T08:07:30.995Z</time></trkpt><trkpt lat="44.9338654077926" lon="9.227120426958566"><ele>297.33333333333337</ele><time>2026-05-01T08:07:34.995Z</time></trkpt><trkpt lat="44.933838313169204" lon="9.227007886828519"><ele>299.5</ele><time>2026-05-01T08:07:38.995Z</time></trkpt><trkpt lat="44.93381410769002" lon="9.226903635478106"><ele>301.6666666666667</ele><time>2026-05-01T08:07:42.995Z</time></trkpt><trkpt lat="44.9337935617954" lon="9.226798024210995"><ele>303.8333333333333</ele><time>2026-05-01T08:07:46.995Z</time></trkpt><trkpt lat="44.93377128155995" lon="9.226696476589073"><ele>306.0</ele><time>2026-05-01T08:07:51.995Z</time></trkpt><trkpt lat="44.93373384627128" lon="9.226620294471825"><ele>306.0</ele><time>2026-05-01T08:08:43.994Z</time></trkpt><trkpt lat="44.93372599147542" lon="9.226531541050235"><ele>306.0</ele><time>2026-05-01T08:09:06.994Z</time></trkpt><trkpt lat="44.93372704932712" lon="9.226433356702506"><ele>306.0</ele><time>2026-05-01T08:09:14.994Z</time></trkpt><trkpt lat="44.933712452441675" lon="9.226341985244417"><ele>306.0</ele><time>2026-05-01T08:09:23.993Z</time></trkpt><trkpt lat="44.933701679852824" lon="9.226253035619221"><ele>306.0</ele><time>2026-05-01T08:09:31.993Z</time></trkpt><trkpt lat="44.93367445362418" lon="9.226169259674755"><ele>306.0</ele><time>2026-05-01T08:09:42.993Z</time></trkpt><trkpt lat="44.93362834922638" lon="9.226103416519557"><ele>306.0</ele><time>2026-05-01T08:09:54.993Z</time></trkpt><trkpt lat="44.9335807113042" lon="9.226025431784906"><ele>308.1666666666667</ele><time>2026-05-01T08:11:21.992Z</time></trkpt><trkpt lat="44.93350997871769" lon="9.22594721543284"><ele>310.3333333333333</ele><time>2026-05-01T08:11:26.992Z</time></trkpt><trkpt lat="44.93344928781261" lon="9.225903520940237"><ele>312.5</ele><time>2026-05-01T08:11:28.992Z</time></trkpt><trkpt lat="44.933372725143386" lon="9.225863507040529"><ele>314.66666666666663</ele><time>2026-05-01T08:11:31.992Z</time></trkpt><trkpt lat="44.93333566033521" lon="9.225778925721018"><ele>316.8333333333333</ele><time>2026-05-01T08:11:35.992Z</time></trkpt><trkpt lat="44.93329663584101" lon="9.225693312386202"><ele>319.0</ele><time>2026-05-01T08:11:40.992Z</time></trkpt><trkpt lat="44.93325250659952" lon="9.225563430216685"><ele>322.42857142857144</ele><time>2026-05-01T08:11:46.992Z</time></trkpt><trkpt lat="44.93319881909693" lon="9.225483246954356"><ele>325.85714285714283</ele><time>2026-05-01T08:11:50.992Z</time></trkpt><trkpt lat="44.933164054946104" lon="9.225395500668416"><ele>329.2857142857143</ele><time>2026-05-01T08:11:53.992Z</time></trkpt><trkpt lat="44.93314015416435" lon="9.225301731163933"><ele>332.7142857142857</ele><time>2026-05-01T08:11:56.992Z</time></trkpt><trkpt lat="44.93312762234821" lon="9.225202734772479"><ele>336.1428571428571</ele><time>2026-05-01T08:11:59.991Z</time></trkpt><trkpt lat="44.9331232151731" lon="9.22510574269614"><ele>339.57142857142856</ele><time>2026-05-01T08:12:02.991Z</time></trkpt><trkpt lat="44.93311040201468" lon="9.225008356861228"><ele>343.0</ele><time>2026-05-01T08:12:05.991Z</time></trkpt><trkpt lat="44.93309509224107" lon="9.22491153952515"><ele>343.0</ele><time>2026-05-01T08:12:08.991Z</time></trkpt><trkpt lat="44.933077693726275" lon="9.224821554594177"><ele>343.0</ele><time>2026-05-01T08:12:11.991Z</time></trkpt><trkpt lat="44.933055990886864" lon="9.224713819830583"><ele>343.0</ele><time>2026-05-01T08:12:15.991Z</time></trkpt><trkpt lat="44.93307795802839" lon="9.224610950126324"><ele>343.0</ele><time>2026-05-01T08:12:19.991Z</time></trkpt><trkpt lat="44.93309582584087" lon="9.22451862459688"><ele>343.0</ele><time>2026-05-01T08:12:23.991Z</time></trkpt><trkpt lat="44.93310798889174" lon="9.224422377434653"><ele>343.0</ele><time>2026-05-01T08:12:29.991Z</time></trkpt><trkpt lat="44.933136158886235" lon="9.224311952229364"><ele>343.0</ele><time>2026-05-01T08:12:34.991Z</time></trkpt><trkpt lat="44.933165080726894" lon="9.224207771050422"><ele>346.42857142857144</ele><time>2026-05-01T08:12:59.991Z</time></trkpt><trkpt lat="44.93316579161951" lon="9.224114945448148"><ele>349.8571428571429</ele><time>2026-05-01T08:13:42.99Z</time></trkpt><trkpt lat="44.933227841537295" lon="9.224089717017122"><ele>353.2857142857143</ele><time>2026-05-01T08:13:53.99Z</time></trkpt><trkpt lat="44.93325671008705" lon="9.223994452949414"><ele>356.7142857142857</ele><time>2026-05-01T08:14:52.989Z</time></trkpt><trkpt lat="44.933264779128" lon="9.223897858081898"><ele>360.14285714285717</ele><time>2026-05-01T08:15:00.989Z</time></trkpt><trkpt lat="44.93327201647564" lon="9.223800588962582"><ele>363.57142857142856</ele><time>2026-05-01T08:15:09.989Z</time></trkpt><trkpt lat="44.9332639261943" lon="9.22370397540854"><ele>367.0</ele><time>2026-05-01T08:15:18.989Z</time></trkpt><trkpt lat="44.93323565131002" lon="9.22359611772863"><ele>370.0</ele><time>2026-05-01T08:15:36.989Z</time></trkpt><trkpt lat="44.93328862068767" lon="9.223540767461216"><ele>373.0</ele><time>2026-05-01T08:15:49.989Z</time></trkpt><trkpt lat="44.93336439930062" lon="9.223539748345265"><ele>376.0</ele><time>2026-05-01T08:15:52.989Z</time></trkpt><trkpt lat="44.93343771388814" lon="9.223535730996325"><ele>379.0</ele><time>2026-05-01T08:15:56.989Z</time></trkpt><trkpt lat="44.93350490800636" lon="9.223592740751247"><ele>382.0</ele><time>2026-05-01T08:16:00.988Z</time></trkpt><trkpt lat="44.9335688508982" lon="9.22364203877226"><ele>385.0</ele><time>2026-05-01T08:16:03.988Z</time></trkpt><trkpt lat="44.933607916793534" lon="9.223719817778539"><ele>388.0</ele><time>2026-05-01T08:16:06.988Z</time></trkpt><trkpt lat="44.93366701463377" lon="9.223774564166636"><ele>388.00000000000006</ele><time>2026-05-01T08:16:09.988Z</time></trkpt><trkpt lat="44.9337357100948" lon="9.223780714318833"><ele>388.0</ele><time>2026-05-01T08:16:12.988Z</time></trkpt><trkpt lat="44.93378855092285" lon="9.223726567467176"><ele>388.0</ele><time>2026-05-01T08:16:15.988Z</time></trkpt><trkpt lat="44.93384234612954" lon="9.22365216049831"><ele>388.0</ele><time>2026-05-01T08:16:18.988Z</time></trkpt><trkpt lat="44.933935156232444" lon="9.223578018197816"><ele>388.00000000000006</ele><time>2026-05-01T08:16:20.988Z</time></trkpt><trkpt lat="44.93402248950434" lon="9.223563917388484"><ele>388.0</ele><time>2026-05-01T08:16:22.988Z</time></trkpt><trkpt lat="44.93408870983315" lon="9.22358354457657"><ele>388.0</ele><time>2026-05-01T08:16:24.988Z</time></trkpt><trkpt lat="44.93415530922" lon="9.223597854708682"><ele>388.0</ele><time>2026-05-01T08:16:27.988Z</time></trkpt><trkpt lat="44.93423053679709" lon="9.223591883792562"><ele>388.0</ele><time>2026-05-01T08:16:30.988Z</time></trkpt><trkpt lat="44.93428747492579" lon="9.22353685623323"><ele>388.0</ele><time>2026-05-01T08:16:34.988Z</time></trkpt><trkpt lat="44.934302872390624" lon="9.223434464762713"><ele>388.0</ele><time>2026-05-01T08:16:38.988Z</time></trkpt><trkpt lat="44.93432157553218" lon="9.223323073723549"><ele>388.0</ele><time>2026-05-01T08:16:42.988Z</time></trkpt><trkpt lat="44.93435419844021" lon="9.223239061989013"><ele>388.0</ele><time>2026-05-01T08:16:46.988Z</time></trkpt><trkpt lat="44.93436310589974" lon="9.22313769377477"><ele>389.4285714285714</ele><time>2026-05-01T08:16:50.988Z</time></trkpt><trkpt lat="44.934382066476736" lon="9.223049949522354"><ele>390.8571428571429</ele><time>2026-05-01T08:16:54.988Z</time></trkpt><trkpt lat="44.93438411895192" lon="9.22296052844896"><ele>392.2857142857143</ele><time>2026-05-01T08:16:57.988Z</time></trkpt><trkpt lat="44.934391779723136" lon="9.222865033450912"><ele>393.71428571428567</ele><time>2026-05-01T08:17:01.988Z</time></trkpt><trkpt lat="44.93439557790172" lon="9.222759065383341"><ele>395.1428571428571</ele><time>2026-05-01T08:17:05.988Z</time></trkpt><trkpt lat="44.934408718586646" lon="9.222653436741034"><ele>396.57142857142856</ele><time>2026-05-01T08:17:09.988Z</time></trkpt><trkpt lat="44.934433792580734" lon="9.222555859847873"><ele>398.0</ele><time>2026-05-01T08:17:13.988Z</time></trkpt><trkpt lat="44.9344693816067" lon="9.222449175610123"><ele>397.99999999999994</ele><time>2026-05-01T08:17:17.987Z</time></trkpt><trkpt lat="44.93448593418655" lon="9.222361600313837"><ele>398.0</ele><time>2026-05-01T08:17:22.987Z</time></trkpt><trkpt lat="44.93450146354138" lon="9.222269855843551"><ele>398.0</ele><time>2026-05-01T08:17:26.987Z</time></trkpt><trkpt lat="44.93452758733816" lon="9.222161446237974"><ele>398.0</ele><time>2026-05-01T08:17:31.987Z</time></trkpt><trkpt lat="44.93453364495949" lon="9.222071956430884"><ele>398.0</ele><time>2026-05-01T08:17:34.987Z</time></trkpt><trkpt lat="44.934549147498956" lon="9.221943067496174"><ele>397.99999999999994</ele><time>2026-05-01T08:17:37.987Z</time></trkpt><trkpt lat="44.934576747439614" lon="9.221837092067325"><ele>398.0</ele><time>2026-05-01T08:17:39.987Z</time></trkpt><trkpt lat="44.93461538457434" lon="9.221714475922973"><ele>399.99999999999994</ele><time>2026-05-01T08:17:41.987Z</time></trkpt><trkpt lat="44.934677551579036" lon="9.221648500037194"><ele>402.0</ele><time>2026-05-01T08:17:43.987Z</time></trkpt><trkpt lat="44.93474121195018" lon="9.2216209753518"><ele>404.0</ele><time>2026-05-01T08:17:45.987Z</time></trkpt><trkpt lat="44.934810266738204" lon="9.221611093460448"><ele>406.0</ele><time>2026-05-01T08:17:48.987Z</time></trkpt><trkpt lat="44.93488584607269" lon="9.221631463332509"><ele>407.99999999999994</ele><time>2026-05-01T08:17:50.987Z</time></trkpt><trkpt lat="44.934954312447104" lon="9.221665038382813"><ele>410.0</ele><time>2026-05-01T08:17:52.987Z</time></trkpt><trkpt lat="44.935045031768375" lon="9.221679330518574"><ele>408.7142857142857</ele><time>2026-05-01T08:17:55.987Z</time></trkpt><trkpt lat="44.93513285876744" lon="9.22170547136285"><ele>407.4285714285714</ele><time>2026-05-01T08:17:58.987Z</time></trkpt><trkpt lat="44.93519778648238" lon="9.221704006828961"><ele>406.1428571428571</ele><time>2026-05-01T08:18:01.987Z</time></trkpt><trkpt lat="44.935248517110914" lon="9.221644074089097"><ele>404.8571428571429</ele><time>2026-05-01T08:18:04.987Z</time></trkpt><trkpt lat="44.93525213989373" lon="9.221543106281624"><ele>403.57142857142856</ele><time>2026-05-01T08:18:08.987Z</time></trkpt><trkpt lat="44.93526189588568" lon="9.22145137510743"><ele>402.2857142857143</ele><time>2026-05-01T08:18:11.987Z</time></trkpt><trkpt lat="44.93524481567538" lon="9.221364947980542"><ele>401.0</ele><time>2026-05-01T08:18:13.987Z</time></trkpt><trkpt lat="44.935217760433765" lon="9.221243162374346"><ele>400.99999999999994</ele><time>2026-05-01T08:18:16.987Z</time></trkpt><trkpt lat="44.93520651577309" lon="9.221114197479151"><ele>401.0</ele><time>2026-05-01T08:18:19.987Z</time></trkpt><trkpt lat="44.93518439188342" lon="9.2209951863907"><ele>401.0</ele><time>2026-05-01T08:18:22.987Z</time></trkpt><trkpt lat="44.93516869176122" lon="9.22089132080636"><ele>401.0</ele><time>2026-05-01T08:18:25.987Z</time></trkpt><trkpt lat="44.935159176802365" lon="9.220791121570318"><ele>400.99999999999994</ele><time>2026-05-01T08:18:28.987Z</time></trkpt><trkpt lat="44.93514975841208" lon="9.220680664289839"><ele>401.0</ele><time>2026-05-01T08:18:32.987Z</time></trkpt><trkpt lat="44.9351257613438" lon="9.220585387145007"><ele>401.99999999999994</ele><time>2026-05-01T08:18:35.987Z</time></trkpt><trkpt lat="44.93508250944513" lon="9.220490976456748"><ele>403.0</ele><time>2026-05-01T08:18:39.986Z</time></trkpt><trkpt lat="44.93503277026319" lon="9.220433904534584"><ele>404.0</ele><time>2026-05-01T08:18:42.986Z</time></trkpt><trkpt lat="44.93499783927864" lon="9.22033549390298"><ele>405.0</ele><time>2026-05-01T08:18:47.986Z</time></trkpt><trkpt lat="44.934949069074335" lon="9.220225822915276"><ele>405.99999999999994</ele><time>2026-05-01T08:18:50.986Z</time></trkpt><trkpt lat="44.93495794482036" lon="9.22010187716411"><ele>407.0</ele><time>2026-05-01T08:18:53.986Z</time></trkpt><trkpt lat="44.9349731823228" lon="9.220010854415262"><ele>410.99999999999994</ele><time>2026-05-01T08:18:55.986Z</time></trkpt><trkpt lat="44.93499698926255" lon="9.219890968336617"><ele>415.0</ele><time>2026-05-01T08:18:58.986Z</time></trkpt><trkpt lat="44.93500215159615" lon="9.219782796453668"><ele>419.0</ele><time>2026-05-01T08:19:01.986Z</time></trkpt><trkpt lat="44.934996186264826" lon="9.21967780382992"><ele>423.0</ele><time>2026-05-01T08:19:04.986Z</time></trkpt><trkpt lat="44.934968614435505" lon="9.21958993610062"><ele>426.99999999999994</ele><time>2026-05-01T08:19:07.986Z</time></trkpt><trkpt lat="44.93491960768279" lon="9.219515967199525"><ele>431.0</ele><time>2026-05-01T08:19:10.986Z</time></trkpt><trkpt lat="44.93486843288006" lon="9.219443664690571"><ele>430.99999999999994</ele><time>2026-05-01T08:19:13.986Z</time></trkpt><trkpt lat="44.93478566991422" lon="9.219384978746717"><ele>431.0</ele><time>2026-05-01T08:19:17.986Z</time></trkpt><trkpt lat="44.934702500312014" lon="9.219359666752908"><ele>431.0</ele><time>2026-05-01T08:19:20.986Z</time></trkpt><trkpt lat="44.93464000444693" lon="9.219344462575894"><ele>431.0</ele><time>2026-05-01T08:19:22.986Z</time></trkpt><trkpt lat="44.934560582232656" lon="9.21929261952185"><ele>430.99999999999994</ele><time>2026-05-01T08:19:25.986Z</time></trkpt><trkpt lat="44.93449636570816" lon="9.219218116020533"><ele>431.0</ele><time>2026-05-01T08:19:28.986Z</time></trkpt><trkpt lat="44.934448461841164" lon="9.219146711956865"><ele>430.99999999999994</ele><time>2026-05-01T08:19:30.986Z</time></trkpt><trkpt lat="44.9343772382192" lon="9.219062549084972"><ele>431.0</ele><time>2026-05-01T08:19:33.986Z</time></trkpt><trkpt lat="44.93430278160635" lon="9.218986795002383"><ele>431.0</ele><time>2026-05-01T08:19:36.986Z</time></trkpt><trkpt lat="44.93424256293258" lon="9.218908221916648"><ele>431.0</ele><time>2026-05-01T08:19:39.986Z</time></trkpt><trkpt lat="44.93418851562816" lon="9.218833049587015"><ele>430.99999999999994</ele><time>2026-05-01T08:19:42.986Z</time></trkpt><trkpt lat="44.93412916034715" lon="9.218759544871359"><ele>431.0</ele><time>2026-05-01T08:19:45.986Z</time></trkpt><trkpt lat="44.934069779451214" lon="9.218673378260574"><ele>434.66666666666663</ele><time>2026-05-01T08:19:49.986Z</time></trkpt><trkpt lat="44.93400871429432" lon="9.218604156464103"><ele>438.3333333333333</ele><time>2026-05-01T08:19:53.986Z</time></trkpt><trkpt lat="44.933946553706136" lon="9.218551966214465"><ele>442.0</ele><time>2026-05-01T08:19:57.985Z</time></trkpt><trkpt lat="44.933879612812945" lon="9.218547358109543"><ele>445.66666666666663</ele><time>2026-05-01T08:20:01.985Z</time></trkpt><trkpt lat="44.93380144126688" lon="9.218551183779393"><ele>449.3333333333333</ele><time>2026-05-01T08:20:05.985Z</time></trkpt><trkpt lat="44.93371633001425" lon="9.218548553247317"><ele>453.0</ele><time>2026-05-01T08:20:09.985Z</time></trkpt><trkpt lat="44.933646963560484" lon="9.218529723037737"><ele>453.0</ele><time>2026-05-01T08:20:12.997Z</time></trkpt><trkpt lat="44.93356478274916" lon="9.218504980322798"><ele>453.0</ele><time>2026-05-01T08:20:16.997Z</time></trkpt><trkpt lat="44.93350234762128" lon="9.218486367478155"><ele>453.0</ele><time>2026-05-01T08:20:19.996Z</time></trkpt><trkpt lat="44.933434929375785" lon="9.21846132640538"><ele>453.0</ele><time>2026-05-01T08:20:23.996Z</time></trkpt><trkpt lat="44.933354117852595" lon="9.21843994695537"><ele>453.0</ele><time>2026-05-01T08:20:27.996Z</time></trkpt><trkpt lat="44.933290896408764" lon="9.218390346923275"><ele>453.0</ele><time>2026-05-01T08:20:31.996Z</time></trkpt><trkpt lat="44.933247811909574" lon="9.218289748703718"><ele>454.71428571428567</ele><time>2026-05-01T08:20:35.996Z</time></trkpt><trkpt lat="44.93326531606728" lon="9.218202449218218"><ele>456.42857142857144</ele><time>2026-05-01T08:20:38.996Z</time></trkpt><trkpt lat="44.93328101809826" lon="9.218100699559868"><ele>458.1428571428571</ele><time>2026-05-01T08:20:42.996Z</time></trkpt><trkpt lat="44.93329128065385" lon="9.218007750915257"><ele>459.85714285714283</ele><time>2026-05-01T08:20:46.996Z</time></trkpt><trkpt lat="44.93332836016804" lon="9.21792130226601"><ele>461.57142857142856</ele><time>2026-05-01T08:20:49.996Z</time></trkpt><trkpt lat="44.9333621759584" lon="9.21783375846064"><ele>463.2857142857143</ele><time>2026-05-01T08:20:52.996Z</time></trkpt><trkpt lat="44.93340313500691" lon="9.21772464606775"><ele>465.0</ele><time>2026-05-01T08:20:55.996Z</time></trkpt><trkpt lat="44.93343980514531" lon="9.217623212946155"><ele>465.0</ele><time>2026-05-01T08:20:58.996Z</time></trkpt><trkpt lat="44.93349070452032" lon="9.21756697929603"><ele>465.0</ele><time>2026-05-01T08:21:01.997Z</time></trkpt><trkpt lat="44.93356252496279" lon="9.217522332603407"><ele>465.0</ele><time>2026-05-01T08:21:04.996Z</time></trkpt><trkpt lat="44.933644722788976" lon="9.217482664490076"><ele>465.0</ele><time>2026-05-01T08:21:07.996Z</time></trkpt><trkpt lat="44.93372762546478" lon="9.21745418354774"><ele>465.0</ele><time>2026-05-01T08:21:10.997Z</time></trkpt><trkpt lat="44.93378890633502" lon="9.217427872465695"><ele>465.0</ele><time>2026-05-01T08:21:12.996Z</time></trkpt><trkpt lat="44.93386680712255" lon="9.217393432984808"><ele>465.0</ele><time>2026-05-01T08:21:15.996Z</time></trkpt><trkpt lat="44.933925518626786" lon="9.217360811332226"><ele>465.0</ele><time>2026-05-01T08:21:17.996Z</time></trkpt><trkpt lat="44.934002675642574" lon="9.217340673724463"><ele>465.0</ele><time>2026-05-01T08:21:19.996Z</time></trkpt><trkpt lat="44.934076438352044" lon="9.217307375278644"><ele>465.0</ele><time>2026-05-01T08:21:22.996Z</time></trkpt><trkpt lat="44.93413836428964" lon="9.217270160771028"><ele>465.0</ele><time>2026-05-01T08:21:24.996Z</time></trkpt><trkpt lat="44.93423577806166" lon="9.217255820726528"><ele>465.0</ele><time>2026-05-01T08:21:27.996Z</time></trkpt><trkpt lat="44.93431674810452" lon="9.21724161015477"><ele>464.4</ele><time>2026-05-01T08:21:29.996Z</time></trkpt><trkpt lat="44.9344248345189" lon="9.21721412547319"><ele>463.8</ele><time>2026-05-01T08:21:31.996Z</time></trkpt><trkpt lat="44.93450831914434" lon="9.217166718418737"><ele>463.20000000000005</ele><time>2026-05-01T08:21:33.996Z</time></trkpt><trkpt lat="44.934602339008755" lon="9.217106598691233"><ele>462.6</ele><time>2026-05-01T08:21:35.996Z</time></trkpt><trkpt lat="44.93471126043529" lon="9.21702096199275"><ele>462.0</ele><time>2026-05-01T08:21:37.996Z</time></trkpt><trkpt lat="44.93476687832635" lon="9.21696746163232"><ele>462.0</ele><time>2026-05-01T08:21:38.996Z</time></trkpt><trkpt lat="44.93485847505569" lon="9.216883236497821"><ele>462.0</ele><time>2026-05-01T08:21:40.996Z</time></trkpt><trkpt lat="44.93493118038529" lon="9.21683561840941"><ele>462.0</ele><time>2026-05-01T08:21:42.996Z</time></trkpt><trkpt lat="44.935003205019726" lon="9.216792029457068"><ele>462.0</ele><time>2026-05-01T08:21:44.996Z</time></trkpt><trkpt lat="44.93506940664474" lon="9.216748904759132"><ele>462.0</ele><time>2026-05-01T08:21:46.996Z</time></trkpt><trkpt lat="44.93513196062842" lon="9.21667507878721"><ele>462.0</ele><time>2026-05-01T08:21:48.996Z</time></trkpt><trkpt lat="44.93518510119618" lon="9.216602798836155"><ele>462.5</ele><time>2026-05-01T08:21:50.996Z</time></trkpt><trkpt lat="44.93525063753348" lon="9.216537633206123"><ele>463.0</ele><time>2026-05-01T08:21:52.996Z</time></trkpt><trkpt lat="44.93531903077611" lon="9.216450734676327"><ele>463.5</ele><time>2026-05-01T08:21:54.996Z</time></trkpt><trkpt lat="44.93535251452416" lon="9.216340658093888"><ele>464.0</ele><time>2026-05-01T08:21:56.996Z</time></trkpt><trkpt lat="44.93538670840571" lon="9.216235805715403"><ele>464.5</ele><time>2026-05-01T08:21:58.996Z</time></trkpt><trkpt lat="44.93541880557999" lon="9.216145406772329"><ele>465.0</ele><time>2026-05-01T08:22:00.996Z</time></trkpt><trkpt lat="44.935463968604545" lon="9.216077183920884"><ele>463.8</ele><time>2026-05-01T08:22:02.996Z</time></trkpt><trkpt lat="44.93553963064922" lon="9.216044456529055"><ele>462.6</ele><time>2026-05-01T08:22:04.995Z</time></trkpt><trkpt lat="44.93561795074549" lon="9.216053026117908"><ele>461.4</ele><time>2026-05-01T08:22:07.995Z</time></trkpt><trkpt lat="44.935797091408986" lon="9.21605479722082"><ele>460.2</ele><time>2026-05-01T08:22:12.995Z</time></trkpt><trkpt lat="44.9358594172121" lon="9.21603299997724"><ele>459.0</ele><time>2026-05-01T08:22:13.995Z</time></trkpt><trkpt lat="44.935970000089334" lon="9.215966834668317"><ele>458.6</ele><time>2026-05-01T08:22:15.995Z</time></trkpt><trkpt lat="44.93605871400867" lon="9.215868478769076"><ele>458.2</ele><time>2026-05-01T08:22:17.995Z</time></trkpt><trkpt lat="44.93615624599032" lon="9.215782557330547"><ele>457.80000000000007</ele><time>2026-05-01T08:22:19.995Z</time></trkpt><trkpt lat="44.93623856525491" lon="9.215676850581902"><ele>457.40000000000003</ele><time>2026-05-01T08:22:21.995Z</time></trkpt><trkpt lat="44.93627443603041" lon="9.215541978886243"><ele>457.0</ele><time>2026-05-01T08:22:23.995Z</time></trkpt><trkpt lat="44.93629896296787" lon="9.215458320604625"><ele>457.00000000000006</ele><time>2026-05-01T08:22:25.995Z</time></trkpt><trkpt lat="44.93635096566602" lon="9.215388797995189"><ele>457.0</ele><time>2026-05-01T08:22:29.995Z</time></trkpt><trkpt lat="44.936407374608855" lon="9.215272564098191"><ele>457.0</ele><time>2026-05-01T08:22:32.995Z</time></trkpt><trkpt lat="44.93645809282254" lon="9.215196417668903"><ele>457.0</ele><time>2026-05-01T08:22:34.995Z</time></trkpt><trkpt lat="44.936497076689875" lon="9.215125282213966"><ele>457.00000000000006</ele><time>2026-05-01T08:22:36.995Z</time></trkpt><trkpt lat="44.936527879445734" lon="9.215043817810335"><ele>457.0</ele><time>2026-05-01T08:22:38.995Z</time></trkpt><trkpt lat="44.936576858804024" lon="9.214954212682311"><ele>457.00000000000006</ele><time>2026-05-01T08:22:40.995Z</time></trkpt><trkpt lat="44.93663776042917" lon="9.214823158252386"><ele>457.0</ele><time>2026-05-01T08:22:42.995Z</time></trkpt><trkpt lat="44.936678593744105" lon="9.214754197968677"><ele>457.0</ele><time>2026-05-01T08:22:43.995Z</time></trkpt><trkpt lat="44.9367238300885" lon="9.214689762173045"><ele>457.0</ele><time>2026-05-01T08:22:44.995Z</time></trkpt><trkpt lat="44.93677774793521" lon="9.214628768156686"><ele>457.00000000000006</ele><time>2026-05-01T08:22:45.995Z</time></trkpt><trkpt lat="44.936834408422044" lon="9.214568784336056"><ele>457.0</ele><time>2026-05-01T08:22:46.995Z</time></trkpt><trkpt lat="44.93690006446514" lon="9.21450686552266"><ele>456.6666666666667</ele><time>2026-05-01T08:22:47.995Z</time></trkpt><trkpt lat="44.93696435647422" lon="9.214461248211567"><ele>456.33333333333337</ele><time>2026-05-01T08:22:48.995Z</time></trkpt><trkpt lat="44.93701820966722" lon="9.214414701589693"><ele>456.0</ele><time>2026-05-01T08:22:49.995Z</time></trkpt><trkpt lat="44.937066647272715" lon="9.214352396972815"><ele>455.66666666666663</ele><time>2026-05-01T08:22:50.995Z</time></trkpt><trkpt lat="44.937117654487494" lon="9.214299870899454"><ele>455.3333333333333</ele><time>2026-05-01T08:22:51.995Z</time></trkpt><trkpt lat="44.937214029359275" lon="9.21422920381213"><ele>455.0</ele><time>2026-05-01T08:22:53.995Z</time></trkpt><trkpt lat="44.937286356685526" lon="9.214178070007256"><ele>454.99999999999994</ele><time>2026-05-01T08:22:55.995Z</time></trkpt><trkpt lat="44.93735636092518" lon="9.21412423832538"><ele>455.0</ele><time>2026-05-01T08:22:57.995Z</time></trkpt><trkpt lat="44.93744085395524" lon="9.214071324059876"><ele>455.0</ele><time>2026-05-01T08:22:59.995Z</time></trkpt><trkpt lat="44.93751688072329" lon="9.214028886446435"><ele>455.0</ele><time>2026-05-01T08:23:01.995Z</time></trkpt><trkpt lat="44.9375905464171" lon="9.213945601263815"><ele>454.99999999999994</ele><time>2026-05-01T08:23:03.995Z</time></trkpt><trkpt lat="44.93766324019227" lon="9.213855644585053"><ele>455.0</ele><time>2026-05-01T08:23:05.996Z</time></trkpt><trkpt lat="44.937735348398206" lon="9.21375669051169"><ele>455.2</ele><time>2026-05-01T08:23:07.995Z</time></trkpt><trkpt lat="44.937788141034815" lon="9.213680260129157"><ele>455.4</ele><time>2026-05-01T08:23:09.995Z</time></trkpt><trkpt lat="44.93785091409986" lon="9.21360049420549"><ele>455.6</ele><time>2026-05-01T08:23:11.995Z</time></trkpt><trkpt lat="44.937919365016754" lon="9.213547801883921"><ele>455.8</ele><time>2026-05-01T08:23:13.995Z</time></trkpt><trkpt lat="44.93798206847367" lon="9.213492029430721"><ele>456.0</ele><time>2026-05-01T08:23:15.996Z</time></trkpt><trkpt lat="44.93812131263023" lon="9.21347107312515"><ele>456.0</ele><time>2026-05-01T08:23:19.995Z</time></trkpt><trkpt lat="44.938185448652504" lon="9.213410506337853"><ele>456.0</ele><time>2026-05-01T08:23:21.995Z</time></trkpt><trkpt lat="44.9382340351309" lon="9.213319249805654"><ele>456.0</ele><time>2026-05-01T08:23:23.995Z</time></trkpt><trkpt lat="44.938269407717" lon="9.21323046876928"><ele>456.0</ele><time>2026-05-01T08:23:25.995Z</time></trkpt><trkpt lat="44.938326982508656" lon="9.213151924602352"><ele>456.0</ele><time>2026-05-01T08:23:28.995Z</time></trkpt><trkpt lat="44.93839213814647" lon="9.213097750097427"><ele>456.0</ele><time>2026-05-01T08:23:30.995Z</time></trkpt><trkpt lat="44.93844690476834" lon="9.213032502806117"><ele>457.1666666666667</ele><time>2026-05-01T08:23:33.995Z</time></trkpt><trkpt lat="44.938524835464456" lon="9.212979145095463"><ele>458.33333333333337</ele><time>2026-05-01T08:23:36.995Z</time></trkpt><trkpt lat="44.93858814923715" lon="9.212917062572158"><ele>459.5</ele><time>2026-05-01T08:23:39.995Z</time></trkpt><trkpt lat="44.938659165272945" lon="9.212840257512276"><ele>460.6666666666667</ele><time>2026-05-01T08:23:42.995Z</time></trkpt><trkpt lat="44.93872493280503" lon="9.21282090066675"><ele>461.83333333333337</ele><time>2026-05-01T08:23:44.995Z</time></trkpt><trkpt lat="44.93884026738456" lon="9.212825297393389"><ele>463.0</ele><time>2026-05-01T08:23:47.995Z</time></trkpt><trkpt lat="44.93890828556389" lon="9.212828013103339"><ele>463.00000000000006</ele><time>2026-05-01T08:23:49.995Z</time></trkpt><trkpt lat="44.93901685695976" lon="9.212814460255155"><ele>463.0</ele><time>2026-05-01T08:23:52.995Z</time></trkpt><trkpt lat="44.93910398283033" lon="9.212807563802393"><ele>463.0</ele><time>2026-05-01T08:23:55.995Z</time></trkpt><trkpt lat="44.93917256149638" lon="9.212786374122645"><ele>463.0</ele><time>2026-05-01T08:23:57.995Z</time></trkpt><trkpt lat="44.93922537444855" lon="9.212737725713907"><ele>463.00000000000006</ele><time>2026-05-01T08:24:00.995Z</time></trkpt><trkpt lat="44.93931109849244" lon="9.212705521570317"><ele>463.0</ele><time>2026-05-01T08:24:04.995Z</time></trkpt><trkpt lat="44.93937307979088" lon="9.212663095894156"><ele>462.83333333333337</ele><time>2026-05-01T08:24:06.995Z</time></trkpt><trkpt lat="44.939472967399446" lon="9.212622324104856"><ele>462.6666666666667</ele><time>2026-05-01T08:24:08.995Z</time></trkpt><trkpt lat="44.939535697015735" lon="9.212592185208198"><ele>462.5</ele><time>2026-05-01T08:24:09.995Z</time></trkpt><trkpt lat="44.93959529927758" lon="9.212559008586835"><ele>462.33333333333337</ele><time>2026-05-01T08:24:10.995Z</time></trkpt><trkpt lat="44.939693234452726" lon="9.212501862665496"><ele>462.1666666666667</ele><time>2026-05-01T08:24:12.995Z</time></trkpt><trkpt lat="44.93977707552734" lon="9.21244751905079"><ele>462.0</ele><time>2026-05-01T08:24:14.995Z</time></trkpt><trkpt lat="44.93985570648886" lon="9.212378231723738"><ele>461.8333333333333</ele><time>2026-05-01T08:24:16.995Z</time></trkpt><trkpt lat="44.93990939804942" lon="9.212299382990594"><ele>461.66666666666663</ele><time>2026-05-01T08:24:22.994Z</time></trkpt><trkpt lat="44.93994955785199" lon="9.212201967587145"><ele>461.5</ele><time>2026-05-01T08:24:26.994Z</time></trkpt><trkpt lat="44.939962514713486" lon="9.212089021252849"><ele>461.3333333333333</ele><time>2026-05-01T08:24:28.994Z</time></trkpt><trkpt lat="44.94000836629629" lon="9.21196342263528"><ele>461.16666666666663</ele><time>2026-05-01T08:24:30.994Z</time></trkpt><trkpt lat="44.94004760293861" lon="9.211825643770677"><ele>461.0</ele><time>2026-05-01T08:24:32.994Z</time></trkpt><trkpt lat="44.94008668659961" lon="9.211689394859105"><ele>459.66666666666663</ele><time>2026-05-01T08:24:34.994Z</time></trkpt><trkpt lat="44.94009092721893" lon="9.211589305081487"><ele>458.3333333333333</ele><time>2026-05-01T08:24:36.994Z</time></trkpt><trkpt lat="44.94010195937136" lon="9.211469496157097"><ele>457.0</ele><time>2026-05-01T08:24:39.994Z</time></trkpt><trkpt lat="44.94009087849283" lon="9.211350927644268"><ele>455.66666666666663</ele><time>2026-05-01T08:24:42.994Z</time></trkpt><trkpt lat="44.940073533948585" lon="9.211226670044141"><ele>454.3333333333333</ele><time>2026-05-01T08:24:45.994Z</time></trkpt><trkpt lat="44.940048075030404" lon="9.211138381230102"><ele>453.0</ele><time>2026-05-01T08:24:47.994Z</time></trkpt><trkpt lat="44.93999974091675" lon="9.211028290910473"><ele>453.0</ele><time>2026-05-01T08:24:49.994Z</time></trkpt><trkpt lat="44.93995260090885" lon="9.210873864644569"><ele>452.99999999999994</ele><time>2026-05-01T08:24:51.994Z</time></trkpt><trkpt lat="44.939922306292445" lon="9.210744934452537"><ele>452.99999999999994</ele><time>2026-05-01T08:24:53.994Z</time></trkpt><trkpt lat="44.939881436802985" lon="9.210644995338699"><ele>453.0</ele><time>2026-05-01T08:24:56.994Z</time></trkpt><trkpt lat="44.939826348726555" lon="9.210578496248532"><ele>453.0</ele><time>2026-05-01T08:24:59.994Z</time></trkpt><trkpt lat="44.93974990029983" lon="9.210501792676661"><ele>450.8333333333333</ele><time>2026-05-01T08:25:02.994Z</time></trkpt><trkpt lat="44.93967855159915" lon="9.210414832012608"><ele>448.66666666666663</ele><time>2026-05-01T08:25:05.994Z</time></trkpt><trkpt lat="44.93962508716231" lon="9.210323268649779"><ele>446.5</ele><time>2026-05-01T08:25:08.994Z</time></trkpt><trkpt lat="44.93959645967424" lon="9.21023957241352"><ele>444.3333333333333</ele><time>2026-05-01T08:25:11.995Z</time></trkpt><trkpt lat="44.939566183497504" lon="9.210134686344185"><ele>442.16666666666663</ele><time>2026-05-01T08:25:14.995Z</time></trkpt><trkpt lat="44.93953494624471" lon="9.210035378089241"><ele>440.0</ele><time>2026-05-01T08:25:17.995Z</time></trkpt><trkpt lat="44.939514156472775" lon="9.20994682499073"><ele>439.99999999999994</ele><time>2026-05-01T08:25:28.995Z</time></trkpt><trkpt lat="44.93947116684642" lon="9.209847080073862"><ele>440.0</ele><time>2026-05-01T08:25:36.995Z</time></trkpt><trkpt lat="44.93943851728193" lon="9.209733267734302"><ele>440.0</ele><time>2026-05-01T08:25:39.995Z</time></trkpt><trkpt lat="44.93941169106524" lon="9.209633075880317"><ele>440.0</ele><time>2026-05-01T08:25:42.995Z</time></trkpt><trkpt lat="44.93938366071832" lon="9.209547834570825"><ele>439.99999999999994</ele><time>2026-05-01T08:25:44.995Z</time></trkpt><trkpt lat="44.93935720549291" lon="9.209438013954477"><ele>440.0</ele><time>2026-05-01T08:25:47.995Z</time></trkpt><trkpt lat="44.93932673906603" lon="9.209329063633891"><ele>436.8333333333333</ele><time>2026-05-01T08:25:50.994Z</time></trkpt><trkpt lat="44.939295930947786" lon="9.209213964291653"><ele>433.66666666666663</ele><time>2026-05-01T08:25:53.994Z</time></trkpt><trkpt lat="44.939260362369694" lon="9.209104202320963"><ele>430.5</ele><time>2026-05-01T08:25:56.994Z</time></trkpt><trkpt lat="44.93922903783183" lon="9.209025797625355"><ele>427.33333333333337</ele><time>2026-05-01T08:25:58.994Z</time></trkpt><trkpt lat="44.939204861399375" lon="9.208940649858498"><ele>424.1666666666667</ele><time>2026-05-01T08:26:00.994Z</time></trkpt><trkpt lat="44.93916916045161" lon="9.208844326789814"><ele>421.0</ele><time>2026-05-01T08:26:02.994Z</time></trkpt><trkpt lat="44.93913541958635" lon="9.208754118446562"><ele>417.14285714285717</ele><time>2026-05-01T08:26:04.994Z</time></trkpt><trkpt lat="44.93909878754998" lon="9.208636888115777"><ele>413.2857142857143</ele><time>2026-05-01T08:26:07.994Z</time></trkpt><trkpt lat="44.93906643024763" lon="9.208553833738481"><ele>409.42857142857144</ele><time>2026-05-01T08:26:09.994Z</time></trkpt><trkpt lat="44.93903260778675" lon="9.208472902248833"><ele>405.57142857142856</ele><time>2026-05-01T08:26:11.994Z</time></trkpt><trkpt lat="44.93898279883856" lon="9.20839088686659"><ele>401.7142857142857</ele><time>2026-05-01T08:26:14.994Z</time></trkpt><trkpt lat="44.938943103399865" lon="9.208311695126682"><ele>397.8571428571429</ele><time>2026-05-01T08:26:23.994Z</time></trkpt><trkpt lat="44.93889808480562" lon="9.208246987884822"><ele>394.0</ele><time>2026-05-01T08:26:26.994Z</time></trkpt><trkpt lat="44.93885331040553" lon="9.20814218137931"><ele>391.57142857142856</ele><time>2026-05-01T08:26:29.994Z</time></trkpt><trkpt lat="44.93881622872247" lon="9.208062635294718"><ele>389.14285714285717</ele><time>2026-05-01T08:26:31.994Z</time></trkpt><trkpt lat="44.9387708394761" lon="9.207991659836338"><ele>386.71428571428567</ele><time>2026-05-01T08:26:34.994Z</time></trkpt><trkpt lat="44.93871633316181" lon="9.207918712308132"><ele>384.2857142857143</ele><time>2026-05-01T08:26:39.994Z</time></trkpt><trkpt lat="44.938663223558315" lon="9.207829395356285"><ele>381.85714285714283</ele><time>2026-05-01T08:26:44.994Z</time></trkpt><trkpt lat="44.938622442425675" lon="9.207752892544528"><ele>379.4285714285714</ele><time>2026-05-01T08:26:47.994Z</time></trkpt><trkpt lat="44.93857480744353" lon="9.207651271231514"><ele>377.0</ele><time>2026-05-01T08:26:50.994Z</time></trkpt><trkpt lat="44.93851339728993" lon="9.207549451555883"><ele>377.0</ele><time>2026-05-01T08:26:53.994Z</time></trkpt><trkpt lat="44.938469302828075" lon="9.207485579747555"><ele>377.0</ele><time>2026-05-01T08:26:55.994Z</time></trkpt><trkpt lat="44.93841532810113" lon="9.20740947497309"><ele>377.0</ele><time>2026-05-01T08:26:58.994Z</time></trkpt><trkpt lat="44.93836721513569" lon="9.2073412292937"><ele>377.0</ele><time>2026-05-01T08:27:00.994Z</time></trkpt><trkpt lat="44.93830172895443" lon="9.207257242885916"><ele>377.0</ele><time>2026-05-01T08:27:03.994Z</time></trkpt><trkpt lat="44.9382489899406" lon="9.207207775169177"><ele>377.0</ele><time>2026-05-01T08:27:05.994Z</time></trkpt><trkpt lat="44.93816849212519" lon="9.20712624364812"><ele>373.83333333333337</ele><time>2026-05-01T08:27:08.994Z</time></trkpt><trkpt lat="44.93812308908457" lon="9.207046585070925"><ele>370.6666666666667</ele><time>2026-05-01T08:27:11.993Z</time></trkpt><trkpt lat="44.938076724161036" lon="9.206958551422645"><ele>367.5</ele><time>2026-05-01T08:27:14.993Z</time></trkpt><trkpt lat="44.93801118549821" lon="9.20688720145572"><ele>364.3333333333333</ele><time>2026-05-01T08:27:17.994Z</time></trkpt><trkpt lat="44.93795619381182" lon="9.20678456514904"><ele>361.16666666666663</ele><time>2026-05-01T08:27:20.994Z</time></trkpt><trkpt lat="44.937911735258645" lon="9.206667351687909"><ele>358.0</ele><time>2026-05-01T08:27:23.994Z</time></trkpt><trkpt lat="44.937876433903305" lon="9.20658967799339"><ele>358.0</ele><time>2026-05-01T08:27:25.994Z</time></trkpt><trkpt lat="44.93781557481687" lon="9.206531777556785"><ele>358.0</ele><time>2026-05-01T08:27:28.994Z</time></trkpt><trkpt lat="44.93774093162241" lon="9.206486617442483"><ele>358.0</ele><time>2026-05-01T08:27:31.994Z</time></trkpt><trkpt lat="44.937670147275604" lon="9.20641031210355"><ele>358.0</ele><time>2026-05-01T08:27:34.994Z</time></trkpt><trkpt lat="44.93761102350555" lon="9.206334782759285"><ele>358.0</ele><time>2026-05-01T08:27:37.994Z</time></trkpt><trkpt lat="44.937558759513884" lon="9.206254496873948"><ele>358.0</ele><time>2026-05-01T08:27:39.994Z</time></trkpt><trkpt lat="44.9375120899929" lon="9.206182938223654"><ele>354.5</ele><time>2026-05-01T08:27:41.994Z</time></trkpt><trkpt lat="44.93744853100722" lon="9.206100060370735"><ele>351.0</ele><time>2026-05-01T08:27:44.994Z</time></trkpt><trkpt lat="44.93737851685268" lon="9.206030356458816"><ele>347.5</ele><time>2026-05-01T08:27:47.994Z</time></trkpt><trkpt lat="44.937314154909146" lon="9.205981629676907"><ele>344.0</ele><time>2026-05-01T08:27:49.993Z</time></trkpt><trkpt lat="44.937244647745196" lon="9.205929691695381"><ele>340.5</ele><time>2026-05-01T08:27:51.993Z</time></trkpt><trkpt lat="44.93717017587195" lon="9.205880684586278"><ele>337.0</ele><time>2026-05-01T08:27:54.993Z</time></trkpt><trkpt lat="44.9371020700406" lon="9.205817232548439"><ele>337.00000000000006</ele><time>2026-05-01T08:27:57.993Z</time></trkpt><trkpt lat="44.93705140800702" lon="9.20575644580289"><ele>337.0</ele><time>2026-05-01T08:28:00.993Z</time></trkpt><trkpt lat="44.936987643305535" lon="9.205717756453476"><ele>337.0</ele><time>2026-05-01T08:28:06.993Z</time></trkpt><trkpt lat="44.936924505191215" lon="9.205726388579308"><ele>337.0</ele><time>2026-05-01T08:28:12.993Z</time></trkpt><trkpt lat="44.93686288815716" lon="9.205774379402463"><ele>337.0</ele><time>2026-05-01T08:28:17.993Z</time></trkpt><trkpt lat="44.9368113289642" lon="9.205833027512263"><ele>337.00000000000006</ele><time>2026-05-01T08:28:22.993Z</time></trkpt><trkpt lat="44.93676629252258" lon="9.205897047696345"><ele>337.0</ele><time>2026-05-01T08:28:51.993Z</time></trkpt><trkpt lat="44.93671024072952" lon="9.205944851290491"><ele>335.42857142857144</ele><time>2026-05-01T08:29:10.992Z</time></trkpt><trkpt lat="44.93667538114727" lon="9.206030078778625"><ele>333.8571428571429</ele><time>2026-05-01T08:29:31.993Z</time></trkpt><trkpt lat="44.93663549248244" lon="9.206118501854897"><ele>332.28571428571433</ele><time>2026-05-01T08:29:36.993Z</time></trkpt><trkpt lat="44.93658946821381" lon="9.20618731570723"><ele>330.7142857142857</ele><time>2026-05-01T08:29:47.993Z</time></trkpt><trkpt lat="44.936552024665474" lon="9.206272353306826"><ele>329.1428571428571</ele><time>2026-05-01T08:30:05.993Z</time></trkpt><trkpt lat="44.936532394484736" lon="9.206359417658312"><ele>327.5714285714286</ele><time>2026-05-01T08:30:08.992Z</time></trkpt><trkpt lat="44.93647242864343" lon="9.206454375335015"><ele>326.0</ele><time>2026-05-01T08:30:11.992Z</time></trkpt><trkpt lat="44.93637901155247" lon="9.206527683230433"><ele>326.0</ele><time>2026-05-01T08:30:13.992Z</time></trkpt><trkpt lat="44.93632258994408" lon="9.206580140116747"><ele>326.0</ele><time>2026-05-01T08:30:15.992Z</time></trkpt><trkpt lat="44.93624837754617" lon="9.206584156389964"><ele>326.0</ele><time>2026-05-01T08:30:19.992Z</time></trkpt><trkpt lat="44.93618176054325" lon="9.206510875830718"><ele>326.0</ele><time>2026-05-01T08:30:22.992Z</time></trkpt><trkpt lat="44.936126349342025" lon="9.206410864901535"><ele>326.0</ele><time>2026-05-01T08:30:24.992Z</time></trkpt><trkpt lat="44.936056299044544" lon="9.206325094612662"><ele>326.0</ele><time>2026-05-01T08:30:26.992Z</time></trkpt><trkpt lat="44.93599149066192" lon="9.206242018830558"><ele>326.0</ele><time>2026-05-01T08:30:28.992Z</time></trkpt><trkpt lat="44.93590678443015" lon="9.206169977517124"><ele>326.0</ele><time>2026-05-01T08:30:30.992Z</time></trkpt><trkpt lat="44.935820610012065" lon="9.206096353468448"><ele>326.0</ele><time>2026-05-01T08:30:32.992Z</time></trkpt><trkpt lat="44.9357517786619" lon="9.20606532506654"><ele>326.0</ele><time>2026-05-01T08:30:34.992Z</time></trkpt><trkpt lat="44.93568818932864" lon="9.206031684214294"><ele>326.0</ele><time>2026-05-01T08:30:36.992Z</time></trkpt><trkpt lat="44.93561407366873" lon="9.20597540794318"><ele>326.0</ele><time>2026-05-01T08:30:38.992Z</time></trkpt><trkpt lat="44.93553289328071" lon="9.20585495720427"><ele>323.0</ele><time>2026-05-01T08:30:40.992Z</time></trkpt><trkpt lat="44.93546014587525" lon="9.205729208997436"><ele>320.0</ele><time>2026-05-01T08:30:42.992Z</time></trkpt><trkpt lat="44.93539211146775" lon="9.205574801860697"><ele>317.0</ele><time>2026-05-01T08:30:44.992Z</time></trkpt><trkpt lat="44.935368790492674" lon="9.20547580636726"><ele>314.0</ele><time>2026-05-01T08:30:45.992Z</time></trkpt><trkpt lat="44.93535090415599" lon="9.205376892284901"><ele>311.0</ele><time>2026-05-01T08:30:46.992Z</time></trkpt><trkpt lat="44.93533270121567" lon="9.20527253567492"><ele>310.0</ele><time>2026-05-01T08:30:47.992Z</time></trkpt><trkpt lat="44.93532167363058" lon="9.205170674502513"><ele>309.0</ele><time>2026-05-01T08:30:48.992Z</time></trkpt><trkpt lat="44.935321219851204" lon="9.205075595752335"><ele>308.0</ele><time>2026-05-01T08:30:49.992Z</time></trkpt><trkpt lat="44.93532068557673" lon="9.204986232156486"><ele>307.0</ele><time>2026-05-01T08:30:50.992Z</time></trkpt><trkpt lat="44.935335720100376" lon="9.20488277811376"><ele>306.0</ele><time>2026-05-01T08:30:51.992Z</time></trkpt><trkpt lat="44.93535307994022" lon="9.204787106556678"><ele>305.0</ele><time>2026-05-01T08:30:52.992Z</time></trkpt><trkpt lat="44.935351999747596" lon="9.204654925984725"><ele>304.0</ele><time>2026-05-01T08:30:54.992Z</time></trkpt><trkpt lat="44.93534441261831" lon="9.204532060465482"><ele>302.2</ele><time>2026-05-01T08:30:56.992Z</time></trkpt><trkpt lat="44.9353279586853" lon="9.204379259358095"><ele>300.4</ele><time>2026-05-01T08:30:58.992Z</time></trkpt><trkpt lat="44.935307920698584" lon="9.204230785181107"><ele>298.6</ele><time>2026-05-01T08:31:00.992Z</time></trkpt><trkpt lat="44.93528661575757" lon="9.204094510008037"><ele>296.8</ele><time>2026-05-01T08:31:02.992Z</time></trkpt><trkpt lat="44.935247277514144" lon="9.20398664905802"><ele>295.0</ele><time>2026-05-01T08:31:04.992Z</time></trkpt><trkpt lat="44.935213482382956" lon="9.203876309923526"><ele>293.4</ele><time>2026-05-01T08:31:06.992Z</time></trkpt><trkpt lat="44.93516157857834" lon="9.203782218482845"><ele>291.8</ele><time>2026-05-01T08:31:08.992Z</time></trkpt><trkpt lat="44.93512685196959" lon="9.203686142265951"><ele>290.2</ele><time>2026-05-01T08:31:10.992Z</time></trkpt><trkpt lat="44.93506260844229" lon="9.203569570098333"><ele>288.6</ele><time>2026-05-01T08:31:12.992Z</time></trkpt><trkpt lat="44.9350200717834" lon="9.20342713125125"><ele>287.0</ele><time>2026-05-01T08:31:14.992Z</time></trkpt><trkpt lat="44.93498282655117" lon="9.203288349656107"><ele>285.83333333333337</ele><time>2026-05-01T08:31:16.992Z</time></trkpt><trkpt lat="44.934958183019006" lon="9.203204711957271"><ele>284.6666666666667</ele><time>2026-05-01T08:31:17.992Z</time></trkpt><trkpt lat="44.93493900329839" lon="9.203117538543774"><ele>283.5</ele><time>2026-05-01T08:31:18.992Z</time></trkpt><trkpt lat="44.93491995790552" lon="9.202963249595424"><ele>282.3333333333333</ele><time>2026-05-01T08:31:20.992Z</time></trkpt><trkpt lat="44.934895260745265" lon="9.202881007554828"><ele>281.16666666666663</ele><time>2026-05-01T08:31:21.992Z</time></trkpt><trkpt lat="44.934845485895806" lon="9.20274725779691"><ele>280.0</ele><time>2026-05-01T08:31:23.992Z</time></trkpt><trkpt lat="44.93479994447515" lon="9.202619409820686"><ele>278.8333333333333</ele><time>2026-05-01T08:31:25.992Z</time></trkpt><trkpt lat="44.934769359164925" lon="9.202479042510854"><ele>277.66666666666663</ele><time>2026-05-01T08:31:27.991Z</time></trkpt><trkpt lat="44.934717899593316" lon="9.202348836574648"><ele>276.5</ele><time>2026-05-01T08:31:29.992Z</time></trkpt><trkpt lat="44.93468315563274" lon="9.2022712050659"><ele>275.3333333333333</ele><time>2026-05-01T08:31:30.992Z</time></trkpt><trkpt lat="44.93465124238046" lon="9.202189322443916"><ele>274.1666666666667</ele><time>2026-05-01T08:31:31.993Z</time></trkpt><trkpt lat="44.93461618775717" lon="9.202106803551061"><ele>273.0</ele><time>2026-05-01T08:31:32.993Z</time></trkpt><trkpt lat="44.93457171754237" lon="9.202021495603985"><ele>271.2857142857143</ele><time>2026-05-01T08:31:33.993Z</time></trkpt><trkpt lat="44.934525381834106" lon="9.201931057169176"><ele>269.57142857142856</ele><time>2026-05-01T08:31:34.993Z</time></trkpt><trkpt lat="44.93448402004469" lon="9.201845413033588"><ele>267.8571428571429</ele><time>2026-05-01T08:31:35.993Z</time></trkpt><trkpt lat="44.934441764534874" lon="9.201773043520976"><ele>266.1428571428571</ele><time>2026-05-01T08:31:36.993Z</time></trkpt><trkpt lat="44.93440020495545" lon="9.201691271413846"><ele>264.42857142857144</ele><time>2026-05-01T08:31:37.992Z</time></trkpt><trkpt lat="44.93435685177407" lon="9.201602111079248"><ele>262.7142857142857</ele><time>2026-05-01T08:31:38.992Z</time></trkpt><trkpt lat="44.93431141994023" lon="9.201517301861546"><ele>261.0</ele><time>2026-05-01T08:31:39.992Z</time></trkpt><trkpt lat="44.93427249047048" lon="9.201430639563586"><ele>259.8</ele><time>2026-05-01T08:31:40.992Z</time></trkpt><trkpt lat="44.93423444918985" lon="9.20135642750152"><ele>258.6</ele><time>2026-05-01T08:31:41.992Z</time></trkpt><trkpt lat="44.934156439277366" lon="9.201226171103619"><ele>257.4</ele><time>2026-05-01T08:31:43.992Z</time></trkpt><trkpt lat="44.934086793912414" lon="9.201114307822554"><ele>256.2</ele><time>2026-05-01T08:31:45.992Z</time></trkpt><trkpt lat="44.93401095287181" lon="9.201007594094461"><ele>255.0</ele><time>2026-05-01T08:31:47.992Z</time></trkpt><trkpt lat="44.933970813632946" lon="9.200888975783242"><ele>254.8</ele><time>2026-05-01T08:31:49.992Z</time></trkpt><trkpt lat="44.933993667534246" lon="9.200772832380256"><ele>254.6</ele><time>2026-05-01T08:31:51.992Z</time></trkpt><trkpt lat="44.9340589831549" lon="9.200666318770175"><ele>254.39999999999998</ele><time>2026-05-01T08:31:53.992Z</time></trkpt><trkpt lat="44.934097353164745" lon="9.200535593739033"><ele>254.2</ele><time>2026-05-01T08:31:55.992Z</time></trkpt><trkpt lat="44.93411721643838" lon="9.200392324147073"><ele>254.0</ele><time>2026-05-01T08:31:57.992Z</time></trkpt><trkpt lat="44.93412628050041" lon="9.200232604517906"><ele>254.00000000000003</ele><time>2026-05-01T08:31:59.992Z</time></trkpt><trkpt lat="44.934119956852456" lon="9.200084473706358"><ele>254.0</ele><time>2026-05-01T08:32:01.992Z</time></trkpt><trkpt lat="44.93411994881782" lon="9.199957727893075"><ele>254.0</ele><time>2026-05-01T08:32:03.992Z</time></trkpt><trkpt lat="44.934123785258635" lon="9.199839176891023"><ele>254.0</ele><time>2026-05-01T08:32:05.992Z</time></trkpt><trkpt lat="44.93415245052531" lon="9.199735628188158"><ele>254.00000000000003</ele><time>2026-05-01T08:32:07.992Z</time></trkpt><trkpt lat="44.93420244837665" lon="9.199631312039683"><ele>254.0</ele><time>2026-05-01T08:32:09.992Z</time></trkpt><trkpt lat="44.93423575016093" lon="9.199514724269703"><ele>254.00000000000003</ele><time>2026-05-01T08:32:11.992Z</time></trkpt><trkpt lat="44.93421010220523" lon="9.199393181365542"><ele>254.0</ele><time>2026-05-01T08:32:13.992Z</time></trkpt><trkpt lat="44.93416792011105" lon="9.19928882611289"><ele>254.0</ele><time>2026-05-01T08:32:15.992Z</time></trkpt><trkpt lat="44.9341392233417" lon="9.199195231053384"><ele>254.0</ele><time>2026-05-01T08:32:17.992Z</time></trkpt><trkpt lat="44.93412234592154" lon="9.199095215868596"><ele>254.00000000000003</ele><time>2026-05-01T08:32:19.992Z</time></trkpt><trkpt lat="44.93410638542654" lon="9.19898759508794"><ele>254.0</ele><time>2026-05-01T08:32:21.992Z</time></trkpt><trkpt lat="44.93408500556168" lon="9.198867130455348"><ele>254.00000000000003</ele><time>2026-05-01T08:32:24.992Z</time></trkpt><trkpt lat="44.934063326872405" lon="9.198746544479672"><ele>254.0</ele><time>2026-05-01T08:32:27.992Z</time></trkpt><trkpt lat="44.93407158587272" lon="9.198876690893242"><ele>254.0</ele><time>2026-05-01T08:32:40.992Z</time></trkpt><trkpt lat="44.934091460340746" lon="9.198982835254926"><ele>254.0</ele><time>2026-05-01T08:32:42.992Z</time></trkpt><trkpt lat="44.934129481325414" lon="9.199101688138516"><ele>254.00000000000003</ele><time>2026-05-01T08:32:44.992Z</time></trkpt><trkpt lat="44.93416140258498" lon="9.199182804206343"><ele>254.0</ele><time>2026-05-01T08:32:45.992Z</time></trkpt><trkpt lat="44.93420395648248" lon="9.199329015199915"><ele>254.0</ele><time>2026-05-01T08:32:47.992Z</time></trkpt><trkpt lat="44.93422323395919" lon="9.19946475703759"><ele>253.99999999999997</ele><time>2026-05-01T08:32:49.992Z</time></trkpt><trkpt lat="44.93418908883568" lon="9.199622814620827"><ele>253.99999999999997</ele><time>2026-05-01T08:32:51.992Z</time></trkpt><trkpt lat="44.934140042687126" lon="9.199750674573755"><ele>254.0</ele><time>2026-05-01T08:32:53.992Z</time></trkpt><trkpt lat="44.93411670997988" lon="9.199866682920321"><ele>254.0</ele><time>2026-05-01T08:32:55.991Z</time></trkpt><trkpt lat="44.93412669934435" lon="9.199956437926538"><ele>254.0</ele><time>2026-05-01T08:32:56.991Z</time></trkpt><trkpt lat="44.93414133603762" lon="9.200054503224628"><ele>254.0</ele><time>2026-05-01T08:32:57.991Z</time></trkpt><trkpt lat="44.93414985634393" lon="9.200163930477089"><ele>254.0</ele><time>2026-05-01T08:32:58.991Z</time></trkpt><trkpt lat="44.93415136908143" lon="9.200272363301147"><ele>254.0</ele><time>2026-05-01T08:32:59.991Z</time></trkpt><trkpt lat="44.93414215875065" lon="9.200375301821646"><ele>254.0</ele><time>2026-05-01T08:33:00.991Z</time></trkpt><trkpt lat="44.934130849405406" lon="9.200470318379061"><ele>254.0</ele><time>2026-05-01T08:33:01.991Z</time></trkpt><trkpt lat="44.93411320196408" lon="9.20055708259097"><ele>254.0</ele><time>2026-05-01T08:33:02.991Z</time></trkpt><trkpt lat="44.93404914901871" lon="9.200685988034916"><ele>254.0</ele><time>2026-05-01T08:33:04.991Z</time></trkpt><trkpt lat="44.934014124446065" lon="9.200772609194928"><ele>253.99999999999997</ele><time>2026-05-01T08:33:06.991Z</time></trkpt><trkpt lat="44.93403400352269" lon="9.200867474257784"><ele>253.99999999999997</ele><time>2026-05-01T08:33:08.991Z</time></trkpt><trkpt lat="44.93406447764879" lon="9.20094595152485"><ele>254.0</ele><time>2026-05-01T08:33:10.991Z</time></trkpt><trkpt lat="44.93410367854368" lon="9.201021149839997"><ele>254.0</ele><time>2026-05-01T08:33:12.991Z</time></trkpt><trkpt lat="44.93427470783737" lon="9.200940199316449"><ele>254.2</ele><time>2026-05-01T08:33:17.991Z</time></trkpt><trkpt lat="44.93435404339973" lon="9.200812937518805"><ele>254.39999999999998</ele><time>2026-05-01T08:33:19.991Z</time></trkpt><trkpt lat="44.93439709563867" lon="9.200740317387105"><ele>254.6</ele><time>2026-05-01T08:33:20.991Z</time></trkpt><trkpt lat="44.934434570722814" lon="9.200596820034171"><ele>254.8</ele><time>2026-05-01T08:33:22.991Z</time></trkpt><trkpt lat="44.93442680884245" lon="9.200435819675938"><ele>255.0</ele><time>2026-05-01T08:33:24.991Z</time></trkpt><trkpt lat="44.934423479710574" lon="9.200273813319038"><ele>253.6</ele><time>2026-05-01T08:33:26.991Z</time></trkpt><trkpt lat="44.9344400185436" lon="9.200181809088045"><ele>252.2</ele><time>2026-05-01T08:33:27.991Z</time></trkpt><trkpt lat="44.93447133977932" lon="9.200101428426144"><ele>250.8</ele><time>2026-05-01T08:33:28.991Z</time></trkpt><trkpt lat="44.934540747473804" lon="9.199982882160676"><ele>249.4</ele><time>2026-05-01T08:33:30.991Z</time></trkpt><trkpt lat="44.93461915547331" lon="9.199881986805131"><ele>248.0</ele><time>2026-05-01T08:33:32.991Z</time></trkpt><trkpt lat="44.93470635895229" lon="9.199799683881848"><ele>248.5</ele><time>2026-05-01T08:33:35.992Z</time></trkpt><trkpt lat="44.93479948430284" lon="9.19974209383191"><ele>249.0</ele><time>2026-05-01T08:33:37.992Z</time></trkpt><trkpt lat="44.934918654177544" lon="9.199690507688926"><ele>249.5</ele><time>2026-05-01T08:33:39.992Z</time></trkpt><trkpt lat="44.935022963941144" lon="9.199649510705601"><ele>250.0</ele><time>2026-05-01T08:33:41.992Z</time></trkpt><trkpt lat="44.93514443746333" lon="9.199601820514058"><ele>250.0</ele><time>2026-05-01T08:33:43.992Z</time></trkpt><trkpt lat="44.935207410515716" lon="9.199580957814707"><ele>250.0</ele><time>2026-05-01T08:33:44.992Z</time></trkpt><trkpt lat="44.935319688472745" lon="9.19952965126539"><ele>250.0</ele><time>2026-05-01T08:33:46.991Z</time></trkpt><trkpt lat="44.93542709801776" lon="9.19947897448171"><ele>250.0</ele><time>2026-05-01T08:33:48.992Z</time></trkpt><trkpt lat="44.935521542248566" lon="9.199412113071217"><ele>250.0</ele><time>2026-05-01T08:33:50.992Z</time></trkpt><trkpt lat="44.93556807579633" lon="9.19934491414803"><ele>250.0</ele><time>2026-05-01T08:33:52.992Z</time></trkpt><trkpt lat="44.935602994761695" lon="9.199257640830487"><ele>250.0</ele><time>2026-05-01T08:33:54.992Z</time></trkpt><trkpt lat="44.93559151902566" lon="9.199138235412768"><ele>250.0</ele><time>2026-05-01T08:33:56.992Z</time></trkpt><trkpt lat="44.935586564571274" lon="9.198991356884987"><ele>250.0</ele><time>2026-05-01T08:33:58.992Z</time></trkpt><trkpt lat="44.93558528301666" lon="9.198833947264973"><ele>250.0</ele><time>2026-05-01T08:34:00.992Z</time></trkpt><trkpt lat="44.93561735360537" lon="9.198707555517544"><ele>249.33333333333331</ele><time>2026-05-01T08:34:02.992Z</time></trkpt><trkpt lat="44.935662029462584" lon="9.198613252336864"><ele>248.66666666666666</ele><time>2026-05-01T08:34:04.992Z</time></trkpt><trkpt lat="44.93568889836902" lon="9.198526447473906"><ele>248.0</ele><time>2026-05-01T08:34:06.992Z</time></trkpt><trkpt lat="44.935736502892645" lon="9.19844329334187"><ele>247.33333333333331</ele><time>2026-05-01T08:34:08.992Z</time></trkpt><trkpt lat="44.935779795405445" lon="9.198359745051869"><ele>246.66666666666666</ele><time>2026-05-01T08:34:10.992Z</time></trkpt><trkpt lat="44.935809015542475" lon="9.198224601413896"><ele>246.0</ele><time>2026-05-01T08:34:12.992Z</time></trkpt><trkpt lat="44.93584005301975" lon="9.198095955606465"><ele>246.33333333333334</ele><time>2026-05-01T08:34:14.992Z</time></trkpt><trkpt lat="44.93587772909409" lon="9.197949497789486"><ele>246.66666666666669</ele><time>2026-05-01T08:34:16.992Z</time></trkpt><trkpt lat="44.9359188516738" lon="9.197801272183764"><ele>247.0</ele><time>2026-05-01T08:34:18.992Z</time></trkpt><trkpt lat="44.935941257025426" lon="9.197716116033902"><ele>247.33333333333334</ele><time>2026-05-01T08:34:19.992Z</time></trkpt><trkpt lat="44.93596371179532" lon="9.197623831926823"><ele>247.66666666666669</ele><time>2026-05-01T08:34:20.992Z</time></trkpt><trkpt lat="44.935984861202265" lon="9.197532531363036"><ele>248.0</ele><time>2026-05-01T08:34:21.992Z</time></trkpt><trkpt lat="44.93601197375113" lon="9.197440592494099"><ele>248.00000000000003</ele><time>2026-05-01T08:34:22.992Z</time></trkpt><trkpt lat="44.9360379861238" lon="9.197347477400966"><ele>248.0</ele><time>2026-05-01T08:34:23.992Z</time></trkpt><trkpt lat="44.93606624856096" lon="9.197242728094526"><ele>248.0</ele><time>2026-05-01T08:34:24.992Z</time></trkpt><trkpt lat="44.93609666881626" lon="9.197133345793192"><ele>248.0</ele><time>2026-05-01T08:34:25.991Z</time></trkpt><trkpt lat="44.93613163181917" lon="9.197037862531545"><ele>248.00000000000003</ele><time>2026-05-01T08:34:26.991Z</time></trkpt><trkpt lat="44.93617202812486" lon="9.196944753497391"><ele>248.0</ele><time>2026-05-01T08:34:27.991Z</time></trkpt><trkpt lat="44.93621659281564" lon="9.196864470329215"><ele>246.83333333333334</ele><time>2026-05-01T08:34:28.991Z</time></trkpt><trkpt lat="44.93626736713033" lon="9.196789347071928"><ele>245.66666666666669</ele><time>2026-05-01T08:34:29.991Z</time></trkpt><trkpt lat="44.93631591084171" lon="9.196718733096828"><ele>244.5</ele><time>2026-05-01T08:34:30.991Z</time></trkpt><trkpt lat="44.93637290590267" lon="9.196639545118144"><ele>243.33333333333331</ele><time>2026-05-01T08:34:31.991Z</time></trkpt><trkpt lat="44.936428137580926" lon="9.19655869457297"><ele>242.16666666666666</ele><time>2026-05-01T08:34:32.991Z</time></trkpt><trkpt lat="44.93648005092132" lon="9.196466231281105"><ele>241.0</ele><time>2026-05-01T08:34:33.991Z</time></trkpt><trkpt lat="44.93651322883141" lon="9.19637824051398"><ele>240.66666666666666</ele><time>2026-05-01T08:34:34.991Z</time></trkpt><trkpt lat="44.936549499238346" lon="9.19628633712093"><ele>240.33333333333331</ele><time>2026-05-01T08:34:35.991Z</time></trkpt><trkpt lat="44.936593186720536" lon="9.196192730041728"><ele>240.0</ele><time>2026-05-01T08:34:36.991Z</time></trkpt><trkpt lat="44.936640248818094" lon="9.196117940727419"><ele>239.66666666666669</ele><time>2026-05-01T08:34:37.991Z</time></trkpt><trkpt lat="44.936685659770056" lon="9.196051537209796"><ele>239.33333333333334</ele><time>2026-05-01T08:34:38.991Z</time></trkpt><trkpt lat="44.93676984561005" lon="9.195932512392055"><ele>239.0</ele><time>2026-05-01T08:34:40.991Z</time></trkpt><trkpt lat="44.93681962772176" lon="9.195873846526824"><ele>239.00000000000003</ele><time>2026-05-01T08:34:41.991Z</time></trkpt><trkpt lat="44.93687232188746" lon="9.195817430227727"><ele>239.0</ele><time>2026-05-01T08:34:42.991Z</time></trkpt><trkpt lat="44.93692794590746" lon="9.195752415357068"><ele>239.0</ele><time>2026-05-01T08:34:43.991Z</time></trkpt><trkpt lat="44.93698246866943" lon="9.195678916882276"><ele>239.0</ele><time>2026-05-01T08:34:44.991Z</time></trkpt><trkpt lat="44.93703215190113" lon="9.19561284135779"><ele>239.00000000000003</ele><time>2026-05-01T08:34:45.991Z</time></trkpt><trkpt lat="44.93710996265188" lon="9.195489830208578"><ele>239.0</ele><time>2026-05-01T08:34:47.991Z</time></trkpt><trkpt lat="44.937151419492125" lon="9.195412438573339"><ele>238.33333333333334</ele><time>2026-05-01T08:34:48.991Z</time></trkpt><trkpt lat="44.937189186887686" lon="9.195339424314746"><ele>237.66666666666669</ele><time>2026-05-01T08:34:49.991Z</time></trkpt><trkpt lat="44.93723388167572" lon="9.195230222623872"><ele>237.0</ele><time>2026-05-01T08:34:51.991Z</time></trkpt><trkpt lat="44.937248444330315" lon="9.195137832297252"><ele>236.33333333333331</ele><time>2026-05-01T08:34:56.991Z</time></trkpt><trkpt lat="44.93721268733223" lon="9.195052753269778"><ele>235.66666666666666</ele><time>2026-05-01T08:34:58.991Z</time></trkpt><trkpt lat="44.93719031273984" lon="9.19493012183533"><ele>235.0</ele><time>2026-05-01T08:35:00.991Z</time></trkpt><trkpt lat="44.9372087771956" lon="9.19481847253054"><ele>234.49999999999997</ele><time>2026-05-01T08:35:02.991Z</time></trkpt><trkpt lat="44.93722291643359" lon="9.194711199701231"><ele>234.0</ele><time>2026-05-01T08:35:04.991Z</time></trkpt><trkpt lat="44.93724167612275" lon="9.194594527287821"><ele>233.5</ele><time>2026-05-01T08:35:06.991Z</time></trkpt><trkpt lat="44.93728332018541" lon="9.194464521002299"><ele>233.0</ele><time>2026-05-01T08:35:08.991Z</time></trkpt><trkpt lat="44.937324335671484" lon="9.194356770568522"><ele>232.49999999999997</ele><time>2026-05-01T08:35:10.991Z</time></trkpt><trkpt lat="44.9373587421939" lon="9.194258308888415"><ele>232.0</ele><time>2026-05-01T08:35:12.991Z</time></trkpt><trkpt lat="44.93739487974003" lon="9.194164851920714"><ele>231.99999999999997</ele><time>2026-05-01T08:35:14.991Z</time></trkpt><trkpt lat="44.93744795252028" lon="9.19403953052202"><ele>232.0</ele><time>2026-05-01T08:35:16.991Z</time></trkpt><trkpt lat="44.93748974072808" lon="9.193909528072908"><ele>232.0</ele><time>2026-05-01T08:35:18.991Z</time></trkpt><trkpt lat="44.93753068800607" lon="9.193822816640717"><ele>232.0</ele><time>2026-05-01T08:35:20.991Z</time></trkpt><trkpt lat="44.93756913178742" lon="9.19374036164569"><ele>231.99999999999997</ele><time>2026-05-01T08:35:22.991Z</time></trkpt><trkpt lat="44.93760669665305" lon="9.193650778454547"><ele>232.0</ele><time>2026-05-01T08:35:24.991Z</time></trkpt><trkpt lat="44.9376512289002" lon="9.193517323274484"><ele>232.39999999999998</ele><time>2026-05-01T08:35:26.991Z</time></trkpt><trkpt lat="44.93769932084271" lon="9.193360859748196"><ele>232.79999999999998</ele><time>2026-05-01T08:35:28.991Z</time></trkpt><trkpt lat="44.93773124438845" lon="9.19322935842267"><ele>233.2</ele><time>2026-05-01T08:35:30.991Z</time></trkpt><trkpt lat="44.937758913129684" lon="9.193119095313213"><ele>233.6</ele><time>2026-05-01T08:35:32.991Z</time></trkpt><trkpt lat="44.93779189929966" lon="9.192963753660232"><ele>234.0</ele><time>2026-05-01T08:35:34.991Z</time></trkpt><trkpt lat="44.93781885348231" lon="9.192798370671607"><ele>232.79999999999998</ele><time>2026-05-01T08:35:36.991Z</time></trkpt><trkpt lat="44.93784309781839" lon="9.192716048111784"><ele>231.59999999999997</ele><time>2026-05-01T08:35:37.991Z</time></trkpt><trkpt lat="44.93790627642369" lon="9.192562565192045"><ele>230.4</ele><time>2026-05-01T08:35:39.991Z</time></trkpt><trkpt lat="44.93794461202118" lon="9.192413394538535"><ele>229.2</ele><time>2026-05-01T08:35:41.991Z</time></trkpt><trkpt lat="44.938001659321145" lon="9.192250931749403"><ele>228.0</ele><time>2026-05-01T08:35:43.991Z</time></trkpt><trkpt lat="44.93807659174152" lon="9.192117725679129"><ele>227.60000000000002</ele><time>2026-05-01T08:35:45.991Z</time></trkpt><trkpt lat="44.93814582413975" lon="9.192010137445829"><ele>227.20000000000002</ele><time>2026-05-01T08:35:47.991Z</time></trkpt><trkpt lat="44.93821377513658" lon="9.191875699725147"><ele>226.8</ele><time>2026-05-01T08:35:49.991Z</time></trkpt><trkpt lat="44.93824556838702" lon="9.191786210522212"><ele>226.4</ele><time>2026-05-01T08:35:50.991Z</time></trkpt><trkpt lat="44.93826159582816" lon="9.191692531808078"><ele>226.0</ele><time>2026-05-01T08:35:51.991Z</time></trkpt><trkpt lat="44.93830402008747" lon="9.191544310261085"><ele>225.8</ele><time>2026-05-01T08:35:53.991Z</time></trkpt><trkpt lat="44.93837111724136" lon="9.191445543216865"><ele>225.60000000000002</ele><time>2026-05-01T08:35:55.991Z</time></trkpt><trkpt lat="44.93843472544584" lon="9.191320440031035"><ele>225.4</ele><time>2026-05-01T08:35:57.991Z</time></trkpt><trkpt lat="44.93850450551799" lon="9.191199725692941"><ele>225.2</ele><time>2026-05-01T08:35:59.991Z</time></trkpt><trkpt lat="44.938583143267415" lon="9.19108569984898"><ele>225.0</ele><time>2026-05-01T08:36:01.991Z</time></trkpt><trkpt lat="44.93865866348212" lon="9.19095890826501"><ele>224.66666666666666</ele><time>2026-05-01T08:36:03.991Z</time></trkpt><trkpt lat="44.93869809890653" lon="9.190845286828933"><ele>224.33333333333331</ele><time>2026-05-01T08:36:05.991Z</time></trkpt><trkpt lat="44.938712950441804" lon="9.19073037520565"><ele>224.0</ele><time>2026-05-01T08:36:07.991Z</time></trkpt><trkpt lat="44.93870012038809" lon="9.190621547124703"><ele>223.66666666666666</ele><time>2026-05-01T08:36:10.991Z</time></trkpt><trkpt lat="44.93866817811756" lon="9.190518070340405"><ele>223.33333333333331</ele><time>2026-05-01T08:36:13.991Z</time></trkpt><trkpt lat="44.938704138216856" lon="9.190408546871332"><ele>223.0</ele><time>2026-05-01T08:36:16.991Z</time></trkpt><trkpt lat="44.938780689574365" lon="9.190318366215678"><ele>223.0</ele><time>2026-05-01T08:36:18.991Z</time></trkpt><trkpt lat="44.93887698666297" lon="9.19021620907019"><ele>223.0</ele><time>2026-05-01T08:36:20.991Z</time></trkpt><trkpt lat="44.938961565313384" lon="9.190090914790652"><ele>223.0</ele><time>2026-05-01T08:36:22.991Z</time></trkpt><trkpt lat="44.93902146123914" lon="9.190016419856981"><ele>223.0</ele><time>2026-05-01T08:36:23.991Z</time></trkpt><trkpt lat="44.93908459453537" lon="9.189968130667513"><ele>223.0</ele><time>2026-05-01T08:36:24.991Z</time></trkpt><trkpt lat="44.93914567991411" lon="9.189912853811814"><ele>223.0</ele><time>2026-05-01T08:36:25.991Z</time></trkpt><trkpt lat="44.939202391947326" lon="9.189863584705119"><ele>223.0</ele><time>2026-05-01T08:36:26.991Z</time></trkpt><trkpt lat="44.939259461251886" lon="9.189804990703603"><ele>223.0</ele><time>2026-05-01T08:36:27.991Z</time></trkpt><trkpt lat="44.93934280937731" lon="9.189701108262732"><ele>223.0</ele><time>2026-05-01T08:36:29.99Z</time></trkpt><trkpt lat="44.93942638654051" lon="9.18957012705668"><ele>223.0</ele><time>2026-05-01T08:36:31.99Z</time></trkpt><trkpt lat="44.9394989895575" lon="9.18942214405276"><ele>223.16666666666666</ele><time>2026-05-01T08:36:33.99Z</time></trkpt><trkpt lat="44.93955100539434" lon="9.189354882514966"><ele>223.33333333333331</ele><time>2026-05-01T08:36:34.99Z</time></trkpt><trkpt lat="44.939605056284876" lon="9.189296330802714"><ele>223.5</ele><time>2026-05-01T08:36:35.99Z</time></trkpt><trkpt lat="44.93965131457213" lon="9.189233763270922"><ele>223.66666666666669</ele><time>2026-05-01T08:36:36.99Z</time></trkpt><trkpt lat="44.93970307540498" lon="9.189171424978253"><ele>223.83333333333334</ele><time>2026-05-01T08:36:37.99Z</time></trkpt><trkpt lat="44.93974759896188" lon="9.189103402443552"><ele>224.0</ele><time>2026-05-01T08:36:38.99Z</time></trkpt><trkpt lat="44.9398400115577" lon="9.188982054118405"><ele>224.0</ele><time>2026-05-01T08:36:40.99Z</time></trkpt><trkpt lat="44.93989787613221" lon="9.1889309932839"><ele>224.0</ele><time>2026-05-01T08:36:41.99Z</time></trkpt><trkpt lat="44.93995843264889" lon="9.188887419612595"><ele>224.0</ele><time>2026-05-01T08:36:42.99Z</time></trkpt><trkpt lat="44.940033339206124" lon="9.18886493954366"><ele>224.0</ele><time>2026-05-01T08:36:43.99Z</time></trkpt><trkpt lat="44.94011899452046" lon="9.188857300149415"><ele>224.0</ele><time>2026-05-01T08:36:44.99Z</time></trkpt><trkpt lat="44.94019430371787" lon="9.188856086297115"><ele>224.0</ele><time>2026-05-01T08:36:45.99Z</time></trkpt><trkpt lat="44.94025807384525" lon="9.188845334425828"><ele>224.0</ele><time>2026-05-01T08:36:46.99Z</time></trkpt><trkpt lat="44.94033470455248" lon="9.18884135827948"><ele>223.71428571428572</ele><time>2026-05-01T08:36:47.99Z</time></trkpt><trkpt lat="44.940409417573186" lon="9.188846553265902"><ele>223.42857142857144</ele><time>2026-05-01T08:36:48.99Z</time></trkpt><trkpt lat="44.94048350603172" lon="9.188841141690478"><ele>223.14285714285714</ele><time>2026-05-01T08:36:49.99Z</time></trkpt><trkpt lat="44.94055898748663" lon="9.188840569827494"><ele>222.85714285714286</ele><time>2026-05-01T08:36:50.99Z</time></trkpt><trkpt lat="44.94062732714846" lon="9.188838570460346"><ele>222.57142857142858</ele><time>2026-05-01T08:36:51.99Z</time></trkpt><trkpt lat="44.94069630546755" lon="9.188835316518794"><ele>222.28571428571428</ele><time>2026-05-01T08:36:52.99Z</time></trkpt><trkpt lat="44.940764761439084" lon="9.188834742643703"><ele>222.0</ele><time>2026-05-01T08:36:53.99Z</time></trkpt><trkpt lat="44.94082917656234" lon="9.18881681899626"><ele>221.7142857142857</ele><time>2026-05-01T08:36:54.99Z</time></trkpt><trkpt lat="44.94089788161602" lon="9.188805844574036"><ele>221.42857142857144</ele><time>2026-05-01T08:36:55.99Z</time></trkpt><trkpt lat="44.94097086878845" lon="9.18880785334674"><ele>221.14285714285714</ele><time>2026-05-01T08:36:56.99Z</time></trkpt><trkpt lat="44.941044351422676" lon="9.18880187681246"><ele>220.85714285714283</ele><time>2026-05-01T08:36:57.99Z</time></trkpt><trkpt lat="44.94111720136984" lon="9.188799406444655"><ele>220.57142857142856</ele><time>2026-05-01T08:36:58.99Z</time></trkpt><trkpt lat="44.941186943340874" lon="9.188796021594525"><ele>220.28571428571428</ele><time>2026-05-01T08:36:59.99Z</time></trkpt><trkpt lat="44.941258165173274" lon="9.188789009260296"><ele>220.0</ele><time>2026-05-01T08:37:00.99Z</time></trkpt><trkpt lat="44.94132908530315" lon="9.188792107869016"><ele>219.99999999999997</ele><time>2026-05-01T08:37:01.99Z</time></trkpt><trkpt lat="44.94139990302906" lon="9.188790930770946"><ele>220.0</ele><time>2026-05-01T08:37:02.99Z</time></trkpt><trkpt lat="44.94146937955842" lon="9.188789955605579"><ele>220.0</ele><time>2026-05-01T08:37:03.99Z</time></trkpt><trkpt lat="44.94154026327623" lon="9.18878841788699"><ele>220.0</ele><time>2026-05-01T08:37:04.99Z</time></trkpt><trkpt lat="44.94160900471343" lon="9.188784458623154"><ele>220.0</ele><time>2026-05-01T08:37:05.99Z</time></trkpt><trkpt lat="44.941693865045266" lon="9.188777128402013"><ele>219.99999999999997</ele><time>2026-05-01T08:37:06.99Z</time></trkpt><trkpt lat="44.94177049521936" lon="9.188781817951643"><ele>220.0</ele><time>2026-05-01T08:37:07.99Z</time></trkpt><trkpt lat="44.941844562006715" lon="9.188771560687552"><ele>219.66666666666666</ele><time>2026-05-01T08:37:08.99Z</time></trkpt><trkpt lat="44.94192962369124" lon="9.188767508427144"><ele>219.33333333333331</ele><time>2026-05-01T08:37:09.99Z</time></trkpt><trkpt lat="44.94199891340327" lon="9.188770328005406"><ele>219.0</ele><time>2026-05-01T08:37:10.99Z</time></trkpt><trkpt lat="44.94207389682433" lon="9.188764650399046"><ele>218.66666666666669</ele><time>2026-05-01T08:37:11.99Z</time></trkpt><trkpt lat="44.94214771734269" lon="9.188761975602684"><ele>218.33333333333334</ele><time>2026-05-01T08:37:12.99Z</time></trkpt><trkpt lat="44.94222278975" lon="9.188746123850315"><ele>218.0</ele><time>2026-05-01T08:37:13.99Z</time></trkpt><trkpt lat="44.94229727393857" lon="9.1887433447428"><ele>218.0</ele><time>2026-05-01T08:37:14.99Z</time></trkpt><trkpt lat="44.942370641926274" lon="9.188744667691916"><ele>218.0</ele><time>2026-05-01T08:37:15.99Z</time></trkpt><trkpt lat="44.94244570117546" lon="9.18874067006845"><ele>218.0</ele><time>2026-05-01T08:37:16.99Z</time></trkpt><trkpt lat="44.94252418159888" lon="9.188735320165875"><ele>218.0</ele><time>2026-05-01T08:37:17.99Z</time></trkpt><trkpt lat="44.94259021730891" lon="9.188715414496743"><ele>218.0</ele><time>2026-05-01T08:37:18.99Z</time></trkpt><trkpt lat="44.942658791509004" lon="9.188705209576806"><ele>218.0</ele><time>2026-05-01T08:37:19.99Z</time></trkpt><trkpt lat="44.94272443993656" lon="9.188696029046902"><ele>218.0</ele><time>2026-05-01T08:37:20.99Z</time></trkpt><trkpt lat="44.942787897835174" lon="9.188676221256543"><ele>217.42857142857144</ele><time>2026-05-01T08:37:21.99Z</time></trkpt><trkpt lat="44.94285898813848" lon="9.188654915359274"><ele>216.85714285714286</ele><time>2026-05-01T08:37:22.99Z</time></trkpt><trkpt lat="44.94293316762668" lon="9.188644809149896"><ele>216.28571428571428</ele><time>2026-05-01T08:37:23.99Z</time></trkpt><trkpt lat="44.943006994497054" lon="9.18862653271655"><ele>215.71428571428572</ele><time>2026-05-01T08:37:24.99Z</time></trkpt><trkpt lat="44.943087042696895" lon="9.1886122161375"><ele>215.14285714285714</ele><time>2026-05-01T08:37:25.99Z</time></trkpt><trkpt lat="44.943160475487126" lon="9.188596134342273"><ele>214.57142857142858</ele><time>2026-05-01T08:37:26.99Z</time></trkpt><trkpt lat="44.943229644708325" lon="9.18858261995466"><ele>214.0</ele><time>2026-05-01T08:37:27.99Z</time></trkpt><trkpt lat="44.94330066207348" lon="9.188580526594853"><ele>214.00000000000003</ele><time>2026-05-01T08:37:28.99Z</time></trkpt><trkpt lat="44.94337200751422" lon="9.1885671883872"><ele>214.0</ele><time>2026-05-01T08:37:29.99Z</time></trkpt><trkpt lat="44.94343858385574" lon="9.188563312838795"><ele>214.0</ele><time>2026-05-01T08:37:30.99Z</time></trkpt><trkpt lat="44.94350468189406" lon="9.188547494406047"><ele>214.0</ele><time>2026-05-01T08:37:31.99Z</time></trkpt><trkpt lat="44.94357740023632" lon="9.188530871268883"><ele>214.0</ele><time>2026-05-01T08:37:32.99Z</time></trkpt><trkpt lat="44.94364626082327" lon="9.188518130139412"><ele>214.00000000000003</ele><time>2026-05-01T08:37:33.99Z</time></trkpt><trkpt lat="44.94371238329552" lon="9.188513360069658"><ele>214.0</ele><time>2026-05-01T08:37:34.99Z</time></trkpt><trkpt lat="44.94378731773727" lon="9.188513076681472"><ele>213.71428571428572</ele><time>2026-05-01T08:37:35.99Z</time></trkpt><trkpt lat="44.943862749021726" lon="9.188514458724876"><ele>213.42857142857144</ele><time>2026-05-01T08:37:36.99Z</time></trkpt><trkpt lat="44.94392785818203" lon="9.18851167185371"><ele>213.14285714285717</ele><time>2026-05-01T08:37:37.99Z</time></trkpt><trkpt lat="44.94400006093466" lon="9.188507440027866"><ele>212.85714285714286</ele><time>2026-05-01T08:37:38.99Z</time></trkpt><trkpt lat="44.944071538484174" lon="9.188509268407444"><ele>212.57142857142856</ele><time>2026-05-01T08:37:39.99Z</time></trkpt><trkpt lat="44.944145793169646" lon="9.188501972977765"><ele>212.2857142857143</ele><time>2026-05-01T08:37:40.99Z</time></trkpt><trkpt lat="44.94421745146955" lon="9.188511778267008"><ele>212.0</ele><time>2026-05-01T08:37:41.99Z</time></trkpt><trkpt lat="44.94429885117823" lon="9.188519945980108"><ele>211.83333333333334</ele><time>2026-05-01T08:37:42.99Z</time></trkpt><trkpt lat="44.944371567067144" lon="9.188525035776507"><ele>211.66666666666669</ele><time>2026-05-01T08:37:43.99Z</time></trkpt><trkpt lat="44.94444740361838" lon="9.18852624167976"><ele>211.5</ele><time>2026-05-01T08:37:44.99Z</time></trkpt><trkpt lat="44.94451776285853" lon="9.188524569464214"><ele>211.33333333333331</ele><time>2026-05-01T08:37:45.99Z</time></trkpt><trkpt lat="44.944588941777816" lon="9.188521681895205"><ele>211.16666666666666</ele><time>2026-05-01T08:37:46.991Z</time></trkpt><trkpt lat="44.94472086637429" lon="9.188532087495926"><ele>211.0</ele><time>2026-05-01T08:37:48.99Z</time></trkpt><trkpt lat="44.944792761454416" lon="9.188538374952909"><ele>211.0</ele><time>2026-05-01T08:37:49.99Z</time></trkpt><trkpt lat="44.944864343635786" lon="9.188536889787208"><ele>211.0</ele><time>2026-05-01T08:37:50.99Z</time></trkpt><trkpt lat="44.944938814753726" lon="9.18853483603385"><ele>211.0</ele><time>2026-05-01T08:37:51.99Z</time></trkpt><trkpt lat="44.94500586886702" lon="9.188538437998842"><ele>211.0</ele><time>2026-05-01T08:37:52.991Z</time></trkpt><trkpt lat="44.945079833720825" lon="9.188551886736763"><ele>211.0</ele><time>2026-05-01T08:37:53.99Z</time></trkpt><trkpt lat="44.94515682429696" lon="9.188563435285376"><ele>211.0</ele><time>2026-05-01T08:37:54.99Z</time></trkpt><trkpt lat="44.94522741823421" lon="9.188570548784568"><ele>211.0</ele><time>2026-05-01T08:37:55.99Z</time></trkpt><trkpt lat="44.94529800817354" lon="9.188577409517597"><ele>210.49999999999997</ele><time>2026-05-01T08:37:56.99Z</time></trkpt><trkpt lat="44.94536896613941" lon="9.188593522054118"><ele>210.0</ele><time>2026-05-01T08:37:57.99Z</time></trkpt><trkpt lat="44.94544529133541" lon="9.188589048766298"><ele>209.5</ele><time>2026-05-01T08:37:58.99Z</time></trkpt><trkpt lat="44.94551883698068" lon="9.188583863615765"><ele>209.0</ele><time>2026-05-01T08:37:59.99Z</time></trkpt><trkpt lat="44.94559801707044" lon="9.188580362467684"><ele>208.49999999999997</ele><time>2026-05-01T08:38:00.99Z</time></trkpt><trkpt lat="44.94569502158736" lon="9.18858093838284"><ele>208.0</ele><time>2026-05-01T08:38:01.99Z</time></trkpt><trkpt lat="44.945781697344785" lon="9.188590144778376"><ele>207.99999999999997</ele><time>2026-05-01T08:38:02.99Z</time></trkpt><trkpt lat="44.94585570917061" lon="9.18861755939199"><ele>208.0</ele><time>2026-05-01T08:38:03.99Z</time></trkpt><trkpt lat="44.945926429968424" lon="9.188680818226814"><ele>208.0</ele><time>2026-05-01T08:38:04.99Z</time></trkpt><trkpt lat="44.94598239906203" lon="9.188760274705787"><ele>208.0</ele><time>2026-05-01T08:38:05.99Z</time></trkpt><trkpt lat="44.94601769071943" lon="9.188862935927727"><ele>207.99999999999997</ele><time>2026-05-01T08:38:06.99Z</time></trkpt><trkpt lat="44.94604248370644" lon="9.188969777307245"><ele>208.0</ele><time>2026-05-01T08:38:07.99Z</time></trkpt><trkpt lat="44.946063513418764" lon="9.189078197916043"><ele>207.33333333333331</ele><time>2026-05-01T08:38:08.99Z</time></trkpt><trkpt lat="44.946080536468266" lon="9.189192979563344"><ele>206.66666666666666</ele><time>2026-05-01T08:38:09.99Z</time></trkpt><trkpt lat="44.94610395265102" lon="9.189295610418446"><ele>206.0</ele><time>2026-05-01T08:38:10.99Z</time></trkpt><trkpt lat="44.946145095498295" lon="9.189474834440233"><ele>205.33333333333331</ele><time>2026-05-01T08:38:12.99Z</time></trkpt><trkpt lat="44.946165418798024" lon="9.189564197330894"><ele>204.66666666666666</ele><time>2026-05-01T08:38:13.99Z</time></trkpt><trkpt lat="44.94618867443196" lon="9.189653592472588"><ele>204.0</ele><time>2026-05-01T08:38:14.989Z</time></trkpt><trkpt lat="44.946213136593876" lon="9.189744480089887"><ele>205.0</ele><time>2026-05-01T08:38:15.989Z</time></trkpt><trkpt lat="44.946298706832465" lon="9.189892708225086"><ele>206.0</ele><time>2026-05-01T08:38:17.989Z</time></trkpt><trkpt lat="44.94636437632992" lon="9.189931509495135"><ele>207.0</ele><time>2026-05-01T08:38:18.989Z</time></trkpt><trkpt lat="44.94645476031375" lon="9.189901130640184"><ele>208.0</ele><time>2026-05-01T08:38:19.989Z</time></trkpt><trkpt lat="44.94653809601595" lon="9.189888638450793"><ele>209.0</ele><time>2026-05-01T08:38:20.989Z</time></trkpt><trkpt lat="44.94660511892625" lon="9.189861236506507"><ele>208.33333333333334</ele><time>2026-05-01T08:38:21.989Z</time></trkpt><trkpt lat="44.94668363015983" lon="9.18983637146313"><ele>207.66666666666669</ele><time>2026-05-01T08:38:22.989Z</time></trkpt><trkpt lat="44.94674674928997" lon="9.189795013775353"><ele>207.0</ele><time>2026-05-01T08:38:23.989Z</time></trkpt><trkpt lat="44.94681087187888" lon="9.189741745689437"><ele>206.33333333333331</ele><time>2026-05-01T08:38:24.989Z</time></trkpt><trkpt lat="44.94687839873788" lon="9.189686914889117"><ele>205.66666666666666</ele><time>2026-05-01T08:38:25.989Z</time></trkpt><trkpt lat="44.946947707851976" lon="9.189624461252851"><ele>205.0</ele><time>2026-05-01T08:38:26.989Z</time></trkpt><trkpt lat="44.947017632851356" lon="9.189562482362797"><ele>204.99999999999997</ele><time>2026-05-01T08:38:27.989Z</time></trkpt><trkpt lat="44.947074472787996" lon="9.189494109460973"><ele>205.0</ele><time>2026-05-01T08:38:28.989Z</time></trkpt><trkpt lat="44.94713549711784" lon="9.189431522229416"><ele>205.0</ele><time>2026-05-01T08:38:29.989Z</time></trkpt><trkpt lat="44.94720188513119" lon="9.189368532718916"><ele>205.0</ele><time>2026-05-01T08:38:30.989Z</time></trkpt><trkpt lat="44.94726295655766" lon="9.18930211653976"><ele>204.99999999999997</ele><time>2026-05-01T08:38:31.989Z</time></trkpt><trkpt lat="44.94732120547965" lon="9.189230841697954"><ele>205.0</ele><time>2026-05-01T08:38:32.989Z</time></trkpt><trkpt lat="44.947381660143" lon="9.18915723377998"><ele>204.99999999999997</ele><time>2026-05-01T08:38:33.989Z</time></trkpt><trkpt lat="44.94745272968906" lon="9.189100034249515"><ele>205.0</ele><time>2026-05-01T08:38:34.989Z</time></trkpt><trkpt lat="44.947519571744536" lon="9.18903909325917"><ele>205.0</ele><time>2026-05-01T08:38:35.989Z</time></trkpt><trkpt lat="44.94758913768301" lon="9.188983042569125"><ele>205.0</ele><time>2026-05-01T08:38:36.989Z</time></trkpt><trkpt lat="44.947648247943185" lon="9.188910200285925"><ele>204.99999999999997</ele><time>2026-05-01T08:38:37.989Z</time></trkpt><trkpt lat="44.94771741807566" lon="9.18884832000843"><ele>205.0</ele><time>2026-05-01T08:38:38.989Z</time></trkpt><trkpt lat="44.947777561292924" lon="9.188788186079089"><ele>204.33333333333331</ele><time>2026-05-01T08:38:39.989Z</time></trkpt><trkpt lat="44.94784680733128" lon="9.188730236874516"><ele>203.66666666666666</ele><time>2026-05-01T08:38:40.989Z</time></trkpt><trkpt lat="44.94791054961005" lon="9.1886642245205"><ele>203.0</ele><time>2026-05-01T08:38:41.989Z</time></trkpt><trkpt lat="44.9479711232412" lon="9.188585494316712"><ele>202.33333333333331</ele><time>2026-05-01T08:38:42.989Z</time></trkpt><trkpt lat="44.94803020277466" lon="9.188506931608332"><ele>201.66666666666666</ele><time>2026-05-01T08:38:43.989Z</time></trkpt><trkpt lat="44.94808968730263" lon="9.188431905071882"><ele>201.0</ele><time>2026-05-01T08:38:44.989Z</time></trkpt><trkpt lat="44.94815195603303" lon="9.188348841944055"><ele>201.0</ele><time>2026-05-01T08:38:45.989Z</time></trkpt><trkpt lat="44.94821277244054" lon="9.188265491425465"><ele>201.0</ele><time>2026-05-01T08:38:46.989Z</time></trkpt><trkpt lat="44.948274930734804" lon="9.188173465023336"><ele>201.0</ele><time>2026-05-01T08:38:47.989Z</time></trkpt><trkpt lat="44.948337023071566" lon="9.188076924100493"><ele>201.0</ele><time>2026-05-01T08:38:48.989Z</time></trkpt><trkpt lat="44.94838892852893" lon="9.187992003966336"><ele>201.0</ele><time>2026-05-01T08:38:49.989Z</time></trkpt><trkpt lat="44.9484480257006" lon="9.18790027273759"><ele>201.0</ele><time>2026-05-01T08:38:50.989Z</time></trkpt><trkpt lat="44.94851314703617" lon="9.187812611995005"><ele>200.83333333333334</ele><time>2026-05-01T08:38:51.989Z</time></trkpt><trkpt lat="44.948578538400355" lon="9.187728134747323"><ele>200.66666666666669</ele><time>2026-05-01T08:38:52.989Z</time></trkpt><trkpt lat="44.948634827218484" lon="9.187636957931147"><ele>200.5</ele><time>2026-05-01T08:38:53.989Z</time></trkpt><trkpt lat="44.94870029239128" lon="9.18754572528855"><ele>200.33333333333334</ele><time>2026-05-01T08:38:54.989Z</time></trkpt><trkpt lat="44.94875342735675" lon="9.187460879873708"><ele>200.16666666666669</ele><time>2026-05-01T08:38:55.989Z</time></trkpt><trkpt lat="44.94880969885498" lon="9.187369552814943"><ele>200.0</ele><time>2026-05-01T08:38:56.989Z</time></trkpt><trkpt lat="44.948869564189955" lon="9.187274039818403"><ele>199.83333333333334</ele><time>2026-05-01T08:38:57.989Z</time></trkpt><trkpt lat="44.948929454038016" lon="9.187177938145123"><ele>199.66666666666669</ele><time>2026-05-01T08:38:58.989Z</time></trkpt><trkpt lat="44.94898791141266" lon="9.187106509642827"><ele>199.5</ele><time>2026-05-01T08:38:59.989Z</time></trkpt><trkpt lat="44.94904727246154" lon="9.187017567428198"><ele>199.33333333333331</ele><time>2026-05-01T08:39:00.989Z</time></trkpt><trkpt lat="44.94910161896024" lon="9.186937846507915"><ele>199.16666666666666</ele><time>2026-05-01T08:39:01.989Z</time></trkpt><trkpt lat="44.94916734819524" lon="9.186850264850934"><ele>199.0</ele><time>2026-05-01T08:39:02.989Z</time></trkpt><trkpt lat="44.94921635603405" lon="9.18675712661961"><ele>198.99999999999997</ele><time>2026-05-01T08:39:03.989Z</time></trkpt><trkpt lat="44.94926957355569" lon="9.186673577761646"><ele>199.0</ele><time>2026-05-01T08:39:04.989Z</time></trkpt><trkpt lat="44.94933136709735" lon="9.18658723297368"><ele>199.0</ele><time>2026-05-01T08:39:05.989Z</time></trkpt><trkpt lat="44.94938692973975" lon="9.186505371182905"><ele>199.0</ele><time>2026-05-01T08:39:06.989Z</time></trkpt><trkpt lat="44.94944201302666" lon="9.18642396723816"><ele>198.99999999999997</ele><time>2026-05-01T08:39:07.989Z</time></trkpt><trkpt lat="44.94949879563021" lon="9.186346113359054"><ele>199.0</ele><time>2026-05-01T08:39:08.989Z</time></trkpt><trkpt lat="44.949558692717375" lon="9.18626585884966"><ele>198.99999999999997</ele><time>2026-05-01T08:39:09.989Z</time></trkpt><trkpt lat="44.94960731455033" lon="9.186191119297453"><ele>199.0</ele><time>2026-05-01T08:39:10.989Z</time></trkpt><trkpt lat="44.94966330546947" lon="9.18610689998362"><ele>199.0</ele><time>2026-05-01T08:39:11.989Z</time></trkpt><trkpt lat="44.94972050538613" lon="9.18602488935563"><ele>199.0</ele><time>2026-05-01T08:39:12.989Z</time></trkpt><trkpt lat="44.94977681996155" lon="9.185937061678692"><ele>198.99999999999997</ele><time>2026-05-01T08:39:13.989Z</time></trkpt><trkpt lat="44.94982691611467" lon="9.185853844327934"><ele>199.0</ele><time>2026-05-01T08:39:14.989Z</time></trkpt><trkpt lat="44.949883632901354" lon="9.185769873420796"><ele>198.99999999999997</ele><time>2026-05-01T08:39:15.989Z</time></trkpt><trkpt lat="44.94994948331154" lon="9.185690897072334"><ele>199.0</ele><time>2026-05-01T08:39:16.989Z</time></trkpt><trkpt lat="44.95000293276712" lon="9.18561119168704"><ele>199.0</ele><time>2026-05-01T08:39:17.989Z</time></trkpt><trkpt lat="44.95005059046739" lon="9.185536581073293"><ele>199.0</ele><time>2026-05-01T08:39:18.989Z</time></trkpt><trkpt lat="44.95010026362804" lon="9.185455197798994"><ele>198.99999999999997</ele><time>2026-05-01T08:39:19.989Z</time></trkpt><trkpt lat="44.95015761977473" lon="9.18537152043589"><ele>199.0</ele><time>2026-05-01T08:39:20.989Z</time></trkpt><trkpt lat="44.950208224436224" lon="9.185291351367798"><ele>199.49999999999997</ele><time>2026-05-01T08:39:21.989Z</time></trkpt><trkpt lat="44.950259977043956" lon="9.185213640143948"><ele>200.0</ele><time>2026-05-01T08:39:22.989Z</time></trkpt><trkpt lat="44.95031557461311" lon="9.185136351763424"><ele>200.5</ele><time>2026-05-01T08:39:23.989Z</time></trkpt><trkpt lat="44.95036607660013" lon="9.185059427166061"><ele>201.0</ele><time>2026-05-01T08:39:24.989Z</time></trkpt><trkpt lat="44.95041898426868" lon="9.184981509025636"><ele>201.49999999999997</ele><time>2026-05-01T08:39:25.989Z</time></trkpt><trkpt lat="44.950473235690325" lon="9.184898875138334"><ele>202.0</ele><time>2026-05-01T08:39:26.989Z</time></trkpt><trkpt lat="44.950529835216145" lon="9.184817176124717"><ele>200.99999999999997</ele><time>2026-05-01T08:39:27.989Z</time></trkpt><trkpt lat="44.95058382299617" lon="9.184740870912272"><ele>200.0</ele><time>2026-05-01T08:39:28.989Z</time></trkpt><trkpt lat="44.95063380968585" lon="9.184659229606648"><ele>199.0</ele><time>2026-05-01T08:39:29.989Z</time></trkpt><trkpt lat="44.95068844549308" lon="9.184573975784126"><ele>198.0</ele><time>2026-05-01T08:39:30.989Z</time></trkpt><trkpt lat="44.95074371702644" lon="9.184487827925405"><ele>196.99999999999997</ele><time>2026-05-01T08:39:31.989Z</time></trkpt><trkpt lat="44.950791917792294" lon="9.184402595582881"><ele>196.0</ele><time>2026-05-01T08:39:32.989Z</time></trkpt><trkpt lat="44.95084970424212" lon="9.184314190563459"><ele>196.16666666666666</ele><time>2026-05-01T08:39:33.989Z</time></trkpt><trkpt lat="44.95090768076384" lon="9.184228697159988"><ele>196.33333333333331</ele><time>2026-05-01T08:39:34.988Z</time></trkpt><trkpt lat="44.950955234507774" lon="9.184144001022565"><ele>196.5</ele><time>2026-05-01T08:39:35.988Z</time></trkpt><trkpt lat="44.951014082396526" lon="9.184050763824617"><ele>196.66666666666669</ele><time>2026-05-01T08:39:36.988Z</time></trkpt><trkpt lat="44.951079415807676" lon="9.183954362343151"><ele>196.83333333333334</ele><time>2026-05-01T08:39:37.988Z</time></trkpt><trkpt lat="44.951136531379056" lon="9.18386197428583"><ele>197.0</ele><time>2026-05-01T08:39:38.988Z</time></trkpt><trkpt lat="44.95119266189057" lon="9.183780360363057"><ele>197.00000000000003</ele><time>2026-05-01T08:39:39.988Z</time></trkpt><trkpt lat="44.951246630430774" lon="9.18369229540758"><ele>197.0</ele><time>2026-05-01T08:39:40.988Z</time></trkpt><trkpt lat="44.95130641496465" lon="9.183597924678152"><ele>197.0</ele><time>2026-05-01T08:39:41.988Z</time></trkpt><trkpt lat="44.95136975969611" lon="9.183509256213627"><ele>197.0</ele><time>2026-05-01T08:39:42.988Z</time></trkpt><trkpt lat="44.95142745583758" lon="9.183423593895009"><ele>197.00000000000003</ele><time>2026-05-01T08:39:43.988Z</time></trkpt><trkpt lat="44.951485274061696" lon="9.183330615257974"><ele>197.0</ele><time>2026-05-01T08:39:44.988Z</time></trkpt><trkpt lat="44.951541222802156" lon="9.183237542194435"><ele>196.33333333333334</ele><time>2026-05-01T08:39:45.988Z</time></trkpt><trkpt lat="44.95159120404388" lon="9.183150177337861"><ele>195.66666666666669</ele><time>2026-05-01T08:39:46.988Z</time></trkpt><trkpt lat="44.951638986391785" lon="9.183054014841634"><ele>195.0</ele><time>2026-05-01T08:39:47.988Z</time></trkpt><trkpt lat="44.95168931171942" lon="9.182949335257245"><ele>194.33333333333331</ele><time>2026-05-01T08:39:48.988Z</time></trkpt><trkpt lat="44.95173647030172" lon="9.182854796416756"><ele>193.66666666666666</ele><time>2026-05-01T08:39:49.988Z</time></trkpt><trkpt lat="44.951788091082605" lon="9.18275151680072"><ele>193.0</ele><time>2026-05-01T08:39:50.988Z</time></trkpt><trkpt lat="44.95182910794137" lon="9.182648964165146"><ele>193.99999999999997</ele><time>2026-05-01T08:39:51.988Z</time></trkpt><trkpt lat="44.951878810326704" lon="9.182549319509"><ele>195.0</ele><time>2026-05-01T08:39:52.99Z</time></trkpt><trkpt lat="44.95192015711983" lon="9.182450477729516"><ele>196.0</ele><time>2026-05-01T08:39:53.989Z</time></trkpt><trkpt lat="44.95196875536354" lon="9.182338810436296"><ele>197.0</ele><time>2026-05-01T08:39:54.989Z</time></trkpt><trkpt lat="44.9520173426851" lon="9.18222731342237"><ele>197.99999999999997</ele><time>2026-05-01T08:39:55.989Z</time></trkpt><trkpt lat="44.952061305342355" lon="9.182121250890033"><ele>199.0</ele><time>2026-05-01T08:39:56.989Z</time></trkpt><trkpt lat="44.95211317088207" lon="9.182007570698518"><ele>198.99999999999997</ele><time>2026-05-01T08:39:57.989Z</time></trkpt><trkpt lat="44.952148837876706" lon="9.181903777882283"><ele>199.0</ele><time>2026-05-01T08:39:58.989Z</time></trkpt><trkpt lat="44.952182715041225" lon="9.181794257067136"><ele>199.0</ele><time>2026-05-01T08:39:59.99Z</time></trkpt><trkpt lat="44.952223058794026" lon="9.181671069977966"><ele>199.0</ele><time>2026-05-01T08:40:00.989Z</time></trkpt><trkpt lat="44.95224850490121" lon="9.18155216723932"><ele>198.99999999999997</ele><time>2026-05-01T08:40:01.989Z</time></trkpt><trkpt lat="44.95228366237699" lon="9.18142707539429"><ele>199.0</ele><time>2026-05-01T08:40:02.989Z</time></trkpt><trkpt lat="44.952308176964024" lon="9.181304412451198"><ele>197.99999999999997</ele><time>2026-05-01T08:40:03.989Z</time></trkpt><trkpt lat="44.9523304090831" lon="9.181197110475429"><ele>197.0</ele><time>2026-05-01T08:40:04.99Z</time></trkpt><trkpt lat="44.95235881931248" lon="9.18108567123109"><ele>196.0</ele><time>2026-05-01T08:40:05.99Z</time></trkpt><trkpt lat="44.9523852468456" lon="9.180978496719689"><ele>195.0</ele><time>2026-05-01T08:40:06.99Z</time></trkpt><trkpt lat="44.95241841712041" lon="9.180866591645866"><ele>193.99999999999997</ele><time>2026-05-01T08:40:07.99Z</time></trkpt><trkpt lat="44.95245158224795" lon="9.180746331162558"><ele>193.0</ele><time>2026-05-01T08:40:08.99Z</time></trkpt><trkpt lat="44.95249612924557" lon="9.180619732763029"><ele>193.0</ele><time>2026-05-01T08:40:09.99Z</time></trkpt><trkpt lat="44.952538508440945" lon="9.180497922909138"><ele>193.0</ele><time>2026-05-01T08:40:10.99Z</time></trkpt><trkpt lat="44.95258730437169" lon="9.1803807066095"><ele>193.0</ele><time>2026-05-01T08:40:11.99Z</time></trkpt><trkpt lat="44.95265955730774" lon="9.180249761581495"><ele>193.0</ele><time>2026-05-01T08:40:12.99Z</time></trkpt><trkpt lat="44.952728065391874" lon="9.180121385689402"><ele>193.0</ele><time>2026-05-01T08:40:13.99Z</time></trkpt><trkpt lat="44.95279726228613" lon="9.180006981590955"><ele>193.0</ele><time>2026-05-01T08:40:14.99Z</time></trkpt><trkpt lat="44.952871921840895" lon="9.179876402599142"><ele>193.0</ele><time>2026-05-01T08:40:15.99Z</time></trkpt><trkpt lat="44.95293632816529" lon="9.179748415196338"><ele>193.0</ele><time>2026-05-01T08:40:16.99Z</time></trkpt><trkpt lat="44.9529998534143" lon="9.179636074953637"><ele>193.0</ele><time>2026-05-01T08:40:17.99Z</time></trkpt><trkpt lat="44.95305987400023" lon="9.179511443909005"><ele>193.0</ele><time>2026-05-01T08:40:18.99Z</time></trkpt><trkpt lat="44.95312141427003" lon="9.17939179375553"><ele>192.60000000000002</ele><time>2026-05-01T08:40:19.99Z</time></trkpt><trkpt lat="44.95318098316166" lon="9.179272375620263"><ele>192.20000000000002</ele><time>2026-05-01T08:40:20.99Z</time></trkpt><trkpt lat="44.953233273868655" lon="9.179159935017214"><ele>191.8</ele><time>2026-05-01T08:40:21.99Z</time></trkpt><trkpt lat="44.95328701101918" lon="9.179046591772456"><ele>191.4</ele><time>2026-05-01T08:40:22.989Z</time></trkpt><trkpt lat="44.953340486074396" lon="9.17893173235201"><ele>191.0</ele><time>2026-05-01T08:40:23.989Z</time></trkpt><trkpt lat="44.953398643266745" lon="9.178825493149988"><ele>191.0</ele><time>2026-05-01T08:40:24.989Z</time></trkpt><trkpt lat="44.953451488382214" lon="9.17870767625461"><ele>191.0</ele><time>2026-05-01T08:40:25.989Z</time></trkpt><trkpt lat="44.95350637994359" lon="9.178598280707535"><ele>191.0</ele><time>2026-05-01T08:40:26.989Z</time></trkpt><trkpt lat="44.953558391033255" lon="9.17847539364762"><ele>191.0</ele><time>2026-05-01T08:40:27.989Z</time></trkpt><trkpt lat="44.95361490637597" lon="9.178370740339142"><ele>191.0</ele><time>2026-05-01T08:40:28.989Z</time></trkpt><trkpt lat="44.953665906874384" lon="9.178261585254626"><ele>189.60000000000002</ele><time>2026-05-01T08:40:29.989Z</time></trkpt><trkpt lat="44.95372084641879" lon="9.178150701438607"><ele>188.2</ele><time>2026-05-01T08:40:30.989Z</time></trkpt><trkpt lat="44.953776400063354" lon="9.178039443025007"><ele>186.8</ele><time>2026-05-01T08:40:31.989Z</time></trkpt><trkpt lat="44.95383422370245" lon="9.177932475702633"><ele>185.39999999999998</ele><time>2026-05-01T08:40:32.989Z</time></trkpt><trkpt lat="44.95388979142881" lon="9.17782236669208"><ele>184.0</ele><time>2026-05-01T08:40:33.989Z</time></trkpt><trkpt lat="44.95394728007403" lon="9.17771463163992"><ele>184.0</ele><time>2026-05-01T08:40:34.989Z</time></trkpt><trkpt lat="44.953999646235324" lon="9.17760826578145"><ele>184.0</ele><time>2026-05-01T08:40:35.989Z</time></trkpt><trkpt lat="44.954044767611755" lon="9.17748562042736"><ele>184.0</ele><time>2026-05-01T08:40:36.989Z</time></trkpt><trkpt lat="44.954091905842574" lon="9.177366270515524"><ele>184.0</ele><time>2026-05-01T08:40:37.989Z</time></trkpt><trkpt lat="44.954131792569676" lon="9.177248882502777"><ele>184.0</ele><time>2026-05-01T08:40:38.989Z</time></trkpt><trkpt lat="44.954161954558" lon="9.177125504176889"><ele>184.2</ele><time>2026-05-01T08:40:39.989Z</time></trkpt><trkpt lat="44.95419172286055" lon="9.17699862467444"><ele>184.39999999999998</ele><time>2026-05-01T08:40:40.989Z</time></trkpt><trkpt lat="44.95422023711158" lon="9.176876980404773"><ele>184.6</ele><time>2026-05-01T08:40:41.989Z</time></trkpt><trkpt lat="44.954243137198155" lon="9.17675500063856"><ele>184.8</ele><time>2026-05-01T08:40:42.989Z</time></trkpt><trkpt lat="44.95425883724108" lon="9.176637090154102"><ele>185.0</ele><time>2026-05-01T08:40:43.989Z</time></trkpt><trkpt lat="44.95427398146986" lon="9.176508223020997"><ele>185.0</ele><time>2026-05-01T08:40:44.989Z</time></trkpt><trkpt lat="44.954289608257916" lon="9.17638098292532"><ele>185.0</ele><time>2026-05-01T08:40:45.989Z</time></trkpt><trkpt lat="44.95430085921322" lon="9.176259657216919"><ele>185.0</ele><time>2026-05-01T08:40:46.989Z</time></trkpt><trkpt lat="44.95430888351208" lon="9.176137394223685"><ele>185.0</ele><time>2026-05-01T08:40:47.989Z</time></trkpt><trkpt lat="44.95431784093465" lon="9.176005453505176"><ele>185.0</ele><time>2026-05-01T08:40:48.989Z</time></trkpt><trkpt lat="44.95431893815085" lon="9.175878710193057"><ele>185.0</ele><time>2026-05-01T08:40:49.989Z</time></trkpt><trkpt lat="44.954318874461066" lon="9.175754996540446"><ele>184.8</ele><time>2026-05-01T08:40:50.989Z</time></trkpt><trkpt lat="44.95431186809146" lon="9.17563153006767"><ele>184.6</ele><time>2026-05-01T08:40:51.989Z</time></trkpt><trkpt lat="44.95429880946914" lon="9.175496674194918"><ele>184.39999999999998</ele><time>2026-05-01T08:40:52.989Z</time></trkpt><trkpt lat="44.95427482781574" lon="9.175352036860685"><ele>184.2</ele><time>2026-05-01T08:40:53.989Z</time></trkpt><trkpt lat="44.95423844885279" lon="9.17521854641541"><ele>184.0</ele><time>2026-05-01T08:40:54.989Z</time></trkpt><trkpt lat="44.954209881786774" lon="9.17508834618457"><ele>182.6</ele><time>2026-05-01T08:40:55.989Z</time></trkpt><trkpt lat="44.95418735826478" lon="9.174954811322074"><ele>181.2</ele><time>2026-05-01T08:40:56.989Z</time></trkpt><trkpt lat="44.954161456915315" lon="9.174827950761763"><ele>179.79999999999998</ele><time>2026-05-01T08:40:57.989Z</time></trkpt><trkpt lat="44.95413476203093" lon="9.174704045331382"><ele>178.39999999999998</ele><time>2026-05-01T08:40:58.989Z</time></trkpt><trkpt lat="44.95410927496266" lon="9.174584980682692"><ele>177.0</ele><time>2026-05-01T08:40:59.989Z</time></trkpt><trkpt lat="44.95408366504875" lon="9.174466626176745"><ele>176.83333333333334</ele><time>2026-05-01T08:41:00.989Z</time></trkpt><trkpt lat="44.95406209135379" lon="9.17434559831052"><ele>176.66666666666666</ele><time>2026-05-01T08:41:01.989Z</time></trkpt><trkpt lat="44.954046183199075" lon="9.17422567189056"><ele>176.5</ele><time>2026-05-01T08:41:02.989Z</time></trkpt><trkpt lat="44.95403873127653" lon="9.174111443234672"><ele>176.33333333333331</ele><time>2026-05-01T08:41:03.989Z</time></trkpt><trkpt lat="44.954036919884174" lon="9.173985297366793"><ele>176.16666666666666</ele><time>2026-05-01T08:41:04.989Z</time></trkpt><trkpt lat="44.95403465410666" lon="9.173861494052465"><ele>176.0</ele><time>2026-05-01T08:41:05.989Z</time></trkpt><trkpt lat="44.95403241857304" lon="9.173745905779684"><ele>176.0</ele><time>2026-05-01T08:41:06.989Z</time></trkpt><trkpt lat="44.954039729346725" lon="9.173619081109667"><ele>176.0</ele><time>2026-05-01T08:41:07.989Z</time></trkpt><trkpt lat="44.95405192789613" lon="9.173488604675443"><ele>176.0</ele><time>2026-05-01T08:41:08.989Z</time></trkpt><trkpt lat="44.954070747862744" lon="9.173364290802322"><ele>176.0</ele><time>2026-05-01T08:41:09.989Z</time></trkpt><trkpt lat="44.95409689555851" lon="9.17324785990086"><ele>176.0</ele><time>2026-05-01T08:41:10.989Z</time></trkpt><trkpt lat="44.954135505694374" lon="9.173133968709585"><ele>176.0</ele><time>2026-05-01T08:41:11.988Z</time></trkpt><trkpt lat="44.954167949713444" lon="9.173033207522808"><ele>175.83333333333331</ele><time>2026-05-01T08:41:12.988Z</time></trkpt><trkpt lat="44.95420658409771" lon="9.172931719545772"><ele>175.66666666666666</ele><time>2026-05-01T08:41:13.988Z</time></trkpt><trkpt lat="44.954249773231155" lon="9.172831763707459"><ele>175.5</ele><time>2026-05-01T08:41:14.988Z</time></trkpt><trkpt lat="44.954290045432664" lon="9.1727365931608"><ele>175.33333333333334</ele><time>2026-05-01T08:41:15.988Z</time></trkpt><trkpt lat="44.95432592949658" lon="9.172637230059856"><ele>175.16666666666669</ele><time>2026-05-01T08:41:16.988Z</time></trkpt><trkpt lat="44.95436762203386" lon="9.172543079905493"><ele>175.0</ele><time>2026-05-01T08:41:17.988Z</time></trkpt><trkpt lat="44.954411650188476" lon="9.172447437296551"><ele>174.66666666666669</ele><time>2026-05-01T08:41:18.988Z</time></trkpt><trkpt lat="44.954453473440815" lon="9.172355203351051"><ele>174.33333333333334</ele><time>2026-05-01T08:41:19.988Z</time></trkpt><trkpt lat="44.95449324251269" lon="9.17226657922683"><ele>174.0</ele><time>2026-05-01T08:41:20.988Z</time></trkpt><trkpt lat="44.95453641140442" lon="9.172168032530541"><ele>173.66666666666666</ele><time>2026-05-01T08:41:21.988Z</time></trkpt><trkpt lat="44.95458062497114" lon="9.172072687524262"><ele>173.33333333333331</ele><time>2026-05-01T08:41:22.988Z</time></trkpt><trkpt lat="44.954624844908956" lon="9.171981440695884"><ele>173.0</ele><time>2026-05-01T08:41:23.988Z</time></trkpt><trkpt lat="44.95467168493156" lon="9.17187797090065"><ele>173.0</ele><time>2026-05-01T08:41:24.988Z</time></trkpt><trkpt lat="44.95471661905548" lon="9.17177000138506"><ele>173.0</ele><time>2026-05-01T08:41:25.988Z</time></trkpt><trkpt lat="44.95476284215029" lon="9.171670938903654"><ele>173.0</ele><time>2026-05-01T08:41:26.988Z</time></trkpt><trkpt lat="44.95480568006459" lon="9.171573207310217"><ele>173.0</ele><time>2026-05-01T08:41:27.988Z</time></trkpt><trkpt lat="44.95484702531893" lon="9.171469886616322"><ele>173.0</ele><time>2026-05-01T08:41:28.988Z</time></trkpt><trkpt lat="44.95489492585689" lon="9.171363369921904"><ele>173.0</ele><time>2026-05-01T08:41:29.988Z</time></trkpt><trkpt lat="44.95494211172313" lon="9.17125875258898"><ele>172.83333333333331</ele><time>2026-05-01T08:41:30.988Z</time></trkpt><trkpt lat="44.95499101073878" lon="9.171150268439142"><ele>172.66666666666666</ele><time>2026-05-01T08:41:31.988Z</time></trkpt><trkpt lat="44.95503482089614" lon="9.17104062158415"><ele>172.5</ele><time>2026-05-01T08:41:32.988Z</time></trkpt><trkpt lat="44.955073262826645" lon="9.170929939999638"><ele>172.33333333333334</ele><time>2026-05-01T08:41:33.988Z</time></trkpt><trkpt lat="44.95511329819463" lon="9.170823819496324"><ele>172.16666666666669</ele><time>2026-05-01T08:41:34.988Z</time></trkpt><trkpt lat="44.95515380143367" lon="9.170714858986592"><ele>172.0</ele><time>2026-05-01T08:41:35.988Z</time></trkpt><trkpt lat="44.95518531298947" lon="9.170604584372013"><ele>172.33333333333334</ele><time>2026-05-01T08:41:36.988Z</time></trkpt><trkpt lat="44.955209146555895" lon="9.17049334742272"><ele>172.66666666666669</ele><time>2026-05-01T08:41:37.988Z</time></trkpt><trkpt lat="44.95523986144757" lon="9.170384860825132"><ele>173.0</ele><time>2026-05-01T08:41:38.988Z</time></trkpt><trkpt lat="44.955278313300205" lon="9.170286439740405"><ele>173.33333333333334</ele><time>2026-05-01T08:41:39.988Z</time></trkpt><trkpt lat="44.955310981099" lon="9.170179231710856"><ele>173.66666666666666</ele><time>2026-05-01T08:41:40.988Z</time></trkpt><trkpt lat="44.9553405580748" lon="9.17006871927296"><ele>174.0</ele><time>2026-05-01T08:41:41.988Z</time></trkpt><trkpt lat="44.95536588747835" lon="9.169963159488573"><ele>174.0</ele><time>2026-05-01T08:41:42.988Z</time></trkpt><trkpt lat="44.95539191877457" lon="9.169860576047457"><ele>174.0</ele><time>2026-05-01T08:41:43.988Z</time></trkpt><trkpt lat="44.9554180658804" lon="9.169764497457255"><ele>174.0</ele><time>2026-05-01T08:41:44.988Z</time></trkpt><trkpt lat="44.95547810278739" lon="9.169565925898011"><ele>174.0</ele><time>2026-05-01T08:41:46.988Z</time></trkpt><trkpt lat="44.955507967155114" lon="9.169463011914704"><ele>174.0</ele><time>2026-05-01T08:41:47.988Z</time></trkpt><trkpt lat="44.955535836193" lon="9.169359626861956"><ele>173.83333333333334</ele><time>2026-05-01T08:41:48.988Z</time></trkpt><trkpt lat="44.95556515268208" lon="9.169266495752963"><ele>173.66666666666666</ele><time>2026-05-01T08:41:49.988Z</time></trkpt><trkpt lat="44.95559836159496" lon="9.169164348836137"><ele>173.5</ele><time>2026-05-01T08:41:50.988Z</time></trkpt><trkpt lat="44.955627882112424" lon="9.16906093589882"><ele>173.33333333333331</ele><time>2026-05-01T08:41:51.988Z</time></trkpt><trkpt lat="44.95566423008835" lon="9.168964246155854"><ele>173.16666666666666</ele><time>2026-05-01T08:41:52.988Z</time></trkpt><trkpt lat="44.955701868867315" lon="9.168864417919007"><ele>173.0</ele><time>2026-05-01T08:41:53.988Z</time></trkpt><trkpt lat="44.95574416887665" lon="9.168772939130541"><ele>173.0</ele><time>2026-05-01T08:41:54.988Z</time></trkpt><trkpt lat="44.9557902992769" lon="9.168679754000076"><ele>173.0</ele><time>2026-05-01T08:41:55.988Z</time></trkpt><trkpt lat="44.95583812081642" lon="9.16859476337825"><ele>173.0</ele><time>2026-05-01T08:41:56.988Z</time></trkpt><trkpt lat="44.955885901082326" lon="9.168505660526469"><ele>173.0</ele><time>2026-05-01T08:41:57.988Z</time></trkpt><trkpt lat="44.95592908079993" lon="9.16841411682895"><ele>173.0</ele><time>2026-05-01T08:41:58.988Z</time></trkpt><trkpt lat="44.955971310345966" lon="9.168320246366909"><ele>173.0</ele><time>2026-05-01T08:41:59.987Z</time></trkpt><trkpt lat="44.95601483310703" lon="9.168218473539484"><ele>173.5</ele><time>2026-05-01T08:42:00.987Z</time></trkpt><trkpt lat="44.95605448387012" lon="9.168118079194658"><ele>174.0</ele><time>2026-05-01T08:42:01.988Z</time></trkpt><trkpt lat="44.9560845921418" lon="9.168011703237719"><ele>174.5</ele><time>2026-05-01T08:42:02.988Z</time></trkpt><trkpt lat="44.95611691763277" lon="9.16790578355943"><ele>175.0</ele><time>2026-05-01T08:42:03.988Z</time></trkpt><trkpt lat="44.95614511488796" lon="9.16779987242984"><ele>175.5</ele><time>2026-05-01T08:42:04.988Z</time></trkpt><trkpt lat="44.956176458200446" lon="9.167696697701697"><ele>176.0</ele><time>2026-05-01T08:42:05.988Z</time></trkpt><trkpt lat="44.95620662553828" lon="9.167592878606095"><ele>176.0</ele><time>2026-05-01T08:42:06.988Z</time></trkpt><trkpt lat="44.956238461431255" lon="9.167493612167146"><ele>176.0</ele><time>2026-05-01T08:42:07.988Z</time></trkpt><trkpt lat="44.95626524758433" lon="9.167398966848207"><ele>176.0</ele><time>2026-05-01T08:42:08.988Z</time></trkpt><trkpt lat="44.95629310782629" lon="9.167306961046377"><ele>176.0</ele><time>2026-05-01T08:42:09.988Z</time></trkpt><trkpt lat="44.95632243059967" lon="9.167216504512806"><ele>176.0</ele><time>2026-05-01T08:42:10.988Z</time></trkpt><trkpt lat="44.95634807384761" lon="9.167128322566944"><ele>176.0</ele><time>2026-05-01T08:42:11.988Z</time></trkpt><trkpt lat="44.956376450541235" lon="9.167046983685374"><ele>176.0</ele><time>2026-05-01T08:42:12.988Z</time></trkpt><trkpt lat="44.956407506892496" lon="9.166967774283357"><ele>175.71428571428572</ele><time>2026-05-01T08:42:13.988Z</time></trkpt><trkpt lat="44.9564293906274" lon="9.166884102753903"><ele>175.42857142857142</ele><time>2026-05-01T08:42:14.988Z</time></trkpt><trkpt lat="44.956448981114164" lon="9.166792163826843"><ele>175.14285714285714</ele><time>2026-05-01T08:42:15.988Z</time></trkpt><trkpt lat="44.95646445258338" lon="9.166693115376766"><ele>174.85714285714286</ele><time>2026-05-01T08:42:16.988Z</time></trkpt><trkpt lat="44.95647890504488" lon="9.166595990655015"><ele>174.57142857142858</ele><time>2026-05-01T08:42:17.988Z</time></trkpt><trkpt lat="44.95649257410061" lon="9.166498336963741"><ele>174.28571428571428</ele><time>2026-05-01T08:42:18.988Z</time></trkpt><trkpt lat="44.95650256788177" lon="9.166399168034532"><ele>174.0</ele><time>2026-05-01T08:42:19.988Z</time></trkpt><trkpt lat="44.95651420737973" lon="9.16629939105945"><ele>173.71428571428572</ele><time>2026-05-01T08:42:20.988Z</time></trkpt><trkpt lat="44.95652966304615" lon="9.166204235616958"><ele>173.42857142857144</ele><time>2026-05-01T08:42:21.988Z</time></trkpt><trkpt lat="44.95654701092964" lon="9.166108524649067"><ele>173.14285714285717</ele><time>2026-05-01T08:42:22.988Z</time></trkpt><trkpt lat="44.95655876347459" lon="9.166013888501661"><ele>172.85714285714286</ele><time>2026-05-01T08:42:23.988Z</time></trkpt><trkpt lat="44.95657421049672" lon="9.165914951443646"><ele>172.57142857142858</ele><time>2026-05-01T08:42:24.988Z</time></trkpt><trkpt lat="44.95658798957728" lon="9.165823580629958"><ele>172.2857142857143</ele><time>2026-05-01T08:42:25.988Z</time></trkpt><trkpt lat="44.95660516771527" lon="9.165727706847969"><ele>172.0</ele><time>2026-05-01T08:42:26.988Z</time></trkpt><trkpt lat="44.95662391235033" lon="9.165633751903606"><ele>171.71428571428572</ele><time>2026-05-01T08:42:27.988Z</time></trkpt><trkpt lat="44.9566472574606" lon="9.165537046732684"><ele>171.42857142857144</ele><time>2026-05-01T08:42:28.988Z</time></trkpt><trkpt lat="44.956670990853695" lon="9.165444168625179"><ele>171.14285714285717</ele><time>2026-05-01T08:42:29.988Z</time></trkpt><trkpt lat="44.95669794192336" lon="9.165353981551641"><ele>170.85714285714286</ele><time>2026-05-01T08:42:30.988Z</time></trkpt><trkpt lat="44.95672499668755" lon="9.165258096952197"><ele>170.57142857142856</ele><time>2026-05-01T08:42:31.988Z</time></trkpt><trkpt lat="44.956752835169674" lon="9.16516812195353"><ele>170.2857142857143</ele><time>2026-05-01T08:42:32.988Z</time></trkpt><trkpt lat="44.95677806717168" lon="9.165072574565453"><ele>170.0</ele><time>2026-05-01T08:42:33.988Z</time></trkpt><trkpt lat="44.956805294679135" lon="9.164977976341152"><ele>171.33333333333331</ele><time>2026-05-01T08:42:34.988Z</time></trkpt><trkpt lat="44.956829134609215" lon="9.164875948845987"><ele>172.66666666666666</ele><time>2026-05-01T08:42:35.988Z</time></trkpt><trkpt lat="44.95685706597403" lon="9.164775894410594"><ele>174.0</ele><time>2026-05-01T08:42:36.988Z</time></trkpt><trkpt lat="44.95688329311907" lon="9.164676605549749"><ele>175.33333333333334</ele><time>2026-05-01T08:42:37.988Z</time></trkpt><trkpt lat="44.95691453972686" lon="9.16457854979001"><ele>176.66666666666669</ele><time>2026-05-01T08:42:38.988Z</time></trkpt><trkpt lat="44.956944112635256" lon="9.164479990589474"><ele>178.0</ele><time>2026-05-01T08:42:39.988Z</time></trkpt><trkpt lat="44.95697301695412" lon="9.164382695128765"><ele>178.0</ele><time>2026-05-01T08:42:40.988Z</time></trkpt><trkpt lat="44.95700071242301" lon="9.164281895275996"><ele>178.0</ele><time>2026-05-01T08:42:41.988Z</time></trkpt><trkpt lat="44.95702908213968" lon="9.164181445076451"><ele>178.0</ele><time>2026-05-01T08:42:42.988Z</time></trkpt><trkpt lat="44.95705666152661" lon="9.16408325342784"><ele>178.0</ele><time>2026-05-01T08:42:43.988Z</time></trkpt><trkpt lat="44.957084680722744" lon="9.163985444463727"><ele>178.0</ele><time>2026-05-01T08:42:44.988Z</time></trkpt><trkpt lat="44.95711262094327" lon="9.163884606057211"><ele>178.0</ele><time>2026-05-01T08:42:45.988Z</time></trkpt><trkpt lat="44.95714006554229" lon="9.163782548114424"><ele>177.16666666666669</ele><time>2026-05-01T08:42:46.988Z</time></trkpt><trkpt lat="44.95716785448261" lon="9.163682970247738"><ele>176.33333333333334</ele><time>2026-05-01T08:42:47.988Z</time></trkpt><trkpt lat="44.95719578608201" lon="9.16358143586038"><ele>175.5</ele><time>2026-05-01T08:42:48.988Z</time></trkpt><trkpt lat="44.9572275267113" lon="9.163481506091932"><ele>174.66666666666666</ele><time>2026-05-01T08:42:49.988Z</time></trkpt><trkpt lat="44.95725856141497" lon="9.163379962804065"><ele>173.83333333333331</ele><time>2026-05-01T08:42:50.988Z</time></trkpt><trkpt lat="44.957288960166906" lon="9.163276907766654"><ele>173.0</ele><time>2026-05-01T08:42:51.988Z</time></trkpt><trkpt lat="44.957323071141964" lon="9.163176703958651"><ele>172.0</ele><time>2026-05-01T08:42:52.988Z</time></trkpt><trkpt lat="44.95735908274386" lon="9.163073111937889"><ele>171.0</ele><time>2026-05-01T08:42:53.988Z</time></trkpt><trkpt lat="44.95739096885796" lon="9.162961139625512"><ele>170.0</ele><time>2026-05-01T08:42:54.988Z</time></trkpt><trkpt lat="44.957427246236655" lon="9.16285376297648"><ele>169.0</ele><time>2026-05-01T08:42:55.988Z</time></trkpt><trkpt lat="44.95746791657154" lon="9.162747509762067"><ele>168.0</ele><time>2026-05-01T08:42:56.988Z</time></trkpt><trkpt lat="44.95750260226687" lon="9.162640049413953"><ele>167.0</ele><time>2026-05-01T08:42:57.988Z</time></trkpt><trkpt lat="44.95753812617827" lon="9.162537378640385"><ele>168.16666666666666</ele><time>2026-05-01T08:42:58.988Z</time></trkpt><trkpt lat="44.95756857162037" lon="9.16243133109889"><ele>169.33333333333331</ele><time>2026-05-01T08:42:59.988Z</time></trkpt><trkpt lat="44.95760353835825" lon="9.162328855303686"><ele>170.5</ele><time>2026-05-01T08:43:00.987Z</time></trkpt><trkpt lat="44.95763965112289" lon="9.162229057682447"><ele>171.66666666666666</ele><time>2026-05-01T08:43:01.987Z</time></trkpt><trkpt lat="44.95767425477318" lon="9.162130394471836"><ele>172.83333333333334</ele><time>2026-05-01T08:43:02.987Z</time></trkpt><trkpt lat="44.957705076977824" lon="9.162031521157163"><ele>174.0</ele><time>2026-05-01T08:43:03.987Z</time></trkpt><trkpt lat="44.95773753754561" lon="9.161928223986608"><ele>174.0</ele><time>2026-05-01T08:43:04.987Z</time></trkpt><trkpt lat="44.95776938154047" lon="9.161831504173819"><ele>174.0</ele><time>2026-05-01T08:43:05.987Z</time></trkpt><trkpt lat="44.95780343113485" lon="9.161730376607457"><ele>174.0</ele><time>2026-05-01T08:43:06.987Z</time></trkpt><trkpt lat="44.957837714885365" lon="9.161630568751695"><ele>174.0</ele><time>2026-05-01T08:43:07.987Z</time></trkpt><trkpt lat="44.95787005047288" lon="9.161530947876905"><ele>174.0</ele><time>2026-05-01T08:43:08.987Z</time></trkpt><trkpt lat="44.9578998869567" lon="9.161433412915683"><ele>174.0</ele><time>2026-05-01T08:43:09.987Z</time></trkpt><trkpt lat="44.9579279190436" lon="9.161336981656538"><ele>173.33333333333334</ele><time>2026-05-01T08:43:10.987Z</time></trkpt><trkpt lat="44.957958041263254" lon="9.161240967247144"><ele>172.66666666666666</ele><time>2026-05-01T08:43:11.987Z</time></trkpt><trkpt lat="44.957992262858234" lon="9.161147996319654"><ele>172.0</ele><time>2026-05-01T08:43:12.987Z</time></trkpt><trkpt lat="44.95802337251492" lon="9.161045171711404"><ele>171.33333333333331</ele><time>2026-05-01T08:43:13.987Z</time></trkpt><trkpt lat="44.95805539890807" lon="9.160944893950463"><ele>170.66666666666666</ele><time>2026-05-01T08:43:14.987Z</time></trkpt><trkpt lat="44.95808407156743" lon="9.160842690534322"><ele>170.0</ele><time>2026-05-01T08:43:15.987Z</time></trkpt><trkpt lat="44.95811793809688" lon="9.160744471958111"><ele>169.83333333333331</ele><time>2026-05-01T08:43:16.987Z</time></trkpt><trkpt lat="44.958146105970265" lon="9.16064182370652"><ele>169.66666666666666</ele><time>2026-05-01T08:43:17.987Z</time></trkpt><trkpt lat="44.958177924751595" lon="9.160538432556567"><ele>169.5</ele><time>2026-05-01T08:43:18.987Z</time></trkpt><trkpt lat="44.958205816778516" lon="9.160434389815604"><ele>169.33333333333334</ele><time>2026-05-01T08:43:19.987Z</time></trkpt><trkpt lat="44.95823441742469" lon="9.16033846457712"><ele>169.16666666666669</ele><time>2026-05-01T08:43:20.987Z</time></trkpt><trkpt lat="44.958266425159536" lon="9.160233079902712"><ele>169.0</ele><time>2026-05-01T08:43:21.987Z</time></trkpt><trkpt lat="44.95829394278919" lon="9.16013133213466"><ele>169.0</ele><time>2026-05-01T08:43:22.987Z</time></trkpt><trkpt lat="44.95832033313594" lon="9.160028180914196"><ele>169.0</ele><time>2026-05-01T08:43:23.987Z</time></trkpt><trkpt lat="44.958342878414186" lon="9.159921063523933"><ele>169.0</ele><time>2026-05-01T08:43:24.987Z</time></trkpt><trkpt lat="44.958365974445606" lon="9.159813298307453"><ele>169.0</ele><time>2026-05-01T08:43:25.987Z</time></trkpt><trkpt lat="44.958385369459" lon="9.159699502774835"><ele>169.0</ele><time>2026-05-01T08:43:26.987Z</time></trkpt><trkpt lat="44.95840902515974" lon="9.159591589421"><ele>169.0</ele><time>2026-05-01T08:43:27.987Z</time></trkpt><trkpt lat="44.9584320863254" lon="9.159481799486874"><ele>169.33333333333334</ele><time>2026-05-01T08:43:28.987Z</time></trkpt><trkpt lat="44.95845728235956" lon="9.159374634853389"><ele>169.66666666666669</ele><time>2026-05-01T08:43:29.987Z</time></trkpt><trkpt lat="44.95848100702598" lon="9.159269207054637"><ele>170.0</ele><time>2026-05-01T08:43:30.987Z</time></trkpt><trkpt lat="44.95850832623391" lon="9.1591641996015"><ele>170.33333333333334</ele><time>2026-05-01T08:43:31.987Z</time></trkpt><trkpt lat="44.95853428887068" lon="9.159065421626444"><ele>170.66666666666666</ele><time>2026-05-01T08:43:32.987Z</time></trkpt><trkpt lat="44.95856113853537" lon="9.158965527879927"><ele>171.0</ele><time>2026-05-01T08:43:33.987Z</time></trkpt><trkpt lat="44.95858843542461" lon="9.158862286955253"><ele>171.0</ele><time>2026-05-01T08:43:34.987Z</time></trkpt><trkpt lat="44.958619979705716" lon="9.158764711246818"><ele>171.0</ele><time>2026-05-01T08:43:35.987Z</time></trkpt><trkpt lat="44.95865317815281" lon="9.15866983182912"><ele>171.0</ele><time>2026-05-01T08:43:36.987Z</time></trkpt><trkpt lat="44.95868383986222" lon="9.158577933755799"><ele>171.0</ele><time>2026-05-01T08:43:37.987Z</time></trkpt><trkpt lat="44.958717895492114" lon="9.158478937239016"><ele>171.0</ele><time>2026-05-01T08:43:38.987Z</time></trkpt><trkpt lat="44.95875280181481" lon="9.15838030062982"><ele>171.0</ele><time>2026-05-01T08:43:39.987Z</time></trkpt><trkpt lat="44.95878664387172" lon="9.158285477961156"><ele>170.7142857142857</ele><time>2026-05-01T08:43:40.987Z</time></trkpt><trkpt lat="44.958818068243204" lon="9.158190678072865"><ele>170.42857142857142</ele><time>2026-05-01T08:43:41.987Z</time></trkpt><trkpt lat="44.95885301961256" lon="9.158099931945532"><ele>170.14285714285714</ele><time>2026-05-01T08:43:42.987Z</time></trkpt><trkpt lat="44.958888123112246" lon="9.158006574082178"><ele>169.85714285714283</ele><time>2026-05-01T08:43:43.987Z</time></trkpt><trkpt lat="44.958920211960795" lon="9.157912971967425"><ele>169.57142857142856</ele><time>2026-05-01T08:43:44.987Z</time></trkpt><trkpt lat="44.958954294666306" lon="9.157818263338754"><ele>169.28571428571428</ele><time>2026-05-01T08:43:45.987Z</time></trkpt><trkpt lat="44.95899176252438" lon="9.15772571842078"><ele>169.0</ele><time>2026-05-01T08:43:46.987Z</time></trkpt><trkpt lat="44.95902955954115" lon="9.157638767866823"><ele>169.0</ele><time>2026-05-01T08:43:47.987Z</time></trkpt><trkpt lat="44.95906456368453" lon="9.157549853438406"><ele>169.0</ele><time>2026-05-01T08:43:48.987Z</time></trkpt><trkpt lat="44.959099986120165" lon="9.157458499672634"><ele>169.0</ele><time>2026-05-01T08:43:49.987Z</time></trkpt><trkpt lat="44.959136238879964" lon="9.157365214813035"><ele>169.0</ele><time>2026-05-01T08:43:50.987Z</time></trkpt><trkpt lat="44.95917182553463" lon="9.157270531371923"><ele>169.0</ele><time>2026-05-01T08:43:51.987Z</time></trkpt><trkpt lat="44.95920375225636" lon="9.15717221193191"><ele>169.0</ele><time>2026-05-01T08:43:52.987Z</time></trkpt><trkpt lat="44.959237504678306" lon="9.157073857164837"><ele>168.66666666666669</ele><time>2026-05-01T08:43:53.987Z</time></trkpt><trkpt lat="44.959273669802755" lon="9.156977598624172"><ele>168.33333333333334</ele><time>2026-05-01T08:43:54.987Z</time></trkpt><trkpt lat="44.95930825045076" lon="9.156879759888072"><ele>168.0</ele><time>2026-05-01T08:43:55.987Z</time></trkpt><trkpt lat="44.9593355947386" lon="9.156777669004635"><ele>167.66666666666666</ele><time>2026-05-01T08:43:56.987Z</time></trkpt><trkpt lat="44.95936873724602" lon="9.156680159541736"><ele>167.33333333333331</ele><time>2026-05-01T08:43:57.987Z</time></trkpt><trkpt lat="44.95940787327365" lon="9.15658028173174"><ele>167.0</ele><time>2026-05-01T08:43:58.987Z</time></trkpt><trkpt lat="44.959448255252326" lon="9.156480957813084"><ele>167.0</ele><time>2026-05-01T08:43:59.987Z</time></trkpt><trkpt lat="44.95949216168395" lon="9.15638416805463"><ele>167.0</ele><time>2026-05-01T08:44:00.987Z</time></trkpt><trkpt lat="44.95953991869555" lon="9.156289982080999"><ele>167.0</ele><time>2026-05-01T08:44:01.987Z</time></trkpt><trkpt lat="44.95958693872481" lon="9.156199430588252"><ele>167.0</ele><time>2026-05-01T08:44:02.987Z</time></trkpt><trkpt lat="44.9596415111076" lon="9.156117747124522"><ele>167.0</ele><time>2026-05-01T08:44:03.987Z</time></trkpt><trkpt lat="44.95969945112647" lon="9.156036027984275"><ele>167.0</ele><time>2026-05-01T08:44:04.987Z</time></trkpt><trkpt lat="44.95975522528895" lon="9.155947414028327"><ele>167.0</ele><time>2026-05-01T08:44:05.987Z</time></trkpt><trkpt lat="44.95981346451848" lon="9.155860026536192"><ele>167.0</ele><time>2026-05-01T08:44:06.987Z</time></trkpt><trkpt lat="44.95986895745899" lon="9.155771809765927"><ele>167.0</ele><time>2026-05-01T08:44:07.987Z</time></trkpt><trkpt lat="44.95992300002365" lon="9.15568684813515"><ele>167.0</ele><time>2026-05-01T08:44:08.987Z</time></trkpt><trkpt lat="44.95996491271627" lon="9.15559697156205"><ele>167.0</ele><time>2026-05-01T08:44:09.987Z</time></trkpt><trkpt lat="44.96002076105977" lon="9.15550631647211"><ele>167.0</ele><time>2026-05-01T08:44:10.986Z</time></trkpt><trkpt lat="44.96007316074286" lon="9.155414375498323"><ele>166.71428571428572</ele><time>2026-05-01T08:44:11.987Z</time></trkpt><trkpt lat="44.96012657459846" lon="9.15533495321842"><ele>166.42857142857144</ele><time>2026-05-01T08:44:12.987Z</time></trkpt><trkpt lat="44.960179381071065" lon="9.155260975475988"><ele>166.14285714285717</ele><time>2026-05-01T08:44:13.986Z</time></trkpt><trkpt lat="44.96023014099017" lon="9.15518721716554"><ele>165.85714285714286</ele><time>2026-05-01T08:44:14.987Z</time></trkpt><trkpt lat="44.960285521419884" lon="9.15512516652811"><ele>165.57142857142858</ele><time>2026-05-01T08:44:15.987Z</time></trkpt><trkpt lat="44.960344276744316" lon="9.15505886597634"><ele>165.2857142857143</ele><time>2026-05-01T08:44:16.987Z</time></trkpt><trkpt lat="44.96040405730346" lon="9.154991886709006"><ele>165.0</ele><time>2026-05-01T08:44:17.987Z</time></trkpt><trkpt lat="44.960461637081536" lon="9.154925856026614"><ele>163.66666666666666</ele><time>2026-05-01T08:44:18.987Z</time></trkpt><trkpt lat="44.96051907850028" lon="9.154858858241841"><ele>162.33333333333334</ele><time>2026-05-01T08:44:19.987Z</time></trkpt><trkpt lat="44.96058691428235" lon="9.154789363936274"><ele>161.0</ele><time>2026-05-01T08:44:20.987Z</time></trkpt><trkpt lat="44.96065048172103" lon="9.154717540675554"><ele>159.66666666666669</ele><time>2026-05-01T08:44:21.986Z</time></trkpt><trkpt lat="44.96071312537442" lon="9.154649407076382"><ele>158.33333333333334</ele><time>2026-05-01T08:44:22.986Z</time></trkpt><trkpt lat="44.96077995103924" lon="9.154572270748137"><ele>157.0</ele><time>2026-05-01T08:44:23.986Z</time></trkpt><trkpt lat="44.96084486372639" lon="9.154488000616723"><ele>158.66666666666669</ele><time>2026-05-01T08:44:24.986Z</time></trkpt><trkpt lat="44.96092085088401" lon="9.154408757881768"><ele>160.33333333333334</ele><time>2026-05-01T08:44:25.986Z</time></trkpt><trkpt lat="44.96099367909868" lon="9.154327946090849"><ele>162.0</ele><time>2026-05-01T08:44:26.986Z</time></trkpt><trkpt lat="44.96106262103933" lon="9.15425097637798"><ele>163.66666666666666</ele><time>2026-05-01T08:44:27.986Z</time></trkpt><trkpt lat="44.96113562967771" lon="9.154179318044637"><ele>165.33333333333331</ele><time>2026-05-01T08:44:28.986Z</time></trkpt><trkpt lat="44.9612030122095" lon="9.15411281056897"><ele>167.0</ele><time>2026-05-01T08:44:29.986Z</time></trkpt><trkpt lat="44.961272850260535" lon="9.154049130709177"><ele>165.5</ele><time>2026-05-01T08:44:30.986Z</time></trkpt><trkpt lat="44.961338896379715" lon="9.153982557447314"><ele>164.0</ele><time>2026-05-01T08:44:31.986Z</time></trkpt><trkpt lat="44.961397244122864" lon="9.153910093521207"><ele>162.5</ele><time>2026-05-01T08:44:32.986Z</time></trkpt><trkpt lat="44.96146311582757" lon="9.153835790187504"><ele>161.0</ele><time>2026-05-01T08:44:33.986Z</time></trkpt><trkpt lat="44.961526287661194" lon="9.153762117214228"><ele>159.5</ele><time>2026-05-01T08:44:34.986Z</time></trkpt><trkpt lat="44.96158932356453" lon="9.153693022471806"><ele>158.0</ele><time>2026-05-01T08:44:35.986Z</time></trkpt><trkpt lat="44.96165864550602" lon="9.15362054985177"><ele>158.16666666666666</ele><time>2026-05-01T08:44:36.986Z</time></trkpt><trkpt lat="44.96172241417209" lon="9.153544811286087"><ele>158.33333333333331</ele><time>2026-05-01T08:44:37.986Z</time></trkpt><trkpt lat="44.96179504802417" lon="9.153472037623693"><ele>158.5</ele><time>2026-05-01T08:44:38.986Z</time></trkpt><trkpt lat="44.96186542540077" lon="9.153397386651609"><ele>158.66666666666666</ele><time>2026-05-01T08:44:39.986Z</time></trkpt><trkpt lat="44.96193313310041" lon="9.153324802219739"><ele>158.83333333333334</ele><time>2026-05-01T08:44:40.986Z</time></trkpt><trkpt lat="44.96199589320719" lon="9.153245124175431"><ele>159.0</ele><time>2026-05-01T08:44:41.986Z</time></trkpt><trkpt lat="44.96206314159507" lon="9.15317005281227"><ele>159.0</ele><time>2026-05-01T08:44:42.986Z</time></trkpt><trkpt lat="44.96212432301116" lon="9.153086782664566"><ele>159.0</ele><time>2026-05-01T08:44:43.986Z</time></trkpt><trkpt lat="44.96219389566962" lon="9.15299916367405"><ele>159.0</ele><time>2026-05-01T08:44:44.986Z</time></trkpt><trkpt lat="44.96226061161562" lon="9.152912733862115"><ele>159.0</ele><time>2026-05-01T08:44:45.986Z</time></trkpt><trkpt lat="44.96231816720467" lon="9.152837020977882"><ele>159.0</ele><time>2026-05-01T08:44:46.986Z</time></trkpt><trkpt lat="44.96237155603684" lon="9.152750544934621"><ele>159.0</ele><time>2026-05-01T08:44:47.986Z</time></trkpt><trkpt lat="44.96244145628312" lon="9.152672161787"><ele>159.0</ele><time>2026-05-01T08:44:48.986Z</time></trkpt><trkpt lat="44.962504280151855" lon="9.152587967667019"><ele>159.0</ele><time>2026-05-01T08:44:49.986Z</time></trkpt><trkpt lat="44.96255776484987" lon="9.152511277801636"><ele>159.0</ele><time>2026-05-01T08:44:50.986Z</time></trkpt><trkpt lat="44.96262015969322" lon="9.152443496887129"><ele>159.0</ele><time>2026-05-01T08:44:51.986Z</time></trkpt><trkpt lat="44.96268012529979" lon="9.152376709862123"><ele>159.0</ele><time>2026-05-01T08:44:52.986Z</time></trkpt><trkpt lat="44.96274098199242" lon="9.152307586192084"><ele>159.0</ele><time>2026-05-01T08:44:53.986Z</time></trkpt><trkpt lat="44.96279569023512" lon="9.152231136368203"><ele>158.5</ele><time>2026-05-01T08:44:54.986Z</time></trkpt><trkpt lat="44.96285513101461" lon="9.152149876053494"><ele>158.0</ele><time>2026-05-01T08:44:55.986Z</time></trkpt><trkpt lat="44.96292085235252" lon="9.152063937182762"><ele>157.5</ele><time>2026-05-01T08:44:56.986Z</time></trkpt><trkpt lat="44.962981897620786" lon="9.151973116129799"><ele>157.0</ele><time>2026-05-01T08:44:57.986Z</time></trkpt><trkpt lat="44.9630464713776" lon="9.151882351138665"><ele>156.5</ele><time>2026-05-01T08:44:58.986Z</time></trkpt><trkpt lat="44.96310609610729" lon="9.151785360497481"><ele>156.0</ele><time>2026-05-01T08:44:59.986Z</time></trkpt><trkpt lat="44.96316497576103" lon="9.151681585079944"><ele>156.0</ele><time>2026-05-01T08:45:00.986Z</time></trkpt><trkpt lat="44.963220271066064" lon="9.15158301217683"><ele>156.0</ele><time>2026-05-01T08:45:01.986Z</time></trkpt><trkpt lat="44.963269076136335" lon="9.15148098980297"><ele>156.0</ele><time>2026-05-01T08:45:02.986Z</time></trkpt><trkpt lat="44.96332237565722" lon="9.15138445804183"><ele>156.0</ele><time>2026-05-01T08:45:03.986Z</time></trkpt><trkpt lat="44.96337814677494" lon="9.151293105410486"><ele>156.0</ele><time>2026-05-01T08:45:04.986Z</time></trkpt><trkpt lat="44.96343748918252" lon="9.15120424515891"><ele>156.0</ele><time>2026-05-01T08:45:05.986Z</time></trkpt><trkpt lat="44.96349625919612" lon="9.151118892618415"><ele>155.5</ele><time>2026-05-01T08:45:06.986Z</time></trkpt><trkpt lat="44.963569286308534" lon="9.151049121820941"><ele>155.0</ele><time>2026-05-01T08:45:07.986Z</time></trkpt><trkpt lat="44.963649786651345" lon="9.150988690123343"><ele>154.5</ele><time>2026-05-01T08:45:08.986Z</time></trkpt><trkpt lat="44.963720905341255" lon="9.150942199212546"><ele>154.0</ele><time>2026-05-01T08:45:09.986Z</time></trkpt><trkpt lat="44.963796114103225" lon="9.150895206806123"><ele>153.5</ele><time>2026-05-01T08:45:10.986Z</time></trkpt><trkpt lat="44.963866833827446" lon="9.15085249299498"><ele>153.0</ele><time>2026-05-01T08:45:11.986Z</time></trkpt><trkpt lat="44.963946766686156" lon="9.15083110531561"><ele>153.0</ele><time>2026-05-01T08:45:12.986Z</time></trkpt><trkpt lat="44.96401993579602" lon="9.150799984880168"><ele>153.0</ele><time>2026-05-01T08:45:13.986Z</time></trkpt><trkpt lat="44.96409152560351" lon="9.150781678660696"><ele>153.0</ele><time>2026-05-01T08:45:14.986Z</time></trkpt><trkpt lat="44.964170532567586" lon="9.150784529075812"><ele>153.0</ele><time>2026-05-01T08:45:15.986Z</time></trkpt><trkpt lat="44.964249651586485" lon="9.15076937387598"><ele>153.0</ele><time>2026-05-01T08:45:16.986Z</time></trkpt><trkpt lat="44.964325937121664" lon="9.150733660626344"><ele>153.0</ele><time>2026-05-01T08:45:17.986Z</time></trkpt><trkpt lat="44.96440213848388" lon="9.150690899765305"><ele>153.0</ele><time>2026-05-01T08:45:18.986Z</time></trkpt><trkpt lat="44.96446664289155" lon="9.150632242765257"><ele>153.0</ele><time>2026-05-01T08:45:19.986Z</time></trkpt><trkpt lat="44.964532125869255" lon="9.150561030083146"><ele>153.0</ele><time>2026-05-01T08:45:20.986Z</time></trkpt><trkpt lat="44.96459670573477" lon="9.150497010339095"><ele>153.0</ele><time>2026-05-01T08:45:21.986Z</time></trkpt><trkpt lat="44.96466290727755" lon="9.150427826218008"><ele>153.0</ele><time>2026-05-01T08:45:22.986Z</time></trkpt><trkpt lat="44.964724765743796" lon="9.150338969161671"><ele>153.0</ele><time>2026-05-01T08:45:23.986Z</time></trkpt><trkpt lat="44.96477137377513" lon="9.150251274357222"><ele>153.0</ele><time>2026-05-01T08:45:24.986Z</time></trkpt><trkpt lat="44.964827175329745" lon="9.150174208673295"><ele>153.0</ele><time>2026-05-01T08:45:25.986Z</time></trkpt><trkpt lat="44.96487619547441" lon="9.150104636346287"><ele>153.0</ele><time>2026-05-01T08:45:26.986Z</time></trkpt><trkpt lat="44.964927237004595" lon="9.150030618142246"><ele>153.0</ele><time>2026-05-01T08:45:27.986Z</time></trkpt><trkpt lat="44.96497312995509" lon="9.149958884778032"><ele>153.0</ele><time>2026-05-01T08:45:28.986Z</time></trkpt><trkpt lat="44.965059250180644" lon="9.149836855711289"><ele>153.0</ele><time>2026-05-01T08:45:30.986Z</time></trkpt><trkpt lat="44.96513145357822" lon="9.149690200793069"><ele>151.66666666666666</ele><time>2026-05-01T08:45:32.986Z</time></trkpt><trkpt lat="44.965170862603486" lon="9.149617693384736"><ele>150.33333333333334</ele><time>2026-05-01T08:45:33.986Z</time></trkpt><trkpt lat="44.96522545401397" lon="9.149568596112546"><ele>149.0</ele><time>2026-05-01T08:45:34.986Z</time></trkpt><trkpt lat="44.96528646297477" lon="9.149503541383636"><ele>147.66666666666669</ele><time>2026-05-01T08:45:35.986Z</time></trkpt><trkpt lat="44.965337641279724" lon="9.14943773213697"><ele>146.33333333333334</ele><time>2026-05-01T08:45:36.986Z</time></trkpt><trkpt lat="44.96546492396222" lon="9.149379565379165"><ele>145.0</ele><time>2026-05-01T08:45:38.986Z</time></trkpt><trkpt lat="44.96553346043221" lon="9.149392856067902"><ele>145.0</ele><time>2026-05-01T08:45:39.986Z</time></trkpt><trkpt lat="44.965600161250016" lon="9.149402486440705"><ele>145.0</ele><time>2026-05-01T08:45:41.985Z</time></trkpt><trkpt lat="44.965667841357735" lon="9.14939475874547"><ele>145.0</ele><time>2026-05-01T08:45:43.985Z</time></trkpt><trkpt lat="44.96572406837758" lon="9.149307149077895"><ele>145.0</ele><time>2026-05-01T08:45:45.985Z</time></trkpt><trkpt lat="44.965772262255136" lon="9.149194341410194"><ele>145.0</ele><time>2026-05-01T08:45:47.985Z</time></trkpt><trkpt lat="44.965831339059875" lon="9.149082213290276"><ele>145.0</ele><time>2026-05-01T08:45:49.985Z</time></trkpt><trkpt lat="44.96587425041058" lon="9.148941042235432"><ele>144.0</ele><time>2026-05-01T08:45:51.985Z</time></trkpt><trkpt lat="44.96590961513245" lon="9.148858521873938"><ele>143.0</ele><time>2026-05-01T08:45:52.985Z</time></trkpt><trkpt lat="44.96597186745462" lon="9.1486809697633"><ele>142.0</ele><time>2026-05-01T08:45:54.985Z</time></trkpt><trkpt lat="44.966006584442965" lon="9.14852493127012"><ele>141.0</ele><time>2026-05-01T08:45:55.985Z</time></trkpt><trkpt lat="44.96607370771233" lon="9.14843550010395"><ele>140.0</ele><time>2026-05-01T08:45:56.985Z</time></trkpt><trkpt lat="44.96613252090206" lon="9.148352239269837"><ele>140.0</ele><time>2026-05-01T08:45:57.985Z</time></trkpt><trkpt lat="44.966173046341936" lon="9.148269736137493"><ele>140.0</ele><time>2026-05-01T08:45:58.985Z</time></trkpt><trkpt lat="44.966205158807846" lon="9.148185549591968"><ele>140.0</ele><time>2026-05-01T08:45:59.985Z</time></trkpt><trkpt lat="44.96624074262618" lon="9.1481083315363"><ele>140.0</ele><time>2026-05-01T08:46:00.985Z</time></trkpt><trkpt lat="44.96628476571557" lon="9.148004802576766"><ele>140.0</ele><time>2026-05-01T08:46:02.985Z</time></trkpt><trkpt lat="44.96628660915858" lon="9.147905432598451"><ele>140.0</ele><time>2026-05-01T08:46:04.985Z</time></trkpt><trkpt lat="44.96634614375946" lon="9.14781791626292"><ele>140.0</ele><time>2026-05-01T08:46:06.985Z</time></trkpt><trkpt lat="44.96640774770389" lon="9.147752019759693"><ele>139.66666666666666</ele><time>2026-05-01T08:46:08.985Z</time></trkpt><trkpt lat="44.96648197802609" lon="9.147709000809952"><ele>139.33333333333331</ele><time>2026-05-01T08:46:10.986Z</time></trkpt><trkpt lat="44.96654366622534" lon="9.147680393425249"><ele>139.0</ele><time>2026-05-01T08:46:12.986Z</time></trkpt><trkpt lat="44.966619654062484" lon="9.14770879944549"><ele>138.66666666666666</ele><time>2026-05-01T08:46:14.986Z</time></trkpt><trkpt lat="44.966705066635775" lon="9.147756703056908"><ele>138.33333333333334</ele><time>2026-05-01T08:46:16.985Z</time></trkpt><trkpt lat="44.96673305966725" lon="9.147853919524824"><ele>138.0</ele><time>2026-05-01T08:46:29.986Z</time></trkpt><trkpt lat="44.96679684407064" lon="9.147878644272645"><ele>134.0</ele><time>2026-05-01T08:46:37.986Z</time></trkpt><trkpt lat="44.96688649487302" lon="9.147907300201588"><ele>134.0</ele><time>2026-05-01T08:46:55.985Z</time></trkpt></trkseg></trk></gpx>